<?xml version='1.0' encoding='UTF-8'?><gpx version="1.1" creator="JPX - https://github.com/jenetics/jpx" xmlns="http://www.topografix.com/GPX/1/1"><trk><trkseg><trkpt lat="48.8171029" lon="4.3643593"><ele>118.0</ele><time>2026-05-01T10:04:18.014Z</time></trkpt><trkpt lat="48.8170774" lon="4.3644513"><ele>118.00000000000001</ele><time>2026-05-01T10:09:56.016Z</time></trkpt><trkpt lat="48.8170151" lon="4.3645272"><ele>118.00000000000001</ele><time>2026-05-01T10:11:54.017Z</time></trkpt><trkpt lat="48.8169198" lon="4.3645722"><ele>118.0</ele><time>2026-05-01T10:11:56.014Z</time></trkpt><trkpt lat="48.8167856" lon="4.3646212"><ele>118.0</ele><time>2026-05-01T10:11:58.021Z</time></trkpt><trkpt lat="48.8167037" lon="4.3646561"><ele>117.4</ele><time>2026-05-01T10:11:59.023Z</time></trkpt><trkpt lat="48.816608" lon="4.3646988"><ele>116.80000000000001</ele><time>2026-05-01T10:12:00.02Z</time></trkpt><trkpt lat="48.8165177" lon="4.3647472"><ele>116.2</ele><time>2026-05-01T10:12:01.015Z</time></trkpt><trkpt lat="48.8164196" lon="4.3648001"><ele>115.6</ele><time>2026-05-01T10:12:02.015Z</time></trkpt><trkpt lat="48.8163174" lon="4.3648471"><ele>115.0</ele><time>2026-05-01T10:12:03.018Z</time></trkpt><trkpt lat="48.8162108" lon="4.3648983"><ele>115.0</ele><time>2026-05-01T10:12:04.018Z</time></trkpt><trkpt lat="48.81609" lon="4.3649545"><ele>115.0</ele><time>2026-05-01T10:12:05.016Z</time></trkpt><trkpt lat="48.8159682" lon="4.3650212"><ele>115.0</ele><time>2026-05-01T10:12:06.02Z</time></trkpt><trkpt lat="48.815846" lon="4.3651001"><ele>115.0</ele><time>2026-05-01T10:12:07.032Z</time></trkpt><trkpt lat="48.8157121" lon="4.3651797"><ele>116.33333333333334</ele><time>2026-05-01T10:12:08.013Z</time></trkpt><trkpt lat="48.8155777" lon="4.3652575"><ele>117.66666666666666</ele><time>2026-05-01T10:12:09.016Z</time></trkpt><trkpt lat="48.8154325" lon="4.3653351"><ele>119.0</ele><time>2026-05-01T10:12:10.022Z</time></trkpt><trkpt lat="48.8152785" lon="4.3654164"><ele>119.33333333333333</ele><time>2026-05-01T10:12:11.02Z</time></trkpt><trkpt lat="48.8151275" lon="4.3654999"><ele>119.66666666666666</ele><time>2026-05-01T10:12:12.016Z</time></trkpt><trkpt lat="48.8149727" lon="4.3655878"><ele>120.0</ele><time>2026-05-01T10:12:13.017Z</time></trkpt><trkpt lat="48.8148177" lon="4.3656833"><ele>120.0</ele><time>2026-05-01T10:12:14.017Z</time></trkpt><trkpt lat="48.8146616" lon="4.3657914"><ele>120.0</ele><time>2026-05-01T10:12:15.013Z</time></trkpt><trkpt lat="48.8145034" lon="4.3659115"><ele>120.0</ele><time>2026-05-01T10:12:16.024Z</time></trkpt><trkpt lat="48.814345" lon="4.3660485"><ele>120.0</ele><time>2026-05-01T10:12:17.016Z</time></trkpt><trkpt lat="48.8141857" lon="4.3662049"><ele>120.0</ele><time>2026-05-01T10:12:18.052Z</time></trkpt><trkpt lat="48.814035" lon="4.3663867"><ele>120.0</ele><time>2026-05-01T10:12:19.019Z</time></trkpt><trkpt lat="48.8138912" lon="4.3665873"><ele>120.0</ele><time>2026-05-01T10:12:20.027Z</time></trkpt><trkpt lat="48.8137609" lon="4.3668104"><ele>120.0</ele><time>2026-05-01T10:12:21.015Z</time></trkpt><trkpt lat="48.8136282" lon="4.3670348"><ele>120.0</ele><time>2026-05-01T10:12:22.018Z</time></trkpt><trkpt lat="48.8134924" lon="4.3672515"><ele>120.66666666666666</ele><time>2026-05-01T10:12:23.016Z</time></trkpt><trkpt lat="48.8133567" lon="4.3674744"><ele>121.33333333333333</ele><time>2026-05-01T10:12:24.023Z</time></trkpt><trkpt lat="48.8132176" lon="4.3677064"><ele>122.0</ele><time>2026-05-01T10:12:25.022Z</time></trkpt><trkpt lat="48.8130724" lon="4.3679426"><ele>122.33333333333333</ele><time>2026-05-01T10:12:26.013Z</time></trkpt><trkpt lat="48.8129257" lon="4.3681754"><ele>122.66666666666666</ele><time>2026-05-01T10:12:27.029Z</time></trkpt><trkpt lat="48.8127761" lon="4.3684072"><ele>123.0</ele><time>2026-05-01T10:12:28.019Z</time></trkpt><trkpt lat="48.812627" lon="4.3686368"><ele>123.0</ele><time>2026-05-01T10:12:29.021Z</time></trkpt><trkpt lat="48.8124634" lon="4.3688474"><ele>123.0</ele><time>2026-05-01T10:12:30.018Z</time></trkpt><trkpt lat="48.8122844" lon="4.3690377"><ele>123.0</ele><time>2026-05-01T10:12:31.017Z</time></trkpt><trkpt lat="48.8120985" lon="4.3692061"><ele>122.66666666666666</ele><time>2026-05-01T10:12:32.019Z</time></trkpt><trkpt lat="48.8119078" lon="4.3693681"><ele>122.33333333333333</ele><time>2026-05-01T10:12:33.016Z</time></trkpt><trkpt lat="48.8117172" lon="4.3695307"><ele>122.0</ele><time>2026-05-01T10:12:34.02Z</time></trkpt><trkpt lat="48.8115216" lon="4.3696879"><ele>121.0</ele><time>2026-05-01T10:12:35.024Z</time></trkpt><trkpt lat="48.8113254" lon="4.369856"><ele>120.0</ele><time>2026-05-01T10:12:36.016Z</time></trkpt><trkpt lat="48.811129" lon="4.3700196"><ele>119.0</ele><time>2026-05-01T10:12:37.014Z</time></trkpt><trkpt lat="48.8109355" lon="4.3701834"><ele>119.0</ele><time>2026-05-01T10:12:38.018Z</time></trkpt><trkpt lat="48.8107467" lon="4.3703544"><ele>119.0</ele><time>2026-05-01T10:12:39.013Z</time></trkpt><trkpt lat="48.8105556" lon="4.3705241"><ele>119.0</ele><time>2026-05-01T10:12:40.011Z</time></trkpt><trkpt lat="48.8103635" lon="4.3706893"><ele>118.66666666666666</ele><time>2026-05-01T10:12:41.012Z</time></trkpt><trkpt lat="48.8101717" lon="4.3708522"><ele>118.33333333333334</ele><time>2026-05-01T10:12:42.013Z</time></trkpt><trkpt lat="48.8099836" lon="4.3710181"><ele>118.0</ele><time>2026-05-01T10:12:43.018Z</time></trkpt><trkpt lat="48.8097872" lon="4.3711887"><ele>116.5</ele><time>2026-05-01T10:12:44.014Z</time></trkpt><trkpt lat="48.8095948" lon="4.3713648"><ele>115.0</ele><time>2026-05-01T10:12:45.027Z</time></trkpt><trkpt lat="48.8094072" lon="4.3715596"><ele>118.0</ele><time>2026-05-01T10:12:46.023Z</time></trkpt><trkpt lat="48.8092245" lon="4.3717633"><ele>121.0</ele><time>2026-05-01T10:12:47.02Z</time></trkpt><trkpt lat="48.8090419" lon="4.3719651"><ele>121.0</ele><time>2026-05-01T10:12:48.015Z</time></trkpt><trkpt lat="48.8088571" lon="4.3721544"><ele>121.0</ele><time>2026-05-01T10:12:49.019Z</time></trkpt><trkpt lat="48.8086718" lon="4.372341"><ele>121.0</ele><time>2026-05-01T10:12:50.019Z</time></trkpt><trkpt lat="48.8084843" lon="4.3725202"><ele>120.66666666666667</ele><time>2026-05-01T10:12:51.012Z</time></trkpt><trkpt lat="48.8082913" lon="4.3726886"><ele>120.33333333333334</ele><time>2026-05-01T10:12:52.017Z</time></trkpt><trkpt lat="48.8080906" lon="4.3728474"><ele>120.0</ele><time>2026-05-01T10:12:53.015Z</time></trkpt><trkpt lat="48.8078954" lon="4.3729999"><ele>120.0</ele><time>2026-05-01T10:12:54.028Z</time></trkpt><trkpt lat="48.8076934" lon="4.3731497"><ele>120.0</ele><time>2026-05-01T10:12:55.012Z</time></trkpt><trkpt lat="48.8074929" lon="4.3732888"><ele>120.0</ele><time>2026-05-01T10:12:56.02Z</time></trkpt><trkpt lat="48.8072912" lon="4.3734137"><ele>120.0</ele><time>2026-05-01T10:12:57.019Z</time></trkpt><trkpt lat="48.8070837" lon="4.3735218"><ele>120.0</ele><time>2026-05-01T10:12:58.02Z</time></trkpt><trkpt lat="48.8068748" lon="4.3736072"><ele>120.0</ele><time>2026-05-01T10:12:59.048Z</time></trkpt><trkpt lat="48.8066584" lon="4.3736827"><ele>120.0</ele><time>2026-05-01T10:13:00.018Z</time></trkpt><trkpt lat="48.8064457" lon="4.3737492"><ele>120.0</ele><time>2026-05-01T10:13:01.019Z</time></trkpt><trkpt lat="48.806227" lon="4.3738098"><ele>120.0</ele><time>2026-05-01T10:13:02.019Z</time></trkpt><trkpt lat="48.8060146" lon="4.3738714"><ele>120.33333333333334</ele><time>2026-05-01T10:13:03.027Z</time></trkpt><trkpt lat="48.8057961" lon="4.3739486"><ele>120.66666666666667</ele><time>2026-05-01T10:13:04.015Z</time></trkpt><trkpt lat="48.8055825" lon="4.3740381"><ele>121.0</ele><time>2026-05-01T10:13:05.014Z</time></trkpt><trkpt lat="48.8053764" lon="4.3741391"><ele>121.0</ele><time>2026-05-01T10:13:06.017Z</time></trkpt><trkpt lat="48.8051731" lon="4.3742605"><ele>121.0</ele><time>2026-05-01T10:13:07.013Z</time></trkpt><trkpt lat="48.8049729" lon="4.3744004"><ele>121.0</ele><time>2026-05-01T10:13:08.031Z</time></trkpt><trkpt lat="48.8047755" lon="4.3745431"><ele>121.0</ele><time>2026-05-01T10:13:09.027Z</time></trkpt><trkpt lat="48.804577" lon="4.3746792"><ele>121.0</ele><time>2026-05-01T10:13:10.017Z</time></trkpt><trkpt lat="48.8043833" lon="4.3748199"><ele>121.0</ele><time>2026-05-01T10:13:11.016Z</time></trkpt><trkpt lat="48.8041856" lon="4.3749532"><ele>121.0</ele><time>2026-05-01T10:13:12.022Z</time></trkpt><trkpt lat="48.8039913" lon="4.3750907"><ele>121.0</ele><time>2026-05-01T10:13:13.015Z</time></trkpt><trkpt lat="48.8037984" lon="4.375232"><ele>121.0</ele><time>2026-05-01T10:13:14.018Z</time></trkpt><trkpt lat="48.8036027" lon="4.3753783"><ele>120.33333333333334</ele><time>2026-05-01T10:13:15.013Z</time></trkpt><trkpt lat="48.803415" lon="4.3755504"><ele>119.66666666666666</ele><time>2026-05-01T10:13:16.012Z</time></trkpt><trkpt lat="48.8032454" lon="4.3757606"><ele>119.0</ele><time>2026-05-01T10:13:17.015Z</time></trkpt><trkpt lat="48.8030926" lon="4.3759981"><ele>119.0</ele><time>2026-05-01T10:13:18.016Z</time></trkpt><trkpt lat="48.8029534" lon="4.3762458"><ele>119.0</ele><time>2026-05-01T10:13:19.018Z</time></trkpt><trkpt lat="48.802822" lon="4.3765123"><ele>119.0</ele><time>2026-05-01T10:13:20.018Z</time></trkpt><trkpt lat="48.8026828" lon="4.3767557"><ele>120.66666666666666</ele><time>2026-05-01T10:13:21.016Z</time></trkpt><trkpt lat="48.8025308" lon="4.3769734"><ele>122.33333333333334</ele><time>2026-05-01T10:13:22.014Z</time></trkpt><trkpt lat="48.8023713" lon="4.3771716"><ele>124.0</ele><time>2026-05-01T10:13:23.018Z</time></trkpt><trkpt lat="48.8021943" lon="4.3773482"><ele>124.0</ele><time>2026-05-01T10:13:24.015Z</time></trkpt><trkpt lat="48.802005" lon="4.3774986"><ele>124.0</ele><time>2026-05-01T10:13:25.028Z</time></trkpt><trkpt lat="48.8018129" lon="4.3776336"><ele>124.0</ele><time>2026-05-01T10:13:26.016Z</time></trkpt><trkpt lat="48.8016162" lon="4.3777602"><ele>124.0</ele><time>2026-05-01T10:13:27.016Z</time></trkpt><trkpt lat="48.8014168" lon="4.3778845"><ele>124.0</ele><time>2026-05-01T10:13:28.032Z</time></trkpt><trkpt lat="48.801215" lon="4.3780085"><ele>124.0</ele><time>2026-05-01T10:13:29.013Z</time></trkpt><trkpt lat="48.8010154" lon="4.3781395"><ele>124.33333333333334</ele><time>2026-05-01T10:13:30.022Z</time></trkpt><trkpt lat="48.8008176" lon="4.3782718"><ele>124.66666666666666</ele><time>2026-05-01T10:13:31.028Z</time></trkpt><trkpt lat="48.8006209" lon="4.378399"><ele>125.0</ele><time>2026-05-01T10:13:32.015Z</time></trkpt><trkpt lat="48.8004249" lon="4.3785205"><ele>125.0</ele><time>2026-05-01T10:13:33.021Z</time></trkpt><trkpt lat="48.8002261" lon="4.3786429"><ele>125.0</ele><time>2026-05-01T10:13:34.017Z</time></trkpt><trkpt lat="48.8000268" lon="4.3787646"><ele>125.0</ele><time>2026-05-01T10:13:35.023Z</time></trkpt><trkpt lat="48.7998342" lon="4.3788885"><ele>125.0</ele><time>2026-05-01T10:13:36.017Z</time></trkpt><trkpt lat="48.7996387" lon="4.3790062"><ele>125.0</ele><time>2026-05-01T10:13:37.017Z</time></trkpt><trkpt lat="48.7994489" lon="4.3791147"><ele>125.0</ele><time>2026-05-01T10:13:38.013Z</time></trkpt><trkpt lat="48.7992752" lon="4.3792191"><ele>126.33333333333333</ele><time>2026-05-01T10:13:39.017Z</time></trkpt><trkpt lat="48.7991124" lon="4.3793273"><ele>127.66666666666666</ele><time>2026-05-01T10:13:40.011Z</time></trkpt><trkpt lat="48.79896" lon="4.3794541"><ele>129.0</ele><time>2026-05-01T10:13:41.016Z</time></trkpt><trkpt lat="48.7988213" lon="4.3796038"><ele>128.0</ele><time>2026-05-01T10:13:42.017Z</time></trkpt><trkpt lat="48.798694" lon="4.3797555"><ele>127.0</ele><time>2026-05-01T10:13:43.014Z</time></trkpt><trkpt lat="48.7985681" lon="4.3799057"><ele>126.0</ele><time>2026-05-01T10:13:44.015Z</time></trkpt><trkpt lat="48.7984464" lon="4.3800433"><ele>125.5</ele><time>2026-05-01T10:13:45.015Z</time></trkpt><trkpt lat="48.7983266" lon="4.3801616"><ele>125.0</ele><time>2026-05-01T10:13:46.008Z</time></trkpt><trkpt lat="48.7982101" lon="4.3802489"><ele>124.5</ele><time>2026-05-01T10:13:47.014Z</time></trkpt><trkpt lat="48.7980928" lon="4.3803311"><ele>124.0</ele><time>2026-05-01T10:13:48.01Z</time></trkpt><trkpt lat="48.7979718" lon="4.3804041"><ele>124.0</ele><time>2026-05-01T10:13:49.025Z</time></trkpt><trkpt lat="48.797855" lon="4.380459"><ele>124.0</ele><time>2026-05-01T10:13:50.012Z</time></trkpt><trkpt lat="48.7977344" lon="4.3805139"><ele>124.0</ele><time>2026-05-01T10:13:51.018Z</time></trkpt><trkpt lat="48.7976166" lon="4.3805714"><ele>124.0</ele><time>2026-05-01T10:13:52.018Z</time></trkpt><trkpt lat="48.7974996" lon="4.3806382"><ele>123.6</ele><time>2026-05-01T10:13:53.015Z</time></trkpt><trkpt lat="48.7973903" lon="4.3807009"><ele>123.2</ele><time>2026-05-01T10:13:54.019Z</time></trkpt><trkpt lat="48.7972948" lon="4.380768"><ele>122.79999999999998</ele><time>2026-05-01T10:13:55.019Z</time></trkpt><trkpt lat="48.7972131" lon="4.3808371"><ele>122.39999999999999</ele><time>2026-05-01T10:13:56.017Z</time></trkpt><trkpt lat="48.7971425" lon="4.3808936"><ele>122.0</ele><time>2026-05-01T10:13:57.017Z</time></trkpt><trkpt lat="48.7970793" lon="4.3809449"><ele>122.0</ele><time>2026-05-01T10:13:58.023Z</time></trkpt><trkpt lat="48.7970278" lon="4.3810084"><ele>121.99999999999999</ele><time>2026-05-01T10:13:59.021Z</time></trkpt><trkpt lat="48.7969923" lon="4.3812096"><ele>121.99999999999999</ele><time>2026-05-01T10:14:01.024Z</time></trkpt><trkpt lat="48.7969895" lon="4.3813464"><ele>122.0</ele><time>2026-05-01T10:14:02.013Z</time></trkpt><trkpt lat="48.7969947" lon="4.3815104"><ele>122.0</ele><time>2026-05-01T10:14:03.024Z</time></trkpt><trkpt lat="48.7970137" lon="4.3816744"><ele>122.0</ele><time>2026-05-01T10:14:04.021Z</time></trkpt><trkpt lat="48.7970553" lon="4.3818382"><ele>122.0</ele><time>2026-05-01T10:14:05.013Z</time></trkpt><trkpt lat="48.7971491" lon="4.3821958"><ele>122.0</ele><time>2026-05-01T10:14:07.012Z</time></trkpt><trkpt lat="48.7971907" lon="4.3823877"><ele>122.75</ele><time>2026-05-01T10:14:08.014Z</time></trkpt><trkpt lat="48.7972251" lon="4.3825846"><ele>123.5</ele><time>2026-05-01T10:14:09.008Z</time></trkpt><trkpt lat="48.7972601" lon="4.3827793"><ele>124.25</ele><time>2026-05-01T10:14:10.018Z</time></trkpt><trkpt lat="48.7972925" lon="4.3829773"><ele>125.0</ele><time>2026-05-01T10:14:11.01Z</time></trkpt><trkpt lat="48.7973255" lon="4.3831717"><ele>125.25</ele><time>2026-05-01T10:14:12.019Z</time></trkpt><trkpt lat="48.797359" lon="4.3833627"><ele>125.5</ele><time>2026-05-01T10:14:13.014Z</time></trkpt><trkpt lat="48.7973947" lon="4.3835404"><ele>125.75</ele><time>2026-05-01T10:14:14.025Z</time></trkpt><trkpt lat="48.7974248" lon="4.3837171"><ele>126.0</ele><time>2026-05-01T10:14:15.009Z</time></trkpt><trkpt lat="48.7974629" lon="4.3840109"><ele>126.16666666666667</ele><time>2026-05-01T10:14:17.016Z</time></trkpt><trkpt lat="48.797472" lon="4.3841255"><ele>126.33333333333334</ele><time>2026-05-01T10:14:18.019Z</time></trkpt><trkpt lat="48.7974726" lon="4.3842278"><ele>126.5</ele><time>2026-05-01T10:14:19.014Z</time></trkpt><trkpt lat="48.7974484" lon="4.3843954"><ele>126.66666666666667</ele><time>2026-05-01T10:14:21.014Z</time></trkpt><trkpt lat="48.7975321" lon="4.3845129"><ele>126.83333333333334</ele><time>2026-05-01T10:14:23.014Z</time></trkpt><trkpt lat="48.7975926" lon="4.3845841"><ele>127.0</ele><time>2026-05-01T10:14:24.011Z</time></trkpt><trkpt lat="48.7976518" lon="4.3846838"><ele>127.0</ele><time>2026-05-01T10:14:25.027Z</time></trkpt><trkpt lat="48.7977224" lon="4.384793"><ele>127.0</ele><time>2026-05-01T10:14:26.018Z</time></trkpt><trkpt lat="48.7978014" lon="4.3849352"><ele>127.0</ele><time>2026-05-01T10:14:27.013Z</time></trkpt><trkpt lat="48.7978849" lon="4.385094"><ele>127.0</ele><time>2026-05-01T10:14:28.014Z</time></trkpt><trkpt lat="48.7979733" lon="4.3852709"><ele>127.0</ele><time>2026-05-01T10:14:29.017Z</time></trkpt><trkpt lat="48.7980613" lon="4.3854702"><ele>127.0</ele><time>2026-05-01T10:14:30.018Z</time></trkpt><trkpt lat="48.7981449" lon="4.3856751"><ele>127.0</ele><time>2026-05-01T10:14:31.015Z</time></trkpt><trkpt lat="48.7982209" lon="4.3858899"><ele>127.0</ele><time>2026-05-01T10:14:32.03Z</time></trkpt><trkpt lat="48.7982918" lon="4.3861123"><ele>127.0</ele><time>2026-05-01T10:14:33.014Z</time></trkpt><trkpt lat="48.7983418" lon="4.3863445"><ele>127.0</ele><time>2026-05-01T10:14:34.016Z</time></trkpt><trkpt lat="48.7983778" lon="4.3865804"><ele>127.0</ele><time>2026-05-01T10:14:35.017Z</time></trkpt><trkpt lat="48.7984062" lon="4.3868191"><ele>127.0</ele><time>2026-05-01T10:14:36.022Z</time></trkpt><trkpt lat="48.7984385" lon="4.3870631"><ele>127.0</ele><time>2026-05-01T10:14:37.025Z</time></trkpt><trkpt lat="48.7984936" lon="4.3872947"><ele>130.0</ele><time>2026-05-01T10:14:38.02Z</time></trkpt><trkpt lat="48.798581" lon="4.387512"><ele>133.0</ele><time>2026-05-01T10:14:39.023Z</time></trkpt><trkpt lat="48.7986936" lon="4.3877234"><ele>136.0</ele><time>2026-05-01T10:14:40.019Z</time></trkpt><trkpt lat="48.7988128" lon="4.3879261"><ele>137.0</ele><time>2026-05-01T10:14:41.016Z</time></trkpt><trkpt lat="48.7989472" lon="4.38812"><ele>138.0</ele><time>2026-05-01T10:14:42.028Z</time></trkpt><trkpt lat="48.7990781" lon="4.3883267"><ele>139.0</ele><time>2026-05-01T10:14:43.011Z</time></trkpt><trkpt lat="48.7992171" lon="4.3885476"><ele>140.66666666666669</ele><time>2026-05-01T10:14:44.022Z</time></trkpt><trkpt lat="48.7993557" lon="4.3887777"><ele>142.33333333333334</ele><time>2026-05-01T10:14:45.015Z</time></trkpt><trkpt lat="48.799494" lon="4.3890066"><ele>144.0</ele><time>2026-05-01T10:14:46.014Z</time></trkpt><trkpt lat="48.799634" lon="4.389232"><ele>144.33333333333334</ele><time>2026-05-01T10:14:47.01Z</time></trkpt><trkpt lat="48.7997743" lon="4.3894555"><ele>144.66666666666669</ele><time>2026-05-01T10:14:48.022Z</time></trkpt><trkpt lat="48.7999161" lon="4.3896762"><ele>145.0</ele><time>2026-05-01T10:14:49.012Z</time></trkpt><trkpt lat="48.8000644" lon="4.3898971"><ele>147.0</ele><time>2026-05-01T10:14:50.011Z</time></trkpt><trkpt lat="48.8002097" lon="4.3901155"><ele>149.0</ele><time>2026-05-01T10:14:51.014Z</time></trkpt><trkpt lat="48.8003542" lon="4.3903388"><ele>151.0</ele><time>2026-05-01T10:14:52.024Z</time></trkpt><trkpt lat="48.8004913" lon="4.3905636"><ele>151.66666666666669</ele><time>2026-05-01T10:14:53.012Z</time></trkpt><trkpt lat="48.8006221" lon="4.3907995"><ele>152.33333333333334</ele><time>2026-05-01T10:14:54.018Z</time></trkpt><trkpt lat="48.8007542" lon="4.3910334"><ele>153.0</ele><time>2026-05-01T10:14:55.016Z</time></trkpt><trkpt lat="48.8008829" lon="4.3912559"><ele>153.66666666666666</ele><time>2026-05-01T10:14:56.017Z</time></trkpt><trkpt lat="48.8010248" lon="4.3914489"><ele>154.33333333333331</ele><time>2026-05-01T10:14:57.018Z</time></trkpt><trkpt lat="48.8011869" lon="4.3916043"><ele>155.0</ele><time>2026-05-01T10:14:58.013Z</time></trkpt><trkpt lat="48.8013756" lon="4.3917105"><ele>155.0</ele><time>2026-05-01T10:14:59.025Z</time></trkpt><trkpt lat="48.8015677" lon="4.3917884"><ele>155.0</ele><time>2026-05-01T10:15:00.017Z</time></trkpt><trkpt lat="48.8017654" lon="4.3918553"><ele>155.0</ele><time>2026-05-01T10:15:01.025Z</time></trkpt><trkpt lat="48.8019673" lon="4.391922"><ele>157.0</ele><time>2026-05-01T10:15:02.018Z</time></trkpt><trkpt lat="48.8021683" lon="4.3919961"><ele>159.0</ele><time>2026-05-01T10:15:03.021Z</time></trkpt><trkpt lat="48.8023749" lon="4.3920717"><ele>161.0</ele><time>2026-05-01T10:15:04.016Z</time></trkpt><trkpt lat="48.8025896" lon="4.3921548"><ele>161.66666666666666</ele><time>2026-05-01T10:15:05.014Z</time></trkpt><trkpt lat="48.8028033" lon="4.392233"><ele>162.33333333333334</ele><time>2026-05-01T10:15:06.023Z</time></trkpt><trkpt lat="48.8030215" lon="4.3923088"><ele>163.0</ele><time>2026-05-01T10:15:07.015Z</time></trkpt><trkpt lat="48.8032481" lon="4.3923955"><ele>163.0</ele><time>2026-05-01T10:15:08.015Z</time></trkpt><trkpt lat="48.8034748" lon="4.3924799"><ele>163.0</ele><time>2026-05-01T10:15:09.025Z</time></trkpt><trkpt lat="48.8037012" lon="4.3925638"><ele>161.5</ele><time>2026-05-01T10:15:10.012Z</time></trkpt><trkpt lat="48.8039292" lon="4.3926602"><ele>160.0</ele><time>2026-05-01T10:15:11.018Z</time></trkpt><trkpt lat="48.8041444" lon="4.3928023"><ele>159.0</ele><time>2026-05-01T10:15:12.024Z</time></trkpt><trkpt lat="48.8043737" lon="4.3928849"><ele>158.0</ele><time>2026-05-01T10:15:13.015Z</time></trkpt><trkpt lat="48.8046132" lon="4.3929528"><ele>157.5</ele><time>2026-05-01T10:15:14.015Z</time></trkpt><trkpt lat="48.8048492" lon="4.3930221"><ele>157.0</ele><time>2026-05-01T10:15:15.014Z</time></trkpt><trkpt lat="48.8050846" lon="4.3930953"><ele>154.5</ele><time>2026-05-01T10:15:16.019Z</time></trkpt><trkpt lat="48.80532" lon="4.3931684"><ele>152.0</ele><time>2026-05-01T10:15:17.023Z</time></trkpt><trkpt lat="48.8055599" lon="4.3932531"><ele>152.0</ele><time>2026-05-01T10:15:18.013Z</time></trkpt><trkpt lat="48.8057991" lon="4.3933357"><ele>152.0</ele><time>2026-05-01T10:15:19.014Z</time></trkpt><trkpt lat="48.8060375" lon="4.3934138"><ele>151.5</ele><time>2026-05-01T10:15:20.012Z</time></trkpt><trkpt lat="48.8062703" lon="4.3934906"><ele>151.0</ele><time>2026-05-01T10:15:21.022Z</time></trkpt><trkpt lat="48.8065062" lon="4.3935677"><ele>151.0</ele><time>2026-05-01T10:15:22.036Z</time></trkpt><trkpt lat="48.8067395" lon="4.3936524"><ele>151.0</ele><time>2026-05-01T10:15:23.016Z</time></trkpt><trkpt lat="48.8069716" lon="4.3937313"><ele>151.5</ele><time>2026-05-01T10:15:24.021Z</time></trkpt><trkpt lat="48.8072029" lon="4.3938135"><ele>152.0</ele><time>2026-05-01T10:15:25.016Z</time></trkpt><trkpt lat="48.8074319" lon="4.3938944"><ele>151.0</ele><time>2026-05-01T10:15:26.017Z</time></trkpt><trkpt lat="48.8076579" lon="4.3939791"><ele>150.0</ele><time>2026-05-01T10:15:27.015Z</time></trkpt><trkpt lat="48.8078847" lon="4.3940618"><ele>150.0</ele><time>2026-05-01T10:15:28.024Z</time></trkpt><trkpt lat="48.8081129" lon="4.394142"><ele>150.0</ele><time>2026-05-01T10:15:29.013Z</time></trkpt><trkpt lat="48.8083385" lon="4.394224"><ele>150.0</ele><time>2026-05-01T10:15:30.019Z</time></trkpt><trkpt lat="48.8085668" lon="4.3943068"><ele>150.0</ele><time>2026-05-01T10:15:31.013Z</time></trkpt><trkpt lat="48.8087942" lon="4.3943935"><ele>150.0</ele><time>2026-05-01T10:15:32.015Z</time></trkpt><trkpt lat="48.8090226" lon="4.39448"><ele>150.0</ele><time>2026-05-01T10:15:33.022Z</time></trkpt><trkpt lat="48.8092512" lon="4.3945639"><ele>149.0</ele><time>2026-05-01T10:15:34.008Z</time></trkpt><trkpt lat="48.8094772" lon="4.3946443"><ele>148.0</ele><time>2026-05-01T10:15:35.016Z</time></trkpt><trkpt lat="48.8097066" lon="4.3947241"><ele>147.5</ele><time>2026-05-01T10:15:36.022Z</time></trkpt><trkpt lat="48.8099353" lon="4.3948146"><ele>147.0</ele><time>2026-05-01T10:15:37.022Z</time></trkpt><trkpt lat="48.8101604" lon="4.394926"><ele>147.0</ele><time>2026-05-01T10:15:38.018Z</time></trkpt><trkpt lat="48.810374" lon="4.3950632"><ele>147.0</ele><time>2026-05-01T10:15:39.011Z</time></trkpt><trkpt lat="48.8105872" lon="4.3952149"><ele>147.0</ele><time>2026-05-01T10:15:40.018Z</time></trkpt><trkpt lat="48.810799" lon="4.3953708"><ele>147.0</ele><time>2026-05-01T10:15:41.016Z</time></trkpt><trkpt lat="48.8110144" lon="4.3955274"><ele>145.5</ele><time>2026-05-01T10:15:42.026Z</time></trkpt><trkpt lat="48.8112228" lon="4.3956885"><ele>144.0</ele><time>2026-05-01T10:15:43.011Z</time></trkpt><trkpt lat="48.8114357" lon="4.3958452"><ele>144.0</ele><time>2026-05-01T10:15:44.012Z</time></trkpt><trkpt lat="48.8116426" lon="4.3960085"><ele>144.0</ele><time>2026-05-01T10:15:45.017Z</time></trkpt><trkpt lat="48.8118498" lon="4.3961645"><ele>144.5</ele><time>2026-05-01T10:15:46.021Z</time></trkpt><trkpt lat="48.8120564" lon="4.3963194"><ele>145.0</ele><time>2026-05-01T10:15:47.015Z</time></trkpt><trkpt lat="48.8122646" lon="4.3964697"><ele>145.0</ele><time>2026-05-01T10:15:48.018Z</time></trkpt><trkpt lat="48.8124707" lon="4.3966188"><ele>145.0</ele><time>2026-05-01T10:15:49.019Z</time></trkpt><trkpt lat="48.8126762" lon="4.3967718"><ele>145.0</ele><time>2026-05-01T10:15:50.017Z</time></trkpt><trkpt lat="48.8128817" lon="4.3969245"><ele>145.0</ele><time>2026-05-01T10:15:51.016Z</time></trkpt><trkpt lat="48.8130869" lon="4.3970817"><ele>145.0</ele><time>2026-05-01T10:15:52.014Z</time></trkpt><trkpt lat="48.8132886" lon="4.3972349"><ele>145.0</ele><time>2026-05-01T10:15:53.017Z</time></trkpt><trkpt lat="48.8134961" lon="4.3973872"><ele>145.0</ele><time>2026-05-01T10:15:54.017Z</time></trkpt><trkpt lat="48.8137024" lon="4.3975404"><ele>145.0</ele><time>2026-05-01T10:15:55.018Z</time></trkpt><trkpt lat="48.8139075" lon="4.3976928"><ele>145.0</ele><time>2026-05-01T10:15:56.012Z</time></trkpt><trkpt lat="48.8141121" lon="4.3978511"><ele>145.0</ele><time>2026-05-01T10:15:57.016Z</time></trkpt><trkpt lat="48.8143055" lon="4.3980273"><ele>145.0</ele><time>2026-05-01T10:15:58.046Z</time></trkpt><trkpt lat="48.8144701" lon="4.3982381"><ele>145.0</ele><time>2026-05-01T10:15:59.01Z</time></trkpt><trkpt lat="48.8146093" lon="4.3984904"><ele>145.0</ele><time>2026-05-01T10:16:00.017Z</time></trkpt><trkpt lat="48.8147244" lon="4.3987588"><ele>142.5</ele><time>2026-05-01T10:16:01.013Z</time></trkpt><trkpt lat="48.8148341" lon="4.3990598"><ele>140.0</ele><time>2026-05-01T10:16:02.012Z</time></trkpt><trkpt lat="48.8149296" lon="4.3993722"><ele>138.5</ele><time>2026-05-01T10:16:03.013Z</time></trkpt><trkpt lat="48.8150277" lon="4.3996877"><ele>137.0</ele><time>2026-05-01T10:16:04.017Z</time></trkpt><trkpt lat="48.8151264" lon="4.400002"><ele>138.0</ele><time>2026-05-01T10:16:05.017Z</time></trkpt><trkpt lat="48.8152276" lon="4.4003149"><ele>139.0</ele><time>2026-05-01T10:16:06.012Z</time></trkpt><trkpt lat="48.8153317" lon="4.4006279"><ele>139.0</ele><time>2026-05-01T10:16:07.022Z</time></trkpt><trkpt lat="48.815429" lon="4.4009509"><ele>139.0</ele><time>2026-05-01T10:16:08.019Z</time></trkpt><trkpt lat="48.815525" lon="4.4012745"><ele>137.5</ele><time>2026-05-01T10:16:09.021Z</time></trkpt><trkpt lat="48.8156151" lon="4.4016071"><ele>136.0</ele><time>2026-05-01T10:16:10.011Z</time></trkpt><trkpt lat="48.8157059" lon="4.401941"><ele>135.5</ele><time>2026-05-01T10:16:11.025Z</time></trkpt><trkpt lat="48.8157894" lon="4.402279"><ele>135.0</ele><time>2026-05-01T10:16:12.014Z</time></trkpt><trkpt lat="48.8158735" lon="4.4026176"><ele>135.0</ele><time>2026-05-01T10:16:13.016Z</time></trkpt><trkpt lat="48.8159612" lon="4.4029521"><ele>135.0</ele><time>2026-05-01T10:16:14.021Z</time></trkpt><trkpt lat="48.8160472" lon="4.4032872"><ele>135.0</ele><time>2026-05-01T10:16:15.017Z</time></trkpt><trkpt lat="48.816133" lon="4.4036247"><ele>135.0</ele><time>2026-05-01T10:16:16.018Z</time></trkpt><trkpt lat="48.8162202" lon="4.4039546"><ele>134.0</ele><time>2026-05-01T10:16:17.01Z</time></trkpt><trkpt lat="48.8163057" lon="4.4042877"><ele>133.0</ele><time>2026-05-01T10:16:18.021Z</time></trkpt><trkpt lat="48.8163905" lon="4.4046211"><ele>132.5</ele><time>2026-05-01T10:16:19.02Z</time></trkpt><trkpt lat="48.8164712" lon="4.4049571"><ele>132.0</ele><time>2026-05-01T10:16:20.03Z</time></trkpt><trkpt lat="48.8165549" lon="4.4052893"><ele>132.0</ele><time>2026-05-01T10:16:21.025Z</time></trkpt><trkpt lat="48.8166388" lon="4.4056162"><ele>132.0</ele><time>2026-05-01T10:16:22.021Z</time></trkpt><trkpt lat="48.8167245" lon="4.4059489"><ele>132.0</ele><time>2026-05-01T10:16:23.023Z</time></trkpt><trkpt lat="48.8168079" lon="4.4062783"><ele>132.0</ele><time>2026-05-01T10:16:24.015Z</time></trkpt><trkpt lat="48.816894" lon="4.4065958"><ele>132.0</ele><time>2026-05-01T10:16:25.018Z</time></trkpt><trkpt lat="48.8169835" lon="4.4069191"><ele>132.0</ele><time>2026-05-01T10:16:26.026Z</time></trkpt><trkpt lat="48.8170794" lon="4.4072342"><ele>131.0</ele><time>2026-05-01T10:16:27.018Z</time></trkpt><trkpt lat="48.8171873" lon="4.4075424"><ele>130.0</ele><time>2026-05-01T10:16:28.018Z</time></trkpt><trkpt lat="48.8173012" lon="4.4078448"><ele>129.5</ele><time>2026-05-01T10:16:29.016Z</time></trkpt><trkpt lat="48.8174203" lon="4.408145"><ele>129.0</ele><time>2026-05-01T10:16:30.009Z</time></trkpt><trkpt lat="48.8175403" lon="4.4084483"><ele>129.5</ele><time>2026-05-01T10:16:31.017Z</time></trkpt><trkpt lat="48.817661" lon="4.4087564"><ele>130.0</ele><time>2026-05-01T10:16:32.011Z</time></trkpt><trkpt lat="48.8177847" lon="4.4090621"><ele>130.0</ele><time>2026-05-01T10:16:33.017Z</time></trkpt><trkpt lat="48.8179064" lon="4.4093685"><ele>130.0</ele><time>2026-05-01T10:16:34.021Z</time></trkpt><trkpt lat="48.8180286" lon="4.4096701"><ele>128.5</ele><time>2026-05-01T10:16:35.018Z</time></trkpt><trkpt lat="48.8181501" lon="4.4099768"><ele>127.0</ele><time>2026-05-01T10:16:36.013Z</time></trkpt><trkpt lat="48.8182721" lon="4.4102804"><ele>126.5</ele><time>2026-05-01T10:16:37.02Z</time></trkpt><trkpt lat="48.8183935" lon="4.410583"><ele>126.0</ele><time>2026-05-01T10:16:38.011Z</time></trkpt><trkpt lat="48.8185116" lon="4.4108846"><ele>126.5</ele><time>2026-05-01T10:16:39.019Z</time></trkpt><trkpt lat="48.818636" lon="4.4111858"><ele>127.0</ele><time>2026-05-01T10:16:40.015Z</time></trkpt><trkpt lat="48.8187595" lon="4.4114841"><ele>127.0</ele><time>2026-05-01T10:16:41.015Z</time></trkpt><trkpt lat="48.8188789" lon="4.4117888"><ele>127.0</ele><time>2026-05-01T10:16:42.013Z</time></trkpt><trkpt lat="48.8189965" lon="4.4120923"><ele>126.0</ele><time>2026-05-01T10:16:43.017Z</time></trkpt><trkpt lat="48.8191175" lon="4.4123896"><ele>125.0</ele><time>2026-05-01T10:16:44.023Z</time></trkpt><trkpt lat="48.8192405" lon="4.412687"><ele>125.5</ele><time>2026-05-01T10:16:45.016Z</time></trkpt><trkpt lat="48.8193594" lon="4.4129882"><ele>126.0</ele><time>2026-05-01T10:16:46.021Z</time></trkpt><trkpt lat="48.8194755" lon="4.4132861"><ele>126.0</ele><time>2026-05-01T10:16:47.021Z</time></trkpt><trkpt lat="48.8195947" lon="4.4135869"><ele>126.0</ele><time>2026-05-01T10:16:48.015Z</time></trkpt><trkpt lat="48.8197136" lon="4.413884"><ele>125.0</ele><time>2026-05-01T10:16:49.013Z</time></trkpt><trkpt lat="48.8198288" lon="4.4141887"><ele>124.0</ele><time>2026-05-01T10:16:50.02Z</time></trkpt><trkpt lat="48.8199475" lon="4.4144951"><ele>123.5</ele><time>2026-05-01T10:16:51.017Z</time></trkpt><trkpt lat="48.8200644" lon="4.4147952"><ele>123.0</ele><time>2026-05-01T10:16:52.015Z</time></trkpt><trkpt lat="48.8201865" lon="4.4150912"><ele>123.0</ele><time>2026-05-01T10:16:53.027Z</time></trkpt><trkpt lat="48.8203087" lon="4.415386"><ele>123.0</ele><time>2026-05-01T10:16:54.021Z</time></trkpt><trkpt lat="48.8204285" lon="4.4156879"><ele>122.5</ele><time>2026-05-01T10:16:55.02Z</time></trkpt><trkpt lat="48.8205448" lon="4.4159837"><ele>122.0</ele><time>2026-05-01T10:16:56.018Z</time></trkpt><trkpt lat="48.8206622" lon="4.4162714"><ele>121.66666666666666</ele><time>2026-05-01T10:16:57.017Z</time></trkpt><trkpt lat="48.8207746" lon="4.4165582"><ele>121.33333333333334</ele><time>2026-05-01T10:16:58.017Z</time></trkpt><trkpt lat="48.8208846" lon="4.4168345"><ele>121.0</ele><time>2026-05-01T10:16:59.017Z</time></trkpt><trkpt lat="48.8209996" lon="4.4170977"><ele>121.0</ele><time>2026-05-01T10:17:00.012Z</time></trkpt><trkpt lat="48.8211281" lon="4.4173334"><ele>121.0</ele><time>2026-05-01T10:17:01.011Z</time></trkpt><trkpt lat="48.8212752" lon="4.4175563"><ele>121.0</ele><time>2026-05-01T10:17:02.012Z</time></trkpt><trkpt lat="48.8214397" lon="4.4177536"><ele>121.0</ele><time>2026-05-01T10:17:03.012Z</time></trkpt><trkpt lat="48.8216294" lon="4.4179151"><ele>121.0</ele><time>2026-05-01T10:17:04.017Z</time></trkpt><trkpt lat="48.8218206" lon="4.4180749"><ele>121.0</ele><time>2026-05-01T10:17:05.011Z</time></trkpt><trkpt lat="48.822016" lon="4.4182325"><ele>121.0</ele><time>2026-05-01T10:17:06.023Z</time></trkpt><trkpt lat="48.8222132" lon="4.4183849"><ele>121.0</ele><time>2026-05-01T10:17:07.016Z</time></trkpt><trkpt lat="48.8224145" lon="4.418535"><ele>121.0</ele><time>2026-05-01T10:17:08.015Z</time></trkpt><trkpt lat="48.8226163" lon="4.4186925"><ele>120.5</ele><time>2026-05-01T10:17:09.015Z</time></trkpt><trkpt lat="48.8228203" lon="4.4188556"><ele>120.0</ele><time>2026-05-01T10:17:10.016Z</time></trkpt><trkpt lat="48.8230167" lon="4.4190171"><ele>120.0</ele><time>2026-05-01T10:17:11.023Z</time></trkpt><trkpt lat="48.8232118" lon="4.4191887"><ele>120.0</ele><time>2026-05-01T10:17:12.012Z</time></trkpt><trkpt lat="48.8234017" lon="4.4193777"><ele>119.0</ele><time>2026-05-01T10:17:13.01Z</time></trkpt><trkpt lat="48.8235636" lon="4.4196021"><ele>118.0</ele><time>2026-05-01T10:17:14.013Z</time></trkpt><trkpt lat="48.8237138" lon="4.4198487"><ele>117.0</ele><time>2026-05-01T10:17:15.046Z</time></trkpt><trkpt lat="48.8238438" lon="4.4201196"><ele>117.0</ele><time>2026-05-01T10:17:16.016Z</time></trkpt><trkpt lat="48.8239648" lon="4.4204095"><ele>117.0</ele><time>2026-05-01T10:17:17.02Z</time></trkpt><trkpt lat="48.8240777" lon="4.4207023"><ele>117.0</ele><time>2026-05-01T10:17:18.016Z</time></trkpt><trkpt lat="48.8241964" lon="4.4209985"><ele>116.0</ele><time>2026-05-01T10:17:19.02Z</time></trkpt><trkpt lat="48.8243167" lon="4.4213002"><ele>115.0</ele><time>2026-05-01T10:17:20.013Z</time></trkpt><trkpt lat="48.8244384" lon="4.4215993"><ele>115.0</ele><time>2026-05-01T10:17:21.012Z</time></trkpt><trkpt lat="48.8245579" lon="4.4219021"><ele>115.0</ele><time>2026-05-01T10:17:22.013Z</time></trkpt><trkpt lat="48.8246764" lon="4.4221973"><ele>115.5</ele><time>2026-05-01T10:17:23.011Z</time></trkpt><trkpt lat="48.8247986" lon="4.422494"><ele>116.0</ele><time>2026-05-01T10:17:24.018Z</time></trkpt><trkpt lat="48.8249218" lon="4.422785"><ele>115.5</ele><time>2026-05-01T10:17:25.018Z</time></trkpt><trkpt lat="48.8250446" lon="4.4230709"><ele>115.0</ele><time>2026-05-01T10:17:26.018Z</time></trkpt><trkpt lat="48.8251661" lon="4.4233585"><ele>112.5</ele><time>2026-05-01T10:17:27.02Z</time></trkpt><trkpt lat="48.825293" lon="4.423646"><ele>110.0</ele><time>2026-05-01T10:17:28.03Z</time></trkpt><trkpt lat="48.8254209" lon="4.4239343"><ele>110.0</ele><time>2026-05-01T10:17:29.017Z</time></trkpt><trkpt lat="48.8255474" lon="4.4242252"><ele>110.0</ele><time>2026-05-01T10:17:30.03Z</time></trkpt><trkpt lat="48.8256731" lon="4.4245152"><ele>110.5</ele><time>2026-05-01T10:17:31.018Z</time></trkpt><trkpt lat="48.8257943" lon="4.424809"><ele>111.0</ele><time>2026-05-01T10:17:32.035Z</time></trkpt><trkpt lat="48.8259215" lon="4.4251018"><ele>110.0</ele><time>2026-05-01T10:17:33.021Z</time></trkpt><trkpt lat="48.8260458" lon="4.4253907"><ele>109.0</ele><time>2026-05-01T10:17:34.023Z</time></trkpt><trkpt lat="48.8261699" lon="4.4256868"><ele>109.0</ele><time>2026-05-01T10:17:35.018Z</time></trkpt><trkpt lat="48.8262936" lon="4.4259804"><ele>109.0</ele><time>2026-05-01T10:17:36.023Z</time></trkpt><trkpt lat="48.8264164" lon="4.4262752"><ele>108.5</ele><time>2026-05-01T10:17:37.021Z</time></trkpt><trkpt lat="48.8265385" lon="4.4265655"><ele>108.0</ele><time>2026-05-01T10:17:38.014Z</time></trkpt><trkpt lat="48.8266647" lon="4.4268555"><ele>108.0</ele><time>2026-05-01T10:17:39.018Z</time></trkpt><trkpt lat="48.8267922" lon="4.4271405"><ele>108.0</ele><time>2026-05-01T10:17:40.032Z</time></trkpt><trkpt lat="48.8269287" lon="4.4274167"><ele>107.0</ele><time>2026-05-01T10:17:41.016Z</time></trkpt><trkpt lat="48.8270701" lon="4.4276841"><ele>106.0</ele><time>2026-05-01T10:17:42.015Z</time></trkpt><trkpt lat="48.8272191" lon="4.4279441"><ele>106.0</ele><time>2026-05-01T10:17:43.019Z</time></trkpt><trkpt lat="48.8273677" lon="4.4282089"><ele>106.0</ele><time>2026-05-01T10:17:44.023Z</time></trkpt><trkpt lat="48.8275191" lon="4.4284707"><ele>105.0</ele><time>2026-05-01T10:17:45.018Z</time></trkpt><trkpt lat="48.827672" lon="4.428732"><ele>104.0</ele><time>2026-05-01T10:17:46.026Z</time></trkpt><trkpt lat="48.8278263" lon="4.4289921"><ele>104.0</ele><time>2026-05-01T10:17:47.016Z</time></trkpt><trkpt lat="48.8279799" lon="4.4292517"><ele>104.0</ele><time>2026-05-01T10:17:48.023Z</time></trkpt><trkpt lat="48.8281318" lon="4.4295164"><ele>104.0</ele><time>2026-05-01T10:17:49.014Z</time></trkpt><trkpt lat="48.8282815" lon="4.4297807"><ele>104.0</ele><time>2026-05-01T10:17:50.018Z</time></trkpt><trkpt lat="48.8284319" lon="4.4300414"><ele>104.0</ele><time>2026-05-01T10:17:51.019Z</time></trkpt><trkpt lat="48.82858" lon="4.4303143"><ele>104.0</ele><time>2026-05-01T10:17:52.014Z</time></trkpt><trkpt lat="48.8287208" lon="4.4305892"><ele>103.5</ele><time>2026-05-01T10:17:53.016Z</time></trkpt><trkpt lat="48.8288535" lon="4.4308678"><ele>103.0</ele><time>2026-05-01T10:17:54.019Z</time></trkpt><trkpt lat="48.828978" lon="4.4311525"><ele>102.5</ele><time>2026-05-01T10:17:55.025Z</time></trkpt><trkpt lat="48.8290983" lon="4.4314419"><ele>102.0</ele><time>2026-05-01T10:17:56.019Z</time></trkpt><trkpt lat="48.8292207" lon="4.4317358"><ele>102.0</ele><time>2026-05-01T10:17:57.021Z</time></trkpt><trkpt lat="48.8293408" lon="4.4320268"><ele>102.0</ele><time>2026-05-01T10:17:58.017Z</time></trkpt><trkpt lat="48.8294624" lon="4.4323201"><ele>102.0</ele><time>2026-05-01T10:17:59.018Z</time></trkpt><trkpt lat="48.8295842" lon="4.4326098"><ele>102.0</ele><time>2026-05-01T10:18:00.025Z</time></trkpt><trkpt lat="48.8297072" lon="4.4328988"><ele>101.5</ele><time>2026-05-01T10:18:01.02Z</time></trkpt><trkpt lat="48.829829" lon="4.4331888"><ele>101.0</ele><time>2026-05-01T10:18:02.023Z</time></trkpt><trkpt lat="48.8299532" lon="4.4334703"><ele>101.0</ele><time>2026-05-01T10:18:03.028Z</time></trkpt><trkpt lat="48.8300788" lon="4.4337526"><ele>101.0</ele><time>2026-05-01T10:18:04.024Z</time></trkpt><trkpt lat="48.8302047" lon="4.4340377"><ele>101.0</ele><time>2026-05-01T10:18:05.016Z</time></trkpt><trkpt lat="48.8303345" lon="4.4343148"><ele>101.0</ele><time>2026-05-01T10:18:06.018Z</time></trkpt><trkpt lat="48.8304654" lon="4.4345951"><ele>100.66666666666666</ele><time>2026-05-01T10:18:07.024Z</time></trkpt><trkpt lat="48.8305971" lon="4.4348718"><ele>100.33333333333334</ele><time>2026-05-01T10:18:08.022Z</time></trkpt><trkpt lat="48.8307255" lon="4.4351468"><ele>100.0</ele><time>2026-05-01T10:18:09.017Z</time></trkpt><trkpt lat="48.8308607" lon="4.4354196"><ele>100.5</ele><time>2026-05-01T10:18:10.021Z</time></trkpt><trkpt lat="48.8309949" lon="4.4356948"><ele>101.0</ele><time>2026-05-01T10:18:11.014Z</time></trkpt><trkpt lat="48.8311239" lon="4.4359748"><ele>101.0</ele><time>2026-05-01T10:18:12.022Z</time></trkpt><trkpt lat="48.8312537" lon="4.4362546"><ele>101.0</ele><time>2026-05-01T10:18:13.019Z</time></trkpt><trkpt lat="48.8313828" lon="4.4365331"><ele>100.0</ele><time>2026-05-01T10:18:14.016Z</time></trkpt><trkpt lat="48.8315151" lon="4.4368117"><ele>99.0</ele><time>2026-05-01T10:18:15.019Z</time></trkpt><trkpt lat="48.8316484" lon="4.4370947"><ele>99.0</ele><time>2026-05-01T10:18:16.016Z</time></trkpt><trkpt lat="48.8317839" lon="4.4373744"><ele>99.0</ele><time>2026-05-01T10:18:17.023Z</time></trkpt><trkpt lat="48.8319151" lon="4.4376535"><ele>99.66666666666666</ele><time>2026-05-01T10:18:18.014Z</time></trkpt><trkpt lat="48.832044" lon="4.4379304"><ele>100.33333333333333</ele><time>2026-05-01T10:18:19.016Z</time></trkpt><trkpt lat="48.8321742" lon="4.4382065"><ele>101.0</ele><time>2026-05-01T10:18:20.02Z</time></trkpt><trkpt lat="48.8323042" lon="4.4384808"><ele>101.0</ele><time>2026-05-01T10:18:21.019Z</time></trkpt><trkpt lat="48.8324367" lon="4.4387576"><ele>101.0</ele><time>2026-05-01T10:18:22.02Z</time></trkpt><trkpt lat="48.8325709" lon="4.4390358"><ele>101.0</ele><time>2026-05-01T10:18:23.023Z</time></trkpt><trkpt lat="48.8327054" lon="4.4393081"><ele>101.0</ele><time>2026-05-01T10:18:24.02Z</time></trkpt><trkpt lat="48.8328354" lon="4.4395804"><ele>101.0</ele><time>2026-05-01T10:18:25.021Z</time></trkpt><trkpt lat="48.8329739" lon="4.439847"><ele>101.0</ele><time>2026-05-01T10:18:26.026Z</time></trkpt><trkpt lat="48.8331103" lon="4.4401144"><ele>101.0</ele><time>2026-05-01T10:18:27.018Z</time></trkpt><trkpt lat="48.8332395" lon="4.4403868"><ele>101.0</ele><time>2026-05-01T10:18:28.013Z</time></trkpt><trkpt lat="48.8333707" lon="4.4406582"><ele>100.66666666666666</ele><time>2026-05-01T10:18:29.033Z</time></trkpt><trkpt lat="48.8335047" lon="4.4409282"><ele>100.33333333333334</ele><time>2026-05-01T10:18:30.015Z</time></trkpt><trkpt lat="48.8336337" lon="4.4412038"><ele>100.0</ele><time>2026-05-01T10:18:31.021Z</time></trkpt><trkpt lat="48.833762" lon="4.4414755"><ele>99.33333333333334</ele><time>2026-05-01T10:18:32.022Z</time></trkpt><trkpt lat="48.8338903" lon="4.4417529"><ele>98.66666666666666</ele><time>2026-05-01T10:18:33.015Z</time></trkpt><trkpt lat="48.8340201" lon="4.4420271"><ele>98.0</ele><time>2026-05-01T10:18:34.015Z</time></trkpt><trkpt lat="48.834151" lon="4.4423133"><ele>98.0</ele><time>2026-05-01T10:18:35.021Z</time></trkpt><trkpt lat="48.8342794" lon="4.4425953"><ele>98.0</ele><time>2026-05-01T10:18:36.016Z</time></trkpt><trkpt lat="48.8344086" lon="4.4428797"><ele>97.5</ele><time>2026-05-01T10:18:37.019Z</time></trkpt><trkpt lat="48.8345371" lon="4.4431633"><ele>97.0</ele><time>2026-05-01T10:18:38.016Z</time></trkpt><trkpt lat="48.8346632" lon="4.4434461"><ele>97.0</ele><time>2026-05-01T10:18:39.018Z</time></trkpt><trkpt lat="48.8347895" lon="4.443735"><ele>97.0</ele><time>2026-05-01T10:18:40.013Z</time></trkpt><trkpt lat="48.8349121" lon="4.4440208"><ele>97.0</ele><time>2026-05-01T10:18:41.019Z</time></trkpt><trkpt lat="48.8350326" lon="4.4443084"><ele>97.0</ele><time>2026-05-01T10:18:42.014Z</time></trkpt><trkpt lat="48.8351533" lon="4.4445964"><ele>97.0</ele><time>2026-05-01T10:18:43.015Z</time></trkpt><trkpt lat="48.8352647" lon="4.4448903"><ele>97.0</ele><time>2026-05-01T10:18:44.006Z</time></trkpt><trkpt lat="48.8353778" lon="4.4451812"><ele>97.0</ele><time>2026-05-01T10:18:45.058Z</time></trkpt><trkpt lat="48.8354915" lon="4.445474"><ele>97.0</ele><time>2026-05-01T10:18:46.024Z</time></trkpt><trkpt lat="48.8356025" lon="4.445768"><ele>97.0</ele><time>2026-05-01T10:18:47.015Z</time></trkpt><trkpt lat="48.8357148" lon="4.4460603"><ele>97.0</ele><time>2026-05-01T10:18:48.022Z</time></trkpt><trkpt lat="48.8358252" lon="4.4463556"><ele>97.0</ele><time>2026-05-01T10:18:49.013Z</time></trkpt><trkpt lat="48.8359327" lon="4.446648"><ele>96.0</ele><time>2026-05-01T10:18:50.019Z</time></trkpt><trkpt lat="48.8360448" lon="4.4469364"><ele>95.0</ele><time>2026-05-01T10:18:51.043Z</time></trkpt><trkpt lat="48.8361542" lon="4.4472327"><ele>94.0</ele><time>2026-05-01T10:18:52.011Z</time></trkpt><trkpt lat="48.8362619" lon="4.4475242"><ele>93.66666666666666</ele><time>2026-05-01T10:18:53.014Z</time></trkpt><trkpt lat="48.836373" lon="4.4478162"><ele>93.33333333333333</ele><time>2026-05-01T10:18:54.014Z</time></trkpt><trkpt lat="48.8364823" lon="4.4480996"><ele>93.0</ele><time>2026-05-01T10:18:55.019Z</time></trkpt><trkpt lat="48.8365865" lon="4.44839"><ele>93.0</ele><time>2026-05-01T10:18:56.017Z</time></trkpt><trkpt lat="48.8366916" lon="4.4486802"><ele>93.0</ele><time>2026-05-01T10:18:57.024Z</time></trkpt><trkpt lat="48.8368038" lon="4.4489692"><ele>93.0</ele><time>2026-05-01T10:18:58.022Z</time></trkpt><trkpt lat="48.8369191" lon="4.4492524"><ele>93.0</ele><time>2026-05-01T10:18:59.027Z</time></trkpt><trkpt lat="48.8370386" lon="4.4495417"><ele>93.0</ele><time>2026-05-01T10:19:00.02Z</time></trkpt><trkpt lat="48.8371559" lon="4.4498242"><ele>93.0</ele><time>2026-05-01T10:19:01.012Z</time></trkpt><trkpt lat="48.8372714" lon="4.4501133"><ele>92.66666666666667</ele><time>2026-05-01T10:19:02.025Z</time></trkpt><trkpt lat="48.8373831" lon="4.4503965"><ele>92.33333333333334</ele><time>2026-05-01T10:19:03.019Z</time></trkpt><trkpt lat="48.8374972" lon="4.4506792"><ele>92.0</ele><time>2026-05-01T10:19:04.015Z</time></trkpt><trkpt lat="48.8376145" lon="4.4509589"><ele>92.0</ele><time>2026-05-01T10:19:05.013Z</time></trkpt><trkpt lat="48.8377248" lon="4.4512324"><ele>92.0</ele><time>2026-05-01T10:19:06.018Z</time></trkpt><trkpt lat="48.8378372" lon="4.4515015"><ele>92.0</ele><time>2026-05-01T10:19:07.019Z</time></trkpt><trkpt lat="48.8379431" lon="4.4517612"><ele>91.66666666666667</ele><time>2026-05-01T10:19:08.021Z</time></trkpt><trkpt lat="48.8380447" lon="4.452003"><ele>91.33333333333333</ele><time>2026-05-01T10:19:09.019Z</time></trkpt><trkpt lat="48.8381405" lon="4.4522372"><ele>91.0</ele><time>2026-05-01T10:19:10.016Z</time></trkpt><trkpt lat="48.8382364" lon="4.4524542"><ele>91.0</ele><time>2026-05-01T10:19:11.018Z</time></trkpt><trkpt lat="48.838325" lon="4.4526576"><ele>91.0</ele><time>2026-05-01T10:19:12.021Z</time></trkpt><trkpt lat="48.8384121" lon="4.452853"><ele>91.0</ele><time>2026-05-01T10:19:13.051Z</time></trkpt><trkpt lat="48.8384959" lon="4.4530288"><ele>91.25</ele><time>2026-05-01T10:19:14.016Z</time></trkpt><trkpt lat="48.838563" lon="4.4532121"><ele>91.5</ele><time>2026-05-01T10:19:15.012Z</time></trkpt><trkpt lat="48.8386252" lon="4.453405"><ele>91.75</ele><time>2026-05-01T10:19:16.022Z</time></trkpt><trkpt lat="48.8386975" lon="4.4535952"><ele>92.0</ele><time>2026-05-01T10:19:17.028Z</time></trkpt><trkpt lat="48.8387727" lon="4.4537812"><ele>92.25</ele><time>2026-05-01T10:19:18.024Z</time></trkpt><trkpt lat="48.8388494" lon="4.4539655"><ele>92.5</ele><time>2026-05-01T10:19:19.013Z</time></trkpt><trkpt lat="48.8389301" lon="4.4541536"><ele>92.75</ele><time>2026-05-01T10:19:20.016Z</time></trkpt><trkpt lat="48.8390089" lon="4.4543462"><ele>93.0</ele><time>2026-05-01T10:19:21.017Z</time></trkpt><trkpt lat="48.8390847" lon="4.4545344"><ele>93.0</ele><time>2026-05-01T10:19:22.038Z</time></trkpt><trkpt lat="48.8391603" lon="4.4547202"><ele>93.0</ele><time>2026-05-01T10:19:23.022Z</time></trkpt><trkpt lat="48.8392396" lon="4.4549093"><ele>93.0</ele><time>2026-05-01T10:19:24.017Z</time></trkpt><trkpt lat="48.8393222" lon="4.4551017"><ele>93.0</ele><time>2026-05-01T10:19:25.019Z</time></trkpt><trkpt lat="48.8394044" lon="4.4552897"><ele>92.75</ele><time>2026-05-01T10:19:26.019Z</time></trkpt><trkpt lat="48.8394856" lon="4.4554779"><ele>92.5</ele><time>2026-05-01T10:19:27.017Z</time></trkpt><trkpt lat="48.839568" lon="4.4556706"><ele>92.25</ele><time>2026-05-01T10:19:28.019Z</time></trkpt><trkpt lat="48.8396462" lon="4.4558553"><ele>92.0</ele><time>2026-05-01T10:19:29.013Z</time></trkpt><trkpt lat="48.8397164" lon="4.4560232"><ele>92.0</ele><time>2026-05-01T10:19:30.021Z</time></trkpt><trkpt lat="48.8397805" lon="4.4561611"><ele>92.0</ele><time>2026-05-01T10:19:31.02Z</time></trkpt><trkpt lat="48.8398385" lon="4.4562767"><ele>92.0</ele><time>2026-05-01T10:19:32.023Z</time></trkpt><trkpt lat="48.839881" lon="4.4563815"><ele>92.0</ele><time>2026-05-01T10:19:33.014Z</time></trkpt><trkpt lat="48.8399377" lon="4.456518"><ele>92.0</ele><time>2026-05-01T10:19:35.013Z</time></trkpt><trkpt lat="48.8400091" lon="4.4566774"><ele>92.0</ele><time>2026-05-01T10:19:37.019Z</time></trkpt><trkpt lat="48.8400509" lon="4.456764"><ele>92.0</ele><time>2026-05-01T10:19:38.015Z</time></trkpt><trkpt lat="48.8401" lon="4.4568661"><ele>92.0</ele><time>2026-05-01T10:19:39.019Z</time></trkpt><trkpt lat="48.8401541" lon="4.4569895"><ele>92.0</ele><time>2026-05-01T10:19:40.023Z</time></trkpt><trkpt lat="48.8402174" lon="4.4571161"><ele>92.0</ele><time>2026-05-01T10:19:41.02Z</time></trkpt><trkpt lat="48.8402922" lon="4.4572561"><ele>91.5</ele><time>2026-05-01T10:19:42.017Z</time></trkpt><trkpt lat="48.8403722" lon="4.4574055"><ele>91.0</ele><time>2026-05-01T10:19:43.018Z</time></trkpt><trkpt lat="48.8404491" lon="4.4575508"><ele>90.5</ele><time>2026-05-01T10:19:44.017Z</time></trkpt><trkpt lat="48.840526" lon="4.4576818"><ele>90.0</ele><time>2026-05-01T10:19:45.024Z</time></trkpt><trkpt lat="48.8406093" lon="4.45781"><ele>90.0</ele><time>2026-05-01T10:19:46.012Z</time></trkpt><trkpt lat="48.8406967" lon="4.4579368"><ele>90.0</ele><time>2026-05-01T10:19:47.017Z</time></trkpt><trkpt lat="48.8407856" lon="4.4580733"><ele>90.0</ele><time>2026-05-01T10:19:48.017Z</time></trkpt><trkpt lat="48.8408762" lon="4.4582114"><ele>90.0</ele><time>2026-05-01T10:19:49.016Z</time></trkpt><trkpt lat="48.8409714" lon="4.4583531"><ele>89.75</ele><time>2026-05-01T10:19:50.021Z</time></trkpt><trkpt lat="48.8410687" lon="4.4584904"><ele>89.5</ele><time>2026-05-01T10:19:51.028Z</time></trkpt><trkpt lat="48.8411652" lon="4.4586309"><ele>89.25</ele><time>2026-05-01T10:19:52.017Z</time></trkpt><trkpt lat="48.8412499" lon="4.4587709"><ele>89.0</ele><time>2026-05-01T10:19:53.018Z</time></trkpt><trkpt lat="48.8413168" lon="4.4588895"><ele>89.0</ele><time>2026-05-01T10:19:54.019Z</time></trkpt><trkpt lat="48.8413671" lon="4.4589815"><ele>89.0</ele><time>2026-05-01T10:19:55.024Z</time></trkpt><trkpt lat="48.8414516" lon="4.4590924"><ele>89.0</ele><time>2026-05-01T10:19:57.013Z</time></trkpt><trkpt lat="48.8414958" lon="4.4591621"><ele>89.0</ele><time>2026-05-01T10:19:59.015Z</time></trkpt><trkpt lat="48.8415641" lon="4.4592834"><ele>89.0</ele><time>2026-05-01T10:20:02.016Z</time></trkpt><trkpt lat="48.8416516" lon="4.4594334"><ele>89.0</ele><time>2026-05-01T10:20:04.024Z</time></trkpt><trkpt lat="48.8417017" lon="4.4595107"><ele>89.0</ele><time>2026-05-01T10:20:05.015Z</time></trkpt><trkpt lat="48.8417568" lon="4.4596002"><ele>89.0</ele><time>2026-05-01T10:20:06.013Z</time></trkpt><trkpt lat="48.84182" lon="4.4597024"><ele>89.0</ele><time>2026-05-01T10:20:07.026Z</time></trkpt><trkpt lat="48.8418939" lon="4.4598208"><ele>89.0</ele><time>2026-05-01T10:20:08.018Z</time></trkpt><trkpt lat="48.8419723" lon="4.4599515"><ele>89.0</ele><time>2026-05-01T10:20:09.058Z</time></trkpt><trkpt lat="48.8420585" lon="4.460092"><ele>89.0</ele><time>2026-05-01T10:20:10.028Z</time></trkpt><trkpt lat="48.8421513" lon="4.4602348"><ele>89.0</ele><time>2026-05-01T10:20:11.013Z</time></trkpt><trkpt lat="48.8422397" lon="4.4603866"><ele>89.0</ele><time>2026-05-01T10:20:12.03Z</time></trkpt><trkpt lat="48.8423323" lon="4.4605376"><ele>89.0</ele><time>2026-05-01T10:20:13.012Z</time></trkpt><trkpt lat="48.8424252" lon="4.4606925"><ele>89.0</ele><time>2026-05-01T10:20:14.014Z</time></trkpt><trkpt lat="48.8425207" lon="4.460852"><ele>89.0</ele><time>2026-05-01T10:20:15.017Z</time></trkpt><trkpt lat="48.8426105" lon="4.4610079"><ele>89.0</ele><time>2026-05-01T10:20:16.015Z</time></trkpt><trkpt lat="48.8427047" lon="4.4611694"><ele>88.75</ele><time>2026-05-01T10:20:17.013Z</time></trkpt><trkpt lat="48.8427924" lon="4.4613289"><ele>88.5</ele><time>2026-05-01T10:20:18.02Z</time></trkpt><trkpt lat="48.8428802" lon="4.4614878"><ele>88.25</ele><time>2026-05-01T10:20:19.014Z</time></trkpt><trkpt lat="48.8429731" lon="4.4616387"><ele>88.0</ele><time>2026-05-01T10:20:20.011Z</time></trkpt><trkpt lat="48.8430658" lon="4.4617928"><ele>88.0</ele><time>2026-05-01T10:20:21.014Z</time></trkpt><trkpt lat="48.8431606" lon="4.4619505"><ele>88.0</ele><time>2026-05-01T10:20:22.016Z</time></trkpt><trkpt lat="48.8432609" lon="4.4621059"><ele>88.0</ele><time>2026-05-01T10:20:23.015Z</time></trkpt><trkpt lat="48.8433533" lon="4.4622642"><ele>88.0</ele><time>2026-05-01T10:20:24.017Z</time></trkpt><trkpt lat="48.8434494" lon="4.4624203"><ele>88.0</ele><time>2026-05-01T10:20:25.01Z</time></trkpt><trkpt lat="48.8435459" lon="4.46257"><ele>88.0</ele><time>2026-05-01T10:20:26.016Z</time></trkpt><trkpt lat="48.8436403" lon="4.4627325"><ele>88.0</ele><time>2026-05-01T10:20:27.012Z</time></trkpt><trkpt lat="48.8437278" lon="4.4629151"><ele>88.0</ele><time>2026-05-01T10:20:28.015Z</time></trkpt><trkpt lat="48.8437976" lon="4.4631149"><ele>88.0</ele><time>2026-05-01T10:20:29.02Z</time></trkpt><trkpt lat="48.8438689" lon="4.4633224"><ele>88.0</ele><time>2026-05-01T10:20:30.02Z</time></trkpt><trkpt lat="48.8439552" lon="4.4635167"><ele>88.0</ele><time>2026-05-01T10:20:31.026Z</time></trkpt><trkpt lat="48.8440567" lon="4.4636951"><ele>87.66666666666666</ele><time>2026-05-01T10:20:32.015Z</time></trkpt><trkpt lat="48.8441651" lon="4.4638788"><ele>87.33333333333333</ele><time>2026-05-01T10:20:33.013Z</time></trkpt><trkpt lat="48.844277" lon="4.4640684"><ele>87.0</ele><time>2026-05-01T10:20:34.02Z</time></trkpt><trkpt lat="48.8443951" lon="4.4642716"><ele>87.0</ele><time>2026-05-01T10:20:35.018Z</time></trkpt><trkpt lat="48.8445216" lon="4.4644807"><ele>87.0</ele><time>2026-05-01T10:20:36.027Z</time></trkpt><trkpt lat="48.8446528" lon="4.464701"><ele>87.0</ele><time>2026-05-01T10:20:37.01Z</time></trkpt><trkpt lat="48.8447875" lon="4.4649304"><ele>87.0</ele><time>2026-05-01T10:20:38.024Z</time></trkpt><trkpt lat="48.8449276" lon="4.4651619"><ele>87.0</ele><time>2026-05-01T10:20:39.014Z</time></trkpt><trkpt lat="48.84507" lon="4.4654064"><ele>87.0</ele><time>2026-05-01T10:20:40.013Z</time></trkpt><trkpt lat="48.8452156" lon="4.4656457"><ele>87.33333333333333</ele><time>2026-05-01T10:20:41.02Z</time></trkpt><trkpt lat="48.8453634" lon="4.4658857"><ele>87.66666666666666</ele><time>2026-05-01T10:20:42.061Z</time></trkpt><trkpt lat="48.8455145" lon="4.4661258"><ele>88.0</ele><time>2026-05-01T10:20:43.012Z</time></trkpt><trkpt lat="48.8456668" lon="4.466364"><ele>88.33333333333333</ele><time>2026-05-01T10:20:44.021Z</time></trkpt><trkpt lat="48.8458176" lon="4.4666092"><ele>88.66666666666667</ele><time>2026-05-01T10:20:45.019Z</time></trkpt><trkpt lat="48.8459619" lon="4.4668589"><ele>89.0</ele><time>2026-05-01T10:20:46.018Z</time></trkpt><trkpt lat="48.8461122" lon="4.4671029"><ele>88.66666666666667</ele><time>2026-05-01T10:20:47.016Z</time></trkpt><trkpt lat="48.8462609" lon="4.4673493"><ele>88.33333333333333</ele><time>2026-05-01T10:20:48.018Z</time></trkpt><trkpt lat="48.8464122" lon="4.4675948"><ele>88.0</ele><time>2026-05-01T10:20:49.018Z</time></trkpt><trkpt lat="48.8465641" lon="4.4678413"><ele>88.0</ele><time>2026-05-01T10:20:50.019Z</time></trkpt><trkpt lat="48.8467191" lon="4.4680853"><ele>88.0</ele><time>2026-05-01T10:20:51.016Z</time></trkpt><trkpt lat="48.8468728" lon="4.4683331"><ele>88.0</ele><time>2026-05-01T10:20:52.017Z</time></trkpt><trkpt lat="48.847024" lon="4.4685839"><ele>88.0</ele><time>2026-05-01T10:20:53.018Z</time></trkpt><trkpt lat="48.8471744" lon="4.4688339"><ele>88.0</ele><time>2026-05-01T10:20:54.021Z</time></trkpt><trkpt lat="48.8473307" lon="4.4690848"><ele>88.0</ele><time>2026-05-01T10:20:55.017Z</time></trkpt><trkpt lat="48.8474838" lon="4.469337"><ele>88.0</ele><time>2026-05-01T10:20:56.016Z</time></trkpt><trkpt lat="48.847641" lon="4.4695815"><ele>88.0</ele><time>2026-05-01T10:20:57.028Z</time></trkpt><trkpt lat="48.8477979" lon="4.4698315"><ele>88.0</ele><time>2026-05-01T10:20:58.014Z</time></trkpt><trkpt lat="48.8479524" lon="4.4700858"><ele>88.0</ele><time>2026-05-01T10:20:59.017Z</time></trkpt><trkpt lat="48.8481067" lon="4.470336"><ele>88.0</ele><time>2026-05-01T10:21:00.017Z</time></trkpt><trkpt lat="48.848258" lon="4.4705828"><ele>88.0</ele><time>2026-05-01T10:21:01.014Z</time></trkpt><trkpt lat="48.8484097" lon="4.4708274"><ele>87.66666666666666</ele><time>2026-05-01T10:21:02.018Z</time></trkpt><trkpt lat="48.8485579" lon="4.4710784"><ele>87.33333333333333</ele><time>2026-05-01T10:21:03.028Z</time></trkpt><trkpt lat="48.8487077" lon="4.4713223"><ele>87.0</ele><time>2026-05-01T10:21:04.019Z</time></trkpt><trkpt lat="48.8488602" lon="4.4715728"><ele>87.0</ele><time>2026-05-01T10:21:05.017Z</time></trkpt><trkpt lat="48.849019" lon="4.4718081"><ele>87.0</ele><time>2026-05-01T10:21:06.017Z</time></trkpt><trkpt lat="48.8491729" lon="4.4720557"><ele>87.0</ele><time>2026-05-01T10:21:07.014Z</time></trkpt><trkpt lat="48.8493278" lon="4.4723058"><ele>86.66666666666667</ele><time>2026-05-01T10:21:08.014Z</time></trkpt><trkpt lat="48.8494766" lon="4.4725563"><ele>86.33333333333334</ele><time>2026-05-01T10:21:09.014Z</time></trkpt><trkpt lat="48.8496257" lon="4.472803"><ele>86.0</ele><time>2026-05-01T10:21:10.015Z</time></trkpt><trkpt lat="48.8497749" lon="4.473051"><ele>85.66666666666667</ele><time>2026-05-01T10:21:11.023Z</time></trkpt><trkpt lat="48.8499224" lon="4.4732997"><ele>85.33333333333333</ele><time>2026-05-01T10:21:12.017Z</time></trkpt><trkpt lat="48.8500717" lon="4.473548"><ele>85.0</ele><time>2026-05-01T10:21:13.019Z</time></trkpt><trkpt lat="48.8502227" lon="4.4738012"><ele>85.0</ele><time>2026-05-01T10:21:14.017Z</time></trkpt><trkpt lat="48.850372" lon="4.4740482"><ele>85.0</ele><time>2026-05-01T10:21:15.016Z</time></trkpt><trkpt lat="48.8505187" lon="4.474298"><ele>85.0</ele><time>2026-05-01T10:21:16.019Z</time></trkpt><trkpt lat="48.8506714" lon="4.4745457"><ele>85.33333333333333</ele><time>2026-05-01T10:21:17.015Z</time></trkpt><trkpt lat="48.8508244" lon="4.4747882"><ele>85.66666666666667</ele><time>2026-05-01T10:21:18.016Z</time></trkpt><trkpt lat="48.8509785" lon="4.4750253"><ele>86.0</ele><time>2026-05-01T10:21:19.023Z</time></trkpt><trkpt lat="48.8511365" lon="4.4752422"><ele>86.66666666666667</ele><time>2026-05-01T10:21:20.014Z</time></trkpt><trkpt lat="48.8513173" lon="4.4754401"><ele>87.33333333333333</ele><time>2026-05-01T10:21:21.016Z</time></trkpt><trkpt lat="48.8515092" lon="4.4756203"><ele>88.0</ele><time>2026-05-01T10:21:22.012Z</time></trkpt><trkpt lat="48.8517096" lon="4.4757728"><ele>88.0</ele><time>2026-05-01T10:21:23.03Z</time></trkpt><trkpt lat="48.8519088" lon="4.4759267"><ele>88.0</ele><time>2026-05-01T10:21:24.019Z</time></trkpt><trkpt lat="48.852106" lon="4.4760917"><ele>88.0</ele><time>2026-05-01T10:21:25.018Z</time></trkpt><trkpt lat="48.8522949" lon="4.4762584"><ele>87.33333333333333</ele><time>2026-05-01T10:21:26.024Z</time></trkpt><trkpt lat="48.8524813" lon="4.4764459"><ele>86.66666666666667</ele><time>2026-05-01T10:21:27.013Z</time></trkpt><trkpt lat="48.8526599" lon="4.4766445"><ele>86.0</ele><time>2026-05-01T10:21:28.018Z</time></trkpt><trkpt lat="48.8528381" lon="4.476848"><ele>86.0</ele><time>2026-05-01T10:21:29.018Z</time></trkpt><trkpt lat="48.8530111" lon="4.4770435"><ele>86.0</ele><time>2026-05-01T10:21:30.028Z</time></trkpt><trkpt lat="48.8531892" lon="4.4772362"><ele>86.0</ele><time>2026-05-01T10:21:31.017Z</time></trkpt><trkpt lat="48.8533683" lon="4.4774062"><ele>87.0</ele><time>2026-05-01T10:21:32.021Z</time></trkpt><trkpt lat="48.8535603" lon="4.4775413"><ele>88.0</ele><time>2026-05-01T10:21:33.015Z</time></trkpt><trkpt lat="48.8537609" lon="4.477651"><ele>89.0</ele><time>2026-05-01T10:21:34.016Z</time></trkpt><trkpt lat="48.8539637" lon="4.4777448"><ele>89.0</ele><time>2026-05-01T10:21:35.018Z</time></trkpt><trkpt lat="48.8541612" lon="4.4778341"><ele>89.0</ele><time>2026-05-01T10:21:36.02Z</time></trkpt><trkpt lat="48.8543671" lon="4.4779004"><ele>89.0</ele><time>2026-05-01T10:21:37.028Z</time></trkpt><trkpt lat="48.8545671" lon="4.4779833"><ele>88.66666666666667</ele><time>2026-05-01T10:21:38.02Z</time></trkpt><trkpt lat="48.8547765" lon="4.4780625"><ele>88.33333333333333</ele><time>2026-05-01T10:21:39.04Z</time></trkpt><trkpt lat="48.8549852" lon="4.478151"><ele>88.0</ele><time>2026-05-01T10:21:40.022Z</time></trkpt><trkpt lat="48.8551874" lon="4.4782581"><ele>87.66666666666666</ele><time>2026-05-01T10:21:41.021Z</time></trkpt><trkpt lat="48.8553768" lon="4.4784037"><ele>87.33333333333333</ele><time>2026-05-01T10:21:42.019Z</time></trkpt><trkpt lat="48.855556" lon="4.478568"><ele>87.0</ele><time>2026-05-01T10:21:43.021Z</time></trkpt><trkpt lat="48.8557094" lon="4.4787479"><ele>86.66666666666667</ele><time>2026-05-01T10:21:44.023Z</time></trkpt><trkpt lat="48.85584" lon="4.4789478"><ele>86.33333333333334</ele><time>2026-05-01T10:21:45.03Z</time></trkpt><trkpt lat="48.8559441" lon="4.4791478"><ele>86.0</ele><time>2026-05-01T10:21:46.018Z</time></trkpt><trkpt lat="48.8560352" lon="4.4793272"><ele>86.0</ele><time>2026-05-01T10:21:47.021Z</time></trkpt><trkpt lat="48.8561101" lon="4.4795067"><ele>86.0</ele><time>2026-05-01T10:21:48.013Z</time></trkpt><trkpt lat="48.8561846" lon="4.4796731"><ele>86.0</ele><time>2026-05-01T10:21:49.014Z</time></trkpt><trkpt lat="48.8562585" lon="4.4798291"><ele>86.0</ele><time>2026-05-01T10:21:50.017Z</time></trkpt><trkpt lat="48.8563268" lon="4.4799833"><ele>86.25</ele><time>2026-05-01T10:21:51.018Z</time></trkpt><trkpt lat="48.8563945" lon="4.4801318"><ele>86.5</ele><time>2026-05-01T10:21:52.026Z</time></trkpt><trkpt lat="48.8564602" lon="4.4802768"><ele>86.75</ele><time>2026-05-01T10:21:53.018Z</time></trkpt><trkpt lat="48.8565229" lon="4.4804271"><ele>87.0</ele><time>2026-05-01T10:21:54.015Z</time></trkpt><trkpt lat="48.8565844" lon="4.4805789"><ele>87.25</ele><time>2026-05-01T10:21:55.018Z</time></trkpt><trkpt lat="48.856647" lon="4.4807282"><ele>87.5</ele><time>2026-05-01T10:21:56.015Z</time></trkpt><trkpt lat="48.8567139" lon="4.480876"><ele>87.75</ele><time>2026-05-01T10:21:57.013Z</time></trkpt><trkpt lat="48.856779" lon="4.4810276"><ele>88.0</ele><time>2026-05-01T10:21:58.016Z</time></trkpt><trkpt lat="48.8568464" lon="4.4811801"><ele>89.25</ele><time>2026-05-01T10:21:59.009Z</time></trkpt><trkpt lat="48.8569132" lon="4.4813264"><ele>90.5</ele><time>2026-05-01T10:22:00.015Z</time></trkpt><trkpt lat="48.8569744" lon="4.4814712"><ele>91.75</ele><time>2026-05-01T10:22:01.011Z</time></trkpt><trkpt lat="48.8570339" lon="4.4816158"><ele>93.0</ele><time>2026-05-01T10:22:02.013Z</time></trkpt><trkpt lat="48.8570946" lon="4.4817567"><ele>93.0</ele><time>2026-05-01T10:22:03.015Z</time></trkpt><trkpt lat="48.8571614" lon="4.4818987"><ele>93.0</ele><time>2026-05-01T10:22:04.018Z</time></trkpt><trkpt lat="48.857217" lon="4.482058"><ele>93.0</ele><time>2026-05-01T10:22:05.019Z</time></trkpt><trkpt lat="48.8572726" lon="4.4822229"><ele>93.0</ele><time>2026-05-01T10:22:06.01Z</time></trkpt><trkpt lat="48.8573204" lon="4.4823886"><ele>94.0</ele><time>2026-05-01T10:22:07.018Z</time></trkpt><trkpt lat="48.8573743" lon="4.482557"><ele>95.0</ele><time>2026-05-01T10:22:08.018Z</time></trkpt><trkpt lat="48.8574264" lon="4.4827278"><ele>96.0</ele><time>2026-05-01T10:22:09.014Z</time></trkpt><trkpt lat="48.8574858" lon="4.48288"><ele>97.0</ele><time>2026-05-01T10:22:10.009Z</time></trkpt><trkpt lat="48.8575298" lon="4.4830188"><ele>97.66666666666667</ele><time>2026-05-01T10:22:11.021Z</time></trkpt><trkpt lat="48.8575638" lon="4.4831515"><ele>98.33333333333334</ele><time>2026-05-01T10:22:12.019Z</time></trkpt><trkpt lat="48.8575926" lon="4.4832449"><ele>99.0</ele><time>2026-05-01T10:22:13.014Z</time></trkpt><trkpt lat="48.8576406" lon="4.4833925"><ele>99.66666666666666</ele><time>2026-05-01T10:22:15.018Z</time></trkpt><trkpt lat="48.8575872" lon="4.48353"><ele>100.33333333333333</ele><time>2026-05-01T10:22:17.012Z</time></trkpt><trkpt lat="48.8575274" lon="4.4835898"><ele>101.0</ele><time>2026-05-01T10:22:18.014Z</time></trkpt><trkpt lat="48.8574593" lon="4.4836123"><ele>101.0</ele><time>2026-05-01T10:22:19.019Z</time></trkpt><trkpt lat="48.8573839" lon="4.48366"><ele>101.0</ele><time>2026-05-01T10:22:20.013Z</time></trkpt><trkpt lat="48.8573093" lon="4.4837727"><ele>101.0</ele><time>2026-05-01T10:22:21.018Z</time></trkpt><trkpt lat="48.8572393" lon="4.4838986"><ele>101.0</ele><time>2026-05-01T10:22:22.025Z</time></trkpt><trkpt lat="48.8571682" lon="4.484004"><ele>101.0</ele><time>2026-05-01T10:22:23.014Z</time></trkpt><trkpt lat="48.857099" lon="4.484123"><ele>101.4</ele><time>2026-05-01T10:22:24.012Z</time></trkpt><trkpt lat="48.8570227" lon="4.484235"><ele>101.8</ele><time>2026-05-01T10:22:25.02Z</time></trkpt><trkpt lat="48.856938" lon="4.4843515"><ele>102.2</ele><time>2026-05-01T10:22:26.017Z</time></trkpt><trkpt lat="48.8568591" lon="4.4844637"><ele>102.60000000000001</ele><time>2026-05-01T10:22:27.024Z</time></trkpt><trkpt lat="48.856778" lon="4.4845745"><ele>103.0</ele><time>2026-05-01T10:22:28.012Z</time></trkpt><trkpt lat="48.856688" lon="4.4846867"><ele>103.5</ele><time>2026-05-01T10:22:29.015Z</time></trkpt><trkpt lat="48.8565968" lon="4.4847992"><ele>104.0</ele><time>2026-05-01T10:22:30.014Z</time></trkpt><trkpt lat="48.8565045" lon="4.4849067"><ele>104.5</ele><time>2026-05-01T10:22:31.018Z</time></trkpt><trkpt lat="48.8564068" lon="4.485001"><ele>105.0</ele><time>2026-05-01T10:22:32.013Z</time></trkpt><trkpt lat="48.8563111" lon="4.4850871"><ele>105.0</ele><time>2026-05-01T10:22:33.016Z</time></trkpt><trkpt lat="48.8562187" lon="4.4851807"><ele>105.0</ele><time>2026-05-01T10:22:34.017Z</time></trkpt><trkpt lat="48.8561225" lon="4.4852662"><ele>105.0</ele><time>2026-05-01T10:22:35.017Z</time></trkpt><trkpt lat="48.8560254" lon="4.4853523"><ele>105.0</ele><time>2026-05-01T10:22:36.016Z</time></trkpt><trkpt lat="48.8559342" lon="4.485436"><ele>105.0</ele><time>2026-05-01T10:22:37.017Z</time></trkpt><trkpt lat="48.8558432" lon="4.4855206"><ele>104.5</ele><time>2026-05-01T10:22:38.006Z</time></trkpt><trkpt lat="48.8557501" lon="4.4856091"><ele>104.0</ele><time>2026-05-01T10:22:39.014Z</time></trkpt><trkpt lat="48.8556571" lon="4.4856986"><ele>103.5</ele><time>2026-05-01T10:22:40.012Z</time></trkpt><trkpt lat="48.8555517" lon="4.4857899"><ele>103.0</ele><time>2026-05-01T10:22:41.018Z</time></trkpt><trkpt lat="48.8554476" lon="4.4858779"><ele>103.0</ele><time>2026-05-01T10:22:42.012Z</time></trkpt><trkpt lat="48.8553376" lon="4.4859717"><ele>103.0</ele><time>2026-05-01T10:22:43.018Z</time></trkpt><trkpt lat="48.8552236" lon="4.4860717"><ele>103.0</ele><time>2026-05-01T10:22:44.023Z</time></trkpt><trkpt lat="48.855101" lon="4.4861708"><ele>103.0</ele><time>2026-05-01T10:22:45.017Z</time></trkpt><trkpt lat="48.8549767" lon="4.486279"><ele>101.75</ele><time>2026-05-01T10:22:46.013Z</time></trkpt><trkpt lat="48.854858" lon="4.4863939"><ele>100.5</ele><time>2026-05-01T10:22:47.015Z</time></trkpt><trkpt lat="48.8547388" lon="4.4865135"><ele>99.25</ele><time>2026-05-01T10:22:48.019Z</time></trkpt><trkpt lat="48.8546131" lon="4.4866262"><ele>98.0</ele><time>2026-05-01T10:22:49.007Z</time></trkpt><trkpt lat="48.8544872" lon="4.4867439"><ele>98.0</ele><time>2026-05-01T10:22:50.015Z</time></trkpt><trkpt lat="48.8543627" lon="4.486861"><ele>98.0</ele><time>2026-05-01T10:22:51.02Z</time></trkpt><trkpt lat="48.8542365" lon="4.486984"><ele>98.0</ele><time>2026-05-01T10:22:52.017Z</time></trkpt><trkpt lat="48.8541024" lon="4.4871034"><ele>98.0</ele><time>2026-05-01T10:22:53.014Z</time></trkpt><trkpt lat="48.8539723" lon="4.4872183"><ele>98.0</ele><time>2026-05-01T10:22:54.027Z</time></trkpt><trkpt lat="48.8538381" lon="4.487336"><ele>98.0</ele><time>2026-05-01T10:22:55.013Z</time></trkpt><trkpt lat="48.8537057" lon="4.4874587"><ele>98.0</ele><time>2026-05-01T10:22:56.019Z</time></trkpt><trkpt lat="48.8535637" lon="4.4875793"><ele>98.0</ele><time>2026-05-01T10:22:57.016Z</time></trkpt><trkpt lat="48.8534197" lon="4.487702"><ele>98.0</ele><time>2026-05-01T10:22:58.02Z</time></trkpt><trkpt lat="48.8532725" lon="4.4878323"><ele>99.33333333333333</ele><time>2026-05-01T10:22:59.014Z</time></trkpt><trkpt lat="48.8531204" lon="4.487976"><ele>100.66666666666666</ele><time>2026-05-01T10:23:00.02Z</time></trkpt><trkpt lat="48.8529643" lon="4.4881284"><ele>102.0</ele><time>2026-05-01T10:23:01.018Z</time></trkpt><trkpt lat="48.8528051" lon="4.4882859"><ele>102.0</ele><time>2026-05-01T10:23:02.02Z</time></trkpt><trkpt lat="48.8526441" lon="4.4884359"><ele>102.0</ele><time>2026-05-01T10:23:03.018Z</time></trkpt><trkpt lat="48.8524758" lon="4.4885835"><ele>102.0</ele><time>2026-05-01T10:23:04.015Z</time></trkpt><trkpt lat="48.8523031" lon="4.4887381"><ele>105.0</ele><time>2026-05-01T10:23:05.023Z</time></trkpt><trkpt lat="48.8521324" lon="4.4889"><ele>108.0</ele><time>2026-05-01T10:23:06.014Z</time></trkpt><trkpt lat="48.8519576" lon="4.4890579"><ele>111.0</ele><time>2026-05-01T10:23:07.017Z</time></trkpt><trkpt lat="48.8517784" lon="4.4892093"><ele>111.33333333333334</ele><time>2026-05-01T10:23:08.016Z</time></trkpt><trkpt lat="48.8515977" lon="4.4893657"><ele>111.66666666666667</ele><time>2026-05-01T10:23:09.024Z</time></trkpt><trkpt lat="48.8514274" lon="4.4895252"><ele>112.0</ele><time>2026-05-01T10:23:10.012Z</time></trkpt><trkpt lat="48.8512663" lon="4.4896829"><ele>111.66666666666667</ele><time>2026-05-01T10:23:11.018Z</time></trkpt><trkpt lat="48.8511166" lon="4.4898636"><ele>111.33333333333334</ele><time>2026-05-01T10:23:12.013Z</time></trkpt><trkpt lat="48.8509802" lon="4.4900826"><ele>111.0</ele><time>2026-05-01T10:23:13.011Z</time></trkpt><trkpt lat="48.8508482" lon="4.4903133"><ele>111.33333333333334</ele><time>2026-05-01T10:23:14.015Z</time></trkpt><trkpt lat="48.8507186" lon="4.4905434"><ele>111.66666666666667</ele><time>2026-05-01T10:23:15.015Z</time></trkpt><trkpt lat="48.8505902" lon="4.4907759"><ele>112.0</ele><time>2026-05-01T10:23:16.016Z</time></trkpt><trkpt lat="48.8504588" lon="4.4910015"><ele>112.0</ele><time>2026-05-01T10:23:17.019Z</time></trkpt><trkpt lat="48.850334" lon="4.4912218"><ele>112.0</ele><time>2026-05-01T10:23:18.018Z</time></trkpt><trkpt lat="48.8502195" lon="4.4914267"><ele>112.0</ele><time>2026-05-01T10:23:19.017Z</time></trkpt><trkpt lat="48.8501075" lon="4.4916116"><ele>110.33333333333334</ele><time>2026-05-01T10:23:20.013Z</time></trkpt><trkpt lat="48.8499956" lon="4.4917911"><ele>108.66666666666666</ele><time>2026-05-01T10:23:21.016Z</time></trkpt><trkpt lat="48.8498899" lon="4.4919572"><ele>107.0</ele><time>2026-05-01T10:23:22.013Z</time></trkpt><trkpt lat="48.8497935" lon="4.4921225"><ele>107.0</ele><time>2026-05-01T10:23:23.01Z</time></trkpt><trkpt lat="48.8497038" lon="4.4922773"><ele>107.0</ele><time>2026-05-01T10:23:24.011Z</time></trkpt><trkpt lat="48.8496142" lon="4.4924207"><ele>107.0</ele><time>2026-05-01T10:23:25.015Z</time></trkpt><trkpt lat="48.8495299" lon="4.4925545"><ele>107.0</ele><time>2026-05-01T10:23:26.042Z</time></trkpt><trkpt lat="48.8494574" lon="4.4926788"><ele>106.99999999999999</ele><time>2026-05-01T10:23:27.021Z</time></trkpt><trkpt lat="48.8493947" lon="4.4927882"><ele>107.0</ele><time>2026-05-01T10:23:28.024Z</time></trkpt><trkpt lat="48.8493333" lon="4.492874"><ele>107.0</ele><time>2026-05-01T10:23:29.015Z</time></trkpt><trkpt lat="48.8492832" lon="4.4929522"><ele>107.0</ele><time>2026-05-01T10:23:30.022Z</time></trkpt><trkpt lat="48.8492284" lon="4.493037"><ele>106.99999999999999</ele><time>2026-05-01T10:23:31.013Z</time></trkpt><trkpt lat="48.8491609" lon="4.4931359"><ele>107.0</ele><time>2026-05-01T10:23:32.014Z</time></trkpt><trkpt lat="48.8490853" lon="4.4932447"><ele>105.5</ele><time>2026-05-01T10:23:33.016Z</time></trkpt><trkpt lat="48.8489984" lon="4.4933558"><ele>104.0</ele><time>2026-05-01T10:23:34.019Z</time></trkpt><trkpt lat="48.8489059" lon="4.4934769"><ele>102.5</ele><time>2026-05-01T10:23:35.018Z</time></trkpt><trkpt lat="48.8488099" lon="4.4935926"><ele>101.0</ele><time>2026-05-01T10:23:36.014Z</time></trkpt><trkpt lat="48.8487132" lon="4.4937024"><ele>101.0</ele><time>2026-05-01T10:23:37.02Z</time></trkpt><trkpt lat="48.8486159" lon="4.4938167"><ele>101.0</ele><time>2026-05-01T10:23:38.013Z</time></trkpt><trkpt lat="48.8485192" lon="4.4939374"><ele>101.0</ele><time>2026-05-01T10:23:39.02Z</time></trkpt><trkpt lat="48.8484316" lon="4.4940604"><ele>101.0</ele><time>2026-05-01T10:23:40.018Z</time></trkpt><trkpt lat="48.8483352" lon="4.4941874"><ele>99.75</ele><time>2026-05-01T10:23:41.019Z</time></trkpt><trkpt lat="48.8482346" lon="4.4942982"><ele>98.5</ele><time>2026-05-01T10:23:42.011Z</time></trkpt><trkpt lat="48.8481328" lon="4.4943931"><ele>97.25</ele><time>2026-05-01T10:23:43.016Z</time></trkpt><trkpt lat="48.8480253" lon="4.4944867"><ele>96.0</ele><time>2026-05-01T10:23:44.022Z</time></trkpt><trkpt lat="48.8479138" lon="4.4945758"><ele>96.25</ele><time>2026-05-01T10:23:45.028Z</time></trkpt><trkpt lat="48.8478051" lon="4.4946697"><ele>96.5</ele><time>2026-05-01T10:23:46.015Z</time></trkpt><trkpt lat="48.8476891" lon="4.4947673"><ele>96.75</ele><time>2026-05-01T10:23:47.014Z</time></trkpt><trkpt lat="48.8475655" lon="4.4948548"><ele>97.0</ele><time>2026-05-01T10:23:48.017Z</time></trkpt><trkpt lat="48.8474465" lon="4.4949594"><ele>97.0</ele><time>2026-05-01T10:23:49.021Z</time></trkpt><trkpt lat="48.8473371" lon="4.4950743"><ele>97.0</ele><time>2026-05-01T10:23:50.053Z</time></trkpt><trkpt lat="48.8472287" lon="4.4951906"><ele>97.0</ele><time>2026-05-01T10:23:51.017Z</time></trkpt><trkpt lat="48.8471141" lon="4.495316"><ele>97.0</ele><time>2026-05-01T10:23:52.012Z</time></trkpt><trkpt lat="48.8469928" lon="4.4954414"><ele>97.0</ele><time>2026-05-01T10:23:53.012Z</time></trkpt><trkpt lat="48.8468702" lon="4.4955663"><ele>97.0</ele><time>2026-05-01T10:23:54.012Z</time></trkpt><trkpt lat="48.8467494" lon="4.4956823"><ele>97.0</ele><time>2026-05-01T10:23:55.02Z</time></trkpt><trkpt lat="48.8466284" lon="4.495818"><ele>97.0</ele><time>2026-05-01T10:23:56.018Z</time></trkpt><trkpt lat="48.846507" lon="4.4959542"><ele>97.33333333333334</ele><time>2026-05-01T10:23:57.016Z</time></trkpt><trkpt lat="48.8463847" lon="4.496093"><ele>97.66666666666666</ele><time>2026-05-01T10:23:58.023Z</time></trkpt><trkpt lat="48.8462607" lon="4.4962187"><ele>98.0</ele><time>2026-05-01T10:23:59.015Z</time></trkpt><trkpt lat="48.8461388" lon="4.4963544"><ele>98.33333333333333</ele><time>2026-05-01T10:24:00.023Z</time></trkpt><trkpt lat="48.8460191" lon="4.4964785"><ele>98.66666666666666</ele><time>2026-05-01T10:24:01.02Z</time></trkpt><trkpt lat="48.8458888" lon="4.496605"><ele>99.0</ele><time>2026-05-01T10:24:02.022Z</time></trkpt><trkpt lat="48.8457665" lon="4.496752"><ele>99.66666666666666</ele><time>2026-05-01T10:24:03.009Z</time></trkpt><trkpt lat="48.8456352" lon="4.4969018"><ele>100.33333333333333</ele><time>2026-05-01T10:24:04.021Z</time></trkpt><trkpt lat="48.8455036" lon="4.4970625"><ele>101.0</ele><time>2026-05-01T10:24:05.018Z</time></trkpt><trkpt lat="48.8453577" lon="4.4972298"><ele>101.33333333333333</ele><time>2026-05-01T10:24:06.013Z</time></trkpt><trkpt lat="48.8452005" lon="4.4974042"><ele>101.66666666666666</ele><time>2026-05-01T10:24:07.012Z</time></trkpt><trkpt lat="48.845039" lon="4.4975811"><ele>102.0</ele><time>2026-05-01T10:24:08.012Z</time></trkpt><trkpt lat="48.8448662" lon="4.4977777"><ele>103.33333333333334</ele><time>2026-05-01T10:24:09.019Z</time></trkpt><trkpt lat="48.844697" lon="4.49797"><ele>104.66666666666667</ele><time>2026-05-01T10:24:10.018Z</time></trkpt><trkpt lat="48.8445251" lon="4.4981689"><ele>106.0</ele><time>2026-05-01T10:24:11.018Z</time></trkpt><trkpt lat="48.8443564" lon="4.4983668"><ele>106.33333333333334</ele><time>2026-05-01T10:24:12.013Z</time></trkpt><trkpt lat="48.8441802" lon="4.4985675"><ele>106.66666666666666</ele><time>2026-05-01T10:24:13.01Z</time></trkpt><trkpt lat="48.8439998" lon="4.4987658"><ele>107.0</ele><time>2026-05-01T10:24:14.015Z</time></trkpt><trkpt lat="48.8438191" lon="4.4989729"><ele>108.0</ele><time>2026-05-01T10:24:15.012Z</time></trkpt><trkpt lat="48.8436359" lon="4.4991869"><ele>109.0</ele><time>2026-05-01T10:24:16.021Z</time></trkpt><trkpt lat="48.8434462" lon="4.499401"><ele>112.0</ele><time>2026-05-01T10:24:17.018Z</time></trkpt><trkpt lat="48.8432552" lon="4.4996114"><ele>115.0</ele><time>2026-05-01T10:24:18.023Z</time></trkpt><trkpt lat="48.8430598" lon="4.4998308"><ele>115.0</ele><time>2026-05-01T10:24:19.018Z</time></trkpt><trkpt lat="48.8428719" lon="4.5000593"><ele>115.0</ele><time>2026-05-01T10:24:20.016Z</time></trkpt><trkpt lat="48.8426991" lon="4.5002954"><ele>115.0</ele><time>2026-05-01T10:24:21.013Z</time></trkpt><trkpt lat="48.8425336" lon="4.5005379"><ele>115.0</ele><time>2026-05-01T10:24:22.015Z</time></trkpt><trkpt lat="48.8423792" lon="4.5007957"><ele>115.0</ele><time>2026-05-01T10:24:23.012Z</time></trkpt><trkpt lat="48.8422275" lon="4.5010559"><ele>115.0</ele><time>2026-05-01T10:24:24.014Z</time></trkpt><trkpt lat="48.8420907" lon="4.5013354"><ele>118.5</ele><time>2026-05-01T10:24:25.014Z</time></trkpt><trkpt lat="48.8419622" lon="4.50162"><ele>122.0</ele><time>2026-05-01T10:24:26.02Z</time></trkpt><trkpt lat="48.84184" lon="4.5019147"><ele>117.0</ele><time>2026-05-01T10:24:27.018Z</time></trkpt><trkpt lat="48.8417242" lon="4.5022161"><ele>112.0</ele><time>2026-05-01T10:24:28.018Z</time></trkpt><trkpt lat="48.8416153" lon="4.5025165"><ele>112.0</ele><time>2026-05-01T10:24:29.019Z</time></trkpt><trkpt lat="48.841517" lon="4.5028318"><ele>112.0</ele><time>2026-05-01T10:24:30.015Z</time></trkpt><trkpt lat="48.8414242" lon="4.5031534"><ele>112.5</ele><time>2026-05-01T10:24:31.014Z</time></trkpt><trkpt lat="48.8413393" lon="4.5034727"><ele>113.0</ele><time>2026-05-01T10:24:32.029Z</time></trkpt><trkpt lat="48.8412611" lon="4.5037963"><ele>113.0</ele><time>2026-05-01T10:24:33.014Z</time></trkpt><trkpt lat="48.8411893" lon="4.5041257"><ele>113.0</ele><time>2026-05-01T10:24:34.036Z</time></trkpt><trkpt lat="48.841118" lon="4.5044538"><ele>113.0</ele><time>2026-05-01T10:24:35.017Z</time></trkpt><trkpt lat="48.8410475" lon="4.504786"><ele>113.0</ele><time>2026-05-01T10:24:36.015Z</time></trkpt><trkpt lat="48.8409747" lon="4.5051175"><ele>109.5</ele><time>2026-05-01T10:24:37.013Z</time></trkpt><trkpt lat="48.8409029" lon="4.5054534"><ele>106.0</ele><time>2026-05-01T10:24:38.013Z</time></trkpt><trkpt lat="48.8408286" lon="4.5057909"><ele>106.0</ele><time>2026-05-01T10:24:39.018Z</time></trkpt><trkpt lat="48.8407575" lon="4.5061306"><ele>106.0</ele><time>2026-05-01T10:24:40.016Z</time></trkpt><trkpt lat="48.8406848" lon="4.506468"><ele>106.0</ele><time>2026-05-01T10:24:41.014Z</time></trkpt><trkpt lat="48.8406125" lon="4.5068074"><ele>106.0</ele><time>2026-05-01T10:24:42.027Z</time></trkpt><trkpt lat="48.8405394" lon="4.5071409"><ele>106.5</ele><time>2026-05-01T10:24:43.014Z</time></trkpt><trkpt lat="48.8404639" lon="4.5074739"><ele>107.0</ele><time>2026-05-01T10:24:44.011Z</time></trkpt><trkpt lat="48.8403809" lon="4.5078039"><ele>107.0</ele><time>2026-05-01T10:24:45.015Z</time></trkpt><trkpt lat="48.840284" lon="4.508125"><ele>107.0</ele><time>2026-05-01T10:24:46.018Z</time></trkpt><trkpt lat="48.8401738" lon="4.5084346"><ele>107.33333333333333</ele><time>2026-05-01T10:24:47.014Z</time></trkpt><trkpt lat="48.8400514" lon="4.5087245"><ele>107.66666666666666</ele><time>2026-05-01T10:24:48.013Z</time></trkpt><trkpt lat="48.8399227" lon="4.5089997"><ele>108.0</ele><time>2026-05-01T10:24:49.018Z</time></trkpt><trkpt lat="48.8397813" lon="4.5092601"><ele>108.5</ele><time>2026-05-01T10:24:50.019Z</time></trkpt><trkpt lat="48.839622" lon="4.5095015"><ele>109.0</ele><time>2026-05-01T10:24:51.017Z</time></trkpt><trkpt lat="48.8394535" lon="4.5097315"><ele>107.66666666666667</ele><time>2026-05-01T10:24:52.019Z</time></trkpt><trkpt lat="48.8392855" lon="4.509938"><ele>106.33333333333334</ele><time>2026-05-01T10:24:53.007Z</time></trkpt><trkpt lat="48.8391225" lon="4.5101214"><ele>105.0</ele><time>2026-05-01T10:24:54.018Z</time></trkpt><trkpt lat="48.8389683" lon="4.5102862"><ele>105.66666666666666</ele><time>2026-05-01T10:24:55.019Z</time></trkpt><trkpt lat="48.8388269" lon="4.5104327"><ele>106.33333333333333</ele><time>2026-05-01T10:24:56.021Z</time></trkpt><trkpt lat="48.8386975" lon="4.5105673"><ele>107.0</ele><time>2026-05-01T10:24:57.015Z</time></trkpt><trkpt lat="48.8385702" lon="4.5106984"><ele>106.5</ele><time>2026-05-01T10:24:58.081Z</time></trkpt><trkpt lat="48.8384504" lon="4.5108203"><ele>106.0</ele><time>2026-05-01T10:24:59.023Z</time></trkpt><trkpt lat="48.8383291" lon="4.5109421"><ele>105.5</ele><time>2026-05-01T10:25:00.013Z</time></trkpt><trkpt lat="48.8382136" lon="4.5110666"><ele>105.0</ele><time>2026-05-01T10:25:01.015Z</time></trkpt><trkpt lat="48.8381049" lon="4.5111919"><ele>105.0</ele><time>2026-05-01T10:25:02.017Z</time></trkpt><trkpt lat="48.838001" lon="4.5113106"><ele>105.0</ele><time>2026-05-01T10:25:03.017Z</time></trkpt><trkpt lat="48.837896" lon="4.5114283"><ele>105.0</ele><time>2026-05-01T10:25:04.024Z</time></trkpt><trkpt lat="48.8377905" lon="4.5115437"><ele>105.0</ele><time>2026-05-01T10:25:05.016Z</time></trkpt><trkpt lat="48.8376846" lon="4.5116568"><ele>104.0</ele><time>2026-05-01T10:25:06.021Z</time></trkpt><trkpt lat="48.8375756" lon="4.5117707"><ele>103.0</ele><time>2026-05-01T10:25:07.018Z</time></trkpt><trkpt lat="48.837464" lon="4.5118853"><ele>102.0</ele><time>2026-05-01T10:25:08.019Z</time></trkpt><trkpt lat="48.837354" lon="4.5119981"><ele>101.0</ele><time>2026-05-01T10:25:09.018Z</time></trkpt><trkpt lat="48.8372456" lon="4.5121123"><ele>101.0</ele><time>2026-05-01T10:25:10.018Z</time></trkpt><trkpt lat="48.8371365" lon="4.5122251"><ele>101.0</ele><time>2026-05-01T10:25:11.02Z</time></trkpt><trkpt lat="48.8370271" lon="4.5123416"><ele>101.0</ele><time>2026-05-01T10:25:12.025Z</time></trkpt><trkpt lat="48.8369212" lon="4.5124405"><ele>101.0</ele><time>2026-05-01T10:25:13.028Z</time></trkpt><trkpt lat="48.8368203" lon="4.5125379"><ele>100.6</ele><time>2026-05-01T10:25:14.02Z</time></trkpt><trkpt lat="48.836731" lon="4.5126305"><ele>100.19999999999999</ele><time>2026-05-01T10:25:15.015Z</time></trkpt><trkpt lat="48.8366413" lon="4.512709"><ele>99.80000000000001</ele><time>2026-05-01T10:25:16.015Z</time></trkpt><trkpt lat="48.8365656" lon="4.5127832"><ele>99.4</ele><time>2026-05-01T10:25:17.028Z</time></trkpt><trkpt lat="48.836498" lon="4.5128548"><ele>99.0</ele><time>2026-05-01T10:25:18.027Z</time></trkpt><trkpt lat="48.8364446" lon="4.512934"><ele>99.0</ele><time>2026-05-01T10:25:19.016Z</time></trkpt><trkpt lat="48.8363973" lon="4.5130317"><ele>99.0</ele><time>2026-05-01T10:25:20.022Z</time></trkpt><trkpt lat="48.8363562" lon="4.5131509"><ele>99.0</ele><time>2026-05-01T10:25:21.011Z</time></trkpt><trkpt lat="48.8363065" lon="4.5132765"><ele>99.0</ele><time>2026-05-01T10:25:22.019Z</time></trkpt><trkpt lat="48.8362547" lon="4.5134078"><ele>99.0</ele><time>2026-05-01T10:25:23.018Z</time></trkpt><trkpt lat="48.8361948" lon="4.5135524"><ele>99.0</ele><time>2026-05-01T10:25:24.011Z</time></trkpt><trkpt lat="48.8361361" lon="4.5137022"><ele>99.0</ele><time>2026-05-01T10:25:25.015Z</time></trkpt><trkpt lat="48.8360789" lon="4.5138756"><ele>99.0</ele><time>2026-05-01T10:25:26.022Z</time></trkpt><trkpt lat="48.8360269" lon="4.5140524"><ele>99.0</ele><time>2026-05-01T10:25:27.026Z</time></trkpt><trkpt lat="48.835978" lon="4.5142346"><ele>98.5</ele><time>2026-05-01T10:25:28.02Z</time></trkpt><trkpt lat="48.8359409" lon="4.5144053"><ele>98.0</ele><time>2026-05-01T10:25:29.065Z</time></trkpt><trkpt lat="48.8359028" lon="4.5145728"><ele>97.5</ele><time>2026-05-01T10:25:30.025Z</time></trkpt><trkpt lat="48.8358673" lon="4.5147314"><ele>97.0</ele><time>2026-05-01T10:25:31.02Z</time></trkpt><trkpt lat="48.8358329" lon="4.5148868"><ele>97.0</ele><time>2026-05-01T10:25:32.031Z</time></trkpt><trkpt lat="48.835801" lon="4.515051"><ele>97.0</ele><time>2026-05-01T10:25:33.022Z</time></trkpt><trkpt lat="48.8357697" lon="4.5151984"><ele>97.0</ele><time>2026-05-01T10:25:34.033Z</time></trkpt><trkpt lat="48.835736" lon="4.5153537"><ele>97.0</ele><time>2026-05-01T10:25:35.045Z</time></trkpt><trkpt lat="48.8356997" lon="4.5154995"><ele>97.0</ele><time>2026-05-01T10:25:36.026Z</time></trkpt><trkpt lat="48.8356725" lon="4.5156517"><ele>97.0</ele><time>2026-05-01T10:25:37.035Z</time></trkpt><trkpt lat="48.8356517" lon="4.5157931"><ele>97.0</ele><time>2026-05-01T10:25:38.028Z</time></trkpt><trkpt lat="48.835626" lon="4.5159393"><ele>97.0</ele><time>2026-05-01T10:25:39.023Z</time></trkpt><trkpt lat="48.8355914" lon="4.516085"><ele>97.0</ele><time>2026-05-01T10:25:40.03Z</time></trkpt><trkpt lat="48.8355553" lon="4.5162318"><ele>97.0</ele><time>2026-05-01T10:25:41.023Z</time></trkpt><trkpt lat="48.8355177" lon="4.5163874"><ele>97.0</ele><time>2026-05-01T10:25:42.029Z</time></trkpt><trkpt lat="48.8354746" lon="4.5165544"><ele>97.0</ele><time>2026-05-01T10:25:43.028Z</time></trkpt><trkpt lat="48.8354208" lon="4.5167144"><ele>97.0</ele><time>2026-05-01T10:25:44.017Z</time></trkpt><trkpt lat="48.8353427" lon="4.5168438"><ele>97.0</ele><time>2026-05-01T10:25:45.015Z</time></trkpt><trkpt lat="48.8352572" lon="4.5169557"><ele>97.0</ele><time>2026-05-01T10:25:46.013Z</time></trkpt><trkpt lat="48.8351632" lon="4.5170497"><ele>97.0</ele><time>2026-05-01T10:25:47.016Z</time></trkpt><trkpt lat="48.8350662" lon="4.5171452"><ele>97.0</ele><time>2026-05-01T10:25:48.014Z</time></trkpt><trkpt lat="48.8349634" lon="4.5172466"><ele>97.0</ele><time>2026-05-01T10:25:49.019Z</time></trkpt><trkpt lat="48.8348678" lon="4.517371"><ele>97.25</ele><time>2026-05-01T10:25:50.024Z</time></trkpt><trkpt lat="48.8347694" lon="4.5174856"><ele>97.5</ele><time>2026-05-01T10:25:51.009Z</time></trkpt><trkpt lat="48.8346715" lon="4.5176081"><ele>97.75</ele><time>2026-05-01T10:25:52.019Z</time></trkpt><trkpt lat="48.8345898" lon="4.5177396"><ele>98.0</ele><time>2026-05-01T10:25:53.021Z</time></trkpt><trkpt lat="48.8345221" lon="4.5179128"><ele>98.0</ele><time>2026-05-01T10:25:54.022Z</time></trkpt><trkpt lat="48.8344658" lon="4.5180726"><ele>98.0</ele><time>2026-05-01T10:25:55.016Z</time></trkpt><trkpt lat="48.8344136" lon="4.5182022"><ele>98.0</ele><time>2026-05-01T10:25:56.02Z</time></trkpt><trkpt lat="48.8343624" lon="4.518318"><ele>98.0</ele><time>2026-05-01T10:25:57.02Z</time></trkpt><trkpt lat="48.8343222" lon="4.5184227"><ele>98.0</ele><time>2026-05-01T10:25:58.018Z</time></trkpt><trkpt lat="48.8342838" lon="4.5185466"><ele>97.60000000000001</ele><time>2026-05-01T10:26:00.016Z</time></trkpt><trkpt lat="48.8342678" lon="4.5186708"><ele>97.2</ele><time>2026-05-01T10:26:04.021Z</time></trkpt><trkpt lat="48.8342514" lon="4.5188552"><ele>96.8</ele><time>2026-05-01T10:26:06.017Z</time></trkpt><trkpt lat="48.8342263" lon="4.5189795"><ele>96.4</ele><time>2026-05-01T10:26:07.017Z</time></trkpt><trkpt lat="48.8342037" lon="4.5191268"><ele>96.0</ele><time>2026-05-01T10:26:08.019Z</time></trkpt><trkpt lat="48.8341866" lon="4.5192841"><ele>95.8</ele><time>2026-05-01T10:26:09.022Z</time></trkpt><trkpt lat="48.8341785" lon="4.5194403"><ele>95.6</ele><time>2026-05-01T10:26:10.015Z</time></trkpt><trkpt lat="48.8341617" lon="4.5196053"><ele>95.4</ele><time>2026-05-01T10:26:11.018Z</time></trkpt><trkpt lat="48.8341544" lon="4.5197834"><ele>95.2</ele><time>2026-05-01T10:26:12.02Z</time></trkpt><trkpt lat="48.8341367" lon="4.5199597"><ele>95.0</ele><time>2026-05-01T10:26:13.04Z</time></trkpt><trkpt lat="48.8341117" lon="4.5201409"><ele>94.75</ele><time>2026-05-01T10:26:14.017Z</time></trkpt><trkpt lat="48.8340957" lon="4.5203204"><ele>94.5</ele><time>2026-05-01T10:26:15.02Z</time></trkpt><trkpt lat="48.8340934" lon="4.5205011"><ele>94.25</ele><time>2026-05-01T10:26:16.016Z</time></trkpt><trkpt lat="48.8340757" lon="4.5206829"><ele>94.0</ele><time>2026-05-01T10:26:17.022Z</time></trkpt><trkpt lat="48.8340457" lon="4.5208599"><ele>94.0</ele><time>2026-05-01T10:26:18.014Z</time></trkpt><trkpt lat="48.83402" lon="4.5210354"><ele>94.0</ele><time>2026-05-01T10:26:19.021Z</time></trkpt><trkpt lat="48.8340051" lon="4.5212207"><ele>94.0</ele><time>2026-05-01T10:26:20.019Z</time></trkpt><trkpt lat="48.8339755" lon="4.5213913"><ele>94.0</ele><time>2026-05-01T10:26:21.022Z</time></trkpt><trkpt lat="48.8339607" lon="4.5215682"><ele>94.0</ele><time>2026-05-01T10:26:22.021Z</time></trkpt><trkpt lat="48.8339544" lon="4.5217509"><ele>94.0</ele><time>2026-05-01T10:26:23.032Z</time></trkpt><trkpt lat="48.8339279" lon="4.5219306"><ele>94.0</ele><time>2026-05-01T10:26:24.019Z</time></trkpt><trkpt lat="48.8339217" lon="4.5221179"><ele>94.0</ele><time>2026-05-01T10:26:25.012Z</time></trkpt><trkpt lat="48.8339038" lon="4.522306"><ele>93.75</ele><time>2026-05-01T10:26:26.02Z</time></trkpt><trkpt lat="48.8338826" lon="4.522488"><ele>93.5</ele><time>2026-05-01T10:26:27.024Z</time></trkpt><trkpt lat="48.8338652" lon="4.5226662"><ele>93.25</ele><time>2026-05-01T10:26:28.015Z</time></trkpt><trkpt lat="48.83385" lon="4.5228481"><ele>93.0</ele><time>2026-05-01T10:26:29.018Z</time></trkpt><trkpt lat="48.8338388" lon="4.5230267"><ele>93.0</ele><time>2026-05-01T10:26:30.012Z</time></trkpt><trkpt lat="48.8338196" lon="4.5232055"><ele>93.0</ele><time>2026-05-01T10:26:31.023Z</time></trkpt><trkpt lat="48.8338057" lon="4.5233868"><ele>93.0</ele><time>2026-05-01T10:26:32.017Z</time></trkpt><trkpt lat="48.833787" lon="4.5235614"><ele>93.0</ele><time>2026-05-01T10:26:33.015Z</time></trkpt><trkpt lat="48.8337694" lon="4.5237416"><ele>93.0</ele><time>2026-05-01T10:26:34.025Z</time></trkpt><trkpt lat="48.8337545" lon="4.5239167"><ele>93.0</ele><time>2026-05-01T10:26:35.018Z</time></trkpt><trkpt lat="48.8337365" lon="4.5240992"><ele>93.0</ele><time>2026-05-01T10:26:36.021Z</time></trkpt><trkpt lat="48.8337152" lon="4.5242755"><ele>93.0</ele><time>2026-05-01T10:26:37.022Z</time></trkpt><trkpt lat="48.8336834" lon="4.5244356"><ele>93.0</ele><time>2026-05-01T10:26:38.061Z</time></trkpt><trkpt lat="48.8336553" lon="4.5245989"><ele>93.0</ele><time>2026-05-01T10:26:39.017Z</time></trkpt><trkpt lat="48.8336236" lon="4.5247579"><ele>93.0</ele><time>2026-05-01T10:26:40.009Z</time></trkpt><trkpt lat="48.8335872" lon="4.5249216"><ele>93.0</ele><time>2026-05-01T10:26:41.021Z</time></trkpt><trkpt lat="48.8335435" lon="4.5250667"><ele>93.0</ele><time>2026-05-01T10:26:42.016Z</time></trkpt><trkpt lat="48.8334946" lon="4.5251923"><ele>93.0</ele><time>2026-05-01T10:26:43.017Z</time></trkpt><trkpt lat="48.8334319" lon="4.5253"><ele>93.0</ele><time>2026-05-01T10:26:44.024Z</time></trkpt><trkpt lat="48.8333552" lon="4.5254085"><ele>93.0</ele><time>2026-05-01T10:26:45.021Z</time></trkpt><trkpt lat="48.8332891" lon="4.5255222"><ele>93.0</ele><time>2026-05-01T10:26:46.014Z</time></trkpt><trkpt lat="48.8332452" lon="4.5256593"><ele>93.0</ele><time>2026-05-01T10:26:47.012Z</time></trkpt><trkpt lat="48.8332011" lon="4.5258287"><ele>93.0</ele><time>2026-05-01T10:26:48.019Z</time></trkpt><trkpt lat="48.8331726" lon="4.5260173"><ele>93.0</ele><time>2026-05-01T10:26:49.016Z</time></trkpt><trkpt lat="48.8331614" lon="4.5261995"><ele>93.0</ele><time>2026-05-01T10:26:50.021Z</time></trkpt><trkpt lat="48.8331579" lon="4.5263865"><ele>93.0</ele><time>2026-05-01T10:26:51.019Z</time></trkpt><trkpt lat="48.8331408" lon="4.5265558"><ele>93.0</ele><time>2026-05-01T10:26:52.017Z</time></trkpt><trkpt lat="48.8331026" lon="4.5266948"><ele>93.0</ele><time>2026-05-01T10:26:53.025Z</time></trkpt><trkpt lat="48.8330263" lon="4.5267947"><ele>93.0</ele><time>2026-05-01T10:26:54.02Z</time></trkpt><trkpt lat="48.8329271" lon="4.5268559"><ele>93.0</ele><time>2026-05-01T10:26:55.012Z</time></trkpt><trkpt lat="48.832825" lon="4.5268912"><ele>93.0</ele><time>2026-05-01T10:26:56.012Z</time></trkpt><trkpt lat="48.8327307" lon="4.5269231"><ele>93.0</ele><time>2026-05-01T10:26:57.01Z</time></trkpt><trkpt lat="48.832621" lon="4.5269421"><ele>93.0</ele><time>2026-05-01T10:26:58.016Z</time></trkpt><trkpt lat="48.8325194" lon="4.5269493"><ele>93.0</ele><time>2026-05-01T10:26:59.015Z</time></trkpt><trkpt lat="48.8324109" lon="4.5269788"><ele>93.0</ele><time>2026-05-01T10:27:00.026Z</time></trkpt><trkpt lat="48.8323205" lon="4.5270419"><ele>93.0</ele><time>2026-05-01T10:27:01.017Z</time></trkpt><trkpt lat="48.8322638" lon="4.5271451"><ele>93.2</ele><time>2026-05-01T10:27:02.019Z</time></trkpt><trkpt lat="48.8322144" lon="4.5272806"><ele>93.4</ele><time>2026-05-01T10:27:03.015Z</time></trkpt><trkpt lat="48.832186" lon="4.5274338"><ele>93.60000000000001</ele><time>2026-05-01T10:27:04.014Z</time></trkpt><trkpt lat="48.8321767" lon="4.5276158"><ele>93.80000000000001</ele><time>2026-05-01T10:27:05.018Z</time></trkpt><trkpt lat="48.8321678" lon="4.5277833"><ele>94.0</ele><time>2026-05-01T10:27:06.016Z</time></trkpt><trkpt lat="48.8321558" lon="4.5279471"><ele>94.0</ele><time>2026-05-01T10:27:07.021Z</time></trkpt><trkpt lat="48.832149" lon="4.5281217"><ele>94.0</ele><time>2026-05-01T10:27:08.019Z</time></trkpt><trkpt lat="48.8321429" lon="4.5282874"><ele>94.0</ele><time>2026-05-01T10:27:09.021Z</time></trkpt><trkpt lat="48.8321279" lon="4.5284631"><ele>94.0</ele><time>2026-05-01T10:27:10.017Z</time></trkpt><trkpt lat="48.8320969" lon="4.528634"><ele>94.5</ele><time>2026-05-01T10:27:11.012Z</time></trkpt><trkpt lat="48.8320545" lon="4.5287968"><ele>95.0</ele><time>2026-05-01T10:27:12.018Z</time></trkpt><trkpt lat="48.8320023" lon="4.5289546"><ele>95.5</ele><time>2026-05-01T10:27:13.013Z</time></trkpt><trkpt lat="48.831951" lon="4.5291117"><ele>96.0</ele><time>2026-05-01T10:27:14.016Z</time></trkpt><trkpt lat="48.8318998" lon="4.5292674"><ele>96.0</ele><time>2026-05-01T10:27:15.019Z</time></trkpt><trkpt lat="48.8318568" lon="4.5294309"><ele>96.0</ele><time>2026-05-01T10:27:16.01Z</time></trkpt><trkpt lat="48.83181" lon="4.5295839"><ele>96.0</ele><time>2026-05-01T10:27:17.021Z</time></trkpt><trkpt lat="48.8317653" lon="4.5297256"><ele>96.0</ele><time>2026-05-01T10:27:18.019Z</time></trkpt><trkpt lat="48.8317181" lon="4.5298703"><ele>96.0</ele><time>2026-05-01T10:27:19.02Z</time></trkpt><trkpt lat="48.8316745" lon="4.5300023"><ele>95.6</ele><time>2026-05-01T10:27:20.019Z</time></trkpt><trkpt lat="48.8316541" lon="4.5301425"><ele>95.19999999999999</ele><time>2026-05-01T10:27:21.015Z</time></trkpt><trkpt lat="48.8316258" lon="4.5302747"><ele>94.80000000000001</ele><time>2026-05-01T10:27:22.019Z</time></trkpt><trkpt lat="48.8315755" lon="4.5304115"><ele>94.4</ele><time>2026-05-01T10:27:23.014Z</time></trkpt><trkpt lat="48.8315198" lon="4.5305539"><ele>94.0</ele><time>2026-05-01T10:27:24.064Z</time></trkpt><trkpt lat="48.8314591" lon="4.5307004"><ele>94.0</ele><time>2026-05-01T10:27:25.027Z</time></trkpt><trkpt lat="48.8313918" lon="4.5308477"><ele>94.0</ele><time>2026-05-01T10:27:26.016Z</time></trkpt><trkpt lat="48.8313218" lon="4.5309942"><ele>94.0</ele><time>2026-05-01T10:27:27.014Z</time></trkpt><trkpt lat="48.8312466" lon="4.5311322"><ele>94.0</ele><time>2026-05-01T10:27:28.015Z</time></trkpt><trkpt lat="48.83117" lon="4.5312771"><ele>94.0</ele><time>2026-05-01T10:27:29.02Z</time></trkpt><trkpt lat="48.8310939" lon="4.5314237"><ele>94.0</ele><time>2026-05-01T10:27:30.013Z</time></trkpt><trkpt lat="48.8310194" lon="4.5315789"><ele>94.0</ele><time>2026-05-01T10:27:31.015Z</time></trkpt><trkpt lat="48.8309501" lon="4.5317307"><ele>94.0</ele><time>2026-05-01T10:27:32.018Z</time></trkpt><trkpt lat="48.8308837" lon="4.5318829"><ele>94.0</ele><time>2026-05-01T10:27:33.023Z</time></trkpt><trkpt lat="48.8308103" lon="4.5320266"><ele>94.0</ele><time>2026-05-01T10:27:34.016Z</time></trkpt><trkpt lat="48.8307312" lon="4.5321805"><ele>94.0</ele><time>2026-05-01T10:27:35.015Z</time></trkpt><trkpt lat="48.8306561" lon="4.5323338"><ele>94.0</ele><time>2026-05-01T10:27:36.016Z</time></trkpt><trkpt lat="48.8305871" lon="4.5324804"><ele>94.0</ele><time>2026-05-01T10:27:37.021Z</time></trkpt><trkpt lat="48.8305283" lon="4.5326457"><ele>94.0</ele><time>2026-05-01T10:27:38.015Z</time></trkpt><trkpt lat="48.8305085" lon="4.5328212"><ele>94.0</ele><time>2026-05-01T10:27:39.02Z</time></trkpt><trkpt lat="48.8305326" lon="4.5329868"><ele>94.0</ele><time>2026-05-01T10:27:40.015Z</time></trkpt><trkpt lat="48.830581" lon="4.533147"><ele>94.25</ele><time>2026-05-01T10:27:41.017Z</time></trkpt><trkpt lat="48.8306512" lon="4.5332989"><ele>94.5</ele><time>2026-05-01T10:27:42.016Z</time></trkpt><trkpt lat="48.8307174" lon="4.5334782"><ele>94.75</ele><time>2026-05-01T10:27:43.018Z</time></trkpt><trkpt lat="48.830779" lon="4.5336797"><ele>95.0</ele><time>2026-05-01T10:27:44.015Z</time></trkpt><trkpt lat="48.8308266" lon="4.5338957"><ele>95.33333333333334</ele><time>2026-05-01T10:27:45.022Z</time></trkpt><trkpt lat="48.8308508" lon="4.5341379"><ele>95.66666666666667</ele><time>2026-05-01T10:27:46.017Z</time></trkpt><trkpt lat="48.8308419" lon="4.5343763"><ele>96.0</ele><time>2026-05-01T10:27:47.019Z</time></trkpt><trkpt lat="48.8308121" lon="4.5346227"><ele>95.33333333333333</ele><time>2026-05-01T10:27:48.016Z</time></trkpt><trkpt lat="48.8307665" lon="4.53486"><ele>94.66666666666666</ele><time>2026-05-01T10:27:49.022Z</time></trkpt><trkpt lat="48.8306906" lon="4.5351087"><ele>94.0</ele><time>2026-05-01T10:27:50.016Z</time></trkpt><trkpt lat="48.8306041" lon="4.5353558"><ele>94.33333333333333</ele><time>2026-05-01T10:27:51.017Z</time></trkpt><trkpt lat="48.8305163" lon="4.5356128"><ele>94.66666666666667</ele><time>2026-05-01T10:27:52.046Z</time></trkpt><trkpt lat="48.8304372" lon="4.5358755"><ele>95.0</ele><time>2026-05-01T10:27:53.016Z</time></trkpt><trkpt lat="48.8303851" lon="4.5361631"><ele>95.0</ele><time>2026-05-01T10:27:54.019Z</time></trkpt><trkpt lat="48.8303614" lon="4.5364542"><ele>95.0</ele><time>2026-05-01T10:27:55.013Z</time></trkpt><trkpt lat="48.8303578" lon="4.536758"><ele>95.0</ele><time>2026-05-01T10:27:56.024Z</time></trkpt><trkpt lat="48.8303491" lon="4.5370494"><ele>95.33333333333334</ele><time>2026-05-01T10:27:57.023Z</time></trkpt><trkpt lat="48.8303383" lon="4.5373531"><ele>95.66666666666667</ele><time>2026-05-01T10:27:58.012Z</time></trkpt><trkpt lat="48.8303246" lon="4.5376516"><ele>96.0</ele><time>2026-05-01T10:27:59.018Z</time></trkpt><trkpt lat="48.8303127" lon="4.5379663"><ele>96.66666666666666</ele><time>2026-05-01T10:28:00.021Z</time></trkpt><trkpt lat="48.8303049" lon="4.5382782"><ele>97.33333333333333</ele><time>2026-05-01T10:28:01.021Z</time></trkpt><trkpt lat="48.8302904" lon="4.5385827"><ele>98.0</ele><time>2026-05-01T10:28:02.023Z</time></trkpt><trkpt lat="48.8302804" lon="4.5388861"><ele>99.0</ele><time>2026-05-01T10:28:03.008Z</time></trkpt><trkpt lat="48.8302716" lon="4.5391954"><ele>100.0</ele><time>2026-05-01T10:28:04.014Z</time></trkpt><trkpt lat="48.8302645" lon="4.539509"><ele>101.0</ele><time>2026-05-01T10:28:05.011Z</time></trkpt><trkpt lat="48.8302468" lon="4.5398181"><ele>100.66666666666666</ele><time>2026-05-01T10:28:06.015Z</time></trkpt><trkpt lat="48.8302078" lon="4.5401289"><ele>100.33333333333334</ele><time>2026-05-01T10:28:07.019Z</time></trkpt><trkpt lat="48.8301318" lon="4.5404282"><ele>100.0</ele><time>2026-05-01T10:28:08.016Z</time></trkpt><trkpt lat="48.8300174" lon="4.5406776"><ele>100.0</ele><time>2026-05-01T10:28:09.021Z</time></trkpt><trkpt lat="48.8298682" lon="4.5409197"><ele>100.0</ele><time>2026-05-01T10:28:10.018Z</time></trkpt><trkpt lat="48.829714" lon="4.5411436"><ele>100.0</ele><time>2026-05-01T10:28:11.022Z</time></trkpt><trkpt lat="48.8295662" lon="4.5413871"><ele>100.33333333333334</ele><time>2026-05-01T10:28:12.017Z</time></trkpt><trkpt lat="48.829431" lon="4.5416537"><ele>100.66666666666666</ele><time>2026-05-01T10:28:13.014Z</time></trkpt><trkpt lat="48.8293111" lon="4.5419419"><ele>101.0</ele><time>2026-05-01T10:28:14.018Z</time></trkpt><trkpt lat="48.8291972" lon="4.5422314"><ele>102.0</ele><time>2026-05-01T10:28:15.02Z</time></trkpt><trkpt lat="48.8290818" lon="4.5425245"><ele>103.0</ele><time>2026-05-01T10:28:16.014Z</time></trkpt><trkpt lat="48.8289657" lon="4.5428189"><ele>103.33333333333334</ele><time>2026-05-01T10:28:17.022Z</time></trkpt><trkpt lat="48.8288472" lon="4.5430971"><ele>103.66666666666666</ele><time>2026-05-01T10:28:18.015Z</time></trkpt><trkpt lat="48.8287227" lon="4.5433694"><ele>104.0</ele><time>2026-05-01T10:28:19.019Z</time></trkpt><trkpt lat="48.8285914" lon="4.5436392"><ele>104.66666666666666</ele><time>2026-05-01T10:28:20.015Z</time></trkpt><trkpt lat="48.8284605" lon="4.5439127"><ele>105.33333333333334</ele><time>2026-05-01T10:28:21.017Z</time></trkpt><trkpt lat="48.8283246" lon="4.5441766"><ele>106.0</ele><time>2026-05-01T10:28:22.016Z</time></trkpt><trkpt lat="48.8281809" lon="4.5444391"><ele>107.33333333333334</ele><time>2026-05-01T10:28:23.015Z</time></trkpt><trkpt lat="48.8280435" lon="4.544685"><ele>108.66666666666666</ele><time>2026-05-01T10:28:24.021Z</time></trkpt><trkpt lat="48.827915" lon="4.5449108"><ele>110.0</ele><time>2026-05-01T10:28:25.01Z</time></trkpt><trkpt lat="48.8277967" lon="4.5451353"><ele>110.0</ele><time>2026-05-01T10:28:26.016Z</time></trkpt><trkpt lat="48.8276885" lon="4.545372"><ele>110.0</ele><time>2026-05-01T10:28:27.025Z</time></trkpt><trkpt lat="48.8275823" lon="4.545622"><ele>110.0</ele><time>2026-05-01T10:28:28.019Z</time></trkpt><trkpt lat="48.8274729" lon="4.5458637"><ele>110.0</ele><time>2026-05-01T10:28:29.015Z</time></trkpt><trkpt lat="48.8273574" lon="4.5461156"><ele>110.0</ele><time>2026-05-01T10:28:30.017Z</time></trkpt><trkpt lat="48.8272506" lon="4.5463776"><ele>110.0</ele><time>2026-05-01T10:28:31.019Z</time></trkpt><trkpt lat="48.8271549" lon="4.5466616"><ele>110.66666666666666</ele><time>2026-05-01T10:28:32.012Z</time></trkpt><trkpt lat="48.8270694" lon="4.5469604"><ele>111.33333333333334</ele><time>2026-05-01T10:28:33.017Z</time></trkpt><trkpt lat="48.8269937" lon="4.5472609"><ele>112.0</ele><time>2026-05-01T10:28:34.012Z</time></trkpt><trkpt lat="48.8269083" lon="4.5475689"><ele>113.0</ele><time>2026-05-01T10:28:35.019Z</time></trkpt><trkpt lat="48.8268258" lon="4.5478791"><ele>114.0</ele><time>2026-05-01T10:28:36.015Z</time></trkpt><trkpt lat="48.8267388" lon="4.548192"><ele>115.0</ele><time>2026-05-01T10:28:37.019Z</time></trkpt><trkpt lat="48.826653" lon="4.5484961"><ele>113.0</ele><time>2026-05-01T10:28:38.013Z</time></trkpt><trkpt lat="48.8265649" lon="4.5488066"><ele>111.0</ele><time>2026-05-01T10:28:39.025Z</time></trkpt><trkpt lat="48.8264767" lon="4.5491091"><ele>109.0</ele><time>2026-05-01T10:28:40.018Z</time></trkpt><trkpt lat="48.8263832" lon="4.5494081"><ele>109.0</ele><time>2026-05-01T10:28:41.015Z</time></trkpt><trkpt lat="48.8262712" lon="4.5496959"><ele>109.0</ele><time>2026-05-01T10:28:42.018Z</time></trkpt><trkpt lat="48.826147" lon="4.5499695"><ele>109.0</ele><time>2026-05-01T10:28:43.019Z</time></trkpt><trkpt lat="48.8260267" lon="4.5502593"><ele>107.0</ele><time>2026-05-01T10:28:44.015Z</time></trkpt><trkpt lat="48.8259042" lon="4.5505455"><ele>105.0</ele><time>2026-05-01T10:28:45.017Z</time></trkpt><trkpt lat="48.8257853" lon="4.5508434"><ele>105.0</ele><time>2026-05-01T10:28:46.016Z</time></trkpt><trkpt lat="48.8256757" lon="4.5511423"><ele>105.0</ele><time>2026-05-01T10:28:47.012Z</time></trkpt><trkpt lat="48.8255736" lon="4.5514396"><ele>105.0</ele><time>2026-05-01T10:28:48.012Z</time></trkpt><trkpt lat="48.8254685" lon="4.5517428"><ele>105.0</ele><time>2026-05-01T10:28:49.019Z</time></trkpt><trkpt lat="48.8253547" lon="4.5520362"><ele>105.0</ele><time>2026-05-01T10:28:50.019Z</time></trkpt><trkpt lat="48.8252227" lon="4.552302"><ele>105.0</ele><time>2026-05-01T10:28:51.015Z</time></trkpt><trkpt lat="48.8250637" lon="4.5525236"><ele>105.33333333333334</ele><time>2026-05-01T10:28:52.044Z</time></trkpt><trkpt lat="48.8248817" lon="4.5527096"><ele>105.66666666666667</ele><time>2026-05-01T10:28:53.017Z</time></trkpt><trkpt lat="48.8246891" lon="4.552875"><ele>106.0</ele><time>2026-05-01T10:28:54.014Z</time></trkpt><trkpt lat="48.8245302" lon="4.5530826"><ele>106.0</ele><time>2026-05-01T10:28:55.02Z</time></trkpt><trkpt lat="48.8243788" lon="4.5532871"><ele>106.0</ele><time>2026-05-01T10:28:56.018Z</time></trkpt><trkpt lat="48.8242321" lon="4.5535008"><ele>106.0</ele><time>2026-05-01T10:28:57.016Z</time></trkpt><trkpt lat="48.8241238" lon="4.5537524"><ele>105.66666666666667</ele><time>2026-05-01T10:28:58.015Z</time></trkpt><trkpt lat="48.8240601" lon="4.5540345"><ele>105.33333333333334</ele><time>2026-05-01T10:28:59.018Z</time></trkpt><trkpt lat="48.8240366" lon="4.5543416"><ele>105.0</ele><time>2026-05-01T10:29:00.018Z</time></trkpt><trkpt lat="48.8240061" lon="4.5546544"><ele>105.0</ele><time>2026-05-01T10:29:01.014Z</time></trkpt><trkpt lat="48.8239482" lon="4.5549609"><ele>105.0</ele><time>2026-05-01T10:29:02.014Z</time></trkpt><trkpt lat="48.8239378" lon="4.5552749"><ele>105.0</ele><time>2026-05-01T10:29:03.017Z</time></trkpt><trkpt lat="48.8238821" lon="4.5555604"><ele>105.0</ele><time>2026-05-01T10:29:04.024Z</time></trkpt><trkpt lat="48.8238547" lon="4.5558167"><ele>105.0</ele><time>2026-05-01T10:29:05.016Z</time></trkpt><trkpt lat="48.8238415" lon="4.5560345"><ele>105.0</ele><time>2026-05-01T10:29:06.02Z</time></trkpt><trkpt lat="48.8238072" lon="4.5562291"><ele>105.0</ele><time>2026-05-01T10:29:07.052Z</time></trkpt><trkpt lat="48.8237938" lon="4.5564183"><ele>105.25</ele><time>2026-05-01T10:29:08.019Z</time></trkpt><trkpt lat="48.8237805" lon="4.5566081"><ele>105.5</ele><time>2026-05-01T10:29:09.015Z</time></trkpt><trkpt lat="48.8237597" lon="4.5568017"><ele>105.75</ele><time>2026-05-01T10:29:10.017Z</time></trkpt><trkpt lat="48.8237405" lon="4.5569927"><ele>106.0</ele><time>2026-05-01T10:29:11.021Z</time></trkpt><trkpt lat="48.8237341" lon="4.5571845"><ele>106.0</ele><time>2026-05-01T10:29:12.014Z</time></trkpt><trkpt lat="48.8236909" lon="4.5573853"><ele>106.0</ele><time>2026-05-01T10:29:13.019Z</time></trkpt><trkpt lat="48.8236819" lon="4.5575868"><ele>106.0</ele><time>2026-05-01T10:29:14.018Z</time></trkpt><trkpt lat="48.8236589" lon="4.5577837"><ele>106.0</ele><time>2026-05-01T10:29:15.014Z</time></trkpt><trkpt lat="48.8236329" lon="4.55798"><ele>106.0</ele><time>2026-05-01T10:29:16.017Z</time></trkpt><trkpt lat="48.8236008" lon="4.5581713"><ele>106.0</ele><time>2026-05-01T10:29:17.016Z</time></trkpt><trkpt lat="48.8235774" lon="4.5583681"><ele>106.0</ele><time>2026-05-01T10:29:18.01Z</time></trkpt><trkpt lat="48.8235403" lon="4.558566"><ele>106.0</ele><time>2026-05-01T10:29:19.017Z</time></trkpt><trkpt lat="48.8235118" lon="4.5587574"><ele>104.5</ele><time>2026-05-01T10:29:20.017Z</time></trkpt><trkpt lat="48.823472" lon="4.5589543"><ele>103.0</ele><time>2026-05-01T10:29:21.015Z</time></trkpt><trkpt lat="48.8234174" lon="4.5591405"><ele>101.5</ele><time>2026-05-01T10:29:22.018Z</time></trkpt><trkpt lat="48.8233521" lon="4.5593159"><ele>100.0</ele><time>2026-05-01T10:29:23.016Z</time></trkpt><trkpt lat="48.8232688" lon="4.5594763"><ele>100.0</ele><time>2026-05-01T10:29:24.02Z</time></trkpt><trkpt lat="48.8232093" lon="4.5596388"><ele>100.0</ele><time>2026-05-01T10:29:25.016Z</time></trkpt><trkpt lat="48.8231332" lon="4.5597861"><ele>100.0</ele><time>2026-05-01T10:29:26.026Z</time></trkpt><trkpt lat="48.8230913" lon="4.5599429"><ele>100.0</ele><time>2026-05-01T10:29:27.019Z</time></trkpt><trkpt lat="48.8230536" lon="4.5601001"><ele>100.0</ele><time>2026-05-01T10:29:28.016Z</time></trkpt><trkpt lat="48.8230076" lon="4.5602593"><ele>100.0</ele><time>2026-05-01T10:29:29.042Z</time></trkpt><trkpt lat="48.8229479" lon="4.560419"><ele>100.0</ele><time>2026-05-01T10:29:30.022Z</time></trkpt><trkpt lat="48.8229249" lon="4.5605809"><ele>100.0</ele><time>2026-05-01T10:29:31.022Z</time></trkpt><trkpt lat="48.8228733" lon="4.5607337"><ele>100.00000000000001</ele><time>2026-05-01T10:29:32.024Z</time></trkpt><trkpt lat="48.8228509" lon="4.5608763"><ele>100.0</ele><time>2026-05-01T10:29:33.015Z</time></trkpt><trkpt lat="48.8228334" lon="4.5610208"><ele>100.0</ele><time>2026-05-01T10:29:34.016Z</time></trkpt><trkpt lat="48.8228206" lon="4.5611502"><ele>100.0</ele><time>2026-05-01T10:29:35.027Z</time></trkpt><trkpt lat="48.8227944" lon="4.5612679"><ele>100.00000000000001</ele><time>2026-05-01T10:29:36.011Z</time></trkpt><trkpt lat="48.822772" lon="4.5613842"><ele>100.0</ele><time>2026-05-01T10:29:37.018Z</time></trkpt><trkpt lat="48.8227658" lon="4.5614962"><ele>100.0</ele><time>2026-05-01T10:29:38.019Z</time></trkpt><trkpt lat="48.8227616" lon="4.5616216"><ele>100.0</ele><time>2026-05-01T10:29:39.018Z</time></trkpt><trkpt lat="48.8227642" lon="4.5617521"><ele>100.0</ele><time>2026-05-01T10:29:40.021Z</time></trkpt><trkpt lat="48.82276" lon="4.5618972"><ele>100.0</ele><time>2026-05-01T10:29:41.015Z</time></trkpt><trkpt lat="48.8227495" lon="4.562055"><ele>100.0</ele><time>2026-05-01T10:29:42.015Z</time></trkpt><trkpt lat="48.8227433" lon="4.5622125"><ele>100.4</ele><time>2026-05-01T10:29:43.035Z</time></trkpt><trkpt lat="48.8227473" lon="4.5623699"><ele>100.8</ele><time>2026-05-01T10:29:44.022Z</time></trkpt><trkpt lat="48.8227617" lon="4.5625262"><ele>101.19999999999999</ele><time>2026-05-01T10:29:45.021Z</time></trkpt><trkpt lat="48.8227788" lon="4.5626775"><ele>101.6</ele><time>2026-05-01T10:29:46.02Z</time></trkpt><trkpt lat="48.8227896" lon="4.5628305"><ele>102.0</ele><time>2026-05-01T10:29:47.022Z</time></trkpt><trkpt lat="48.8227966" lon="4.5629834"><ele>102.6</ele><time>2026-05-01T10:29:48.049Z</time></trkpt><trkpt lat="48.822798" lon="4.5631425"><ele>103.19999999999999</ele><time>2026-05-01T10:29:49.014Z</time></trkpt><trkpt lat="48.8228038" lon="4.5633124"><ele>103.8</ele><time>2026-05-01T10:29:50.021Z</time></trkpt><trkpt lat="48.8228074" lon="4.5634783"><ele>104.4</ele><time>2026-05-01T10:29:51.018Z</time></trkpt><trkpt lat="48.822814" lon="4.5636455"><ele>105.0</ele><time>2026-05-01T10:29:52.015Z</time></trkpt><trkpt lat="48.8228262" lon="4.5638176"><ele>105.5</ele><time>2026-05-01T10:29:53.014Z</time></trkpt><trkpt lat="48.8228377" lon="4.5639926"><ele>106.0</ele><time>2026-05-01T10:29:54.015Z</time></trkpt><trkpt lat="48.8228462" lon="4.5641671"><ele>106.5</ele><time>2026-05-01T10:29:55.024Z</time></trkpt><trkpt lat="48.8228507" lon="4.5643471"><ele>107.0</ele><time>2026-05-01T10:29:56.018Z</time></trkpt><trkpt lat="48.822857" lon="4.5645296"><ele>107.25</ele><time>2026-05-01T10:29:57.018Z</time></trkpt><trkpt lat="48.8228618" lon="4.5647158"><ele>107.5</ele><time>2026-05-01T10:29:58.014Z</time></trkpt><trkpt lat="48.8228627" lon="4.5648887"><ele>107.75</ele><time>2026-05-01T10:29:59.02Z</time></trkpt><trkpt lat="48.8228629" lon="4.5650656"><ele>108.0</ele><time>2026-05-01T10:30:00.025Z</time></trkpt><trkpt lat="48.8228634" lon="4.5652343"><ele>108.25</ele><time>2026-05-01T10:30:01.019Z</time></trkpt><trkpt lat="48.8228592" lon="4.5654163"><ele>108.5</ele><time>2026-05-01T10:30:02.021Z</time></trkpt><trkpt lat="48.8228516" lon="4.5655962"><ele>108.75</ele><time>2026-05-01T10:30:03.028Z</time></trkpt><trkpt lat="48.8228515" lon="4.5657789"><ele>109.0</ele><time>2026-05-01T10:30:04.011Z</time></trkpt><trkpt lat="48.8228508" lon="4.5659641"><ele>109.0</ele><time>2026-05-01T10:30:05.022Z</time></trkpt><trkpt lat="48.8228419" lon="4.5661562"><ele>109.0</ele><time>2026-05-01T10:30:06.019Z</time></trkpt><trkpt lat="48.8228293" lon="4.56634"><ele>109.0</ele><time>2026-05-01T10:30:07.017Z</time></trkpt><trkpt lat="48.8228217" lon="4.5665188"><ele>109.0</ele><time>2026-05-01T10:30:08.016Z</time></trkpt><trkpt lat="48.8228181" lon="4.5667078"><ele>108.75</ele><time>2026-05-01T10:30:09.018Z</time></trkpt><trkpt lat="48.8228147" lon="4.5668989"><ele>108.5</ele><time>2026-05-01T10:30:10.014Z</time></trkpt><trkpt lat="48.8228224" lon="4.5670887"><ele>108.25</ele><time>2026-05-01T10:30:11.024Z</time></trkpt><trkpt lat="48.8228285" lon="4.5672744"><ele>108.0</ele><time>2026-05-01T10:30:12.024Z</time></trkpt><trkpt lat="48.8228302" lon="4.5674698"><ele>108.0</ele><time>2026-05-01T10:30:13.017Z</time></trkpt><trkpt lat="48.8228251" lon="4.56766"><ele>108.0</ele><time>2026-05-01T10:30:14.029Z</time></trkpt><trkpt lat="48.8228173" lon="4.5678623"><ele>108.0</ele><time>2026-05-01T10:30:15.021Z</time></trkpt><trkpt lat="48.8228117" lon="4.5680522"><ele>108.0</ele><time>2026-05-01T10:30:16.02Z</time></trkpt><trkpt lat="48.8228116" lon="4.5682537"><ele>108.25</ele><time>2026-05-01T10:30:17.028Z</time></trkpt><trkpt lat="48.8228117" lon="4.568457"><ele>108.5</ele><time>2026-05-01T10:30:18.02Z</time></trkpt><trkpt lat="48.8228121" lon="4.5686613"><ele>108.75</ele><time>2026-05-01T10:30:19.015Z</time></trkpt><trkpt lat="48.8228107" lon="4.5688701"><ele>109.0</ele><time>2026-05-01T10:30:20.017Z</time></trkpt><trkpt lat="48.8228169" lon="4.5690835"><ele>109.0</ele><time>2026-05-01T10:30:21.019Z</time></trkpt><trkpt lat="48.8228181" lon="4.5693069"><ele>109.0</ele><time>2026-05-01T10:30:22.016Z</time></trkpt><trkpt lat="48.8228218" lon="4.5695369"><ele>109.0</ele><time>2026-05-01T10:30:23.02Z</time></trkpt><trkpt lat="48.8228177" lon="4.5697709"><ele>109.0</ele><time>2026-05-01T10:30:24.026Z</time></trkpt><trkpt lat="48.8228148" lon="4.570009"><ele>109.0</ele><time>2026-05-01T10:30:25.016Z</time></trkpt><trkpt lat="48.8228111" lon="4.5702566"><ele>109.0</ele><time>2026-05-01T10:30:26.018Z</time></trkpt><trkpt lat="48.8228096" lon="4.5705168"><ele>109.33333333333334</ele><time>2026-05-01T10:30:27.019Z</time></trkpt><trkpt lat="48.822805" lon="4.5707856"><ele>109.66666666666666</ele><time>2026-05-01T10:30:28.017Z</time></trkpt><trkpt lat="48.8228035" lon="4.5710623"><ele>110.0</ele><time>2026-05-01T10:30:29.017Z</time></trkpt><trkpt lat="48.8227975" lon="4.5713553"><ele>110.33333333333333</ele><time>2026-05-01T10:30:30.021Z</time></trkpt><trkpt lat="48.8227956" lon="4.5716574"><ele>110.66666666666666</ele><time>2026-05-01T10:30:31.019Z</time></trkpt><trkpt lat="48.8227925" lon="4.5719523"><ele>111.0</ele><time>2026-05-01T10:30:32.021Z</time></trkpt><trkpt lat="48.822791" lon="4.5722591"><ele>111.0</ele><time>2026-05-01T10:30:33.024Z</time></trkpt><trkpt lat="48.822788" lon="4.5725573"><ele>111.0</ele><time>2026-05-01T10:30:34.013Z</time></trkpt><trkpt lat="48.822785" lon="4.5728512"><ele>111.0</ele><time>2026-05-01T10:30:35.015Z</time></trkpt><trkpt lat="48.8227814" lon="4.5731494"><ele>111.66666666666666</ele><time>2026-05-01T10:30:36.019Z</time></trkpt><trkpt lat="48.822776" lon="4.5734526"><ele>112.33333333333333</ele><time>2026-05-01T10:30:37.022Z</time></trkpt><trkpt lat="48.8227679" lon="4.5737571"><ele>113.0</ele><time>2026-05-01T10:30:38.015Z</time></trkpt><trkpt lat="48.8227614" lon="4.5740668"><ele>113.0</ele><time>2026-05-01T10:30:39.016Z</time></trkpt><trkpt lat="48.8227439" lon="4.5743703"><ele>113.0</ele><time>2026-05-01T10:30:40.018Z</time></trkpt><trkpt lat="48.8227029" lon="4.5746815"><ele>113.0</ele><time>2026-05-01T10:30:41.018Z</time></trkpt><trkpt lat="48.8226338" lon="4.5749875"><ele>111.33333333333333</ele><time>2026-05-01T10:30:42.022Z</time></trkpt><trkpt lat="48.8225424" lon="4.5752918"><ele>109.66666666666666</ele><time>2026-05-01T10:30:43.017Z</time></trkpt><trkpt lat="48.8224377" lon="4.575583"><ele>108.0</ele><time>2026-05-01T10:30:44.014Z</time></trkpt><trkpt lat="48.8223035" lon="4.5758669"><ele>107.0</ele><time>2026-05-01T10:30:45.022Z</time></trkpt><trkpt lat="48.8221682" lon="4.5761362"><ele>106.0</ele><time>2026-05-01T10:30:46.051Z</time></trkpt><trkpt lat="48.8220315" lon="4.5764097"><ele>105.0</ele><time>2026-05-01T10:30:47.013Z</time></trkpt><trkpt lat="48.8218978" lon="4.5766805"><ele>104.33333333333334</ele><time>2026-05-01T10:30:48.022Z</time></trkpt><trkpt lat="48.8217686" lon="4.5769528"><ele>103.66666666666667</ele><time>2026-05-01T10:30:49.026Z</time></trkpt><trkpt lat="48.8216351" lon="4.5772193"><ele>103.0</ele><time>2026-05-01T10:30:50.021Z</time></trkpt><trkpt lat="48.8214967" lon="4.5774891"><ele>103.0</ele><time>2026-05-01T10:30:51.014Z</time></trkpt><trkpt lat="48.8213676" lon="4.5777568"><ele>103.0</ele><time>2026-05-01T10:30:52.017Z</time></trkpt><trkpt lat="48.821234" lon="4.578021"><ele>103.0</ele><time>2026-05-01T10:30:53.018Z</time></trkpt><trkpt lat="48.8210995" lon="4.578285"><ele>102.0</ele><time>2026-05-01T10:30:54.03Z</time></trkpt><trkpt lat="48.8209664" lon="4.5785574"><ele>101.0</ele><time>2026-05-01T10:30:55.016Z</time></trkpt><trkpt lat="48.8208346" lon="4.5788228"><ele>100.0</ele><time>2026-05-01T10:30:56.019Z</time></trkpt><trkpt lat="48.8207039" lon="4.5790947"><ele>99.66666666666667</ele><time>2026-05-01T10:30:57.019Z</time></trkpt><trkpt lat="48.8205702" lon="4.5793607"><ele>99.33333333333334</ele><time>2026-05-01T10:30:58.013Z</time></trkpt><trkpt lat="48.8204413" lon="4.5796271"><ele>99.0</ele><time>2026-05-01T10:30:59.019Z</time></trkpt><trkpt lat="48.82031" lon="4.5798986"><ele>99.0</ele><time>2026-05-01T10:31:00.016Z</time></trkpt><trkpt lat="48.8201736" lon="4.5801643"><ele>99.0</ele><time>2026-05-01T10:31:01.018Z</time></trkpt><trkpt lat="48.8200402" lon="4.5804325"><ele>99.0</ele><time>2026-05-01T10:31:02.017Z</time></trkpt><trkpt lat="48.8199132" lon="4.5806992"><ele>99.66666666666666</ele><time>2026-05-01T10:31:03.025Z</time></trkpt><trkpt lat="48.8197881" lon="4.5809675"><ele>100.33333333333333</ele><time>2026-05-01T10:31:04.03Z</time></trkpt><trkpt lat="48.8196579" lon="4.5812265"><ele>101.0</ele><time>2026-05-01T10:31:05.019Z</time></trkpt><trkpt lat="48.8195321" lon="4.5814831"><ele>101.33333333333333</ele><time>2026-05-01T10:31:06.022Z</time></trkpt><trkpt lat="48.8194071" lon="4.5817381"><ele>101.66666666666666</ele><time>2026-05-01T10:31:07.019Z</time></trkpt><trkpt lat="48.819293" lon="4.5819776"><ele>102.0</ele><time>2026-05-01T10:31:08.016Z</time></trkpt><trkpt lat="48.8191806" lon="4.5822042"><ele>102.66666666666666</ele><time>2026-05-01T10:31:09.015Z</time></trkpt><trkpt lat="48.8190742" lon="4.5824187"><ele>103.33333333333333</ele><time>2026-05-01T10:31:10.019Z</time></trkpt><trkpt lat="48.818972" lon="4.5826217"><ele>104.0</ele><time>2026-05-01T10:31:11.021Z</time></trkpt><trkpt lat="48.8188835" lon="4.58282"><ele>104.0</ele><time>2026-05-01T10:31:12.015Z</time></trkpt><trkpt lat="48.8188024" lon="4.5829911"><ele>104.0</ele><time>2026-05-01T10:31:13.021Z</time></trkpt><trkpt lat="48.8187259" lon="4.5831559"><ele>104.0</ele><time>2026-05-01T10:31:14.011Z</time></trkpt><trkpt lat="48.8186487" lon="4.5833157"><ele>104.0</ele><time>2026-05-01T10:31:15.017Z</time></trkpt><trkpt lat="48.8185799" lon="4.5834599"><ele>104.0</ele><time>2026-05-01T10:31:16.015Z</time></trkpt><trkpt lat="48.8185144" lon="4.583605"><ele>104.0</ele><time>2026-05-01T10:31:17.025Z</time></trkpt><trkpt lat="48.818451" lon="4.5837419"><ele>104.0</ele><time>2026-05-01T10:31:18.012Z</time></trkpt><trkpt lat="48.8183951" lon="4.5838749"><ele>104.0</ele><time>2026-05-01T10:31:19.023Z</time></trkpt><trkpt lat="48.8183348" lon="4.5840188"><ele>104.0</ele><time>2026-05-01T10:31:20.018Z</time></trkpt><trkpt lat="48.8182733" lon="4.5841612"><ele>103.80000000000001</ele><time>2026-05-01T10:31:21.015Z</time></trkpt><trkpt lat="48.8182162" lon="4.5843047"><ele>103.60000000000001</ele><time>2026-05-01T10:31:22.019Z</time></trkpt><trkpt lat="48.8181563" lon="4.5844403"><ele>103.4</ele><time>2026-05-01T10:31:23.019Z</time></trkpt><trkpt lat="48.8180921" lon="4.5845811"><ele>103.2</ele><time>2026-05-01T10:31:24.018Z</time></trkpt><trkpt lat="48.8180243" lon="4.584717"><ele>103.0</ele><time>2026-05-01T10:31:25.019Z</time></trkpt><trkpt lat="48.8179558" lon="4.5848501"><ele>103.0</ele><time>2026-05-01T10:31:26.015Z</time></trkpt><trkpt lat="48.8178856" lon="4.5849887"><ele>103.0</ele><time>2026-05-01T10:31:27.014Z</time></trkpt><trkpt lat="48.8178225" lon="4.5851366"><ele>103.0</ele><time>2026-05-01T10:31:28.018Z</time></trkpt><trkpt lat="48.8177662" lon="4.5852873"><ele>103.0</ele><time>2026-05-01T10:31:29.013Z</time></trkpt><trkpt lat="48.8177211" lon="4.5854416"><ele>103.2</ele><time>2026-05-01T10:31:30.021Z</time></trkpt><trkpt lat="48.8176864" lon="4.5855889"><ele>103.4</ele><time>2026-05-01T10:31:31.019Z</time></trkpt><trkpt lat="48.8176448" lon="4.5857303"><ele>103.60000000000001</ele><time>2026-05-01T10:31:32.016Z</time></trkpt><trkpt lat="48.817599" lon="4.5858748"><ele>103.80000000000001</ele><time>2026-05-01T10:31:33.039Z</time></trkpt><trkpt lat="48.8175526" lon="4.5860247"><ele>104.0</ele><time>2026-05-01T10:31:34.018Z</time></trkpt><trkpt lat="48.8175137" lon="4.5861725"><ele>104.2</ele><time>2026-05-01T10:31:35.019Z</time></trkpt><trkpt lat="48.8174675" lon="4.5863162"><ele>104.4</ele><time>2026-05-01T10:31:36.023Z</time></trkpt><trkpt lat="48.8174137" lon="4.5864594"><ele>104.6</ele><time>2026-05-01T10:31:37.013Z</time></trkpt><trkpt lat="48.8173691" lon="4.5866095"><ele>104.8</ele><time>2026-05-01T10:31:38.023Z</time></trkpt><trkpt lat="48.817318" lon="4.5867543"><ele>105.0</ele><time>2026-05-01T10:31:39.022Z</time></trkpt><trkpt lat="48.8172644" lon="4.5868922"><ele>105.0</ele><time>2026-05-01T10:31:40.015Z</time></trkpt><trkpt lat="48.8172166" lon="4.5870326"><ele>105.0</ele><time>2026-05-01T10:31:41.017Z</time></trkpt><trkpt lat="48.8171573" lon="4.5871718"><ele>105.0</ele><time>2026-05-01T10:31:42.015Z</time></trkpt><trkpt lat="48.8170958" lon="4.5873056"><ele>105.0</ele><time>2026-05-01T10:31:43.015Z</time></trkpt><trkpt lat="48.8170277" lon="4.5874431"><ele>105.0</ele><time>2026-05-01T10:31:44.021Z</time></trkpt><trkpt lat="48.8169657" lon="4.5875702"><ele>105.0</ele><time>2026-05-01T10:31:45.019Z</time></trkpt><trkpt lat="48.8168933" lon="4.5876927"><ele>105.0</ele><time>2026-05-01T10:31:46.022Z</time></trkpt><trkpt lat="48.8168211" lon="4.587823"><ele>105.0</ele><time>2026-05-01T10:31:47.02Z</time></trkpt><trkpt lat="48.8167427" lon="4.5879389"><ele>105.0</ele><time>2026-05-01T10:31:48.02Z</time></trkpt><trkpt lat="48.8166603" lon="4.5880662"><ele>105.0</ele><time>2026-05-01T10:31:49.018Z</time></trkpt><trkpt lat="48.8165833" lon="4.5881996"><ele>105.0</ele><time>2026-05-01T10:31:50.016Z</time></trkpt><trkpt lat="48.8165041" lon="4.5883334"><ele>105.0</ele><time>2026-05-01T10:31:51.016Z</time></trkpt><trkpt lat="48.8164303" lon="4.5884738"><ele>105.0</ele><time>2026-05-01T10:31:52.019Z</time></trkpt><trkpt lat="48.8163616" lon="4.5886243"><ele>105.0</ele><time>2026-05-01T10:31:53.013Z</time></trkpt><trkpt lat="48.8163037" lon="4.5887865"><ele>105.5</ele><time>2026-05-01T10:31:54.02Z</time></trkpt><trkpt lat="48.8162469" lon="4.5889497"><ele>106.0</ele><time>2026-05-01T10:31:55.013Z</time></trkpt><trkpt lat="48.8161941" lon="4.5891088"><ele>106.5</ele><time>2026-05-01T10:31:56.025Z</time></trkpt><trkpt lat="48.8161451" lon="4.5892661"><ele>107.0</ele><time>2026-05-01T10:31:57.021Z</time></trkpt><trkpt lat="48.8160861" lon="4.5894205"><ele>107.25</ele><time>2026-05-01T10:31:58.025Z</time></trkpt><trkpt lat="48.8160338" lon="4.5895788"><ele>107.5</ele><time>2026-05-01T10:31:59.017Z</time></trkpt><trkpt lat="48.8159802" lon="4.5897387"><ele>107.75</ele><time>2026-05-01T10:32:00.02Z</time></trkpt><trkpt lat="48.8159267" lon="4.5899013"><ele>108.0</ele><time>2026-05-01T10:32:01.022Z</time></trkpt><trkpt lat="48.815875" lon="4.5900678"><ele>108.0</ele><time>2026-05-01T10:32:02.015Z</time></trkpt><trkpt lat="48.8158313" lon="4.5902417"><ele>108.0</ele><time>2026-05-01T10:32:03.019Z</time></trkpt><trkpt lat="48.8158079" lon="4.5904269"><ele>108.0</ele><time>2026-05-01T10:32:04.008Z</time></trkpt><trkpt lat="48.8157954" lon="4.5906144"><ele>108.0</ele><time>2026-05-01T10:32:05.016Z</time></trkpt><trkpt lat="48.815796" lon="4.590818"><ele>108.5</ele><time>2026-05-01T10:32:06.017Z</time></trkpt><trkpt lat="48.8158072" lon="4.5910253"><ele>109.0</ele><time>2026-05-01T10:32:07.061Z</time></trkpt><trkpt lat="48.8158111" lon="4.5912382"><ele>109.5</ele><time>2026-05-01T10:32:08.016Z</time></trkpt><trkpt lat="48.8158179" lon="4.5914615"><ele>110.0</ele><time>2026-05-01T10:32:09.008Z</time></trkpt><trkpt lat="48.8158243" lon="4.5916888"><ele>110.25</ele><time>2026-05-01T10:32:10.024Z</time></trkpt><trkpt lat="48.815832" lon="4.5919104"><ele>110.5</ele><time>2026-05-01T10:32:11.021Z</time></trkpt><trkpt lat="48.8158266" lon="4.5921355"><ele>110.75</ele><time>2026-05-01T10:32:12.019Z</time></trkpt><trkpt lat="48.8157899" lon="4.5923605"><ele>111.0</ele><time>2026-05-01T10:32:13.01Z</time></trkpt><trkpt lat="48.8157459" lon="4.5925732"><ele>111.0</ele><time>2026-05-01T10:32:14.027Z</time></trkpt><trkpt lat="48.8156625" lon="4.5927853"><ele>111.0</ele><time>2026-05-01T10:32:15.026Z</time></trkpt><trkpt lat="48.8155821" lon="4.5929973"><ele>111.0</ele><time>2026-05-01T10:32:16.018Z</time></trkpt><trkpt lat="48.8154949" lon="4.5932308"><ele>111.0</ele><time>2026-05-01T10:32:17.023Z</time></trkpt><trkpt lat="48.8154031" lon="4.5934831"><ele>111.0</ele><time>2026-05-01T10:32:18.019Z</time></trkpt><trkpt lat="48.8153096" lon="4.5937427"><ele>111.0</ele><time>2026-05-01T10:32:19.02Z</time></trkpt><trkpt lat="48.8152168" lon="4.5940083"><ele>110.66666666666666</ele><time>2026-05-01T10:32:20.022Z</time></trkpt><trkpt lat="48.815128" lon="4.5942655"><ele>110.33333333333333</ele><time>2026-05-01T10:32:21.015Z</time></trkpt><trkpt lat="48.8150343" lon="4.5945286"><ele>110.0</ele><time>2026-05-01T10:32:22.018Z</time></trkpt><trkpt lat="48.8149458" lon="4.5947872"><ele>110.66666666666666</ele><time>2026-05-01T10:32:23.015Z</time></trkpt><trkpt lat="48.8148597" lon="4.5950298"><ele>111.33333333333334</ele><time>2026-05-01T10:32:24.016Z</time></trkpt><trkpt lat="48.8147794" lon="4.595264"><ele>112.0</ele><time>2026-05-01T10:32:25.021Z</time></trkpt><trkpt lat="48.8147022" lon="4.5954833"><ele>112.25</ele><time>2026-05-01T10:32:26.016Z</time></trkpt><trkpt lat="48.8146297" lon="4.5956895"><ele>112.5</ele><time>2026-05-01T10:32:27.016Z</time></trkpt><trkpt lat="48.8145626" lon="4.5958867"><ele>112.75</ele><time>2026-05-01T10:32:28.022Z</time></trkpt><trkpt lat="48.8144953" lon="4.59607"><ele>113.0</ele><time>2026-05-01T10:32:29.054Z</time></trkpt><trkpt lat="48.8144339" lon="4.5962466"><ele>113.0</ele><time>2026-05-01T10:32:30.022Z</time></trkpt><trkpt lat="48.814374" lon="4.596415"><ele>113.0</ele><time>2026-05-01T10:32:31.015Z</time></trkpt><trkpt lat="48.8143177" lon="4.5965772"><ele>113.0</ele><time>2026-05-01T10:32:32.021Z</time></trkpt><trkpt lat="48.8142599" lon="4.5967199"><ele>113.0</ele><time>2026-05-01T10:32:33.017Z</time></trkpt><trkpt lat="48.8142096" lon="4.5968643"><ele>112.60000000000001</ele><time>2026-05-01T10:32:34.019Z</time></trkpt><trkpt lat="48.8141566" lon="4.5970046"><ele>112.20000000000002</ele><time>2026-05-01T10:32:35.027Z</time></trkpt><trkpt lat="48.8141061" lon="4.5971517"><ele>111.8</ele><time>2026-05-01T10:32:36.02Z</time></trkpt><trkpt lat="48.8140528" lon="4.5972985"><ele>111.4</ele><time>2026-05-01T10:32:37.017Z</time></trkpt><trkpt lat="48.8140032" lon="4.5974395"><ele>111.0</ele><time>2026-05-01T10:32:38.026Z</time></trkpt><trkpt lat="48.8139583" lon="4.5975901"><ele>111.0</ele><time>2026-05-01T10:32:39.027Z</time></trkpt><trkpt lat="48.813905" lon="4.5977289"><ele>111.0</ele><time>2026-05-01T10:32:40.022Z</time></trkpt><trkpt lat="48.8138589" lon="4.5978686"><ele>111.0</ele><time>2026-05-01T10:32:41.029Z</time></trkpt><trkpt lat="48.8138146" lon="4.5979952"><ele>111.0</ele><time>2026-05-01T10:32:42.019Z</time></trkpt><trkpt lat="48.8137677" lon="4.5981159"><ele>111.0</ele><time>2026-05-01T10:32:43.023Z</time></trkpt><trkpt lat="48.813716" lon="4.5982427"><ele>111.19999999999999</ele><time>2026-05-01T10:32:44.017Z</time></trkpt><trkpt lat="48.8136772" lon="4.5983734"><ele>111.39999999999999</ele><time>2026-05-01T10:32:45.022Z</time></trkpt><trkpt lat="48.8136323" lon="4.5985154"><ele>111.6</ele><time>2026-05-01T10:32:46.017Z</time></trkpt><trkpt lat="48.8135844" lon="4.5986503"><ele>111.8</ele><time>2026-05-01T10:32:47.018Z</time></trkpt><trkpt lat="48.8135418" lon="4.5987987"><ele>112.0</ele><time>2026-05-01T10:32:48.023Z</time></trkpt><trkpt lat="48.8135033" lon="4.5989431"><ele>111.8</ele><time>2026-05-01T10:32:49.028Z</time></trkpt><trkpt lat="48.8134698" lon="4.5990825"><ele>111.6</ele><time>2026-05-01T10:32:50.021Z</time></trkpt><trkpt lat="48.8134326" lon="4.5992131"><ele>111.39999999999999</ele><time>2026-05-01T10:32:51.016Z</time></trkpt><trkpt lat="48.8134041" lon="4.5993326"><ele>111.19999999999999</ele><time>2026-05-01T10:32:52.023Z</time></trkpt><trkpt lat="48.813384" lon="4.5994252"><ele>111.0</ele><time>2026-05-01T10:32:53.011Z</time></trkpt><trkpt lat="48.81334" lon="4.5995995"><ele>111.0</ele><time>2026-05-01T10:32:55.029Z</time></trkpt><trkpt lat="48.8133173" lon="4.5997042"><ele>111.0</ele><time>2026-05-01T10:32:56.015Z</time></trkpt><trkpt lat="48.813291" lon="4.5998203"><ele>111.0</ele><time>2026-05-01T10:32:57.019Z</time></trkpt><trkpt lat="48.813265" lon="4.5999479"><ele>111.0</ele><time>2026-05-01T10:32:58.019Z</time></trkpt><trkpt lat="48.8132386" lon="4.6000883"><ele>111.0</ele><time>2026-05-01T10:32:59.025Z</time></trkpt><trkpt lat="48.8132167" lon="4.6002397"><ele>111.0</ele><time>2026-05-01T10:33:00.018Z</time></trkpt><trkpt lat="48.813194" lon="4.6003945"><ele>111.19999999999999</ele><time>2026-05-01T10:33:01.012Z</time></trkpt><trkpt lat="48.813178" lon="4.6005432"><ele>111.39999999999999</ele><time>2026-05-01T10:33:02.017Z</time></trkpt><trkpt lat="48.813168" lon="4.6006924"><ele>111.6</ele><time>2026-05-01T10:33:03.021Z</time></trkpt><trkpt lat="48.8131482" lon="4.6008365"><ele>111.8</ele><time>2026-05-01T10:33:04.016Z</time></trkpt><trkpt lat="48.8131268" lon="4.6009598"><ele>112.0</ele><time>2026-05-01T10:33:05.025Z</time></trkpt><trkpt lat="48.813102" lon="4.6010743"><ele>112.0</ele><time>2026-05-01T10:33:06.015Z</time></trkpt><trkpt lat="48.8130797" lon="4.6011806"><ele>112.0</ele><time>2026-05-01T10:33:07.028Z</time></trkpt><trkpt lat="48.8130611" lon="4.6012926"><ele>112.0</ele><time>2026-05-01T10:33:08.023Z</time></trkpt><trkpt lat="48.8130413" lon="4.6014054"><ele>112.0</ele><time>2026-05-01T10:33:09.015Z</time></trkpt><trkpt lat="48.8130236" lon="4.6015094"><ele>112.0</ele><time>2026-05-01T10:33:10.014Z</time></trkpt><trkpt lat="48.8130037" lon="4.6016065"><ele>112.0</ele><time>2026-05-01T10:33:11.017Z</time></trkpt><trkpt lat="48.8129822" lon="4.6017081"><ele>112.0</ele><time>2026-05-01T10:33:12.016Z</time></trkpt><trkpt lat="48.812959" lon="4.601803"><ele>112.0</ele><time>2026-05-01T10:33:13.019Z</time></trkpt><trkpt lat="48.8129436" lon="4.6018971"><ele>112.0</ele><time>2026-05-01T10:33:14.019Z</time></trkpt><trkpt lat="48.8129301" lon="4.6019944"><ele>112.0</ele><time>2026-05-01T10:33:15.017Z</time></trkpt><trkpt lat="48.812915" lon="4.6020959"><ele>112.0</ele><time>2026-05-01T10:33:16.032Z</time></trkpt><trkpt lat="48.8128895" lon="4.6021844"><ele>112.0</ele><time>2026-05-01T10:33:17.015Z</time></trkpt><trkpt lat="48.8128651" lon="4.6022784"><ele>112.0</ele><time>2026-05-01T10:33:18.018Z</time></trkpt><trkpt lat="48.8128332" lon="4.6023773"><ele>112.0</ele><time>2026-05-01T10:33:19.02Z</time></trkpt><trkpt lat="48.8128066" lon="4.6024687"><ele>111.83333333333334</ele><time>2026-05-01T10:33:20.013Z</time></trkpt><trkpt lat="48.8127656" lon="4.6026273"><ele>111.66666666666667</ele><time>2026-05-01T10:33:22.029Z</time></trkpt><trkpt lat="48.8127252" lon="4.6027608"><ele>111.5</ele><time>2026-05-01T10:33:24.012Z</time></trkpt><trkpt lat="48.8126856" lon="4.6028649"><ele>111.33333333333334</ele><time>2026-05-01T10:33:26.022Z</time></trkpt><trkpt lat="48.812655" lon="4.602951"><ele>111.16666666666667</ele><time>2026-05-01T10:33:28.018Z</time></trkpt><trkpt lat="48.8126265" lon="4.6030367"><ele>111.0</ele><time>2026-05-01T10:33:30.016Z</time></trkpt><trkpt lat="48.8125878" lon="4.6031186"><ele>110.66666666666667</ele><time>2026-05-01T10:33:32.017Z</time></trkpt><trkpt lat="48.8125284" lon="4.6031988"><ele>110.33333333333334</ele><time>2026-05-01T10:33:34.021Z</time></trkpt><trkpt lat="48.812486" lon="4.6032998"><ele>110.0</ele><time>2026-05-01T10:33:36.009Z</time></trkpt><trkpt lat="48.8124531" lon="4.6033875"><ele>109.66666666666667</ele><time>2026-05-01T10:33:38.018Z</time></trkpt><trkpt lat="48.8124072" lon="4.6034878"><ele>109.33333333333334</ele><time>2026-05-01T10:33:40.015Z</time></trkpt><trkpt lat="48.8123588" lon="4.6035959"><ele>109.0</ele><time>2026-05-01T10:33:42.013Z</time></trkpt><trkpt lat="48.812324" lon="4.6036999"><ele>109.00000000000001</ele><time>2026-05-01T10:33:44.015Z</time></trkpt><trkpt lat="48.8122906" lon="4.6037929"><ele>109.0</ele><time>2026-05-01T10:33:46.022Z</time></trkpt><trkpt lat="48.812256" lon="4.6038895"><ele>109.0</ele><time>2026-05-01T10:33:48.015Z</time></trkpt><trkpt lat="48.8122043" lon="4.6039763"><ele>109.0</ele><time>2026-05-01T10:33:50.025Z</time></trkpt><trkpt lat="48.8121397" lon="4.6040731"><ele>109.00000000000001</ele><time>2026-05-01T10:33:52.015Z</time></trkpt><trkpt lat="48.812089" lon="4.6041961"><ele>109.0</ele><time>2026-05-01T10:33:54.017Z</time></trkpt><trkpt lat="48.8120259" lon="4.6043405"><ele>109.0</ele><time>2026-05-01T10:33:56.018Z</time></trkpt><trkpt lat="48.8119661" lon="4.6044775"><ele>109.0</ele><time>2026-05-01T10:33:58.02Z</time></trkpt><trkpt lat="48.8119286" lon="4.6045553"><ele>109.0</ele><time>2026-05-01T10:33:59.014Z</time></trkpt><trkpt lat="48.811854" lon="4.6046902"><ele>109.0</ele><time>2026-05-01T10:34:01.017Z</time></trkpt><trkpt lat="48.8118149" lon="4.6047657"><ele>109.0</ele><time>2026-05-01T10:34:02.016Z</time></trkpt><trkpt lat="48.8117494" lon="4.6048957"><ele>108.80000000000001</ele><time>2026-05-01T10:34:04.015Z</time></trkpt><trkpt lat="48.8116841" lon="4.6050093"><ele>108.60000000000001</ele><time>2026-05-01T10:34:06.018Z</time></trkpt><trkpt lat="48.811621" lon="4.6051334"><ele>108.4</ele><time>2026-05-01T10:34:08.023Z</time></trkpt><trkpt lat="48.8115586" lon="4.605262"><ele>108.2</ele><time>2026-05-01T10:34:10.019Z</time></trkpt><trkpt lat="48.8114908" lon="4.6053815"><ele>108.0</ele><time>2026-05-01T10:34:12.021Z</time></trkpt><trkpt lat="48.8114304" lon="4.6055221"><ele>108.0</ele><time>2026-05-01T10:34:14.017Z</time></trkpt><trkpt lat="48.8113579" lon="4.6056571"><ele>108.00000000000001</ele><time>2026-05-01T10:34:16.016Z</time></trkpt><trkpt lat="48.811287" lon="4.6057873"><ele>108.00000000000001</ele><time>2026-05-01T10:34:18.016Z</time></trkpt><trkpt lat="48.8112202" lon="4.6059189"><ele>108.0</ele><time>2026-05-01T10:34:20.02Z</time></trkpt><trkpt lat="48.8111514" lon="4.6060493"><ele>108.0</ele><time>2026-05-01T10:34:22.012Z</time></trkpt><trkpt lat="48.8110803" lon="4.6061902"><ele>107.80000000000001</ele><time>2026-05-01T10:34:24.016Z</time></trkpt><trkpt lat="48.8110172" lon="4.6063315"><ele>107.60000000000001</ele><time>2026-05-01T10:34:26.02Z</time></trkpt><trkpt lat="48.8109514" lon="4.6064622"><ele>107.39999999999999</ele><time>2026-05-01T10:34:28.016Z</time></trkpt><trkpt lat="48.8108908" lon="4.6066114"><ele>107.19999999999999</ele><time>2026-05-01T10:34:30.019Z</time></trkpt><trkpt lat="48.810855" lon="4.6067724"><ele>107.0</ele><time>2026-05-01T10:34:32.014Z</time></trkpt><trkpt lat="48.8108236" lon="4.6068562"><ele>107.00000000000001</ele><time>2026-05-01T10:34:33.017Z</time></trkpt><trkpt lat="48.8107905" lon="4.6069488"><ele>107.0</ele><time>2026-05-01T10:34:34.011Z</time></trkpt><trkpt lat="48.8107621" lon="4.6070435"><ele>107.0</ele><time>2026-05-01T10:34:35.013Z</time></trkpt><trkpt lat="48.8107348" lon="4.6071359"><ele>107.0</ele><time>2026-05-01T10:34:36.014Z</time></trkpt><trkpt lat="48.8107221" lon="4.60723"><ele>107.0</ele><time>2026-05-01T10:34:37.029Z</time></trkpt><trkpt lat="48.8107113" lon="4.6073448"><ele>107.00000000000001</ele><time>2026-05-01T10:34:38.018Z</time></trkpt><trkpt lat="48.8107017" lon="4.607452"><ele>107.0</ele><time>2026-05-01T10:34:39.011Z</time></trkpt><trkpt lat="48.8106945" lon="4.6075664"><ele>107.28571428571429</ele><time>2026-05-01T10:34:40.017Z</time></trkpt><trkpt lat="48.8106938" lon="4.6076779"><ele>107.57142857142857</ele><time>2026-05-01T10:34:41.019Z</time></trkpt><trkpt lat="48.8106924" lon="4.6077903"><ele>107.85714285714286</ele><time>2026-05-01T10:34:42.016Z</time></trkpt><trkpt lat="48.8106899" lon="4.6078981"><ele>108.14285714285714</ele><time>2026-05-01T10:34:43.022Z</time></trkpt><trkpt lat="48.8106898" lon="4.6080135"><ele>108.42857142857143</ele><time>2026-05-01T10:34:44.016Z</time></trkpt><trkpt lat="48.8106902" lon="4.6081153"><ele>108.71428571428572</ele><time>2026-05-01T10:34:45.019Z</time></trkpt><trkpt lat="48.8106918" lon="4.608215"><ele>109.0</ele><time>2026-05-01T10:34:46.017Z</time></trkpt><trkpt lat="48.8106915" lon="4.6083909"><ele>109.2</ele><time>2026-05-01T10:34:48.015Z</time></trkpt><trkpt lat="48.810685" lon="4.6085495"><ele>109.4</ele><time>2026-05-01T10:34:50.019Z</time></trkpt><trkpt lat="48.8106307" lon="4.608672"><ele>109.6</ele><time>2026-05-01T10:34:52.007Z</time></trkpt><trkpt lat="48.8105307" lon="4.6087635"><ele>109.8</ele><time>2026-05-01T10:34:54.012Z</time></trkpt><trkpt lat="48.8104182" lon="4.6088467"><ele>110.0</ele><time>2026-05-01T10:34:56.017Z</time></trkpt><trkpt lat="48.8103566" lon="4.6088866"><ele>109.99999999999999</ele><time>2026-05-01T10:34:57.015Z</time></trkpt><trkpt lat="48.8102914" lon="4.6089243"><ele>110.0</ele><time>2026-05-01T10:34:58.026Z</time></trkpt><trkpt lat="48.8102169" lon="4.6089747"><ele>110.0</ele><time>2026-05-01T10:34:59.025Z</time></trkpt><trkpt lat="48.810145" lon="4.609027"><ele>110.0</ele><time>2026-05-01T10:35:00.023Z</time></trkpt><trkpt lat="48.8100721" lon="4.6090759"><ele>109.99999999999999</ele><time>2026-05-01T10:35:01.015Z</time></trkpt><trkpt lat="48.8100013" lon="4.6091257"><ele>110.0</ele><time>2026-05-01T10:35:02.018Z</time></trkpt><trkpt lat="48.809929" lon="4.609172"><ele>109.99999999999999</ele><time>2026-05-01T10:35:03.015Z</time></trkpt><trkpt lat="48.8098574" lon="4.6092225"><ele>110.0</ele><time>2026-05-01T10:35:04.021Z</time></trkpt><trkpt lat="48.8097816" lon="4.6092837"><ele>110.0</ele><time>2026-05-01T10:35:05.014Z</time></trkpt><trkpt lat="48.8097196" lon="4.609357"><ele>110.0</ele><time>2026-05-01T10:35:06.014Z</time></trkpt><trkpt lat="48.8096621" lon="4.609443"><ele>109.99999999999999</ele><time>2026-05-01T10:35:07.014Z</time></trkpt><trkpt lat="48.809607" lon="4.6095379"><ele>110.0</ele><time>2026-05-01T10:35:08.016Z</time></trkpt><trkpt lat="48.8095604" lon="4.6096377"><ele>109.99999999999999</ele><time>2026-05-01T10:35:09.019Z</time></trkpt><trkpt lat="48.8095271" lon="4.6097452"><ele>110.0</ele><time>2026-05-01T10:35:10.017Z</time></trkpt><trkpt lat="48.8095011" lon="4.6098597"><ele>110.0</ele><time>2026-05-01T10:35:11.019Z</time></trkpt><trkpt lat="48.8094746" lon="4.6099625"><ele>110.0</ele><time>2026-05-01T10:35:12.013Z</time></trkpt><trkpt lat="48.8094631" lon="4.610063"><ele>109.99999999999999</ele><time>2026-05-01T10:35:13.017Z</time></trkpt><trkpt lat="48.809486" lon="4.6101709"><ele>110.0</ele><time>2026-05-01T10:35:14.018Z</time></trkpt><trkpt lat="48.8095335" lon="4.6102943"><ele>110.5</ele><time>2026-05-01T10:35:15.021Z</time></trkpt><trkpt lat="48.8095847" lon="4.6104179"><ele>111.0</ele><time>2026-05-01T10:35:16.017Z</time></trkpt><trkpt lat="48.8096487" lon="4.6105647"><ele>111.5</ele><time>2026-05-01T10:35:17.021Z</time></trkpt><trkpt lat="48.8097075" lon="4.6107231"><ele>112.0</ele><time>2026-05-01T10:35:18.026Z</time></trkpt><trkpt lat="48.8097608" lon="4.6109009"><ele>112.0</ele><time>2026-05-01T10:35:19.015Z</time></trkpt><trkpt lat="48.809804" lon="4.6110872"><ele>112.0</ele><time>2026-05-01T10:35:20.013Z</time></trkpt><trkpt lat="48.8098257" lon="4.6112948"><ele>112.0</ele><time>2026-05-01T10:35:21.01Z</time></trkpt><trkpt lat="48.8098425" lon="4.6115074"><ele>112.0</ele><time>2026-05-01T10:35:22.024Z</time></trkpt><trkpt lat="48.8098566" lon="4.611722"><ele>112.5</ele><time>2026-05-01T10:35:23.022Z</time></trkpt><trkpt lat="48.8098632" lon="4.6119501"><ele>113.0</ele><time>2026-05-01T10:35:24.014Z</time></trkpt><trkpt lat="48.8098604" lon="4.6121761"><ele>113.5</ele><time>2026-05-01T10:35:25.021Z</time></trkpt><trkpt lat="48.8098371" lon="4.6123986"><ele>114.0</ele><time>2026-05-01T10:35:26.016Z</time></trkpt><trkpt lat="48.8097982" lon="4.6126269"><ele>115.0</ele><time>2026-05-01T10:35:27.015Z</time></trkpt><trkpt lat="48.8097423" lon="4.6128631"><ele>116.0</ele><time>2026-05-01T10:35:28.02Z</time></trkpt><trkpt lat="48.8096775" lon="4.6131004"><ele>117.0</ele><time>2026-05-01T10:35:29.02Z</time></trkpt><trkpt lat="48.8096094" lon="4.6133589"><ele>117.0</ele><time>2026-05-01T10:35:30.021Z</time></trkpt><trkpt lat="48.8095315" lon="4.6136344"><ele>117.0</ele><time>2026-05-01T10:35:31.014Z</time></trkpt><trkpt lat="48.8094444" lon="4.613917"><ele>117.0</ele><time>2026-05-01T10:35:32.02Z</time></trkpt><trkpt lat="48.8093653" lon="4.6141944"><ele>116.66666666666666</ele><time>2026-05-01T10:35:33.025Z</time></trkpt><trkpt lat="48.8092874" lon="4.6144767"><ele>116.33333333333333</ele><time>2026-05-01T10:35:34.017Z</time></trkpt><trkpt lat="48.8092094" lon="4.6147564"><ele>116.0</ele><time>2026-05-01T10:35:35.015Z</time></trkpt><trkpt lat="48.8091344" lon="4.6150342"><ele>116.66666666666666</ele><time>2026-05-01T10:35:36.017Z</time></trkpt><trkpt lat="48.8090496" lon="4.6153144"><ele>117.33333333333334</ele><time>2026-05-01T10:35:37.012Z</time></trkpt><trkpt lat="48.8089681" lon="4.6155981"><ele>118.0</ele><time>2026-05-01T10:35:38.017Z</time></trkpt><trkpt lat="48.808887" lon="4.6158891"><ele>119.66666666666667</ele><time>2026-05-01T10:35:39.02Z</time></trkpt><trkpt lat="48.8088262" lon="4.6161841"><ele>121.33333333333334</ele><time>2026-05-01T10:35:40.016Z</time></trkpt><trkpt lat="48.8087798" lon="4.6164938"><ele>123.0</ele><time>2026-05-01T10:35:41.02Z</time></trkpt><trkpt lat="48.8087494" lon="4.6168172"><ele>124.0</ele><time>2026-05-01T10:35:42.026Z</time></trkpt><trkpt lat="48.8087335" lon="4.617145"><ele>125.0</ele><time>2026-05-01T10:35:43.02Z</time></trkpt><trkpt lat="48.8087367" lon="4.617476"><ele>126.0</ele><time>2026-05-01T10:35:44.029Z</time></trkpt><trkpt lat="48.8087406" lon="4.6178135"><ele>126.66666666666666</ele><time>2026-05-01T10:35:45.016Z</time></trkpt><trkpt lat="48.8087476" lon="4.6181418"><ele>127.33333333333333</ele><time>2026-05-01T10:35:46.056Z</time></trkpt><trkpt lat="48.8087435" lon="4.6184767"><ele>128.0</ele><time>2026-05-01T10:35:47.013Z</time></trkpt><trkpt lat="48.8087133" lon="4.6187927"><ele>128.66666666666666</ele><time>2026-05-01T10:35:48.014Z</time></trkpt><trkpt lat="48.8086526" lon="4.6191097"><ele>129.33333333333334</ele><time>2026-05-01T10:35:49.015Z</time></trkpt><trkpt lat="48.8085892" lon="4.6194107"><ele>130.0</ele><time>2026-05-01T10:35:50.02Z</time></trkpt><trkpt lat="48.808533" lon="4.6197186"><ele>129.66666666666669</ele><time>2026-05-01T10:35:51.017Z</time></trkpt><trkpt lat="48.8084981" lon="4.6200115"><ele>129.33333333333334</ele><time>2026-05-01T10:35:52.016Z</time></trkpt><trkpt lat="48.8084722" lon="4.6203"><ele>129.0</ele><time>2026-05-01T10:35:53.015Z</time></trkpt><trkpt lat="48.8084732" lon="4.6206024"><ele>130.33333333333334</ele><time>2026-05-01T10:35:54.017Z</time></trkpt><trkpt lat="48.808495" lon="4.620902"><ele>131.66666666666669</ele><time>2026-05-01T10:35:55.013Z</time></trkpt><trkpt lat="48.8085128" lon="4.6212179"><ele>133.0</ele><time>2026-05-01T10:35:56.015Z</time></trkpt><trkpt lat="48.8085293" lon="4.6215301"><ele>133.0</ele><time>2026-05-01T10:35:57.016Z</time></trkpt><trkpt lat="48.808535" lon="4.6218569"><ele>133.0</ele><time>2026-05-01T10:35:58.012Z</time></trkpt><trkpt lat="48.8085304" lon="4.6221884"><ele>133.0</ele><time>2026-05-01T10:35:59.01Z</time></trkpt><trkpt lat="48.8085084" lon="4.6225158"><ele>130.0</ele><time>2026-05-01T10:36:00.024Z</time></trkpt><trkpt lat="48.8084868" lon="4.6228511"><ele>127.0</ele><time>2026-05-01T10:36:01.021Z</time></trkpt><trkpt lat="48.8084651" lon="4.6231845"><ele>124.0</ele><time>2026-05-01T10:36:02.014Z</time></trkpt><trkpt lat="48.8084468" lon="4.6235243"><ele>123.5</ele><time>2026-05-01T10:36:03.014Z</time></trkpt><trkpt lat="48.8084272" lon="4.6238657"><ele>123.0</ele><time>2026-05-01T10:36:04.012Z</time></trkpt><trkpt lat="48.8084057" lon="4.6242091"><ele>123.0</ele><time>2026-05-01T10:36:05.018Z</time></trkpt><trkpt lat="48.8083797" lon="4.6245448"><ele>123.0</ele><time>2026-05-01T10:36:06.02Z</time></trkpt><trkpt lat="48.8083576" lon="4.6248873"><ele>123.0</ele><time>2026-05-01T10:36:07.019Z</time></trkpt><trkpt lat="48.8083462" lon="4.6252286"><ele>123.0</ele><time>2026-05-01T10:36:08.016Z</time></trkpt><trkpt lat="48.8083255" lon="4.6255666"><ele>123.0</ele><time>2026-05-01T10:36:09.015Z</time></trkpt><trkpt lat="48.8083017" lon="4.6259041"><ele>123.0</ele><time>2026-05-01T10:36:10.012Z</time></trkpt><trkpt lat="48.8082726" lon="4.626243"><ele>122.66666666666666</ele><time>2026-05-01T10:36:11.023Z</time></trkpt><trkpt lat="48.8082325" lon="4.6265727"><ele>122.33333333333333</ele><time>2026-05-01T10:36:12.014Z</time></trkpt><trkpt lat="48.8081855" lon="4.6269069"><ele>122.0</ele><time>2026-05-01T10:36:13.024Z</time></trkpt><trkpt lat="48.8081372" lon="4.6272261"><ele>122.0</ele><time>2026-05-01T10:36:14.018Z</time></trkpt><trkpt lat="48.8080988" lon="4.6275619"><ele>122.0</ele><time>2026-05-01T10:36:15.021Z</time></trkpt><trkpt lat="48.8080459" lon="4.6282118"><ele>121.66666666666666</ele><time>2026-05-01T10:36:17.019Z</time></trkpt><trkpt lat="48.8080101" lon="4.6285345"><ele>121.33333333333334</ele><time>2026-05-01T10:36:18.032Z</time></trkpt><trkpt lat="48.807965" lon="4.6288569"><ele>121.0</ele><time>2026-05-01T10:36:19.01Z</time></trkpt><trkpt lat="48.8079115" lon="4.6291668"><ele>121.0</ele><time>2026-05-01T10:36:20.013Z</time></trkpt><trkpt lat="48.8078516" lon="4.6294796"><ele>121.0</ele><time>2026-05-01T10:36:21.046Z</time></trkpt><trkpt lat="48.8077917" lon="4.6297964"><ele>121.0</ele><time>2026-05-01T10:36:22.021Z</time></trkpt><trkpt lat="48.8077244" lon="4.6301157"><ele>120.66666666666667</ele><time>2026-05-01T10:36:23.018Z</time></trkpt><trkpt lat="48.8076641" lon="4.6304314"><ele>120.33333333333334</ele><time>2026-05-01T10:36:24.016Z</time></trkpt><trkpt lat="48.8076158" lon="4.6307476"><ele>120.0</ele><time>2026-05-01T10:36:25.013Z</time></trkpt><trkpt lat="48.8075878" lon="4.6310717"><ele>119.0</ele><time>2026-05-01T10:36:26.019Z</time></trkpt><trkpt lat="48.8075917" lon="4.6313944"><ele>118.0</ele><time>2026-05-01T10:36:27.009Z</time></trkpt><trkpt lat="48.8076176" lon="4.6316985"><ele>117.0</ele><time>2026-05-01T10:36:28.023Z</time></trkpt><trkpt lat="48.8076777" lon="4.6320038"><ele>117.0</ele><time>2026-05-01T10:36:29.011Z</time></trkpt><trkpt lat="48.8077532" lon="4.6323051"><ele>117.0</ele><time>2026-05-01T10:36:30.018Z</time></trkpt><trkpt lat="48.8078281" lon="4.6326"><ele>117.0</ele><time>2026-05-01T10:36:31.025Z</time></trkpt><trkpt lat="48.8078913" lon="4.6328964"><ele>117.0</ele><time>2026-05-01T10:36:32.022Z</time></trkpt><trkpt lat="48.8079437" lon="4.6332042"><ele>117.0</ele><time>2026-05-01T10:36:33.018Z</time></trkpt><trkpt lat="48.807979" lon="4.6335177"><ele>117.0</ele><time>2026-05-01T10:36:34.02Z</time></trkpt><trkpt lat="48.8080096" lon="4.6338335"><ele>117.0</ele><time>2026-05-01T10:36:35.017Z</time></trkpt><trkpt lat="48.808035" lon="4.634145"><ele>117.0</ele><time>2026-05-01T10:36:36.021Z</time></trkpt><trkpt lat="48.8080631" lon="4.6344455"><ele>117.0</ele><time>2026-05-01T10:36:37.02Z</time></trkpt><trkpt lat="48.8080974" lon="4.6347361"><ele>117.0</ele><time>2026-05-01T10:36:38.02Z</time></trkpt><trkpt lat="48.8081261" lon="4.635018"><ele>117.0</ele><time>2026-05-01T10:36:39.02Z</time></trkpt><trkpt lat="48.8081617" lon="4.6352872"><ele>117.0</ele><time>2026-05-01T10:36:40.009Z</time></trkpt><trkpt lat="48.8081962" lon="4.6355429"><ele>117.66666666666666</ele><time>2026-05-01T10:36:41.015Z</time></trkpt><trkpt lat="48.8082595" lon="4.6357751"><ele>118.33333333333333</ele><time>2026-05-01T10:36:42.018Z</time></trkpt><trkpt lat="48.8083702" lon="4.6359778"><ele>119.0</ele><time>2026-05-01T10:36:43.022Z</time></trkpt><trkpt lat="48.8084977" lon="4.6361446"><ele>119.0</ele><time>2026-05-01T10:36:44.02Z</time></trkpt><trkpt lat="48.8086458" lon="4.6362835"><ele>119.0</ele><time>2026-05-01T10:36:45.022Z</time></trkpt><trkpt lat="48.8088022" lon="4.6364032"><ele>119.0</ele><time>2026-05-01T10:36:46.02Z</time></trkpt><trkpt lat="48.8089686" lon="4.6365275"><ele>119.0</ele><time>2026-05-01T10:36:47.021Z</time></trkpt><trkpt lat="48.8091387" lon="4.636648"><ele>119.0</ele><time>2026-05-01T10:36:48.018Z</time></trkpt><trkpt lat="48.8093103" lon="4.6367912"><ele>119.0</ele><time>2026-05-01T10:36:49.016Z</time></trkpt><trkpt lat="48.8094806" lon="4.6369254"><ele>119.0</ele><time>2026-05-01T10:36:50.027Z</time></trkpt><trkpt lat="48.809646" lon="4.6370832"><ele>119.0</ele><time>2026-05-01T10:36:51.023Z</time></trkpt><trkpt lat="48.8098042" lon="4.6372873"><ele>119.0</ele><time>2026-05-01T10:36:52.017Z</time></trkpt><trkpt lat="48.8099473" lon="4.6375002"><ele>119.0</ele><time>2026-05-01T10:36:53.015Z</time></trkpt><trkpt lat="48.810078" lon="4.637712"><ele>119.0</ele><time>2026-05-01T10:36:54.019Z</time></trkpt><trkpt lat="48.8101997" lon="4.6379058"><ele>119.0</ele><time>2026-05-01T10:36:55.017Z</time></trkpt><trkpt lat="48.8103023" lon="4.638078"><ele>119.5</ele><time>2026-05-01T10:36:56.012Z</time></trkpt><trkpt lat="48.8103913" lon="4.6382156"><ele>120.0</ele><time>2026-05-01T10:36:57.019Z</time></trkpt><trkpt lat="48.8104795" lon="4.6383566"><ele>120.5</ele><time>2026-05-01T10:36:58.01Z</time></trkpt><trkpt lat="48.8105514" lon="4.6384846"><ele>121.0</ele><time>2026-05-01T10:36:59.019Z</time></trkpt><trkpt lat="48.810625" lon="4.6386281"><ele>120.5</ele><time>2026-05-01T10:37:00.016Z</time></trkpt><trkpt lat="48.8106911" lon="4.6387753"><ele>120.0</ele><time>2026-05-01T10:37:01.018Z</time></trkpt><trkpt lat="48.8107583" lon="4.6389228"><ele>119.5</ele><time>2026-05-01T10:37:02.01Z</time></trkpt><trkpt lat="48.8108303" lon="4.6390563"><ele>119.0</ele><time>2026-05-01T10:37:03.019Z</time></trkpt><trkpt lat="48.8108953" lon="4.6391829"><ele>119.0</ele><time>2026-05-01T10:37:04.024Z</time></trkpt><trkpt lat="48.8109767" lon="4.6393014"><ele>119.0</ele><time>2026-05-01T10:37:05.016Z</time></trkpt><trkpt lat="48.811063" lon="4.6394179"><ele>119.0</ele><time>2026-05-01T10:37:06.048Z</time></trkpt><trkpt lat="48.8111559" lon="4.6395184"><ele>119.0</ele><time>2026-05-01T10:37:07.024Z</time></trkpt><trkpt lat="48.8112539" lon="4.6396095"><ele>119.25</ele><time>2026-05-01T10:37:08.016Z</time></trkpt><trkpt lat="48.8113603" lon="4.6397035"><ele>119.5</ele><time>2026-05-01T10:37:09.023Z</time></trkpt><trkpt lat="48.8114665" lon="4.6397965"><ele>119.75</ele><time>2026-05-01T10:37:10.018Z</time></trkpt><trkpt lat="48.8115712" lon="4.6398774"><ele>120.0</ele><time>2026-05-01T10:37:11.02Z</time></trkpt><trkpt lat="48.8116691" lon="4.6399654"><ele>120.0</ele><time>2026-05-01T10:37:12.014Z</time></trkpt><trkpt lat="48.8117674" lon="4.6400531"><ele>120.0</ele><time>2026-05-01T10:37:13.016Z</time></trkpt><trkpt lat="48.8118691" lon="4.6401365"><ele>120.0</ele><time>2026-05-01T10:37:14.018Z</time></trkpt><trkpt lat="48.8119678" lon="4.6402264"><ele>120.0</ele><time>2026-05-01T10:37:15.02Z</time></trkpt><trkpt lat="48.8120685" lon="4.6403139"><ele>120.25</ele><time>2026-05-01T10:37:16.021Z</time></trkpt><trkpt lat="48.812173" lon="4.6404048"><ele>120.5</ele><time>2026-05-01T10:37:17.013Z</time></trkpt><trkpt lat="48.81228" lon="4.6404818"><ele>120.75</ele><time>2026-05-01T10:37:18.02Z</time></trkpt><trkpt lat="48.8123917" lon="4.6405496"><ele>121.0</ele><time>2026-05-01T10:37:19.014Z</time></trkpt><trkpt lat="48.8124982" lon="4.640617"><ele>121.0</ele><time>2026-05-01T10:37:20.018Z</time></trkpt><trkpt lat="48.8126022" lon="4.6406908"><ele>121.0</ele><time>2026-05-01T10:37:21.012Z</time></trkpt><trkpt lat="48.8127078" lon="4.6407799"><ele>121.0</ele><time>2026-05-01T10:37:22.017Z</time></trkpt><trkpt lat="48.8128037" lon="4.6408931"><ele>121.0</ele><time>2026-05-01T10:37:23.024Z</time></trkpt><trkpt lat="48.8128906" lon="4.6410066"><ele>121.4</ele><time>2026-05-01T10:37:24.018Z</time></trkpt><trkpt lat="48.8129752" lon="4.6411109"><ele>121.8</ele><time>2026-05-01T10:37:25.023Z</time></trkpt><trkpt lat="48.8130624" lon="4.6412206"><ele>122.20000000000002</ele><time>2026-05-01T10:37:26.015Z</time></trkpt><trkpt lat="48.8131518" lon="4.6413278"><ele>122.60000000000001</ele><time>2026-05-01T10:37:27.013Z</time></trkpt><trkpt lat="48.8132384" lon="4.6414293"><ele>123.0</ele><time>2026-05-01T10:37:28.018Z</time></trkpt><trkpt lat="48.8133241" lon="4.6415395"><ele>123.0</ele><time>2026-05-01T10:37:29.021Z</time></trkpt><trkpt lat="48.813407" lon="4.6416485"><ele>123.00000000000001</ele><time>2026-05-01T10:37:30.029Z</time></trkpt><trkpt lat="48.8134887" lon="4.6417495"><ele>123.00000000000001</ele><time>2026-05-01T10:37:31.015Z</time></trkpt><trkpt lat="48.8135771" lon="4.6418429"><ele>123.0</ele><time>2026-05-01T10:37:32.025Z</time></trkpt><trkpt lat="48.8136636" lon="4.6419253"><ele>123.0</ele><time>2026-05-01T10:37:33.015Z</time></trkpt><trkpt lat="48.8137577" lon="4.6420079"><ele>123.60000000000001</ele><time>2026-05-01T10:37:34.019Z</time></trkpt><trkpt lat="48.8138489" lon="4.6420711"><ele>124.20000000000002</ele><time>2026-05-01T10:37:35.016Z</time></trkpt><trkpt lat="48.8139434" lon="4.6421389"><ele>124.8</ele><time>2026-05-01T10:37:36.017Z</time></trkpt><trkpt lat="48.8140325" lon="4.6422087"><ele>125.4</ele><time>2026-05-01T10:37:37.021Z</time></trkpt><trkpt lat="48.8141194" lon="4.6422754"><ele>126.0</ele><time>2026-05-01T10:37:38.022Z</time></trkpt><trkpt lat="48.8142078" lon="4.6423592"><ele>126.0</ele><time>2026-05-01T10:37:39.015Z</time></trkpt><trkpt lat="48.8142883" lon="4.6424607"><ele>126.0</ele><time>2026-05-01T10:37:40.014Z</time></trkpt><trkpt lat="48.8143557" lon="4.6425739"><ele>126.0</ele><time>2026-05-01T10:37:41.027Z</time></trkpt><trkpt lat="48.8144028" lon="4.6427057"><ele>126.0</ele><time>2026-05-01T10:37:42.015Z</time></trkpt><trkpt lat="48.8144382" lon="4.6428535"><ele>126.0</ele><time>2026-05-01T10:37:43.016Z</time></trkpt><trkpt lat="48.8144859" lon="4.6430053"><ele>126.0</ele><time>2026-05-01T10:37:44.036Z</time></trkpt><trkpt lat="48.814524" lon="4.6431516"><ele>126.0</ele><time>2026-05-01T10:37:45.019Z</time></trkpt><trkpt lat="48.8145609" lon="4.643298"><ele>126.0</ele><time>2026-05-01T10:37:46.021Z</time></trkpt><trkpt lat="48.814602" lon="4.6434467"><ele>126.0</ele><time>2026-05-01T10:37:47.015Z</time></trkpt><trkpt lat="48.814647" lon="4.6436003"><ele>126.0</ele><time>2026-05-01T10:37:48.024Z</time></trkpt><trkpt lat="48.8146973" lon="4.6437565"><ele>126.0</ele><time>2026-05-01T10:37:49.018Z</time></trkpt><trkpt lat="48.8147561" lon="4.6438979"><ele>126.0</ele><time>2026-05-01T10:37:50.011Z</time></trkpt><trkpt lat="48.8148319" lon="4.644024"><ele>126.0</ele><time>2026-05-01T10:37:51.016Z</time></trkpt><trkpt lat="48.8149238" lon="4.6441437"><ele>126.0</ele><time>2026-05-01T10:37:52.014Z</time></trkpt><trkpt lat="48.8150051" lon="4.6442633"><ele>126.0</ele><time>2026-05-01T10:37:53.019Z</time></trkpt><trkpt lat="48.8150819" lon="4.6443834"><ele>126.0</ele><time>2026-05-01T10:37:54.017Z</time></trkpt><trkpt lat="48.8151591" lon="4.6445088"><ele>126.0</ele><time>2026-05-01T10:37:55.032Z</time></trkpt><trkpt lat="48.8152433" lon="4.6446414"><ele>126.0</ele><time>2026-05-01T10:37:56.014Z</time></trkpt><trkpt lat="48.8153316" lon="4.6447816"><ele>126.25</ele><time>2026-05-01T10:37:57.019Z</time></trkpt><trkpt lat="48.8154169" lon="4.6449138"><ele>126.5</ele><time>2026-05-01T10:37:58.042Z</time></trkpt><trkpt lat="48.8154984" lon="4.6450528"><ele>126.75</ele><time>2026-05-01T10:37:59.021Z</time></trkpt><trkpt lat="48.8155844" lon="4.6451869"><ele>127.0</ele><time>2026-05-01T10:38:00.025Z</time></trkpt><trkpt lat="48.8156763" lon="4.645319"><ele>127.25</ele><time>2026-05-01T10:38:01.015Z</time></trkpt><trkpt lat="48.8157633" lon="4.645456"><ele>127.5</ele><time>2026-05-01T10:38:02.019Z</time></trkpt><trkpt lat="48.8158437" lon="4.6456081"><ele>127.75</ele><time>2026-05-01T10:38:03.023Z</time></trkpt><trkpt lat="48.8159201" lon="4.6457786"><ele>128.0</ele><time>2026-05-01T10:38:04.017Z</time></trkpt><trkpt lat="48.8159891" lon="4.6459676"><ele>127.75</ele><time>2026-05-01T10:38:05.017Z</time></trkpt><trkpt lat="48.8160722" lon="4.6461489"><ele>127.5</ele><time>2026-05-01T10:38:06.016Z</time></trkpt><trkpt lat="48.8161735" lon="4.6463113"><ele>127.25</ele><time>2026-05-01T10:38:07.019Z</time></trkpt><trkpt lat="48.8162798" lon="4.6464851"><ele>127.0</ele><time>2026-05-01T10:38:08.023Z</time></trkpt><trkpt lat="48.8163876" lon="4.6466735"><ele>127.0</ele><time>2026-05-01T10:38:09.019Z</time></trkpt><trkpt lat="48.8164913" lon="4.6468858"><ele>127.0</ele><time>2026-05-01T10:38:10.016Z</time></trkpt><trkpt lat="48.8166133" lon="4.6470944"><ele>127.0</ele><time>2026-05-01T10:38:11.021Z</time></trkpt><trkpt lat="48.816753" lon="4.6472929"><ele>127.33333333333334</ele><time>2026-05-01T10:38:12.014Z</time></trkpt><trkpt lat="48.8169125" lon="4.6474838"><ele>127.66666666666666</ele><time>2026-05-01T10:38:13.015Z</time></trkpt><trkpt lat="48.8170721" lon="4.6476724"><ele>128.0</ele><time>2026-05-01T10:38:14.023Z</time></trkpt><trkpt lat="48.8172379" lon="4.6478667"><ele>128.0</ele><time>2026-05-01T10:38:15.014Z</time></trkpt><trkpt lat="48.8174035" lon="4.6480648"><ele>128.0</ele><time>2026-05-01T10:38:16.014Z</time></trkpt><trkpt lat="48.8175672" lon="4.6482612"><ele>128.0</ele><time>2026-05-01T10:38:17.014Z</time></trkpt><trkpt lat="48.817717" lon="4.6484805"><ele>128.0</ele><time>2026-05-01T10:38:18.056Z</time></trkpt><trkpt lat="48.8178379" lon="4.6487322"><ele>128.0</ele><time>2026-05-01T10:38:19.019Z</time></trkpt><trkpt lat="48.8179585" lon="4.6489867"><ele>128.0</ele><time>2026-05-01T10:38:20.021Z</time></trkpt><trkpt lat="48.8180725" lon="4.6492527"><ele>128.0</ele><time>2026-05-01T10:38:21.015Z</time></trkpt><trkpt lat="48.8181765" lon="4.6495178"><ele>128.0</ele><time>2026-05-01T10:38:22.027Z</time></trkpt><trkpt lat="48.8182836" lon="4.6497923"><ele>128.0</ele><time>2026-05-01T10:38:23.014Z</time></trkpt><trkpt lat="48.8183791" lon="4.650078"><ele>128.66666666666666</ele><time>2026-05-01T10:38:24.024Z</time></trkpt><trkpt lat="48.8184451" lon="4.6503805"><ele>129.33333333333334</ele><time>2026-05-01T10:38:25.011Z</time></trkpt><trkpt lat="48.8184806" lon="4.6506923"><ele>130.0</ele><time>2026-05-01T10:38:26.012Z</time></trkpt><trkpt lat="48.8184854" lon="4.651014"><ele>130.0</ele><time>2026-05-01T10:38:27.017Z</time></trkpt><trkpt lat="48.8184956" lon="4.6513316"><ele>130.0</ele><time>2026-05-01T10:38:28.021Z</time></trkpt><trkpt lat="48.8185147" lon="4.6516543"><ele>130.0</ele><time>2026-05-01T10:38:29.012Z</time></trkpt><trkpt lat="48.8185519" lon="4.6519661"><ele>130.66666666666669</ele><time>2026-05-01T10:38:30.022Z</time></trkpt><trkpt lat="48.8186105" lon="4.6522801"><ele>131.33333333333334</ele><time>2026-05-01T10:38:31.025Z</time></trkpt><trkpt lat="48.8186953" lon="4.6525809"><ele>132.0</ele><time>2026-05-01T10:38:32.033Z</time></trkpt><trkpt lat="48.8187913" lon="4.6528732"><ele>133.0</ele><time>2026-05-01T10:38:33.012Z</time></trkpt><trkpt lat="48.8189025" lon="4.6531661"><ele>134.0</ele><time>2026-05-01T10:38:34.012Z</time></trkpt><trkpt lat="48.8190264" lon="4.6534503"><ele>135.0</ele><time>2026-05-01T10:38:35.039Z</time></trkpt><trkpt lat="48.8191662" lon="4.6537211"><ele>135.33333333333334</ele><time>2026-05-01T10:38:36.028Z</time></trkpt><trkpt lat="48.8193156" lon="4.6539692"><ele>135.66666666666669</ele><time>2026-05-01T10:38:37.018Z</time></trkpt><trkpt lat="48.8194744" lon="4.6542174"><ele>136.0</ele><time>2026-05-01T10:38:38.01Z</time></trkpt><trkpt lat="48.8196304" lon="4.6544622"><ele>136.5</ele><time>2026-05-01T10:38:39.022Z</time></trkpt><trkpt lat="48.8197854" lon="4.6547165"><ele>137.0</ele><time>2026-05-01T10:38:40.017Z</time></trkpt><trkpt lat="48.8199367" lon="4.6549693"><ele>137.0</ele><time>2026-05-01T10:38:41.021Z</time></trkpt><trkpt lat="48.82009" lon="4.6552244"><ele>137.0</ele><time>2026-05-01T10:38:42.014Z</time></trkpt><trkpt lat="48.8202469" lon="4.6554761"><ele>137.0</ele><time>2026-05-01T10:38:43.028Z</time></trkpt><trkpt lat="48.8204029" lon="4.6557235"><ele>137.0</ele><time>2026-05-01T10:38:44.019Z</time></trkpt><trkpt lat="48.8205579" lon="4.6559717"><ele>137.0</ele><time>2026-05-01T10:38:45.012Z</time></trkpt><trkpt lat="48.8207145" lon="4.656219"><ele>137.0</ele><time>2026-05-01T10:38:46.014Z</time></trkpt><trkpt lat="48.8208691" lon="4.6564715"><ele>137.0</ele><time>2026-05-01T10:38:47.018Z</time></trkpt><trkpt lat="48.821016" lon="4.656742"><ele>137.0</ele><time>2026-05-01T10:38:48.019Z</time></trkpt><trkpt lat="48.8211457" lon="4.6570236"><ele>137.0</ele><time>2026-05-01T10:38:49.017Z</time></trkpt><trkpt lat="48.8212642" lon="4.6573133"><ele>137.0</ele><time>2026-05-01T10:38:50.014Z</time></trkpt><trkpt lat="48.8213803" lon="4.6576052"><ele>137.0</ele><time>2026-05-01T10:38:51.022Z</time></trkpt><trkpt lat="48.821498" lon="4.6579004"><ele>137.0</ele><time>2026-05-01T10:38:52.015Z</time></trkpt><trkpt lat="48.8216141" lon="4.6582008"><ele>137.0</ele><time>2026-05-01T10:38:53.017Z</time></trkpt><trkpt lat="48.8217296" lon="4.6584938"><ele>138.0</ele><time>2026-05-01T10:38:54.023Z</time></trkpt><trkpt lat="48.8218462" lon="4.6587806"><ele>139.0</ele><time>2026-05-01T10:38:55.019Z</time></trkpt><trkpt lat="48.8219641" lon="4.6590735"><ele>140.0</ele><time>2026-05-01T10:38:56.011Z</time></trkpt><trkpt lat="48.8220806" lon="4.6593673"><ele>140.0</ele><time>2026-05-01T10:38:57.022Z</time></trkpt><trkpt lat="48.8221996" lon="4.659656"><ele>140.0</ele><time>2026-05-01T10:38:58.02Z</time></trkpt><trkpt lat="48.8223183" lon="4.6599516"><ele>140.0</ele><time>2026-05-01T10:38:59.02Z</time></trkpt><trkpt lat="48.8224283" lon="4.6602528"><ele>140.0</ele><time>2026-05-01T10:39:00.022Z</time></trkpt><trkpt lat="48.8225335" lon="4.6605605"><ele>140.0</ele><time>2026-05-01T10:39:01.017Z</time></trkpt><trkpt lat="48.822632" lon="4.6608684"><ele>140.0</ele><time>2026-05-01T10:39:02.015Z</time></trkpt><trkpt lat="48.8227258" lon="4.6611779"><ele>142.33333333333331</ele><time>2026-05-01T10:39:03.027Z</time></trkpt><trkpt lat="48.8228199" lon="4.6614851"><ele>144.66666666666666</ele><time>2026-05-01T10:39:04.019Z</time></trkpt><trkpt lat="48.8229161" lon="4.6617885"><ele>147.0</ele><time>2026-05-01T10:39:05.013Z</time></trkpt><trkpt lat="48.8230095" lon="4.6620979"><ele>147.0</ele><time>2026-05-01T10:39:06.017Z</time></trkpt><trkpt lat="48.8231045" lon="4.6624035"><ele>147.0</ele><time>2026-05-01T10:39:07.022Z</time></trkpt><trkpt lat="48.8231986" lon="4.6627083"><ele>147.0</ele><time>2026-05-01T10:39:08.019Z</time></trkpt><trkpt lat="48.8232886" lon="4.6630165"><ele>147.0</ele><time>2026-05-01T10:39:09.018Z</time></trkpt><trkpt lat="48.8233706" lon="4.6633353"><ele>147.0</ele><time>2026-05-01T10:39:10.021Z</time></trkpt><trkpt lat="48.8234391" lon="4.6636567"><ele>147.0</ele><time>2026-05-01T10:39:11.016Z</time></trkpt><trkpt lat="48.8235068" lon="4.6639872"><ele>149.0</ele><time>2026-05-01T10:39:12.028Z</time></trkpt><trkpt lat="48.8235706" lon="4.664313"><ele>151.0</ele><time>2026-05-01T10:39:13.022Z</time></trkpt><trkpt lat="48.823633" lon="4.6646408"><ele>153.0</ele><time>2026-05-01T10:39:14.017Z</time></trkpt><trkpt lat="48.8236969" lon="4.6649699"><ele>152.5</ele><time>2026-05-01T10:39:15.019Z</time></trkpt><trkpt lat="48.8237681" lon="4.6652963"><ele>152.0</ele><time>2026-05-01T10:39:16.017Z</time></trkpt><trkpt lat="48.8238488" lon="4.6656182"><ele>152.0</ele><time>2026-05-01T10:39:17.015Z</time></trkpt><trkpt lat="48.8239383" lon="4.6659327"><ele>152.0</ele><time>2026-05-01T10:39:18.016Z</time></trkpt><trkpt lat="48.8240411" lon="4.6662395"><ele>152.0</ele><time>2026-05-01T10:39:19.043Z</time></trkpt><trkpt lat="48.8241463" lon="4.6665398"><ele>152.0</ele><time>2026-05-01T10:39:20.021Z</time></trkpt><trkpt lat="48.8242481" lon="4.6668466"><ele>153.66666666666666</ele><time>2026-05-01T10:39:21.018Z</time></trkpt><trkpt lat="48.8243485" lon="4.6671487"><ele>155.33333333333334</ele><time>2026-05-01T10:39:22.021Z</time></trkpt><trkpt lat="48.8244528" lon="4.6674457"><ele>157.0</ele><time>2026-05-01T10:39:23.015Z</time></trkpt><trkpt lat="48.8245538" lon="4.6677405"><ele>156.66666666666669</ele><time>2026-05-01T10:39:24.017Z</time></trkpt><trkpt lat="48.8246554" lon="4.6680347"><ele>156.33333333333334</ele><time>2026-05-01T10:39:25.017Z</time></trkpt><trkpt lat="48.8247558" lon="4.6683313"><ele>156.0</ele><time>2026-05-01T10:39:26.014Z</time></trkpt><trkpt lat="48.8248539" lon="4.6686238"><ele>156.0</ele><time>2026-05-01T10:39:27.016Z</time></trkpt><trkpt lat="48.8249548" lon="4.6689131"><ele>156.0</ele><time>2026-05-01T10:39:28.021Z</time></trkpt><trkpt lat="48.8250533" lon="4.6692008"><ele>156.0</ele><time>2026-05-01T10:39:29.019Z</time></trkpt><trkpt lat="48.8251449" lon="4.6694803"><ele>156.66666666666666</ele><time>2026-05-01T10:39:30.016Z</time></trkpt><trkpt lat="48.82523" lon="4.6697456"><ele>157.33333333333331</ele><time>2026-05-01T10:39:31.019Z</time></trkpt><trkpt lat="48.8253072" lon="4.6699833"><ele>158.0</ele><time>2026-05-01T10:39:32.015Z</time></trkpt><trkpt lat="48.8253881" lon="4.6701938"><ele>158.33333333333331</ele><time>2026-05-01T10:39:33.017Z</time></trkpt><trkpt lat="48.8255" lon="4.670367"><ele>158.66666666666666</ele><time>2026-05-01T10:39:34.022Z</time></trkpt><trkpt lat="48.8256502" lon="4.6704884"><ele>159.0</ele><time>2026-05-01T10:39:35.017Z</time></trkpt><trkpt lat="48.8258083" lon="4.6705301"><ele>159.0</ele><time>2026-05-01T10:39:36.016Z</time></trkpt><trkpt lat="48.8259715" lon="4.6705225"><ele>159.0</ele><time>2026-05-01T10:39:37.017Z</time></trkpt><trkpt lat="48.8261428" lon="4.6704888"><ele>159.0</ele><time>2026-05-01T10:39:38.018Z</time></trkpt><trkpt lat="48.8263141" lon="4.6704483"><ele>160.33333333333334</ele><time>2026-05-01T10:39:39.019Z</time></trkpt><trkpt lat="48.8264944" lon="4.6704174"><ele>161.66666666666669</ele><time>2026-05-01T10:39:40.023Z</time></trkpt><trkpt lat="48.8266671" lon="4.670394"><ele>163.0</ele><time>2026-05-01T10:39:41.022Z</time></trkpt><trkpt lat="48.8268276" lon="4.6703679"><ele>164.5</ele><time>2026-05-01T10:39:42.016Z</time></trkpt><trkpt lat="48.8269826" lon="4.6703407"><ele>166.0</ele><time>2026-05-01T10:39:43.018Z</time></trkpt><trkpt lat="48.8271259" lon="4.6703198"><ele>167.5</ele><time>2026-05-01T10:39:44.022Z</time></trkpt><trkpt lat="48.8272547" lon="4.670323"><ele>169.0</ele><time>2026-05-01T10:39:45.019Z</time></trkpt><trkpt lat="48.8273769" lon="4.6703688"><ele>169.0</ele><time>2026-05-01T10:39:46.016Z</time></trkpt><trkpt lat="48.8274755" lon="4.6704902"><ele>169.0</ele><time>2026-05-01T10:39:47.065Z</time></trkpt><trkpt lat="48.8275311" lon="4.6706511"><ele>169.0</ele><time>2026-05-01T10:39:48.017Z</time></trkpt><trkpt lat="48.8275397" lon="4.6708313"><ele>169.0</ele><time>2026-05-01T10:39:49.017Z</time></trkpt><trkpt lat="48.8274807" lon="4.6709786"><ele>169.0</ele><time>2026-05-01T10:39:50.024Z</time></trkpt><trkpt lat="48.8273864" lon="4.6710919"><ele>169.0</ele><time>2026-05-01T10:39:51.014Z</time></trkpt><trkpt lat="48.827269" lon="4.6711627"><ele>169.0</ele><time>2026-05-01T10:39:52.016Z</time></trkpt><trkpt lat="48.8271446" lon="4.6712351"><ele>169.0</ele><time>2026-05-01T10:39:53.02Z</time></trkpt><trkpt lat="48.8270398" lon="4.6713641"><ele>171.33333333333334</ele><time>2026-05-01T10:39:54.023Z</time></trkpt><trkpt lat="48.8269732" lon="4.6715558"><ele>173.66666666666666</ele><time>2026-05-01T10:39:55.016Z</time></trkpt><trkpt lat="48.8269193" lon="4.6717826"><ele>176.0</ele><time>2026-05-01T10:39:56.015Z</time></trkpt><trkpt lat="48.8268876" lon="4.6720299"><ele>176.66666666666666</ele><time>2026-05-01T10:39:57.021Z</time></trkpt><trkpt lat="48.8268588" lon="4.672287"><ele>177.33333333333334</ele><time>2026-05-01T10:39:58.026Z</time></trkpt><trkpt lat="48.8268372" lon="4.6725487"><ele>178.0</ele><time>2026-05-01T10:39:59.021Z</time></trkpt><trkpt lat="48.8268106" lon="4.6728298"><ele>178.0</ele><time>2026-05-01T10:40:00.014Z</time></trkpt><trkpt lat="48.8267667" lon="4.6731173"><ele>178.0</ele><time>2026-05-01T10:40:01.018Z</time></trkpt><trkpt lat="48.8266967" lon="4.6733891"><ele>178.0</ele><time>2026-05-01T10:40:02.019Z</time></trkpt><trkpt lat="48.8265924" lon="4.6736299"><ele>179.66666666666669</ele><time>2026-05-01T10:40:03.012Z</time></trkpt><trkpt lat="48.8264704" lon="4.6738658"><ele>181.33333333333334</ele><time>2026-05-01T10:40:04.02Z</time></trkpt><trkpt lat="48.8263427" lon="4.6741012"><ele>183.0</ele><time>2026-05-01T10:40:05.018Z</time></trkpt><trkpt lat="48.8262347" lon="4.6743396"><ele>184.0</ele><time>2026-05-01T10:40:06.023Z</time></trkpt><trkpt lat="48.8261521" lon="4.6745894"><ele>185.0</ele><time>2026-05-01T10:40:07.022Z</time></trkpt><trkpt lat="48.8260865" lon="4.6748596"><ele>186.0</ele><time>2026-05-01T10:40:08.023Z</time></trkpt><trkpt lat="48.8260342" lon="4.6751347"><ele>186.33333333333334</ele><time>2026-05-01T10:40:09.015Z</time></trkpt><trkpt lat="48.8259915" lon="4.6754144"><ele>186.66666666666669</ele><time>2026-05-01T10:40:10.018Z</time></trkpt><trkpt lat="48.8259637" lon="4.6757016"><ele>187.0</ele><time>2026-05-01T10:40:11.024Z</time></trkpt><trkpt lat="48.8259554" lon="4.6759908"><ele>186.0</ele><time>2026-05-01T10:40:12.016Z</time></trkpt><trkpt lat="48.8259648" lon="4.676292"><ele>185.0</ele><time>2026-05-01T10:40:13.012Z</time></trkpt><trkpt lat="48.8259898" lon="4.6765982"><ele>184.0</ele><time>2026-05-01T10:40:14.023Z</time></trkpt><trkpt lat="48.8260337" lon="4.6768895"><ele>182.66666666666669</ele><time>2026-05-01T10:40:15.022Z</time></trkpt><trkpt lat="48.8261014" lon="4.6771703"><ele>181.33333333333334</ele><time>2026-05-01T10:40:16.019Z</time></trkpt><trkpt lat="48.8261893" lon="4.677443"><ele>180.0</ele><time>2026-05-01T10:40:17.017Z</time></trkpt><trkpt lat="48.8262973" lon="4.6776943"><ele>177.66666666666666</ele><time>2026-05-01T10:40:18.026Z</time></trkpt><trkpt lat="48.8264244" lon="4.6779436"><ele>175.33333333333331</ele><time>2026-05-01T10:40:19.013Z</time></trkpt><trkpt lat="48.8265634" lon="4.6781875"><ele>173.0</ele><time>2026-05-01T10:40:20.014Z</time></trkpt><trkpt lat="48.8267068" lon="4.6784316"><ele>172.66666666666666</ele><time>2026-05-01T10:40:21.022Z</time></trkpt><trkpt lat="48.8268532" lon="4.6786832"><ele>172.33333333333334</ele><time>2026-05-01T10:40:22.019Z</time></trkpt><trkpt lat="48.8269967" lon="4.6789427"><ele>172.0</ele><time>2026-05-01T10:40:23.028Z</time></trkpt><trkpt lat="48.8271445" lon="4.6792025"><ele>168.5</ele><time>2026-05-01T10:40:24.018Z</time></trkpt><trkpt lat="48.8272959" lon="4.6794602"><ele>165.0</ele><time>2026-05-01T10:40:25.016Z</time></trkpt><trkpt lat="48.827448" lon="4.6797159"><ele>165.0</ele><time>2026-05-01T10:40:26.015Z</time></trkpt><trkpt lat="48.8275988" lon="4.6799714"><ele>165.0</ele><time>2026-05-01T10:40:27.014Z</time></trkpt><trkpt lat="48.8277488" lon="4.6802356"><ele>164.5</ele><time>2026-05-01T10:40:28.016Z</time></trkpt><trkpt lat="48.8278998" lon="4.6804981"><ele>164.0</ele><time>2026-05-01T10:40:29.018Z</time></trkpt><trkpt lat="48.8280502" lon="4.6807559"><ele>164.0</ele><time>2026-05-01T10:40:30.014Z</time></trkpt><trkpt lat="48.8282007" lon="4.6810156"><ele>164.0</ele><time>2026-05-01T10:40:31.035Z</time></trkpt><trkpt lat="48.828348" lon="4.6812727"><ele>163.0</ele><time>2026-05-01T10:40:32.012Z</time></trkpt><trkpt lat="48.8284975" lon="4.6815276"><ele>162.0</ele><time>2026-05-01T10:40:33.016Z</time></trkpt><trkpt lat="48.8286476" lon="4.6817872"><ele>158.0</ele><time>2026-05-01T10:40:34.023Z</time></trkpt><trkpt lat="48.8287948" lon="4.6820457"><ele>154.0</ele><time>2026-05-01T10:40:35.017Z</time></trkpt><trkpt lat="48.8289437" lon="4.6823059"><ele>154.0</ele><time>2026-05-01T10:40:36.016Z</time></trkpt><trkpt lat="48.8290935" lon="4.6825652"><ele>154.0</ele><time>2026-05-01T10:40:37.019Z</time></trkpt><trkpt lat="48.8292382" lon="4.6828238"><ele>151.0</ele><time>2026-05-01T10:40:38.016Z</time></trkpt><trkpt lat="48.8293836" lon="4.6830893"><ele>148.0</ele><time>2026-05-01T10:40:39.023Z</time></trkpt><trkpt lat="48.8295213" lon="4.6833566"><ele>147.0</ele><time>2026-05-01T10:40:40.023Z</time></trkpt><trkpt lat="48.8296451" lon="4.6836338"><ele>146.0</ele><time>2026-05-01T10:40:41.024Z</time></trkpt><trkpt lat="48.8297512" lon="4.6839187"><ele>145.0</ele><time>2026-05-01T10:40:42.017Z</time></trkpt><trkpt lat="48.8298314" lon="4.6842169"><ele>144.66666666666669</ele><time>2026-05-01T10:40:43.02Z</time></trkpt><trkpt lat="48.8298841" lon="4.6845233"><ele>144.33333333333334</ele><time>2026-05-01T10:40:44.017Z</time></trkpt><trkpt lat="48.829905" lon="4.684839"><ele>144.0</ele><time>2026-05-01T10:40:45.019Z</time></trkpt><trkpt lat="48.8299013" lon="4.6851587"><ele>143.66666666666666</ele><time>2026-05-01T10:40:46.015Z</time></trkpt><trkpt lat="48.8298868" lon="4.6854832"><ele>143.33333333333331</ele><time>2026-05-01T10:40:47.016Z</time></trkpt><trkpt lat="48.8298624" lon="4.6858052"><ele>143.0</ele><time>2026-05-01T10:40:48.02Z</time></trkpt><trkpt lat="48.8298301" lon="4.6861232"><ele>142.66666666666666</ele><time>2026-05-01T10:40:49.015Z</time></trkpt><trkpt lat="48.8298035" lon="4.686451"><ele>142.33333333333334</ele><time>2026-05-01T10:40:50.022Z</time></trkpt><trkpt lat="48.8297787" lon="4.6867799"><ele>142.0</ele><time>2026-05-01T10:40:51.017Z</time></trkpt><trkpt lat="48.8297527" lon="4.6871087"><ele>141.66666666666669</ele><time>2026-05-01T10:40:52.019Z</time></trkpt><trkpt lat="48.8297264" lon="4.6874312"><ele>141.33333333333334</ele><time>2026-05-01T10:40:53.022Z</time></trkpt><trkpt lat="48.8296976" lon="4.6877538"><ele>141.0</ele><time>2026-05-01T10:40:54.025Z</time></trkpt><trkpt lat="48.8296661" lon="4.688072"><ele>141.0</ele><time>2026-05-01T10:40:55.015Z</time></trkpt><trkpt lat="48.8296432" lon="4.6883854"><ele>141.0</ele><time>2026-05-01T10:40:56.023Z</time></trkpt><trkpt lat="48.8296261" lon="4.6886934"><ele>141.0</ele><time>2026-05-01T10:40:57.034Z</time></trkpt><trkpt lat="48.8296205" lon="4.6889817"><ele>141.0</ele><time>2026-05-01T10:40:58.027Z</time></trkpt><trkpt lat="48.829621" lon="4.689257"><ele>141.0</ele><time>2026-05-01T10:40:59.018Z</time></trkpt><trkpt lat="48.8296294" lon="4.6895251"><ele>141.0</ele><time>2026-05-01T10:41:00.021Z</time></trkpt><trkpt lat="48.8296449" lon="4.6897778"><ele>140.75</ele><time>2026-05-01T10:41:01.018Z</time></trkpt><trkpt lat="48.8296669" lon="4.6900181"><ele>140.5</ele><time>2026-05-01T10:41:02.057Z</time></trkpt><trkpt lat="48.8296846" lon="4.6902421"><ele>140.25</ele><time>2026-05-01T10:41:03.016Z</time></trkpt><trkpt lat="48.8296979" lon="4.6904376"><ele>140.0</ele><time>2026-05-01T10:41:04.032Z</time></trkpt><trkpt lat="48.8297101" lon="4.690576"><ele>140.0</ele><time>2026-05-01T10:41:05.023Z</time></trkpt><trkpt lat="48.8297116" lon="4.6906769"><ele>140.0</ele><time>2026-05-01T10:41:06.025Z</time></trkpt><trkpt lat="48.829698" lon="4.6907988"><ele>140.0</ele><time>2026-05-01T10:41:09.024Z</time></trkpt><trkpt lat="48.8297382" lon="4.6909125"><ele>140.0</ele><time>2026-05-01T10:41:11.025Z</time></trkpt><trkpt lat="48.829769" lon="4.6909978"><ele>140.0</ele><time>2026-05-01T10:41:12.015Z</time></trkpt><trkpt lat="48.8298104" lon="4.6910945"><ele>140.0</ele><time>2026-05-01T10:41:13.015Z</time></trkpt><trkpt lat="48.8298618" lon="4.6912086"><ele>140.25</ele><time>2026-05-01T10:41:14.027Z</time></trkpt><trkpt lat="48.8299238" lon="4.6913371"><ele>140.5</ele><time>2026-05-01T10:41:15.023Z</time></trkpt><trkpt lat="48.8299892" lon="4.6914811"><ele>140.75</ele><time>2026-05-01T10:41:16.024Z</time></trkpt><trkpt lat="48.8300466" lon="4.6916333"><ele>141.0</ele><time>2026-05-01T10:41:17.028Z</time></trkpt><trkpt lat="48.830099" lon="4.6917872"><ele>142.25</ele><time>2026-05-01T10:41:18.023Z</time></trkpt><trkpt lat="48.8301525" lon="4.6919465"><ele>143.5</ele><time>2026-05-01T10:41:19.019Z</time></trkpt><trkpt lat="48.8302235" lon="4.6921138"><ele>144.75</ele><time>2026-05-01T10:41:20.021Z</time></trkpt><trkpt lat="48.830308" lon="4.6922852"><ele>146.0</ele><time>2026-05-01T10:41:21.023Z</time></trkpt><trkpt lat="48.830396" lon="4.6924662"><ele>146.0</ele><time>2026-05-01T10:41:22.027Z</time></trkpt><trkpt lat="48.830483" lon="4.6926395"><ele>146.0</ele><time>2026-05-01T10:41:23.01Z</time></trkpt><trkpt lat="48.830575" lon="4.6927979"><ele>146.0</ele><time>2026-05-01T10:41:24.022Z</time></trkpt><trkpt lat="48.8306754" lon="4.6929305"><ele>146.0</ele><time>2026-05-01T10:41:25.027Z</time></trkpt><trkpt lat="48.8307754" lon="4.6930373"><ele>145.6</ele><time>2026-05-01T10:41:26.037Z</time></trkpt><trkpt lat="48.8308668" lon="4.6931318"><ele>145.2</ele><time>2026-05-01T10:41:27.019Z</time></trkpt><trkpt lat="48.830938" lon="4.6932175"><ele>144.8</ele><time>2026-05-01T10:41:28.019Z</time></trkpt><trkpt lat="48.8309954" lon="4.6932842"><ele>144.4</ele><time>2026-05-01T10:41:29.02Z</time></trkpt><trkpt lat="48.8310622" lon="4.6933956"><ele>144.0</ele><time>2026-05-01T10:41:31.015Z</time></trkpt><trkpt lat="48.8310444" lon="4.6935514"><ele>143.83333333333334</ele><time>2026-05-01T10:41:33.021Z</time></trkpt><trkpt lat="48.8309682" lon="4.6935965"><ele>143.66666666666666</ele><time>2026-05-01T10:41:34.02Z</time></trkpt><trkpt lat="48.830904" lon="4.6936219"><ele>143.5</ele><time>2026-05-01T10:41:35.02Z</time></trkpt><trkpt lat="48.8308321" lon="4.6936608"><ele>143.33333333333331</ele><time>2026-05-01T10:41:36.018Z</time></trkpt><trkpt lat="48.8307584" lon="4.6937067"><ele>143.16666666666666</ele><time>2026-05-01T10:41:37.02Z</time></trkpt><trkpt lat="48.8306727" lon="4.6937937"><ele>143.0</ele><time>2026-05-01T10:41:38.019Z</time></trkpt><trkpt lat="48.8305871" lon="4.6938949"><ele>143.0</ele><time>2026-05-01T10:41:39.048Z</time></trkpt><trkpt lat="48.8305024" lon="4.6940167"><ele>143.0</ele><time>2026-05-01T10:41:40.023Z</time></trkpt><trkpt lat="48.8304158" lon="4.694154"><ele>143.0</ele><time>2026-05-01T10:41:41.019Z</time></trkpt><trkpt lat="48.8303288" lon="4.6943066"><ele>143.0</ele><time>2026-05-01T10:41:42.014Z</time></trkpt><trkpt lat="48.8302458" lon="4.6944723"><ele>143.0</ele><time>2026-05-01T10:41:43.02Z</time></trkpt><trkpt lat="48.8301548" lon="4.6946407"><ele>143.0</ele><time>2026-05-01T10:41:44.014Z</time></trkpt><trkpt lat="48.8300754" lon="4.694825"><ele>143.0</ele><time>2026-05-01T10:41:45.024Z</time></trkpt><trkpt lat="48.8300196" lon="4.6950128"><ele>143.0</ele><time>2026-05-01T10:41:46.018Z</time></trkpt><trkpt lat="48.8299801" lon="4.6952012"><ele>143.0</ele><time>2026-05-01T10:41:47.017Z</time></trkpt><trkpt lat="48.8299727" lon="4.6953942"><ele>143.0</ele><time>2026-05-01T10:41:48.014Z</time></trkpt><trkpt lat="48.829984" lon="4.695594"><ele>143.0</ele><time>2026-05-01T10:41:49.022Z</time></trkpt><trkpt lat="48.830026" lon="4.6957931"><ele>143.0</ele><time>2026-05-01T10:41:50.019Z</time></trkpt><trkpt lat="48.8300814" lon="4.6960119"><ele>142.66666666666666</ele><time>2026-05-01T10:41:51.025Z</time></trkpt><trkpt lat="48.8301252" lon="4.6962484"><ele>142.33333333333334</ele><time>2026-05-01T10:41:52.019Z</time></trkpt><trkpt lat="48.8301671" lon="4.6965063"><ele>142.0</ele><time>2026-05-01T10:41:53.027Z</time></trkpt><trkpt lat="48.8301866" lon="4.6967782"><ele>142.33333333333334</ele><time>2026-05-01T10:41:54.081Z</time></trkpt><trkpt lat="48.8301892" lon="4.6970629"><ele>142.66666666666666</ele><time>2026-05-01T10:41:55.018Z</time></trkpt><trkpt lat="48.8301744" lon="4.6973443"><ele>143.0</ele><time>2026-05-01T10:41:56.017Z</time></trkpt><trkpt lat="48.8301426" lon="4.6976463"><ele>143.0</ele><time>2026-05-01T10:41:57.012Z</time></trkpt><trkpt lat="48.8301048" lon="4.6979458"><ele>143.0</ele><time>2026-05-01T10:41:58.017Z</time></trkpt><trkpt lat="48.8300608" lon="4.698254"><ele>143.0</ele><time>2026-05-01T10:41:59.015Z</time></trkpt><trkpt lat="48.8300208" lon="4.698572"><ele>143.33333333333331</ele><time>2026-05-01T10:42:00.02Z</time></trkpt><trkpt lat="48.8299911" lon="4.6988948"><ele>143.66666666666666</ele><time>2026-05-01T10:42:01.032Z</time></trkpt><trkpt lat="48.8299727" lon="4.6992226"><ele>144.0</ele><time>2026-05-01T10:42:02.017Z</time></trkpt><trkpt lat="48.8299558" lon="4.6995578"><ele>144.33333333333334</ele><time>2026-05-01T10:42:03.016Z</time></trkpt><trkpt lat="48.8299433" lon="4.6998907"><ele>144.66666666666669</ele><time>2026-05-01T10:42:04.017Z</time></trkpt><trkpt lat="48.8299202" lon="4.7002294"><ele>145.0</ele><time>2026-05-01T10:42:05.014Z</time></trkpt><trkpt lat="48.8298942" lon="4.7005596"><ele>145.33333333333334</ele><time>2026-05-01T10:42:06.019Z</time></trkpt><trkpt lat="48.8298574" lon="4.7008906"><ele>145.66666666666666</ele><time>2026-05-01T10:42:07.023Z</time></trkpt><trkpt lat="48.8298203" lon="4.7012237"><ele>146.0</ele><time>2026-05-01T10:42:08.027Z</time></trkpt><trkpt lat="48.8297873" lon="4.7015584"><ele>146.33333333333331</ele><time>2026-05-01T10:42:09.017Z</time></trkpt><trkpt lat="48.8297628" lon="4.7018894"><ele>146.66666666666666</ele><time>2026-05-01T10:42:10.024Z</time></trkpt><trkpt lat="48.8297412" lon="4.7022233"><ele>147.0</ele><time>2026-05-01T10:42:11.015Z</time></trkpt><trkpt lat="48.8297238" lon="4.7025507"><ele>148.33333333333334</ele><time>2026-05-01T10:42:12.019Z</time></trkpt><trkpt lat="48.8297026" lon="4.7028822"><ele>149.66666666666669</ele><time>2026-05-01T10:42:13.021Z</time></trkpt><trkpt lat="48.8296762" lon="4.7032113"><ele>151.0</ele><time>2026-05-01T10:42:14.021Z</time></trkpt><trkpt lat="48.8296336" lon="4.7035359"><ele>151.33333333333334</ele><time>2026-05-01T10:42:15.014Z</time></trkpt><trkpt lat="48.8295688" lon="4.7038512"><ele>151.66666666666666</ele><time>2026-05-01T10:42:16.019Z</time></trkpt><trkpt lat="48.8294977" lon="4.7041615"><ele>152.0</ele><time>2026-05-01T10:42:17.009Z</time></trkpt><trkpt lat="48.8294198" lon="4.7044663"><ele>152.33333333333331</ele><time>2026-05-01T10:42:18.021Z</time></trkpt><trkpt lat="48.8293513" lon="4.7047795"><ele>152.66666666666666</ele><time>2026-05-01T10:42:19.016Z</time></trkpt><trkpt lat="48.8292967" lon="4.7050943"><ele>153.0</ele><time>2026-05-01T10:42:20.028Z</time></trkpt><trkpt lat="48.8292593" lon="4.7054158"><ele>154.0</ele><time>2026-05-01T10:42:21.047Z</time></trkpt><trkpt lat="48.8292249" lon="4.7057487"><ele>155.0</ele><time>2026-05-01T10:42:22.014Z</time></trkpt><trkpt lat="48.8291997" lon="4.706081"><ele>156.0</ele><time>2026-05-01T10:42:23.02Z</time></trkpt><trkpt lat="48.8291798" lon="4.7064102"><ele>156.0</ele><time>2026-05-01T10:42:24.019Z</time></trkpt><trkpt lat="48.8291625" lon="4.7067385"><ele>156.0</ele><time>2026-05-01T10:42:25.026Z</time></trkpt><trkpt lat="48.8291577" lon="4.707065"><ele>156.0</ele><time>2026-05-01T10:42:26.018Z</time></trkpt><trkpt lat="48.8291659" lon="4.7073925"><ele>156.0</ele><time>2026-05-01T10:42:27.023Z</time></trkpt><trkpt lat="48.8291801" lon="4.7077264"><ele>156.0</ele><time>2026-05-01T10:42:28.02Z</time></trkpt><trkpt lat="48.8292005" lon="4.7080657"><ele>156.0</ele><time>2026-05-01T10:42:29.014Z</time></trkpt><trkpt lat="48.8292186" lon="4.7083962"><ele>157.33333333333334</ele><time>2026-05-01T10:42:30.016Z</time></trkpt><trkpt lat="48.8292337" lon="4.7087302"><ele>158.66666666666669</ele><time>2026-05-01T10:42:31.019Z</time></trkpt><trkpt lat="48.8292453" lon="4.7090681"><ele>160.0</ele><time>2026-05-01T10:42:32.019Z</time></trkpt><trkpt lat="48.8292504" lon="4.7094032"><ele>160.66666666666669</ele><time>2026-05-01T10:42:33.027Z</time></trkpt><trkpt lat="48.8292435" lon="4.7097424"><ele>161.33333333333334</ele><time>2026-05-01T10:42:34.02Z</time></trkpt><trkpt lat="48.8292365" lon="4.7100757"><ele>162.0</ele><time>2026-05-01T10:42:35.016Z</time></trkpt><trkpt lat="48.8292281" lon="4.7104047"><ele>163.0</ele><time>2026-05-01T10:42:36.016Z</time></trkpt><trkpt lat="48.8292112" lon="4.7107293"><ele>164.0</ele><time>2026-05-01T10:42:37.02Z</time></trkpt><trkpt lat="48.8291952" lon="4.7110618"><ele>165.0</ele><time>2026-05-01T10:42:38.02Z</time></trkpt><trkpt lat="48.8291838" lon="4.7113947"><ele>165.66666666666666</ele><time>2026-05-01T10:42:39.022Z</time></trkpt><trkpt lat="48.8291703" lon="4.7117236"><ele>166.33333333333331</ele><time>2026-05-01T10:42:40.019Z</time></trkpt><trkpt lat="48.8291554" lon="4.7120494"><ele>167.0</ele><time>2026-05-01T10:42:41.02Z</time></trkpt><trkpt lat="48.829139" lon="4.7123791"><ele>167.66666666666666</ele><time>2026-05-01T10:42:42.023Z</time></trkpt><trkpt lat="48.8291154" lon="4.7127035"><ele>168.33333333333334</ele><time>2026-05-01T10:42:43.02Z</time></trkpt><trkpt lat="48.8290864" lon="4.7130263"><ele>169.0</ele><time>2026-05-01T10:42:44.02Z</time></trkpt><trkpt lat="48.8290472" lon="4.7133377"><ele>171.33333333333334</ele><time>2026-05-01T10:42:45.025Z</time></trkpt><trkpt lat="48.8289942" lon="4.7136477"><ele>173.66666666666666</ele><time>2026-05-01T10:42:46.024Z</time></trkpt><trkpt lat="48.8289329" lon="4.7139642"><ele>176.0</ele><time>2026-05-01T10:42:47.024Z</time></trkpt><trkpt lat="48.828863" lon="4.7142707"><ele>176.66666666666666</ele><time>2026-05-01T10:42:48.025Z</time></trkpt><trkpt lat="48.8287889" lon="4.714582"><ele>177.33333333333334</ele><time>2026-05-01T10:42:49.016Z</time></trkpt><trkpt lat="48.82871" lon="4.714897"><ele>178.0</ele><time>2026-05-01T10:42:50.021Z</time></trkpt><trkpt lat="48.8286247" lon="4.7152053"><ele>179.0</ele><time>2026-05-01T10:42:51.02Z</time></trkpt><trkpt lat="48.8285346" lon="4.7155069"><ele>180.0</ele><time>2026-05-01T10:42:52.027Z</time></trkpt><trkpt lat="48.8284423" lon="4.7158028"><ele>181.0</ele><time>2026-05-01T10:42:53.022Z</time></trkpt><trkpt lat="48.8283551" lon="4.716085"><ele>181.66666666666669</ele><time>2026-05-01T10:42:54.022Z</time></trkpt><trkpt lat="48.8283094" lon="4.7163488"><ele>182.33333333333334</ele><time>2026-05-01T10:42:55.019Z</time></trkpt><trkpt lat="48.8282811" lon="4.7166085"><ele>183.0</ele><time>2026-05-01T10:42:56.022Z</time></trkpt><trkpt lat="48.8282782" lon="4.7168789"><ele>181.66666666666666</ele><time>2026-05-01T10:42:57.024Z</time></trkpt><trkpt lat="48.8282889" lon="4.7171717"><ele>180.33333333333331</ele><time>2026-05-01T10:42:58.017Z</time></trkpt><trkpt lat="48.8283005" lon="4.717463"><ele>179.0</ele><time>2026-05-01T10:42:59.023Z</time></trkpt><trkpt lat="48.8283173" lon="4.7177691"><ele>177.66666666666666</ele><time>2026-05-01T10:43:00.021Z</time></trkpt><trkpt lat="48.8283368" lon="4.7180863"><ele>176.33333333333334</ele><time>2026-05-01T10:43:01.015Z</time></trkpt><trkpt lat="48.8283613" lon="4.7184119"><ele>175.0</ele><time>2026-05-01T10:43:02.015Z</time></trkpt><trkpt lat="48.8283906" lon="4.7187443"><ele>173.66666666666669</ele><time>2026-05-01T10:43:03.023Z</time></trkpt><trkpt lat="48.8284204" lon="4.7190747"><ele>172.33333333333334</ele><time>2026-05-01T10:43:04.021Z</time></trkpt><trkpt lat="48.8284445" lon="4.7194064"><ele>171.0</ele><time>2026-05-01T10:43:05.019Z</time></trkpt><trkpt lat="48.8284659" lon="4.7197485"><ele>169.0</ele><time>2026-05-01T10:43:06.019Z</time></trkpt><trkpt lat="48.828494" lon="4.7200876"><ele>167.0</ele><time>2026-05-01T10:43:07.02Z</time></trkpt><trkpt lat="48.8285204" lon="4.7204264"><ele>164.5</ele><time>2026-05-01T10:43:08.03Z</time></trkpt><trkpt lat="48.8285535" lon="4.7207687"><ele>162.0</ele><time>2026-05-01T10:43:09.017Z</time></trkpt><trkpt lat="48.8285937" lon="4.7211074"><ele>160.5</ele><time>2026-05-01T10:43:10.02Z</time></trkpt><trkpt lat="48.8286357" lon="4.7214416"><ele>159.0</ele><time>2026-05-01T10:43:11.023Z</time></trkpt><trkpt lat="48.8286848" lon="4.7217791"><ele>158.0</ele><time>2026-05-01T10:43:12.023Z</time></trkpt><trkpt lat="48.8287361" lon="4.7221115"><ele>157.0</ele><time>2026-05-01T10:43:13.016Z</time></trkpt><trkpt lat="48.828784" lon="4.7224462"><ele>156.5</ele><time>2026-05-01T10:43:14.029Z</time></trkpt><trkpt lat="48.8288298" lon="4.7227828"><ele>156.0</ele><time>2026-05-01T10:43:15.018Z</time></trkpt><trkpt lat="48.8288781" lon="4.723119"><ele>156.0</ele><time>2026-05-01T10:43:16.017Z</time></trkpt><trkpt lat="48.828925" lon="4.7234543"><ele>156.0</ele><time>2026-05-01T10:43:17.014Z</time></trkpt><trkpt lat="48.8289694" lon="4.7237881"><ele>156.0</ele><time>2026-05-01T10:43:18.022Z</time></trkpt><trkpt lat="48.8290171" lon="4.7241198"><ele>156.0</ele><time>2026-05-01T10:43:19.014Z</time></trkpt><trkpt lat="48.8290627" lon="4.7244541"><ele>156.0</ele><time>2026-05-01T10:43:20.016Z</time></trkpt><trkpt lat="48.8291105" lon="4.7247844"><ele>155.0</ele><time>2026-05-01T10:43:21.011Z</time></trkpt><trkpt lat="48.8291619" lon="4.725114"><ele>154.0</ele><time>2026-05-01T10:43:22.021Z</time></trkpt><trkpt lat="48.8292086" lon="4.7254462"><ele>153.0</ele><time>2026-05-01T10:43:23.02Z</time></trkpt><trkpt lat="48.8292589" lon="4.7257757"><ele>152.0</ele><time>2026-05-01T10:43:24.023Z</time></trkpt><trkpt lat="48.8293087" lon="4.7261006"><ele>151.0</ele><time>2026-05-01T10:43:25.019Z</time></trkpt><trkpt lat="48.8293579" lon="4.7264286"><ele>150.0</ele><time>2026-05-01T10:43:26.015Z</time></trkpt><trkpt lat="48.8294109" lon="4.7267506"><ele>149.33333333333334</ele><time>2026-05-01T10:43:27.02Z</time></trkpt><trkpt lat="48.8294625" lon="4.7270592"><ele>148.66666666666669</ele><time>2026-05-01T10:43:28.017Z</time></trkpt><trkpt lat="48.8295085" lon="4.7273672"><ele>148.0</ele><time>2026-05-01T10:43:29.023Z</time></trkpt><trkpt lat="48.8295539" lon="4.7276659"><ele>147.66666666666669</ele><time>2026-05-01T10:43:30.021Z</time></trkpt><trkpt lat="48.8296038" lon="4.7279572"><ele>147.33333333333334</ele><time>2026-05-01T10:43:31.012Z</time></trkpt><trkpt lat="48.8296487" lon="4.7282408"><ele>147.0</ele><time>2026-05-01T10:43:32.019Z</time></trkpt><trkpt lat="48.8296799" lon="4.7285247"><ele>146.66666666666666</ele><time>2026-05-01T10:43:33.016Z</time></trkpt><trkpt lat="48.8296964" lon="4.7288069"><ele>146.33333333333331</ele><time>2026-05-01T10:43:34.022Z</time></trkpt><trkpt lat="48.8296799" lon="4.7290857"><ele>146.0</ele><time>2026-05-01T10:43:35.021Z</time></trkpt><trkpt lat="48.8296349" lon="4.729361"><ele>145.66666666666666</ele><time>2026-05-01T10:43:36.053Z</time></trkpt><trkpt lat="48.8295664" lon="4.729625"><ele>145.33333333333334</ele><time>2026-05-01T10:43:37.012Z</time></trkpt><trkpt lat="48.8294584" lon="4.7298677"><ele>145.0</ele><time>2026-05-01T10:43:38.02Z</time></trkpt><trkpt lat="48.829345" lon="4.7301238"><ele>145.66666666666669</ele><time>2026-05-01T10:43:39.022Z</time></trkpt><trkpt lat="48.8292306" lon="4.7303801"><ele>146.33333333333334</ele><time>2026-05-01T10:43:40.02Z</time></trkpt><trkpt lat="48.8291153" lon="4.7306356"><ele>147.0</ele><time>2026-05-01T10:43:41.019Z</time></trkpt><trkpt lat="48.8290122" lon="4.7308979"><ele>147.33333333333334</ele><time>2026-05-01T10:43:42.018Z</time></trkpt><trkpt lat="48.8289294" lon="4.7311451"><ele>147.66666666666669</ele><time>2026-05-01T10:43:43.022Z</time></trkpt><trkpt lat="48.8288582" lon="4.731381"><ele>148.0</ele><time>2026-05-01T10:43:44.027Z</time></trkpt><trkpt lat="48.8288004" lon="4.731621"><ele>148.0</ele><time>2026-05-01T10:43:45.019Z</time></trkpt><trkpt lat="48.8287521" lon="4.7318675"><ele>148.0</ele><time>2026-05-01T10:43:46.017Z</time></trkpt><trkpt lat="48.8287049" lon="4.7321386"><ele>148.0</ele><time>2026-05-01T10:43:47.015Z</time></trkpt><trkpt lat="48.8286672" lon="4.7324203"><ele>148.33333333333334</ele><time>2026-05-01T10:43:48.02Z</time></trkpt><trkpt lat="48.8286195" lon="4.7327154"><ele>148.66666666666666</ele><time>2026-05-01T10:43:49.021Z</time></trkpt><trkpt lat="48.8285763" lon="4.7330145"><ele>149.0</ele><time>2026-05-01T10:43:50.017Z</time></trkpt><trkpt lat="48.8285229" lon="4.7333082"><ele>147.33333333333331</ele><time>2026-05-01T10:43:51.01Z</time></trkpt><trkpt lat="48.8284653" lon="4.7336016"><ele>145.66666666666666</ele><time>2026-05-01T10:43:52.016Z</time></trkpt><trkpt lat="48.8283966" lon="4.7338852"><ele>144.0</ele><time>2026-05-01T10:43:53.015Z</time></trkpt><trkpt lat="48.8283229" lon="4.7341721"><ele>144.0</ele><time>2026-05-01T10:43:54.019Z</time></trkpt><trkpt lat="48.8282422" lon="4.7344577"><ele>144.0</ele><time>2026-05-01T10:43:55.023Z</time></trkpt><trkpt lat="48.8281588" lon="4.7347339"><ele>144.0</ele><time>2026-05-01T10:43:56.018Z</time></trkpt><trkpt lat="48.8280693" lon="4.7350198"><ele>145.0</ele><time>2026-05-01T10:43:57.019Z</time></trkpt><trkpt lat="48.8279776" lon="4.7353073"><ele>146.0</ele><time>2026-05-01T10:43:58.017Z</time></trkpt><trkpt lat="48.8278838" lon="4.7355871"><ele>147.0</ele><time>2026-05-01T10:43:59.05Z</time></trkpt><trkpt lat="48.8277841" lon="4.7358666"><ele>147.33333333333334</ele><time>2026-05-01T10:44:00.029Z</time></trkpt><trkpt lat="48.8276758" lon="4.736131"><ele>147.66666666666669</ele><time>2026-05-01T10:44:01.018Z</time></trkpt><trkpt lat="48.827562" lon="4.7363996"><ele>148.0</ele><time>2026-05-01T10:44:02.013Z</time></trkpt><trkpt lat="48.8274411" lon="4.7366635"><ele>145.0</ele><time>2026-05-01T10:44:03.012Z</time></trkpt><trkpt lat="48.8273253" lon="4.7369279"><ele>142.0</ele><time>2026-05-01T10:44:04.025Z</time></trkpt><trkpt lat="48.8272128" lon="4.7371828"><ele>139.0</ele><time>2026-05-01T10:44:05.022Z</time></trkpt><trkpt lat="48.8270986" lon="4.7374311"><ele>139.0</ele><time>2026-05-01T10:44:06.019Z</time></trkpt><trkpt lat="48.826993" lon="4.7376674"><ele>139.0</ele><time>2026-05-01T10:44:07.016Z</time></trkpt><trkpt lat="48.8268864" lon="4.7378879"><ele>139.0</ele><time>2026-05-01T10:44:08.02Z</time></trkpt><trkpt lat="48.8267842" lon="4.7380989"><ele>137.33333333333334</ele><time>2026-05-01T10:44:09.018Z</time></trkpt><trkpt lat="48.8266928" lon="4.7383075"><ele>135.66666666666666</ele><time>2026-05-01T10:44:10.019Z</time></trkpt><trkpt lat="48.826605" lon="4.7384979"><ele>134.0</ele><time>2026-05-01T10:44:11.023Z</time></trkpt><trkpt lat="48.8265218" lon="4.7386826"><ele>133.8</ele><time>2026-05-01T10:44:12.021Z</time></trkpt><trkpt lat="48.8264445" lon="4.7388531"><ele>133.60000000000002</ele><time>2026-05-01T10:44:13.021Z</time></trkpt><trkpt lat="48.8263774" lon="4.7389975"><ele>133.4</ele><time>2026-05-01T10:44:14.017Z</time></trkpt><trkpt lat="48.8263196" lon="4.7391224"><ele>133.20000000000002</ele><time>2026-05-01T10:44:15.02Z</time></trkpt><trkpt lat="48.826265" lon="4.7392379"><ele>133.0</ele><time>2026-05-01T10:44:16.021Z</time></trkpt><trkpt lat="48.8262195" lon="4.739341"><ele>133.0</ele><time>2026-05-01T10:44:17.02Z</time></trkpt><trkpt lat="48.8261593" lon="4.7394707"><ele>133.0</ele><time>2026-05-01T10:44:19.015Z</time></trkpt><trkpt lat="48.8260899" lon="4.739599"><ele>133.0</ele><time>2026-05-01T10:44:21.02Z</time></trkpt><trkpt lat="48.8260307" lon="4.7396902"><ele>133.0</ele><time>2026-05-01T10:44:22.021Z</time></trkpt><trkpt lat="48.8259577" lon="4.7398078"><ele>133.0</ele><time>2026-05-01T10:44:23.021Z</time></trkpt><trkpt lat="48.8258664" lon="4.7399434"><ele>132.33333333333334</ele><time>2026-05-01T10:44:24.025Z</time></trkpt><trkpt lat="48.825762" lon="4.7401115"><ele>131.66666666666666</ele><time>2026-05-01T10:44:25.016Z</time></trkpt><trkpt lat="48.8256363" lon="4.740306"><ele>131.0</ele><time>2026-05-01T10:44:26.018Z</time></trkpt><trkpt lat="48.8254991" lon="4.7405197"><ele>130.66666666666666</ele><time>2026-05-01T10:44:27.018Z</time></trkpt><trkpt lat="48.8253566" lon="4.7407485"><ele>130.33333333333334</ele><time>2026-05-01T10:44:28.016Z</time></trkpt><trkpt lat="48.8252132" lon="4.7409909"><ele>130.0</ele><time>2026-05-01T10:44:29.015Z</time></trkpt><trkpt lat="48.8250656" lon="4.7412586"><ele>130.0</ele><time>2026-05-01T10:44:30.013Z</time></trkpt><trkpt lat="48.8249236" lon="4.7415317"><ele>130.0</ele><time>2026-05-01T10:44:31.019Z</time></trkpt><trkpt lat="48.8247835" lon="4.7418041"><ele>129.5</ele><time>2026-05-01T10:44:32.024Z</time></trkpt><trkpt lat="48.8246381" lon="4.7420697"><ele>129.0</ele><time>2026-05-01T10:44:33.009Z</time></trkpt><trkpt lat="48.8244906" lon="4.7423351"><ele>129.0</ele><time>2026-05-01T10:44:34.021Z</time></trkpt><trkpt lat="48.8243439" lon="4.7425922"><ele>129.0</ele><time>2026-05-01T10:44:35.019Z</time></trkpt><trkpt lat="48.8241934" lon="4.7428424"><ele>129.0</ele><time>2026-05-01T10:44:36.018Z</time></trkpt><trkpt lat="48.8240414" lon="4.7430872"><ele>128.66666666666666</ele><time>2026-05-01T10:44:37.015Z</time></trkpt><trkpt lat="48.8238954" lon="4.7433303"><ele>128.33333333333331</ele><time>2026-05-01T10:44:38.016Z</time></trkpt><trkpt lat="48.8237486" lon="4.7435693"><ele>128.0</ele><time>2026-05-01T10:44:39.015Z</time></trkpt><trkpt lat="48.8236038" lon="4.7438163"><ele>128.66666666666666</ele><time>2026-05-01T10:44:40.012Z</time></trkpt><trkpt lat="48.8234694" lon="4.7440732"><ele>129.33333333333334</ele><time>2026-05-01T10:44:41.018Z</time></trkpt><trkpt lat="48.8233622" lon="4.7443338"><ele>130.0</ele><time>2026-05-01T10:44:42.019Z</time></trkpt><trkpt lat="48.8232628" lon="4.7446223"><ele>130.0</ele><time>2026-05-01T10:44:43.019Z</time></trkpt><trkpt lat="48.8231679" lon="4.7449013"><ele>130.0</ele><time>2026-05-01T10:44:44.02Z</time></trkpt><trkpt lat="48.8230765" lon="4.7451931"><ele>130.0</ele><time>2026-05-01T10:44:45.02Z</time></trkpt><trkpt lat="48.8229854" lon="4.7454915"><ele>129.0</ele><time>2026-05-01T10:44:46.018Z</time></trkpt><trkpt lat="48.8228938" lon="4.7457853"><ele>128.0</ele><time>2026-05-01T10:44:47.012Z</time></trkpt><trkpt lat="48.8228021" lon="4.7460853"><ele>127.0</ele><time>2026-05-01T10:44:48.014Z</time></trkpt><trkpt lat="48.8227086" lon="4.74638"><ele>127.0</ele><time>2026-05-01T10:44:49.021Z</time></trkpt><trkpt lat="48.8226205" lon="4.7466626"><ele>127.0</ele><time>2026-05-01T10:44:50.033Z</time></trkpt><trkpt lat="48.8225347" lon="4.7469252"><ele>127.0</ele><time>2026-05-01T10:44:51.016Z</time></trkpt><trkpt lat="48.822455" lon="4.7471619"><ele>127.0</ele><time>2026-05-01T10:44:52.02Z</time></trkpt><trkpt lat="48.8223897" lon="4.7473727"><ele>127.0</ele><time>2026-05-01T10:44:53.02Z</time></trkpt><trkpt lat="48.8223285" lon="4.7475759"><ele>127.0</ele><time>2026-05-01T10:44:54.015Z</time></trkpt><trkpt lat="48.8222771" lon="4.7477825"><ele>127.0</ele><time>2026-05-01T10:44:55.021Z</time></trkpt><trkpt lat="48.8222393" lon="4.7479936"><ele>126.33333333333334</ele><time>2026-05-01T10:44:56.02Z</time></trkpt><trkpt lat="48.8222084" lon="4.7482233"><ele>125.66666666666666</ele><time>2026-05-01T10:44:57.016Z</time></trkpt><trkpt lat="48.8221915" lon="4.7484647"><ele>125.0</ele><time>2026-05-01T10:44:58.023Z</time></trkpt><trkpt lat="48.8221967" lon="4.7487157"><ele>124.66666666666666</ele><time>2026-05-01T10:44:59.022Z</time></trkpt><trkpt lat="48.8222383" lon="4.7489648"><ele>124.33333333333334</ele><time>2026-05-01T10:45:00.021Z</time></trkpt><trkpt lat="48.8222898" lon="4.7492236"><ele>124.0</ele><time>2026-05-01T10:45:01.016Z</time></trkpt><trkpt lat="48.822353" lon="4.7494802"><ele>124.0</ele><time>2026-05-01T10:45:02.055Z</time></trkpt><trkpt lat="48.8224245" lon="4.7497483"><ele>124.0</ele><time>2026-05-01T10:45:03.02Z</time></trkpt><trkpt lat="48.8225012" lon="4.750028"><ele>124.0</ele><time>2026-05-01T10:45:04.02Z</time></trkpt><trkpt lat="48.8225761" lon="4.7503089"><ele>124.0</ele><time>2026-05-01T10:45:05.02Z</time></trkpt><trkpt lat="48.8226424" lon="4.7505839"><ele>124.0</ele><time>2026-05-01T10:45:06.014Z</time></trkpt><trkpt lat="48.8226834" lon="4.7508628"><ele>124.0</ele><time>2026-05-01T10:45:07.025Z</time></trkpt><trkpt lat="48.8226785" lon="4.751137"><ele>124.0</ele><time>2026-05-01T10:45:08.017Z</time></trkpt><trkpt lat="48.8226425" lon="4.7514199"><ele>124.0</ele><time>2026-05-01T10:45:09.016Z</time></trkpt><trkpt lat="48.822584" lon="4.7517063"><ele>124.0</ele><time>2026-05-01T10:45:10.017Z</time></trkpt><trkpt lat="48.8225197" lon="4.7519984"><ele>124.0</ele><time>2026-05-01T10:45:11.022Z</time></trkpt><trkpt lat="48.8224638" lon="4.7522897"><ele>124.0</ele><time>2026-05-01T10:45:12.017Z</time></trkpt><trkpt lat="48.8224083" lon="4.7525881"><ele>124.0</ele><time>2026-05-01T10:45:13.03Z</time></trkpt><trkpt lat="48.8223522" lon="4.7528873"><ele>124.0</ele><time>2026-05-01T10:45:14.015Z</time></trkpt><trkpt lat="48.8222966" lon="4.753195"><ele>124.0</ele><time>2026-05-01T10:45:15.017Z</time></trkpt><trkpt lat="48.8222501" lon="4.753506"><ele>124.0</ele><time>2026-05-01T10:45:16.019Z</time></trkpt><trkpt lat="48.8222156" lon="4.7538218"><ele>124.0</ele><time>2026-05-01T10:45:17.017Z</time></trkpt><trkpt lat="48.8221994" lon="4.7541404"><ele>124.0</ele><time>2026-05-01T10:45:18.018Z</time></trkpt><trkpt lat="48.8221878" lon="4.7544652"><ele>124.0</ele><time>2026-05-01T10:45:19.013Z</time></trkpt><trkpt lat="48.8221795" lon="4.7547859"><ele>124.0</ele><time>2026-05-01T10:45:20.023Z</time></trkpt><trkpt lat="48.8221779" lon="4.7551092"><ele>124.0</ele><time>2026-05-01T10:45:21.016Z</time></trkpt><trkpt lat="48.8221857" lon="4.7554309"><ele>124.0</ele><time>2026-05-01T10:45:22.015Z</time></trkpt><trkpt lat="48.8221968" lon="4.7557609"><ele>123.0</ele><time>2026-05-01T10:45:23.022Z</time></trkpt><trkpt lat="48.8222127" lon="4.756093"><ele>122.0</ele><time>2026-05-01T10:45:24.017Z</time></trkpt><trkpt lat="48.8222267" lon="4.7564242"><ele>121.0</ele><time>2026-05-01T10:45:25.016Z</time></trkpt><trkpt lat="48.8222435" lon="4.7567508"><ele>121.0</ele><time>2026-05-01T10:45:26.018Z</time></trkpt><trkpt lat="48.8222592" lon="4.757081"><ele>121.0</ele><time>2026-05-01T10:45:27.018Z</time></trkpt><trkpt lat="48.8222739" lon="4.7574035"><ele>121.0</ele><time>2026-05-01T10:45:28.019Z</time></trkpt><trkpt lat="48.8222882" lon="4.7577347"><ele>121.0</ele><time>2026-05-01T10:45:29.022Z</time></trkpt><trkpt lat="48.8223066" lon="4.7580627"><ele>121.0</ele><time>2026-05-01T10:45:30.019Z</time></trkpt><trkpt lat="48.8223234" lon="4.7583875"><ele>121.0</ele><time>2026-05-01T10:45:31.015Z</time></trkpt><trkpt lat="48.8223382" lon="4.7587125"><ele>121.0</ele><time>2026-05-01T10:45:32.019Z</time></trkpt><trkpt lat="48.8223534" lon="4.7590433"><ele>121.0</ele><time>2026-05-01T10:45:33.019Z</time></trkpt><trkpt lat="48.8223693" lon="4.7593786"><ele>121.0</ele><time>2026-05-01T10:45:34.036Z</time></trkpt><trkpt lat="48.8223805" lon="4.759706"><ele>121.0</ele><time>2026-05-01T10:45:35.024Z</time></trkpt><trkpt lat="48.8223951" lon="4.7600354"><ele>121.0</ele><time>2026-05-01T10:45:36.022Z</time></trkpt><trkpt lat="48.8224101" lon="4.7603617"><ele>121.0</ele><time>2026-05-01T10:45:37.03Z</time></trkpt><trkpt lat="48.8224234" lon="4.7606761"><ele>121.66666666666667</ele><time>2026-05-01T10:45:38.017Z</time></trkpt><trkpt lat="48.8224342" lon="4.7609758"><ele>122.33333333333334</ele><time>2026-05-01T10:45:39.019Z</time></trkpt><trkpt lat="48.8224409" lon="4.7612761"><ele>123.0</ele><time>2026-05-01T10:45:40.013Z</time></trkpt><trkpt lat="48.8224395" lon="4.7615728"><ele>123.33333333333334</ele><time>2026-05-01T10:45:41.023Z</time></trkpt><trkpt lat="48.8224274" lon="4.7618812"><ele>123.66666666666667</ele><time>2026-05-01T10:45:42.018Z</time></trkpt><trkpt lat="48.8223994" lon="4.7621885"><ele>124.0</ele><time>2026-05-01T10:45:43.013Z</time></trkpt><trkpt lat="48.8223675" lon="4.7624942"><ele>124.33333333333334</ele><time>2026-05-01T10:45:44.015Z</time></trkpt><trkpt lat="48.8223394" lon="4.7627866"><ele>124.66666666666666</ele><time>2026-05-01T10:45:45.013Z</time></trkpt><trkpt lat="48.8223118" lon="4.7630708"><ele>125.0</ele><time>2026-05-01T10:45:46.019Z</time></trkpt><trkpt lat="48.8222855" lon="4.7633346"><ele>125.0</ele><time>2026-05-01T10:45:47.014Z</time></trkpt><trkpt lat="48.8222499" lon="4.7635835"><ele>125.0</ele><time>2026-05-01T10:45:48.014Z</time></trkpt><trkpt lat="48.822196" lon="4.7638071"><ele>125.0</ele><time>2026-05-01T10:45:49.023Z</time></trkpt><trkpt lat="48.8220996" lon="4.7640106"><ele>125.0</ele><time>2026-05-01T10:45:50.011Z</time></trkpt><trkpt lat="48.8219842" lon="4.7641998"><ele>125.0</ele><time>2026-05-01T10:45:51.017Z</time></trkpt><trkpt lat="48.821858" lon="4.7643715"><ele>125.0</ele><time>2026-05-01T10:45:52.016Z</time></trkpt><trkpt lat="48.8217105" lon="4.7645604"><ele>124.0</ele><time>2026-05-01T10:45:53.016Z</time></trkpt><trkpt lat="48.8215601" lon="4.7647487"><ele>123.0</ele><time>2026-05-01T10:45:54.029Z</time></trkpt><trkpt lat="48.8214071" lon="4.7649439"><ele>122.0</ele><time>2026-05-01T10:45:55.017Z</time></trkpt><trkpt lat="48.8212532" lon="4.7651459"><ele>121.66666666666666</ele><time>2026-05-01T10:45:56.067Z</time></trkpt><trkpt lat="48.8210957" lon="4.765357"><ele>121.33333333333334</ele><time>2026-05-01T10:45:57.018Z</time></trkpt><trkpt lat="48.8209305" lon="4.7655668"><ele>121.0</ele><time>2026-05-01T10:45:58.016Z</time></trkpt><trkpt lat="48.8207632" lon="4.7657697"><ele>120.66666666666667</ele><time>2026-05-01T10:45:59.021Z</time></trkpt><trkpt lat="48.8205953" lon="4.7659832"><ele>120.33333333333334</ele><time>2026-05-01T10:46:00.028Z</time></trkpt><trkpt lat="48.8204316" lon="4.7661919"><ele>120.0</ele><time>2026-05-01T10:46:01.019Z</time></trkpt><trkpt lat="48.8202659" lon="4.7664019"><ele>120.33333333333334</ele><time>2026-05-01T10:46:02.024Z</time></trkpt><trkpt lat="48.8200984" lon="4.7666069"><ele>120.66666666666667</ele><time>2026-05-01T10:46:03.02Z</time></trkpt><trkpt lat="48.8199351" lon="4.7667971"><ele>121.0</ele><time>2026-05-01T10:46:04.014Z</time></trkpt><trkpt lat="48.8197725" lon="4.766997"><ele>121.0</ele><time>2026-05-01T10:46:05.035Z</time></trkpt><trkpt lat="48.8196122" lon="4.7671918"><ele>121.0</ele><time>2026-05-01T10:46:06.014Z</time></trkpt><trkpt lat="48.8194527" lon="4.7673902"><ele>121.0</ele><time>2026-05-01T10:46:07.019Z</time></trkpt><trkpt lat="48.8192923" lon="4.7675927"><ele>120.33333333333334</ele><time>2026-05-01T10:46:08.023Z</time></trkpt><trkpt lat="48.819129" lon="4.767795"><ele>119.66666666666666</ele><time>2026-05-01T10:46:09.016Z</time></trkpt><trkpt lat="48.8189657" lon="4.7679964"><ele>119.0</ele><time>2026-05-01T10:46:10.018Z</time></trkpt><trkpt lat="48.8188002" lon="4.7681972"><ele>119.0</ele><time>2026-05-01T10:46:11.016Z</time></trkpt><trkpt lat="48.8186383" lon="4.768404"><ele>119.0</ele><time>2026-05-01T10:46:12.013Z</time></trkpt><trkpt lat="48.8184751" lon="4.7686065"><ele>119.0</ele><time>2026-05-01T10:46:13.013Z</time></trkpt><trkpt lat="48.8183101" lon="4.7688054"><ele>119.0</ele><time>2026-05-01T10:46:14.017Z</time></trkpt><trkpt lat="48.8181478" lon="4.769002"><ele>119.0</ele><time>2026-05-01T10:46:15.019Z</time></trkpt><trkpt lat="48.8179812" lon="4.7692082"><ele>119.0</ele><time>2026-05-01T10:46:16.016Z</time></trkpt><trkpt lat="48.8178238" lon="4.7694172"><ele>118.66666666666666</ele><time>2026-05-01T10:46:17.022Z</time></trkpt><trkpt lat="48.817678" lon="4.7696342"><ele>118.33333333333334</ele><time>2026-05-01T10:46:18.018Z</time></trkpt><trkpt lat="48.8175429" lon="4.7698663"><ele>118.0</ele><time>2026-05-01T10:46:19.018Z</time></trkpt><trkpt lat="48.8174148" lon="4.7701178"><ele>116.33333333333334</ele><time>2026-05-01T10:46:20.014Z</time></trkpt><trkpt lat="48.817281" lon="4.7703724"><ele>114.66666666666666</ele><time>2026-05-01T10:46:21.016Z</time></trkpt><trkpt lat="48.8171546" lon="4.7706403"><ele>113.0</ele><time>2026-05-01T10:46:22.014Z</time></trkpt><trkpt lat="48.8170337" lon="4.7709023"><ele>113.0</ele><time>2026-05-01T10:46:23.018Z</time></trkpt><trkpt lat="48.8169078" lon="4.7711644"><ele>113.0</ele><time>2026-05-01T10:46:24.023Z</time></trkpt><trkpt lat="48.8167851" lon="4.7714235"><ele>113.0</ele><time>2026-05-01T10:46:25.036Z</time></trkpt><trkpt lat="48.8166645" lon="4.7716766"><ele>113.0</ele><time>2026-05-01T10:46:26.017Z</time></trkpt><trkpt lat="48.8165401" lon="4.7719336"><ele>113.0</ele><time>2026-05-01T10:46:27.019Z</time></trkpt><trkpt lat="48.816416" lon="4.7721895"><ele>113.0</ele><time>2026-05-01T10:46:28.017Z</time></trkpt><trkpt lat="48.8162902" lon="4.7724507"><ele>113.0</ele><time>2026-05-01T10:46:29.014Z</time></trkpt><trkpt lat="48.816163" lon="4.7727093"><ele>113.0</ele><time>2026-05-01T10:46:30.022Z</time></trkpt><trkpt lat="48.8160335" lon="4.7729705"><ele>113.0</ele><time>2026-05-01T10:46:31.017Z</time></trkpt><trkpt lat="48.8159035" lon="4.7732311"><ele>112.33333333333333</ele><time>2026-05-01T10:46:32.02Z</time></trkpt><trkpt lat="48.8157806" lon="4.7734877"><ele>111.66666666666666</ele><time>2026-05-01T10:46:33.019Z</time></trkpt><trkpt lat="48.8156626" lon="4.7737268"><ele>111.0</ele><time>2026-05-01T10:46:34.023Z</time></trkpt><trkpt lat="48.8155458" lon="4.7739602"><ele>110.66666666666666</ele><time>2026-05-01T10:46:35.015Z</time></trkpt><trkpt lat="48.8154415" lon="4.7742011"><ele>110.33333333333333</ele><time>2026-05-01T10:46:36.02Z</time></trkpt><trkpt lat="48.8153427" lon="4.7744579"><ele>110.0</ele><time>2026-05-01T10:46:37.021Z</time></trkpt><trkpt lat="48.8152719" lon="4.7747211"><ele>110.33333333333333</ele><time>2026-05-01T10:46:38.012Z</time></trkpt><trkpt lat="48.8152231" lon="4.7749984"><ele>110.66666666666666</ele><time>2026-05-01T10:46:39.024Z</time></trkpt><trkpt lat="48.8151958" lon="4.7752844"><ele>111.0</ele><time>2026-05-01T10:46:40.022Z</time></trkpt><trkpt lat="48.8151742" lon="4.7755781"><ele>111.0</ele><time>2026-05-01T10:46:41.02Z</time></trkpt><trkpt lat="48.8151477" lon="4.7758866"><ele>111.0</ele><time>2026-05-01T10:46:42.012Z</time></trkpt><trkpt lat="48.8151194" lon="4.7761976"><ele>111.0</ele><time>2026-05-01T10:46:43.014Z</time></trkpt><trkpt lat="48.8150916" lon="4.776506"><ele>111.0</ele><time>2026-05-01T10:46:44.014Z</time></trkpt><trkpt lat="48.8150605" lon="4.7768209"><ele>111.0</ele><time>2026-05-01T10:46:45.016Z</time></trkpt><trkpt lat="48.8150304" lon="4.7771337"><ele>111.0</ele><time>2026-05-01T10:46:46.026Z</time></trkpt><trkpt lat="48.8150042" lon="4.7774476"><ele>110.66666666666666</ele><time>2026-05-01T10:46:47.016Z</time></trkpt><trkpt lat="48.8149783" lon="4.777763"><ele>110.33333333333333</ele><time>2026-05-01T10:46:48.016Z</time></trkpt><trkpt lat="48.8149498" lon="4.7780838"><ele>110.0</ele><time>2026-05-01T10:46:49.023Z</time></trkpt><trkpt lat="48.814921" lon="4.7784067"><ele>110.66666666666666</ele><time>2026-05-01T10:46:50.014Z</time></trkpt><trkpt lat="48.8148912" lon="4.7787302"><ele>111.33333333333334</ele><time>2026-05-01T10:46:51.016Z</time></trkpt><trkpt lat="48.8148581" lon="4.7790537"><ele>112.0</ele><time>2026-05-01T10:46:52.014Z</time></trkpt><trkpt lat="48.814826" lon="4.7793797"><ele>112.0</ele><time>2026-05-01T10:46:53.014Z</time></trkpt><trkpt lat="48.8147941" lon="4.7797076"><ele>112.0</ele><time>2026-05-01T10:46:54.014Z</time></trkpt><trkpt lat="48.8147664" lon="4.7800368"><ele>112.0</ele><time>2026-05-01T10:46:55.02Z</time></trkpt><trkpt lat="48.8147379" lon="4.7803643"><ele>112.0</ele><time>2026-05-01T10:46:56.011Z</time></trkpt><trkpt lat="48.814706" lon="4.7806953"><ele>112.0</ele><time>2026-05-01T10:46:57.015Z</time></trkpt><trkpt lat="48.81468" lon="4.7810194"><ele>112.0</ele><time>2026-05-01T10:46:58.022Z</time></trkpt><trkpt lat="48.8146473" lon="4.7813474"><ele>112.0</ele><time>2026-05-01T10:46:59.017Z</time></trkpt><trkpt lat="48.8146191" lon="4.7816755"><ele>112.0</ele><time>2026-05-01T10:47:00.02Z</time></trkpt><trkpt lat="48.8145931" lon="4.7820051"><ele>112.0</ele><time>2026-05-01T10:47:01.023Z</time></trkpt><trkpt lat="48.8145708" lon="4.7823258"><ele>112.0</ele><time>2026-05-01T10:47:02.016Z</time></trkpt><trkpt lat="48.8145465" lon="4.7826479"><ele>112.0</ele><time>2026-05-01T10:47:03.011Z</time></trkpt><trkpt lat="48.8145294" lon="4.7829735"><ele>112.0</ele><time>2026-05-01T10:47:04.017Z</time></trkpt><trkpt lat="48.8145139" lon="4.7832972"><ele>112.33333333333334</ele><time>2026-05-01T10:47:05.015Z</time></trkpt><trkpt lat="48.8144972" lon="4.783622"><ele>112.66666666666666</ele><time>2026-05-01T10:47:06.018Z</time></trkpt><trkpt lat="48.8144809" lon="4.7839484"><ele>113.0</ele><time>2026-05-01T10:47:07.016Z</time></trkpt><trkpt lat="48.8144838" lon="4.7842733"><ele>112.66666666666666</ele><time>2026-05-01T10:47:08.018Z</time></trkpt><trkpt lat="48.8145072" lon="4.7845972"><ele>112.33333333333334</ele><time>2026-05-01T10:47:09.015Z</time></trkpt><trkpt lat="48.8145567" lon="4.7849196"><ele>112.0</ele><time>2026-05-01T10:47:10.021Z</time></trkpt><trkpt lat="48.8146063" lon="4.7852381"><ele>112.0</ele><time>2026-05-01T10:47:11.022Z</time></trkpt><trkpt lat="48.8146597" lon="4.7855583"><ele>112.0</ele><time>2026-05-01T10:47:12.015Z</time></trkpt><trkpt lat="48.8147055" lon="4.7858759"><ele>112.0</ele><time>2026-05-01T10:47:13.016Z</time></trkpt><trkpt lat="48.814756" lon="4.7861903"><ele>112.33333333333334</ele><time>2026-05-01T10:47:14.018Z</time></trkpt><trkpt lat="48.8148117" lon="4.7865002"><ele>112.66666666666666</ele><time>2026-05-01T10:47:15.013Z</time></trkpt><trkpt lat="48.8148822" lon="4.7868032"><ele>113.0</ele><time>2026-05-01T10:47:16.014Z</time></trkpt><trkpt lat="48.8149705" lon="4.7870963"><ele>113.0</ele><time>2026-05-01T10:47:17.016Z</time></trkpt><trkpt lat="48.8150708" lon="4.7873766"><ele>113.0</ele><time>2026-05-01T10:47:18.017Z</time></trkpt><trkpt lat="48.8151791" lon="4.7876522"><ele>113.0</ele><time>2026-05-01T10:47:19.011Z</time></trkpt><trkpt lat="48.8152878" lon="4.7879331"><ele>113.0</ele><time>2026-05-01T10:47:20.014Z</time></trkpt><trkpt lat="48.815392" lon="4.7882095"><ele>113.0</ele><time>2026-05-01T10:47:21.014Z</time></trkpt><trkpt lat="48.8154957" lon="4.788489"><ele>113.0</ele><time>2026-05-01T10:47:22.023Z</time></trkpt><trkpt lat="48.8155993" lon="4.788768"><ele>113.33333333333333</ele><time>2026-05-01T10:47:23.017Z</time></trkpt><trkpt lat="48.8156953" lon="4.7890513"><ele>113.66666666666666</ele><time>2026-05-01T10:47:24.014Z</time></trkpt><trkpt lat="48.8157835" lon="4.789343"><ele>114.0</ele><time>2026-05-01T10:47:25.018Z</time></trkpt><trkpt lat="48.815846" lon="4.7896287"><ele>114.0</ele><time>2026-05-01T10:47:26.015Z</time></trkpt><trkpt lat="48.8158661" lon="4.7899387"><ele>114.0</ele><time>2026-05-01T10:47:27.024Z</time></trkpt><trkpt lat="48.8158483" lon="4.7902432"><ele>114.0</ele><time>2026-05-01T10:47:28.022Z</time></trkpt><trkpt lat="48.8157961" lon="4.7905509"><ele>114.0</ele><time>2026-05-01T10:47:29.031Z</time></trkpt><trkpt lat="48.815749" lon="4.7908523"><ele>114.0</ele><time>2026-05-01T10:47:30.018Z</time></trkpt><trkpt lat="48.8156994" lon="4.7911566"><ele>114.0</ele><time>2026-05-01T10:47:31.018Z</time></trkpt><trkpt lat="48.8156523" lon="4.7914697"><ele>113.66666666666666</ele><time>2026-05-01T10:47:32.015Z</time></trkpt><trkpt lat="48.815603" lon="4.7917845"><ele>113.33333333333333</ele><time>2026-05-01T10:47:33.016Z</time></trkpt><trkpt lat="48.815554" lon="4.7920951"><ele>113.0</ele><time>2026-05-01T10:47:34.015Z</time></trkpt><trkpt lat="48.8155039" lon="4.7924056"><ele>113.0</ele><time>2026-05-01T10:47:35.014Z</time></trkpt><trkpt lat="48.8154592" lon="4.7927188"><ele>113.0</ele><time>2026-05-01T10:47:36.018Z</time></trkpt><trkpt lat="48.815406" lon="4.7930332"><ele>113.0</ele><time>2026-05-01T10:47:37.015Z</time></trkpt><trkpt lat="48.8153522" lon="4.7933451"><ele>113.33333333333333</ele><time>2026-05-01T10:47:38.019Z</time></trkpt><trkpt lat="48.8153033" lon="4.7936656"><ele>113.66666666666666</ele><time>2026-05-01T10:47:39.014Z</time></trkpt><trkpt lat="48.8152514" lon="4.7939871"><ele>114.0</ele><time>2026-05-01T10:47:40.03Z</time></trkpt><trkpt lat="48.8152005" lon="4.7943042"><ele>114.33333333333334</ele><time>2026-05-01T10:47:41.022Z</time></trkpt><trkpt lat="48.8151494" lon="4.7946303"><ele>114.66666666666667</ele><time>2026-05-01T10:47:42.015Z</time></trkpt><trkpt lat="48.8151005" lon="4.7949558"><ele>115.0</ele><time>2026-05-01T10:47:43.019Z</time></trkpt><trkpt lat="48.8150441" lon="4.7952715"><ele>115.0</ele><time>2026-05-01T10:47:44.019Z</time></trkpt><trkpt lat="48.8149875" lon="4.7955858"><ele>115.0</ele><time>2026-05-01T10:47:45.013Z</time></trkpt><trkpt lat="48.814933" lon="4.7959063"><ele>115.0</ele><time>2026-05-01T10:47:46.018Z</time></trkpt><trkpt lat="48.8148783" lon="4.7962277"><ele>115.33333333333334</ele><time>2026-05-01T10:47:47.022Z</time></trkpt><trkpt lat="48.8148286" lon="4.7965382"><ele>115.66666666666666</ele><time>2026-05-01T10:47:48.018Z</time></trkpt><trkpt lat="48.814786" lon="4.7968301"><ele>116.0</ele><time>2026-05-01T10:47:49.016Z</time></trkpt><trkpt lat="48.8147589" lon="4.7971017"><ele>116.33333333333333</ele><time>2026-05-01T10:47:50.021Z</time></trkpt><trkpt lat="48.8147483" lon="4.797356"><ele>116.66666666666666</ele><time>2026-05-01T10:47:51.036Z</time></trkpt><trkpt lat="48.8147503" lon="4.7976342"><ele>117.0</ele><time>2026-05-01T10:47:52.02Z</time></trkpt><trkpt lat="48.814773" lon="4.7979165"><ele>117.0</ele><time>2026-05-01T10:47:53.016Z</time></trkpt><trkpt lat="48.8148064" lon="4.7982113"><ele>117.0</ele><time>2026-05-01T10:47:54.016Z</time></trkpt><trkpt lat="48.8148436" lon="4.7985107"><ele>117.0</ele><time>2026-05-01T10:47:55.021Z</time></trkpt><trkpt lat="48.8148785" lon="4.7988139"><ele>116.66666666666666</ele><time>2026-05-01T10:47:56.015Z</time></trkpt><trkpt lat="48.8149159" lon="4.7991031"><ele>116.33333333333333</ele><time>2026-05-01T10:47:57.013Z</time></trkpt><trkpt lat="48.8149449" lon="4.7993804"><ele>116.0</ele><time>2026-05-01T10:47:58.014Z</time></trkpt><trkpt lat="48.8149558" lon="4.7996487"><ele>115.25</ele><time>2026-05-01T10:47:59.015Z</time></trkpt><trkpt lat="48.8149484" lon="4.7999083"><ele>114.5</ele><time>2026-05-01T10:48:00.022Z</time></trkpt><trkpt lat="48.8149222" lon="4.8001276"><ele>113.75</ele><time>2026-05-01T10:48:01.012Z</time></trkpt><trkpt lat="48.8148837" lon="4.8003144"><ele>113.0</ele><time>2026-05-01T10:48:02.018Z</time></trkpt><trkpt lat="48.8148416" lon="4.800478"><ele>113.0</ele><time>2026-05-01T10:48:03.022Z</time></trkpt><trkpt lat="48.8148088" lon="4.8006116"><ele>113.00000000000001</ele><time>2026-05-01T10:48:04.02Z</time></trkpt><trkpt lat="48.8148012" lon="4.8007132"><ele>113.00000000000001</ele><time>2026-05-01T10:48:05.016Z</time></trkpt><trkpt lat="48.8147861" lon="4.8008567"><ele>113.0</ele><time>2026-05-01T10:48:07.016Z</time></trkpt><trkpt lat="48.8147315" lon="4.8010104"><ele>113.0</ele><time>2026-05-01T10:48:09.024Z</time></trkpt><trkpt lat="48.8146884" lon="4.8011092"><ele>113.0</ele><time>2026-05-01T10:48:10.02Z</time></trkpt><trkpt lat="48.8146388" lon="4.8012156"><ele>113.00000000000001</ele><time>2026-05-01T10:48:11.022Z</time></trkpt><trkpt lat="48.8145885" lon="4.8013474"><ele>113.00000000000001</ele><time>2026-05-01T10:48:12.016Z</time></trkpt><trkpt lat="48.8145316" lon="4.8015164"><ele>113.0</ele><time>2026-05-01T10:48:13.016Z</time></trkpt><trkpt lat="48.8144811" lon="4.8016943"><ele>113.0</ele><time>2026-05-01T10:48:14.026Z</time></trkpt><trkpt lat="48.8144399" lon="4.8019082"><ele>113.0</ele><time>2026-05-01T10:48:15.017Z</time></trkpt><trkpt lat="48.8143982" lon="4.8021306"><ele>113.0</ele><time>2026-05-01T10:48:16.015Z</time></trkpt><trkpt lat="48.8143479" lon="4.8023687"><ele>113.0</ele><time>2026-05-01T10:48:17.016Z</time></trkpt><trkpt lat="48.8142938" lon="4.8026061"><ele>113.66666666666666</ele><time>2026-05-01T10:48:18.02Z</time></trkpt><trkpt lat="48.8142441" lon="4.8028423"><ele>114.33333333333334</ele><time>2026-05-01T10:48:19.02Z</time></trkpt><trkpt lat="48.8141865" lon="4.8030483"><ele>115.0</ele><time>2026-05-01T10:48:20.029Z</time></trkpt><trkpt lat="48.8141197" lon="4.8032448"><ele>115.0</ele><time>2026-05-01T10:48:21.022Z</time></trkpt><trkpt lat="48.8140143" lon="4.8033996"><ele>115.0</ele><time>2026-05-01T10:48:22.016Z</time></trkpt><trkpt lat="48.813879" lon="4.8034918"><ele>115.0</ele><time>2026-05-01T10:48:23.012Z</time></trkpt><trkpt lat="48.8137111" lon="4.8035376"><ele>114.66666666666667</ele><time>2026-05-01T10:48:24.015Z</time></trkpt><trkpt lat="48.8135557" lon="4.8035"><ele>114.33333333333334</ele><time>2026-05-01T10:48:25.017Z</time></trkpt><trkpt lat="48.8134007" lon="4.8034317"><ele>114.0</ele><time>2026-05-01T10:48:26.016Z</time></trkpt><trkpt lat="48.8132392" lon="4.8033655"><ele>113.75</ele><time>2026-05-01T10:48:27.012Z</time></trkpt><trkpt lat="48.8130846" lon="4.8033097"><ele>113.5</ele><time>2026-05-01T10:48:28.02Z</time></trkpt><trkpt lat="48.8129437" lon="4.8032638"><ele>113.25</ele><time>2026-05-01T10:48:29.027Z</time></trkpt><trkpt lat="48.8128146" lon="4.8032239"><ele>113.0</ele><time>2026-05-01T10:48:30.023Z</time></trkpt><trkpt lat="48.8126969" lon="4.80319"><ele>113.25</ele><time>2026-05-01T10:48:31.014Z</time></trkpt><trkpt lat="48.8125833" lon="4.8031632"><ele>113.5</ele><time>2026-05-01T10:48:32.019Z</time></trkpt><trkpt lat="48.8124709" lon="4.8031209"><ele>113.75</ele><time>2026-05-01T10:48:33.017Z</time></trkpt><trkpt lat="48.8123624" lon="4.8030776"><ele>114.0</ele><time>2026-05-01T10:48:34.024Z</time></trkpt><trkpt lat="48.8122563" lon="4.8030365"><ele>114.0</ele><time>2026-05-01T10:48:35.015Z</time></trkpt><trkpt lat="48.8121525" lon="4.803007"><ele>114.0</ele><time>2026-05-01T10:48:36.019Z</time></trkpt><trkpt lat="48.8120462" lon="4.8029785"><ele>114.0</ele><time>2026-05-01T10:48:37.021Z</time></trkpt><trkpt lat="48.8119456" lon="4.802953"><ele>114.0</ele><time>2026-05-01T10:48:38.018Z</time></trkpt><trkpt lat="48.8118659" lon="4.8029446"><ele>114.0</ele><time>2026-05-01T10:48:39.013Z</time></trkpt><trkpt lat="48.8117922" lon="4.8029624"><ele>114.2</ele><time>2026-05-01T10:48:40.018Z</time></trkpt><trkpt lat="48.8117143" lon="4.803018"><ele>114.4</ele><time>2026-05-01T10:48:41.018Z</time></trkpt><trkpt lat="48.8116545" lon="4.803109"><ele>114.6</ele><time>2026-05-01T10:48:42.014Z</time></trkpt><trkpt lat="48.8116206" lon="4.8032277"><ele>114.8</ele><time>2026-05-01T10:48:43.018Z</time></trkpt><trkpt lat="48.8116064" lon="4.8033687"><ele>115.0</ele><time>2026-05-01T10:48:44.018Z</time></trkpt><trkpt lat="48.8115972" lon="4.8035284"><ele>115.0</ele><time>2026-05-01T10:48:45.063Z</time></trkpt><trkpt lat="48.811579" lon="4.8036908"><ele>115.0</ele><time>2026-05-01T10:48:46.014Z</time></trkpt><trkpt lat="48.8115601" lon="4.8038658"><ele>115.0</ele><time>2026-05-01T10:48:47.02Z</time></trkpt><trkpt lat="48.8115427" lon="4.8040389"><ele>115.0</ele><time>2026-05-01T10:48:48.011Z</time></trkpt><trkpt lat="48.811514" lon="4.8042163"><ele>115.0</ele><time>2026-05-01T10:48:49.019Z</time></trkpt><trkpt lat="48.8114941" lon="4.8043889"><ele>115.0</ele><time>2026-05-01T10:48:50.016Z</time></trkpt><trkpt lat="48.8114714" lon="4.8045674"><ele>115.0</ele><time>2026-05-01T10:48:51.02Z</time></trkpt><trkpt lat="48.8114473" lon="4.8047452"><ele>115.0</ele><time>2026-05-01T10:48:52.031Z</time></trkpt><trkpt lat="48.8114245" lon="4.8049168"><ele>115.0</ele><time>2026-05-01T10:48:53.018Z</time></trkpt><trkpt lat="48.8114056" lon="4.8050881"><ele>115.0</ele><time>2026-05-01T10:48:54.023Z</time></trkpt><trkpt lat="48.8113878" lon="4.8052542"><ele>115.0</ele><time>2026-05-01T10:48:55.026Z</time></trkpt><trkpt lat="48.8113684" lon="4.8054178"><ele>115.0</ele><time>2026-05-01T10:48:56.02Z</time></trkpt><trkpt lat="48.8113503" lon="4.8055896"><ele>115.0</ele><time>2026-05-01T10:48:57.018Z</time></trkpt><trkpt lat="48.8113299" lon="4.8057595"><ele>115.0</ele><time>2026-05-01T10:48:58.021Z</time></trkpt><trkpt lat="48.8113059" lon="4.8059248"><ele>115.0</ele><time>2026-05-01T10:48:59.021Z</time></trkpt><trkpt lat="48.8112919" lon="4.8060935"><ele>115.0</ele><time>2026-05-01T10:49:00.02Z</time></trkpt><trkpt lat="48.8112798" lon="4.8062472"><ele>115.0</ele><time>2026-05-01T10:49:01.03Z</time></trkpt><trkpt lat="48.8112673" lon="4.8063994"><ele>115.0</ele><time>2026-05-01T10:49:02.023Z</time></trkpt><trkpt lat="48.8112571" lon="4.8065565"><ele>115.0</ele><time>2026-05-01T10:49:03.022Z</time></trkpt><trkpt lat="48.8112483" lon="4.8067258"><ele>115.0</ele><time>2026-05-01T10:49:04.016Z</time></trkpt><trkpt lat="48.8112394" lon="4.8069071"><ele>115.0</ele><time>2026-05-01T10:49:05.019Z</time></trkpt><trkpt lat="48.811226" lon="4.8070823"><ele>115.0</ele><time>2026-05-01T10:49:06.019Z</time></trkpt><trkpt lat="48.8112091" lon="4.8072447"><ele>114.83333333333334</ele><time>2026-05-01T10:49:07.019Z</time></trkpt><trkpt lat="48.8111955" lon="4.8073822"><ele>114.66666666666667</ele><time>2026-05-01T10:49:08.019Z</time></trkpt><trkpt lat="48.811173" lon="4.8075034"><ele>114.5</ele><time>2026-05-01T10:49:09.017Z</time></trkpt><trkpt lat="48.811152" lon="4.8075966"><ele>114.33333333333334</ele><time>2026-05-01T10:49:10.018Z</time></trkpt><trkpt lat="48.8111364" lon="4.8076967"><ele>114.16666666666667</ele><time>2026-05-01T10:49:11.014Z</time></trkpt><trkpt lat="48.8111291" lon="4.8078241"><ele>114.0</ele><time>2026-05-01T10:49:12.018Z</time></trkpt><trkpt lat="48.8111366" lon="4.8079685"><ele>114.0</ele><time>2026-05-01T10:49:13.016Z</time></trkpt><trkpt lat="48.8111375" lon="4.8081286"><ele>114.0</ele><time>2026-05-01T10:49:14.025Z</time></trkpt><trkpt lat="48.811124" lon="4.8082959"><ele>114.0</ele><time>2026-05-01T10:49:15.018Z</time></trkpt><trkpt lat="48.81111" lon="4.8084929"><ele>114.0</ele><time>2026-05-01T10:49:16.015Z</time></trkpt><trkpt lat="48.8110935" lon="4.8086939"><ele>114.0</ele><time>2026-05-01T10:49:17.016Z</time></trkpt><trkpt lat="48.8110709" lon="4.808913"><ele>114.0</ele><time>2026-05-01T10:49:18.02Z</time></trkpt><trkpt lat="48.811048" lon="4.8091551"><ele>114.0</ele><time>2026-05-01T10:49:19.02Z</time></trkpt><trkpt lat="48.8110319" lon="4.8094124"><ele>114.0</ele><time>2026-05-01T10:49:20.042Z</time></trkpt><trkpt lat="48.8110065" lon="4.8096855"><ele>114.0</ele><time>2026-05-01T10:49:21.018Z</time></trkpt><trkpt lat="48.8109822" lon="4.8099641"><ele>114.0</ele><time>2026-05-01T10:49:22.021Z</time></trkpt><trkpt lat="48.8109547" lon="4.8102552"><ele>114.0</ele><time>2026-05-01T10:49:23.019Z</time></trkpt><trkpt lat="48.8109231" lon="4.810554"><ele>114.0</ele><time>2026-05-01T10:49:24.02Z</time></trkpt><trkpt lat="48.810894" lon="4.8108667"><ele>114.0</ele><time>2026-05-01T10:49:25.014Z</time></trkpt><trkpt lat="48.8108633" lon="4.8111846"><ele>114.0</ele><time>2026-05-01T10:49:26.014Z</time></trkpt><trkpt lat="48.8108275" lon="4.8115027"><ele>114.0</ele><time>2026-05-01T10:49:27.021Z</time></trkpt><trkpt lat="48.8107845" lon="4.8118239"><ele>114.0</ele><time>2026-05-01T10:49:28.017Z</time></trkpt><trkpt lat="48.8107353" lon="4.8121457"><ele>114.0</ele><time>2026-05-01T10:49:29.028Z</time></trkpt><trkpt lat="48.8106774" lon="4.8124575"><ele>114.0</ele><time>2026-05-01T10:49:30.027Z</time></trkpt><trkpt lat="48.810614" lon="4.8127723"><ele>114.0</ele><time>2026-05-01T10:49:31.021Z</time></trkpt><trkpt lat="48.8105437" lon="4.8130837"><ele>114.33333333333334</ele><time>2026-05-01T10:49:32.02Z</time></trkpt><trkpt lat="48.8104683" lon="4.8133974"><ele>114.66666666666667</ele><time>2026-05-01T10:49:33.018Z</time></trkpt><trkpt lat="48.8104002" lon="4.8137035"><ele>115.0</ele><time>2026-05-01T10:49:34.015Z</time></trkpt><trkpt lat="48.8103286" lon="4.8140121"><ele>115.0</ele><time>2026-05-01T10:49:35.019Z</time></trkpt><trkpt lat="48.81026" lon="4.8143221"><ele>115.0</ele><time>2026-05-01T10:49:36.024Z</time></trkpt><trkpt lat="48.8101927" lon="4.8146355"><ele>115.0</ele><time>2026-05-01T10:49:37.014Z</time></trkpt><trkpt lat="48.8101243" lon="4.8149476"><ele>115.0</ele><time>2026-05-01T10:49:38.029Z</time></trkpt><trkpt lat="48.8100633" lon="4.81526"><ele>115.0</ele><time>2026-05-01T10:49:39.025Z</time></trkpt><trkpt lat="48.810004" lon="4.8155729"><ele>115.0</ele><time>2026-05-01T10:49:40.02Z</time></trkpt><trkpt lat="48.8099484" lon="4.8158902"><ele>115.0</ele><time>2026-05-01T10:49:41.021Z</time></trkpt><trkpt lat="48.8098991" lon="4.8162097"><ele>115.0</ele><time>2026-05-01T10:49:42.017Z</time></trkpt><trkpt lat="48.8098564" lon="4.8165335"><ele>115.0</ele><time>2026-05-01T10:49:43.01Z</time></trkpt><trkpt lat="48.8098213" lon="4.8168568"><ele>114.66666666666667</ele><time>2026-05-01T10:49:44.02Z</time></trkpt><trkpt lat="48.8097999" lon="4.8171845"><ele>114.33333333333334</ele><time>2026-05-01T10:49:45.017Z</time></trkpt><trkpt lat="48.8097868" lon="4.8175078"><ele>114.0</ele><time>2026-05-01T10:49:46.015Z</time></trkpt><trkpt lat="48.8097851" lon="4.8178399"><ele>114.0</ele><time>2026-05-01T10:49:47.011Z</time></trkpt><trkpt lat="48.8097879" lon="4.8181727"><ele>114.0</ele><time>2026-05-01T10:49:48.011Z</time></trkpt><trkpt lat="48.8097941" lon="4.818511"><ele>114.0</ele><time>2026-05-01T10:49:49.019Z</time></trkpt><trkpt lat="48.8098067" lon="4.8188409"><ele>114.33333333333334</ele><time>2026-05-01T10:49:50.026Z</time></trkpt><trkpt lat="48.8098183" lon="4.8191786"><ele>114.66666666666667</ele><time>2026-05-01T10:49:51.023Z</time></trkpt><trkpt lat="48.8098352" lon="4.8195135"><ele>115.0</ele><time>2026-05-01T10:49:52.017Z</time></trkpt><trkpt lat="48.8098602" lon="4.819842"><ele>115.0</ele><time>2026-05-01T10:49:53.019Z</time></trkpt><trkpt lat="48.8098964" lon="4.8201703"><ele>115.0</ele><time>2026-05-01T10:49:54.023Z</time></trkpt><trkpt lat="48.809943" lon="4.8204888"><ele>115.0</ele><time>2026-05-01T10:49:55.022Z</time></trkpt><trkpt lat="48.8099856" lon="4.8208145"><ele>115.33333333333334</ele><time>2026-05-01T10:49:56.019Z</time></trkpt><trkpt lat="48.8100098" lon="4.821145"><ele>115.66666666666666</ele><time>2026-05-01T10:49:57.045Z</time></trkpt><trkpt lat="48.8099994" lon="4.8214704"><ele>116.0</ele><time>2026-05-01T10:49:58.017Z</time></trkpt><trkpt lat="48.8099541" lon="4.8217911"><ele>116.33333333333333</ele><time>2026-05-01T10:49:59.016Z</time></trkpt><trkpt lat="48.8098972" lon="4.8221087"><ele>116.66666666666666</ele><time>2026-05-01T10:50:00.018Z</time></trkpt><trkpt lat="48.8098553" lon="4.8224265"><ele>117.0</ele><time>2026-05-01T10:50:01.025Z</time></trkpt><trkpt lat="48.809822" lon="4.822752"><ele>117.0</ele><time>2026-05-01T10:50:02.014Z</time></trkpt><trkpt lat="48.8097706" lon="4.8230754"><ele>117.0</ele><time>2026-05-01T10:50:03.022Z</time></trkpt><trkpt lat="48.8097099" lon="4.8233995"><ele>117.0</ele><time>2026-05-01T10:50:04.02Z</time></trkpt><trkpt lat="48.809646" lon="4.8237267"><ele>117.0</ele><time>2026-05-01T10:50:05.018Z</time></trkpt><trkpt lat="48.8095772" lon="4.8240494"><ele>117.0</ele><time>2026-05-01T10:50:06.02Z</time></trkpt><trkpt lat="48.8095119" lon="4.8243708"><ele>117.0</ele><time>2026-05-01T10:50:07.022Z</time></trkpt><trkpt lat="48.8094483" lon="4.8246941"><ele>116.33333333333334</ele><time>2026-05-01T10:50:08.015Z</time></trkpt><trkpt lat="48.8093848" lon="4.8250215"><ele>115.66666666666667</ele><time>2026-05-01T10:50:09.021Z</time></trkpt><trkpt lat="48.8093249" lon="4.8253467"><ele>115.0</ele><time>2026-05-01T10:50:10.025Z</time></trkpt><trkpt lat="48.8092628" lon="4.8256761"><ele>115.0</ele><time>2026-05-01T10:50:11.019Z</time></trkpt><trkpt lat="48.8092024" lon="4.8259989"><ele>115.0</ele><time>2026-05-01T10:50:12.015Z</time></trkpt><trkpt lat="48.8091434" lon="4.82632"><ele>115.0</ele><time>2026-05-01T10:50:13.016Z</time></trkpt><trkpt lat="48.8090798" lon="4.8266358"><ele>115.0</ele><time>2026-05-01T10:50:14.018Z</time></trkpt><trkpt lat="48.8090185" lon="4.8269556"><ele>115.0</ele><time>2026-05-01T10:50:15.013Z</time></trkpt><trkpt lat="48.8089593" lon="4.8272768"><ele>115.0</ele><time>2026-05-01T10:50:16.033Z</time></trkpt><trkpt lat="48.8089002" lon="4.8275973"><ele>115.0</ele><time>2026-05-01T10:50:17.017Z</time></trkpt><trkpt lat="48.8088443" lon="4.8279149"><ele>115.0</ele><time>2026-05-01T10:50:18.024Z</time></trkpt><trkpt lat="48.8087835" lon="4.8282369"><ele>115.0</ele><time>2026-05-01T10:50:19.026Z</time></trkpt><trkpt lat="48.8087241" lon="4.8285598"><ele>115.0</ele><time>2026-05-01T10:50:20.028Z</time></trkpt><trkpt lat="48.8086635" lon="4.8288837"><ele>115.0</ele><time>2026-05-01T10:50:21.018Z</time></trkpt><trkpt lat="48.8086022" lon="4.8292058"><ele>115.0</ele><time>2026-05-01T10:50:22.02Z</time></trkpt><trkpt lat="48.8085421" lon="4.8295248"><ele>115.0</ele><time>2026-05-01T10:50:23.029Z</time></trkpt><trkpt lat="48.8084816" lon="4.8298445"><ele>115.0</ele><time>2026-05-01T10:50:24.021Z</time></trkpt><trkpt lat="48.8084231" lon="4.8301698"><ele>115.0</ele><time>2026-05-01T10:50:25.021Z</time></trkpt><trkpt lat="48.8083636" lon="4.8304966"><ele>115.0</ele><time>2026-05-01T10:50:26.02Z</time></trkpt><trkpt lat="48.8083023" lon="4.8308167"><ele>115.0</ele><time>2026-05-01T10:50:27.017Z</time></trkpt><trkpt lat="48.80824" lon="4.8311461"><ele>115.0</ele><time>2026-05-01T10:50:28.021Z</time></trkpt><trkpt lat="48.8081763" lon="4.8314759"><ele>115.0</ele><time>2026-05-01T10:50:29.017Z</time></trkpt><trkpt lat="48.8081151" lon="4.8318037"><ele>115.0</ele><time>2026-05-01T10:50:30.015Z</time></trkpt><trkpt lat="48.8080556" lon="4.8321288"><ele>115.0</ele><time>2026-05-01T10:50:31.018Z</time></trkpt><trkpt lat="48.8079981" lon="4.8324566"><ele>115.33333333333334</ele><time>2026-05-01T10:50:32.019Z</time></trkpt><trkpt lat="48.8079396" lon="4.8327732"><ele>115.66666666666666</ele><time>2026-05-01T10:50:33.024Z</time></trkpt><trkpt lat="48.8078834" lon="4.8330919"><ele>116.0</ele><time>2026-05-01T10:50:34.024Z</time></trkpt><trkpt lat="48.8078325" lon="4.8334049"><ele>116.0</ele><time>2026-05-01T10:50:35.017Z</time></trkpt><trkpt lat="48.8077906" lon="4.833727"><ele>116.0</ele><time>2026-05-01T10:50:36.034Z</time></trkpt><trkpt lat="48.8077787" lon="4.8340397"><ele>116.0</ele><time>2026-05-01T10:50:37.02Z</time></trkpt><trkpt lat="48.8077843" lon="4.8343647"><ele>115.66666666666666</ele><time>2026-05-01T10:50:38.018Z</time></trkpt><trkpt lat="48.8077935" lon="4.8346916"><ele>115.33333333333334</ele><time>2026-05-01T10:50:39.018Z</time></trkpt><trkpt lat="48.8078181" lon="4.8350189"><ele>115.0</ele><time>2026-05-01T10:50:40.028Z</time></trkpt><trkpt lat="48.8078392" lon="4.8353469"><ele>114.66666666666667</ele><time>2026-05-01T10:50:41.018Z</time></trkpt><trkpt lat="48.8078717" lon="4.8356762"><ele>114.33333333333334</ele><time>2026-05-01T10:50:42.02Z</time></trkpt><trkpt lat="48.8078945" lon="4.836002"><ele>114.0</ele><time>2026-05-01T10:50:43.02Z</time></trkpt><trkpt lat="48.807922" lon="4.8363274"><ele>114.0</ele><time>2026-05-01T10:50:44.019Z</time></trkpt><trkpt lat="48.8079398" lon="4.8366547"><ele>114.0</ele><time>2026-05-01T10:50:45.031Z</time></trkpt><trkpt lat="48.8079658" lon="4.8369859"><ele>114.0</ele><time>2026-05-01T10:50:46.024Z</time></trkpt><trkpt lat="48.8079873" lon="4.8373221"><ele>114.66666666666666</ele><time>2026-05-01T10:50:47.013Z</time></trkpt><trkpt lat="48.8080102" lon="4.8376565"><ele>115.33333333333333</ele><time>2026-05-01T10:50:48.02Z</time></trkpt><trkpt lat="48.8080312" lon="4.8379873"><ele>116.0</ele><time>2026-05-01T10:50:49.019Z</time></trkpt><trkpt lat="48.8080523" lon="4.8383141"><ele>116.0</ele><time>2026-05-01T10:50:50.017Z</time></trkpt><trkpt lat="48.8080723" lon="4.8386388"><ele>116.0</ele><time>2026-05-01T10:50:51.026Z</time></trkpt><trkpt lat="48.8081049" lon="4.8389597"><ele>116.0</ele><time>2026-05-01T10:50:52.018Z</time></trkpt><trkpt lat="48.8081567" lon="4.8392851"><ele>116.66666666666666</ele><time>2026-05-01T10:50:53.028Z</time></trkpt><trkpt lat="48.808219" lon="4.8396016"><ele>117.33333333333334</ele><time>2026-05-01T10:50:54.02Z</time></trkpt><trkpt lat="48.8082859" lon="4.8399211"><ele>118.0</ele><time>2026-05-01T10:50:55.028Z</time></trkpt><trkpt lat="48.80835" lon="4.8402369"><ele>119.0</ele><time>2026-05-01T10:50:56.02Z</time></trkpt><trkpt lat="48.8084134" lon="4.8405502"><ele>120.0</ele><time>2026-05-01T10:50:57.02Z</time></trkpt><trkpt lat="48.8084791" lon="4.8408618"><ele>121.0</ele><time>2026-05-01T10:50:58.026Z</time></trkpt><trkpt lat="48.8085473" lon="4.8411675"><ele>121.33333333333334</ele><time>2026-05-01T10:50:59.022Z</time></trkpt><trkpt lat="48.8086158" lon="4.8414742"><ele>121.66666666666666</ele><time>2026-05-01T10:51:00.017Z</time></trkpt><trkpt lat="48.8086815" lon="4.8417775"><ele>122.0</ele><time>2026-05-01T10:51:01.022Z</time></trkpt><trkpt lat="48.8087472" lon="4.8420755"><ele>123.0</ele><time>2026-05-01T10:51:02.025Z</time></trkpt><trkpt lat="48.8088103" lon="4.8423659"><ele>124.0</ele><time>2026-05-01T10:51:03.019Z</time></trkpt><trkpt lat="48.8088731" lon="4.8426563"><ele>125.0</ele><time>2026-05-01T10:51:04.021Z</time></trkpt><trkpt lat="48.808932" lon="4.8429289"><ele>125.66666666666666</ele><time>2026-05-01T10:51:05.026Z</time></trkpt><trkpt lat="48.8089828" lon="4.8431798"><ele>126.33333333333334</ele><time>2026-05-01T10:51:06.028Z</time></trkpt><trkpt lat="48.8090322" lon="4.8434181"><ele>127.0</ele><time>2026-05-01T10:51:07.021Z</time></trkpt><trkpt lat="48.8090747" lon="4.8436594"><ele>128.0</ele><time>2026-05-01T10:51:08.024Z</time></trkpt><trkpt lat="48.8090892" lon="4.8439118"><ele>129.0</ele><time>2026-05-01T10:51:09.029Z</time></trkpt><trkpt lat="48.8090535" lon="4.8441346"><ele>130.0</ele><time>2026-05-01T10:51:10.013Z</time></trkpt><trkpt lat="48.8089942" lon="4.8443367"><ele>130.2</ele><time>2026-05-01T10:51:11.026Z</time></trkpt><trkpt lat="48.8089127" lon="4.844502"><ele>130.4</ele><time>2026-05-01T10:51:12.021Z</time></trkpt><trkpt lat="48.8088342" lon="4.8446188"><ele>130.6</ele><time>2026-05-01T10:51:13.022Z</time></trkpt><trkpt lat="48.8087807" lon="4.844694"><ele>130.8</ele><time>2026-05-01T10:51:14.015Z</time></trkpt><trkpt lat="48.8087268" lon="4.8447855"><ele>131.0</ele><time>2026-05-01T10:51:16.021Z</time></trkpt><trkpt lat="48.8086901" lon="4.8448671"><ele>131.0</ele><time>2026-05-01T10:51:19.015Z</time></trkpt><trkpt lat="48.8087337" lon="4.8450114"><ele>131.0</ele><time>2026-05-01T10:51:21.018Z</time></trkpt><trkpt lat="48.8087957" lon="4.8450959"><ele>131.0</ele><time>2026-05-01T10:51:22.013Z</time></trkpt><trkpt lat="48.8088623" lon="4.8452109"><ele>131.0</ele><time>2026-05-01T10:51:23.022Z</time></trkpt><trkpt lat="48.8089331" lon="4.8453428"><ele>131.0</ele><time>2026-05-01T10:51:24.022Z</time></trkpt><trkpt lat="48.8090138" lon="4.8454926"><ele>131.33333333333331</ele><time>2026-05-01T10:51:25.019Z</time></trkpt><trkpt lat="48.8091021" lon="4.8456561"><ele>131.66666666666666</ele><time>2026-05-01T10:51:26.015Z</time></trkpt><trkpt lat="48.8092008" lon="4.845845"><ele>132.0</ele><time>2026-05-01T10:51:27.037Z</time></trkpt><trkpt lat="48.8093154" lon="4.8460453"><ele>132.33333333333334</ele><time>2026-05-01T10:51:28.026Z</time></trkpt><trkpt lat="48.8094432" lon="4.8462731"><ele>132.66666666666669</ele><time>2026-05-01T10:51:29.013Z</time></trkpt><trkpt lat="48.8095757" lon="4.8465046"><ele>133.0</ele><time>2026-05-01T10:51:30.018Z</time></trkpt><trkpt lat="48.8097153" lon="4.8467494"><ele>133.33333333333334</ele><time>2026-05-01T10:51:31.022Z</time></trkpt><trkpt lat="48.8098578" lon="4.8470084"><ele>133.66666666666666</ele><time>2026-05-01T10:51:32.026Z</time></trkpt><trkpt lat="48.8100014" lon="4.8472659"><ele>134.0</ele><time>2026-05-01T10:51:33.016Z</time></trkpt><trkpt lat="48.8101507" lon="4.8475263"><ele>134.0</ele><time>2026-05-01T10:51:34.04Z</time></trkpt><trkpt lat="48.8102986" lon="4.8477874"><ele>134.0</ele><time>2026-05-01T10:51:35.015Z</time></trkpt><trkpt lat="48.81044" lon="4.8480399"><ele>134.0</ele><time>2026-05-01T10:51:36.011Z</time></trkpt><trkpt lat="48.8105719" lon="4.8482762"><ele>134.0</ele><time>2026-05-01T10:51:37.015Z</time></trkpt><trkpt lat="48.8107005" lon="4.8485023"><ele>134.0</ele><time>2026-05-01T10:51:38.017Z</time></trkpt><trkpt lat="48.8108181" lon="4.848719"><ele>134.0</ele><time>2026-05-01T10:51:39.016Z</time></trkpt><trkpt lat="48.8109091" lon="4.8489228"><ele>133.75</ele><time>2026-05-01T10:51:40.038Z</time></trkpt><trkpt lat="48.810997" lon="4.8491211"><ele>133.5</ele><time>2026-05-01T10:51:41.023Z</time></trkpt><trkpt lat="48.8110665" lon="4.8492977"><ele>133.25</ele><time>2026-05-01T10:51:42.017Z</time></trkpt><trkpt lat="48.81113" lon="4.8494699"><ele>133.0</ele><time>2026-05-01T10:51:43.018Z</time></trkpt><trkpt lat="48.8111843" lon="4.8496452"><ele>133.0</ele><time>2026-05-01T10:51:44.022Z</time></trkpt><trkpt lat="48.8112302" lon="4.8498049"><ele>133.0</ele><time>2026-05-01T10:51:45.015Z</time></trkpt><trkpt lat="48.8112725" lon="4.8499584"><ele>133.0</ele><time>2026-05-01T10:51:46.018Z</time></trkpt><trkpt lat="48.8113269" lon="4.8501185"><ele>133.0</ele><time>2026-05-01T10:51:47.021Z</time></trkpt><trkpt lat="48.8113742" lon="4.8502894"><ele>133.75</ele><time>2026-05-01T10:51:48.02Z</time></trkpt><trkpt lat="48.8114224" lon="4.8504568"><ele>134.5</ele><time>2026-05-01T10:51:49.025Z</time></trkpt><trkpt lat="48.8114727" lon="4.8506269"><ele>135.25</ele><time>2026-05-01T10:51:50.021Z</time></trkpt><trkpt lat="48.8115276" lon="4.8507897"><ele>136.0</ele><time>2026-05-01T10:51:51.009Z</time></trkpt><trkpt lat="48.8115762" lon="4.8509511"><ele>135.75</ele><time>2026-05-01T10:51:52.02Z</time></trkpt><trkpt lat="48.8116195" lon="4.8511109"><ele>135.5</ele><time>2026-05-01T10:51:53.018Z</time></trkpt><trkpt lat="48.8116598" lon="4.8512765"><ele>135.25</ele><time>2026-05-01T10:51:54.015Z</time></trkpt><trkpt lat="48.8116895" lon="4.8514359"><ele>135.0</ele><time>2026-05-01T10:51:55.024Z</time></trkpt><trkpt lat="48.8117126" lon="4.8516058"><ele>135.0</ele><time>2026-05-01T10:51:56.015Z</time></trkpt><trkpt lat="48.8117344" lon="4.8517585"><ele>135.0</ele><time>2026-05-01T10:51:57.018Z</time></trkpt><trkpt lat="48.8117486" lon="4.851875"><ele>135.0</ele><time>2026-05-01T10:51:58.018Z</time></trkpt><trkpt lat="48.8117682" lon="4.8519787"><ele>135.0</ele><time>2026-05-01T10:51:59.022Z</time></trkpt><trkpt lat="48.8117813" lon="4.8520903"><ele>135.0</ele><time>2026-05-01T10:52:00.022Z</time></trkpt><trkpt lat="48.8118053" lon="4.8522223"><ele>135.0</ele><time>2026-05-01T10:52:01.022Z</time></trkpt><trkpt lat="48.8118277" lon="4.8523526"><ele>135.2</ele><time>2026-05-01T10:52:02.024Z</time></trkpt><trkpt lat="48.8118504" lon="4.8524947"><ele>135.4</ele><time>2026-05-01T10:52:03.032Z</time></trkpt><trkpt lat="48.8118799" lon="4.8526531"><ele>135.6</ele><time>2026-05-01T10:52:04.025Z</time></trkpt><trkpt lat="48.8119045" lon="4.8528166"><ele>135.8</ele><time>2026-05-01T10:52:05.023Z</time></trkpt><trkpt lat="48.8119207" lon="4.8529836"><ele>136.0</ele><time>2026-05-01T10:52:06.027Z</time></trkpt><trkpt lat="48.8119302" lon="4.8531594"><ele>136.25</ele><time>2026-05-01T10:52:07.023Z</time></trkpt><trkpt lat="48.8119418" lon="4.8533294"><ele>136.5</ele><time>2026-05-01T10:52:08.021Z</time></trkpt><trkpt lat="48.811948" lon="4.8535022"><ele>136.75</ele><time>2026-05-01T10:52:09.019Z</time></trkpt><trkpt lat="48.8119545" lon="4.8536689"><ele>137.0</ele><time>2026-05-01T10:52:10.039Z</time></trkpt><trkpt lat="48.8119615" lon="4.8538418"><ele>137.0</ele><time>2026-05-01T10:52:11.014Z</time></trkpt><trkpt lat="48.8119692" lon="4.8540078"><ele>137.0</ele><time>2026-05-01T10:52:12.029Z</time></trkpt><trkpt lat="48.8119839" lon="4.8541766"><ele>137.0</ele><time>2026-05-01T10:52:13.02Z</time></trkpt><trkpt lat="48.8120109" lon="4.854345"><ele>137.0</ele><time>2026-05-01T10:52:14.018Z</time></trkpt><trkpt lat="48.8120396" lon="4.8545288"><ele>137.0</ele><time>2026-05-01T10:52:15.028Z</time></trkpt><trkpt lat="48.8120758" lon="4.854711"><ele>137.0</ele><time>2026-05-01T10:52:16.021Z</time></trkpt><trkpt lat="48.8121127" lon="4.8548934"><ele>137.0</ele><time>2026-05-01T10:52:17.02Z</time></trkpt><trkpt lat="48.8121476" lon="4.8550793"><ele>137.0</ele><time>2026-05-01T10:52:18.024Z</time></trkpt><trkpt lat="48.8121858" lon="4.855266"><ele>137.75</ele><time>2026-05-01T10:52:19.016Z</time></trkpt><trkpt lat="48.8122285" lon="4.8554574"><ele>138.5</ele><time>2026-05-01T10:52:20.018Z</time></trkpt><trkpt lat="48.8122756" lon="4.8556574"><ele>139.25</ele><time>2026-05-01T10:52:21.016Z</time></trkpt><trkpt lat="48.8123243" lon="4.8558595"><ele>140.0</ele><time>2026-05-01T10:52:22.026Z</time></trkpt><trkpt lat="48.8123766" lon="4.8560678"><ele>140.0</ele><time>2026-05-01T10:52:23.018Z</time></trkpt><trkpt lat="48.8124285" lon="4.8562764"><ele>140.0</ele><time>2026-05-01T10:52:24.015Z</time></trkpt><trkpt lat="48.8124793" lon="4.856493"><ele>140.0</ele><time>2026-05-01T10:52:25.024Z</time></trkpt><trkpt lat="48.8125304" lon="4.8567062"><ele>140.0</ele><time>2026-05-01T10:52:26.024Z</time></trkpt><trkpt lat="48.8125868" lon="4.8569225"><ele>140.0</ele><time>2026-05-01T10:52:27.018Z</time></trkpt><trkpt lat="48.8126436" lon="4.8571508"><ele>140.0</ele><time>2026-05-01T10:52:28.021Z</time></trkpt><trkpt lat="48.8127005" lon="4.8573914"><ele>140.0</ele><time>2026-05-01T10:52:29.024Z</time></trkpt><trkpt lat="48.8127602" lon="4.8576525"><ele>139.66666666666666</ele><time>2026-05-01T10:52:30.027Z</time></trkpt><trkpt lat="48.8128231" lon="4.8579244"><ele>139.33333333333334</ele><time>2026-05-01T10:52:31.016Z</time></trkpt><trkpt lat="48.812893" lon="4.8582094"><ele>139.0</ele><time>2026-05-01T10:52:32.051Z</time></trkpt><trkpt lat="48.8129551" lon="4.8584971"><ele>139.0</ele><time>2026-05-01T10:52:33.018Z</time></trkpt><trkpt lat="48.8130236" lon="4.8587869"><ele>139.0</ele><time>2026-05-01T10:52:34.025Z</time></trkpt><trkpt lat="48.8130897" lon="4.8590774"><ele>139.0</ele><time>2026-05-01T10:52:35.018Z</time></trkpt><trkpt lat="48.8131584" lon="4.8593655"><ele>139.0</ele><time>2026-05-01T10:52:36.018Z</time></trkpt><trkpt lat="48.8132259" lon="4.8596492"><ele>139.0</ele><time>2026-05-01T10:52:37.018Z</time></trkpt><trkpt lat="48.8132876" lon="4.8599243"><ele>139.0</ele><time>2026-05-01T10:52:38.02Z</time></trkpt><trkpt lat="48.8133459" lon="4.8601855"><ele>139.0</ele><time>2026-05-01T10:52:39.018Z</time></trkpt><trkpt lat="48.8134071" lon="4.8604247"><ele>139.0</ele><time>2026-05-01T10:52:40.018Z</time></trkpt><trkpt lat="48.8134554" lon="4.8606632"><ele>139.0</ele><time>2026-05-01T10:52:41.02Z</time></trkpt><trkpt lat="48.8134732" lon="4.8609096"><ele>139.0</ele><time>2026-05-01T10:52:42.018Z</time></trkpt><trkpt lat="48.8134506" lon="4.8611492"><ele>139.0</ele><time>2026-05-01T10:52:43.015Z</time></trkpt><trkpt lat="48.8133807" lon="4.8613943"><ele>139.0</ele><time>2026-05-01T10:52:44.022Z</time></trkpt><trkpt lat="48.8133074" lon="4.8616532"><ele>139.0</ele><time>2026-05-01T10:52:45.017Z</time></trkpt><trkpt lat="48.8132284" lon="4.8619224"><ele>139.0</ele><time>2026-05-01T10:52:46.017Z</time></trkpt><trkpt lat="48.8131401" lon="4.8621975"><ele>139.0</ele><time>2026-05-01T10:52:47.017Z</time></trkpt><trkpt lat="48.8130538" lon="4.8624825"><ele>138.33333333333334</ele><time>2026-05-01T10:52:48.02Z</time></trkpt><trkpt lat="48.812966" lon="4.8627869"><ele>137.66666666666666</ele><time>2026-05-01T10:52:49.018Z</time></trkpt><trkpt lat="48.8128823" lon="4.863092"><ele>137.0</ele><time>2026-05-01T10:52:50.012Z</time></trkpt><trkpt lat="48.8127899" lon="4.8634109"><ele>137.5</ele><time>2026-05-01T10:52:51.022Z</time></trkpt><trkpt lat="48.8126981" lon="4.8637444"><ele>138.0</ele><time>2026-05-01T10:52:52.013Z</time></trkpt><trkpt lat="48.8126048" lon="4.8640727"><ele>137.5</ele><time>2026-05-01T10:52:53.021Z</time></trkpt><trkpt lat="48.8125074" lon="4.864402"><ele>137.0</ele><time>2026-05-01T10:52:54.024Z</time></trkpt><trkpt lat="48.8124116" lon="4.8647353"><ele>137.0</ele><time>2026-05-01T10:52:55.02Z</time></trkpt><trkpt lat="48.8123181" lon="4.8650688"><ele>137.0</ele><time>2026-05-01T10:52:56.025Z</time></trkpt><trkpt lat="48.8122244" lon="4.8654065"><ele>137.0</ele><time>2026-05-01T10:52:57.02Z</time></trkpt><trkpt lat="48.812129" lon="4.8657483"><ele>137.0</ele><time>2026-05-01T10:52:58.02Z</time></trkpt><trkpt lat="48.812034" lon="4.8660866"><ele>137.0</ele><time>2026-05-01T10:52:59.019Z</time></trkpt><trkpt lat="48.8119377" lon="4.8664234"><ele>137.0</ele><time>2026-05-01T10:53:00.021Z</time></trkpt><trkpt lat="48.8118441" lon="4.8667538"><ele>136.5</ele><time>2026-05-01T10:53:01.02Z</time></trkpt><trkpt lat="48.8117493" lon="4.8670754"><ele>136.0</ele><time>2026-05-01T10:53:02.021Z</time></trkpt><trkpt lat="48.8116599" lon="4.8673896"><ele>136.0</ele><time>2026-05-01T10:53:03.018Z</time></trkpt><trkpt lat="48.8115734" lon="4.8677019"><ele>136.0</ele><time>2026-05-01T10:53:04.019Z</time></trkpt><trkpt lat="48.8114828" lon="4.8680198"><ele>136.0</ele><time>2026-05-01T10:53:05.02Z</time></trkpt><trkpt lat="48.8113937" lon="4.8683347"><ele>136.0</ele><time>2026-05-01T10:53:06.018Z</time></trkpt><trkpt lat="48.8113038" lon="4.8686437"><ele>136.0</ele><time>2026-05-01T10:53:07.025Z</time></trkpt><trkpt lat="48.8112124" lon="4.8689571"><ele>136.5</ele><time>2026-05-01T10:53:08.029Z</time></trkpt><trkpt lat="48.8111207" lon="4.8692702"><ele>137.0</ele><time>2026-05-01T10:53:09.023Z</time></trkpt><trkpt lat="48.8110309" lon="4.8695862"><ele>136.66666666666666</ele><time>2026-05-01T10:53:10.018Z</time></trkpt><trkpt lat="48.8109405" lon="4.8698939"><ele>136.33333333333334</ele><time>2026-05-01T10:53:11.024Z</time></trkpt><trkpt lat="48.8108516" lon="4.87021"><ele>136.0</ele><time>2026-05-01T10:53:12.028Z</time></trkpt><trkpt lat="48.8107576" lon="4.8705207"><ele>136.0</ele><time>2026-05-01T10:53:13.02Z</time></trkpt><trkpt lat="48.8106965" lon="4.870827"><ele>136.0</ele><time>2026-05-01T10:53:14.03Z</time></trkpt><trkpt lat="48.8106646" lon="4.8711514"><ele>136.0</ele><time>2026-05-01T10:53:15.02Z</time></trkpt><trkpt lat="48.8106615" lon="4.8714866"><ele>136.33333333333334</ele><time>2026-05-01T10:53:16.022Z</time></trkpt><trkpt lat="48.8106702" lon="4.8718154"><ele>136.66666666666666</ele><time>2026-05-01T10:53:17.04Z</time></trkpt><trkpt lat="48.8106873" lon="4.8721634"><ele>137.0</ele><time>2026-05-01T10:53:18.023Z</time></trkpt><trkpt lat="48.8107" lon="4.8725075"><ele>137.5</ele><time>2026-05-01T10:53:19.022Z</time></trkpt><trkpt lat="48.8107153" lon="4.8728571"><ele>138.0</ele><time>2026-05-01T10:53:20.022Z</time></trkpt><trkpt lat="48.810721" lon="4.8732"><ele>138.0</ele><time>2026-05-01T10:53:21.021Z</time></trkpt><trkpt lat="48.8107307" lon="4.8735458"><ele>138.0</ele><time>2026-05-01T10:53:22.02Z</time></trkpt><trkpt lat="48.8107282" lon="4.8738882"><ele>138.0</ele><time>2026-05-01T10:53:23.021Z</time></trkpt><trkpt lat="48.8107167" lon="4.874228"><ele>138.0</ele><time>2026-05-01T10:53:24.029Z</time></trkpt><trkpt lat="48.8106933" lon="4.8745643"><ele>138.0</ele><time>2026-05-01T10:53:25.022Z</time></trkpt><trkpt lat="48.8106741" lon="4.8748972"><ele>138.0</ele><time>2026-05-01T10:53:26.025Z</time></trkpt><trkpt lat="48.8106597" lon="4.8752401"><ele>138.0</ele><time>2026-05-01T10:53:27.023Z</time></trkpt><trkpt lat="48.8106482" lon="4.8755757"><ele>138.0</ele><time>2026-05-01T10:53:28.017Z</time></trkpt><trkpt lat="48.8106444" lon="4.8759043"><ele>138.0</ele><time>2026-05-01T10:53:29.027Z</time></trkpt><trkpt lat="48.8106623" lon="4.8762385"><ele>138.0</ele><time>2026-05-01T10:53:30.015Z</time></trkpt><trkpt lat="48.8106929" lon="4.8765752"><ele>138.0</ele><time>2026-05-01T10:53:31.018Z</time></trkpt><trkpt lat="48.8107243" lon="4.8769103"><ele>138.33333333333334</ele><time>2026-05-01T10:53:32.016Z</time></trkpt><trkpt lat="48.8107641" lon="4.8772353"><ele>138.66666666666669</ele><time>2026-05-01T10:53:33.02Z</time></trkpt><trkpt lat="48.8108012" lon="4.8775417"><ele>139.0</ele><time>2026-05-01T10:53:34.019Z</time></trkpt><trkpt lat="48.8108333" lon="4.8778358"><ele>139.0</ele><time>2026-05-01T10:53:35.021Z</time></trkpt><trkpt lat="48.8108654" lon="4.8781186"><ele>139.0</ele><time>2026-05-01T10:53:36.014Z</time></trkpt><trkpt lat="48.8108803" lon="4.8784018"><ele>139.0</ele><time>2026-05-01T10:53:37.021Z</time></trkpt><trkpt lat="48.8108755" lon="4.8786898"><ele>139.33333333333334</ele><time>2026-05-01T10:53:38.015Z</time></trkpt><trkpt lat="48.8108471" lon="4.8789663"><ele>139.66666666666666</ele><time>2026-05-01T10:53:39.02Z</time></trkpt><trkpt lat="48.8108138" lon="4.8792401"><ele>140.0</ele><time>2026-05-01T10:53:40.019Z</time></trkpt><trkpt lat="48.810791" lon="4.8794861"><ele>140.25</ele><time>2026-05-01T10:53:41.041Z</time></trkpt><trkpt lat="48.8107711" lon="4.8797147"><ele>140.5</ele><time>2026-05-01T10:53:42.021Z</time></trkpt><trkpt lat="48.8107546" lon="4.8799345"><ele>140.75</ele><time>2026-05-01T10:53:43.027Z</time></trkpt><trkpt lat="48.8107336" lon="4.8801361"><ele>141.0</ele><time>2026-05-01T10:53:44.017Z</time></trkpt><trkpt lat="48.8107128" lon="4.8803333"><ele>141.2</ele><time>2026-05-01T10:53:45.017Z</time></trkpt><trkpt lat="48.8106947" lon="4.8805219"><ele>141.39999999999998</ele><time>2026-05-01T10:53:46.022Z</time></trkpt><trkpt lat="48.8106762" lon="4.8806915"><ele>141.6</ele><time>2026-05-01T10:53:47.019Z</time></trkpt><trkpt lat="48.8106527" lon="4.8808442"><ele>141.79999999999998</ele><time>2026-05-01T10:53:48.019Z</time></trkpt><trkpt lat="48.8106154" lon="4.8809887"><ele>142.0</ele><time>2026-05-01T10:53:49.028Z</time></trkpt><trkpt lat="48.8105669" lon="4.881123"><ele>142.0</ele><time>2026-05-01T10:53:50.025Z</time></trkpt><trkpt lat="48.8105007" lon="4.881242"><ele>142.0</ele><time>2026-05-01T10:53:51.019Z</time></trkpt><trkpt lat="48.810446" lon="4.8813451"><ele>142.0</ele><time>2026-05-01T10:53:52.019Z</time></trkpt><trkpt lat="48.8103934" lon="4.8814374"><ele>142.0</ele><time>2026-05-01T10:53:53.025Z</time></trkpt><trkpt lat="48.8103542" lon="4.8815243"><ele>142.0</ele><time>2026-05-01T10:53:54.024Z</time></trkpt><trkpt lat="48.8103118" lon="4.8816052"><ele>142.0</ele><time>2026-05-01T10:53:55.022Z</time></trkpt><trkpt lat="48.8102623" lon="4.8817014"><ele>141.85714285714286</ele><time>2026-05-01T10:53:56.024Z</time></trkpt><trkpt lat="48.8102134" lon="4.8817891"><ele>141.7142857142857</ele><time>2026-05-01T10:53:57.026Z</time></trkpt><trkpt lat="48.8101696" lon="4.8818599"><ele>141.57142857142856</ele><time>2026-05-01T10:53:58.024Z</time></trkpt><trkpt lat="48.8101264" lon="4.8819342"><ele>141.42857142857142</ele><time>2026-05-01T10:53:59.019Z</time></trkpt><trkpt lat="48.810086" lon="4.8820182"><ele>141.28571428571428</ele><time>2026-05-01T10:54:00.026Z</time></trkpt><trkpt lat="48.810041" lon="4.882102"><ele>141.14285714285714</ele><time>2026-05-01T10:54:01.017Z</time></trkpt><trkpt lat="48.809994" lon="4.8821929"><ele>141.0</ele><time>2026-05-01T10:54:02.02Z</time></trkpt><trkpt lat="48.8099445" lon="4.8822837"><ele>141.0</ele><time>2026-05-01T10:54:03.022Z</time></trkpt><trkpt lat="48.8098973" lon="4.8823846"><ele>141.0</ele><time>2026-05-01T10:54:04.014Z</time></trkpt><trkpt lat="48.8098481" lon="4.882478"><ele>141.0</ele><time>2026-05-01T10:54:05.022Z</time></trkpt><trkpt lat="48.8098013" lon="4.8825649"><ele>141.0</ele><time>2026-05-01T10:54:06.018Z</time></trkpt><trkpt lat="48.8097624" lon="4.8826463"><ele>141.0</ele><time>2026-05-01T10:54:07.019Z</time></trkpt><trkpt lat="48.8097209" lon="4.8827371"><ele>141.0</ele><time>2026-05-01T10:54:08.026Z</time></trkpt><trkpt lat="48.8096812" lon="4.8828347"><ele>141.0</ele><time>2026-05-01T10:54:09.02Z</time></trkpt><trkpt lat="48.8096405" lon="4.8829297"><ele>141.0</ele><time>2026-05-01T10:54:10.03Z</time></trkpt><trkpt lat="48.8095996" lon="4.8830271"><ele>141.0</ele><time>2026-05-01T10:54:11.021Z</time></trkpt><trkpt lat="48.8095612" lon="4.8831152"><ele>141.0</ele><time>2026-05-01T10:54:12.024Z</time></trkpt><trkpt lat="48.8095208" lon="4.8831956"><ele>141.0</ele><time>2026-05-01T10:54:13.028Z</time></trkpt><trkpt lat="48.8094812" lon="4.8832762"><ele>141.0</ele><time>2026-05-01T10:54:14.021Z</time></trkpt><trkpt lat="48.8094508" lon="4.8833638"><ele>141.0</ele><time>2026-05-01T10:54:15.052Z</time></trkpt><trkpt lat="48.8094087" lon="4.8835316"><ele>141.25</ele><time>2026-05-01T10:54:17.022Z</time></trkpt><trkpt lat="48.809373" lon="4.8836892"><ele>141.5</ele><time>2026-05-01T10:54:19.027Z</time></trkpt><trkpt lat="48.8093085" lon="4.8838389"><ele>141.75</ele><time>2026-05-01T10:54:21.022Z</time></trkpt><trkpt lat="48.8092097" lon="4.8839113"><ele>142.0</ele><time>2026-05-01T10:54:23.025Z</time></trkpt><trkpt lat="48.809103" lon="4.8838238"><ele>141.33333333333334</ele><time>2026-05-01T10:54:25.016Z</time></trkpt><trkpt lat="48.8090446" lon="4.8837661"><ele>140.66666666666669</ele><time>2026-05-01T10:54:26.036Z</time></trkpt><trkpt lat="48.8089336" lon="4.8836731"><ele>140.0</ele><time>2026-05-01T10:54:28.014Z</time></trkpt><trkpt lat="48.808862" lon="4.8836407"><ele>139.33333333333334</ele><time>2026-05-01T10:54:29.02Z</time></trkpt><trkpt lat="48.8087816" lon="4.883614"><ele>138.66666666666666</ele><time>2026-05-01T10:54:30.018Z</time></trkpt><trkpt lat="48.8086953" lon="4.8835969"><ele>138.0</ele><time>2026-05-01T10:54:31.021Z</time></trkpt><trkpt lat="48.8085996" lon="4.8836216"><ele>138.0</ele><time>2026-05-01T10:54:32.018Z</time></trkpt><trkpt lat="48.8084996" lon="4.8836618"><ele>138.0</ele><time>2026-05-01T10:54:33.019Z</time></trkpt><trkpt lat="48.8084055" lon="4.8837198"><ele>138.0</ele><time>2026-05-01T10:54:34.04Z</time></trkpt><trkpt lat="48.8083121" lon="4.883777"><ele>138.0</ele><time>2026-05-01T10:54:35.018Z</time></trkpt><trkpt lat="48.8082209" lon="4.8838575"><ele>138.0</ele><time>2026-05-01T10:54:36.011Z</time></trkpt><trkpt lat="48.8081317" lon="4.8839429"><ele>137.0</ele><time>2026-05-01T10:54:37.022Z</time></trkpt><trkpt lat="48.8080453" lon="4.8840387"><ele>136.0</ele><time>2026-05-01T10:54:38.023Z</time></trkpt><trkpt lat="48.8079699" lon="4.884136"><ele>135.0</ele><time>2026-05-01T10:54:39.019Z</time></trkpt><trkpt lat="48.8079009" lon="4.8842495"><ele>134.0</ele><time>2026-05-01T10:54:40.02Z</time></trkpt><trkpt lat="48.8078369" lon="4.8843614"><ele>133.0</ele><time>2026-05-01T10:54:41.025Z</time></trkpt><trkpt lat="48.807767" lon="4.8844755"><ele>131.75</ele><time>2026-05-01T10:54:42.019Z</time></trkpt><trkpt lat="48.8076886" lon="4.8845992"><ele>130.5</ele><time>2026-05-01T10:54:43.032Z</time></trkpt><trkpt lat="48.8076022" lon="4.8847181"><ele>129.25</ele><time>2026-05-01T10:54:44.025Z</time></trkpt><trkpt lat="48.8075155" lon="4.8848426"><ele>128.0</ele><time>2026-05-01T10:54:45.02Z</time></trkpt><trkpt lat="48.8074214" lon="4.8849586"><ele>127.25</ele><time>2026-05-01T10:54:46.025Z</time></trkpt><trkpt lat="48.8073213" lon="4.8850727"><ele>126.5</ele><time>2026-05-01T10:54:47.019Z</time></trkpt><trkpt lat="48.807214" lon="4.8851898"><ele>125.75</ele><time>2026-05-01T10:54:48.023Z</time></trkpt><trkpt lat="48.8070942" lon="4.8853063"><ele>125.0</ele><time>2026-05-01T10:54:49.017Z</time></trkpt><trkpt lat="48.8069672" lon="4.8854154"><ele>124.33333333333333</ele><time>2026-05-01T10:54:50.02Z</time></trkpt><trkpt lat="48.806825" lon="4.8855054"><ele>123.66666666666666</ele><time>2026-05-01T10:54:51.017Z</time></trkpt><trkpt lat="48.8066682" lon="4.8855924"><ele>123.0</ele><time>2026-05-01T10:54:52.031Z</time></trkpt><trkpt lat="48.8064994" lon="4.885668"><ele>123.0</ele><time>2026-05-01T10:54:53.023Z</time></trkpt><trkpt lat="48.8063243" lon="4.8857381"><ele>123.0</ele><time>2026-05-01T10:54:54.056Z</time></trkpt><trkpt lat="48.8061401" lon="4.8857906"><ele>123.0</ele><time>2026-05-01T10:54:55.026Z</time></trkpt><trkpt lat="48.8059499" lon="4.8858264"><ele>123.0</ele><time>2026-05-01T10:54:56.026Z</time></trkpt><trkpt lat="48.8057436" lon="4.8858601"><ele>123.0</ele><time>2026-05-01T10:54:57.02Z</time></trkpt><trkpt lat="48.8055132" lon="4.8859021"><ele>123.0</ele><time>2026-05-01T10:54:58.023Z</time></trkpt><trkpt lat="48.8052726" lon="4.8859383"><ele>123.5</ele><time>2026-05-01T10:54:59.024Z</time></trkpt><trkpt lat="48.8050209" lon="4.8859673"><ele>124.0</ele><time>2026-05-01T10:55:00.017Z</time></trkpt><trkpt lat="48.8047712" lon="4.8859798"><ele>124.0</ele><time>2026-05-01T10:55:01.022Z</time></trkpt><trkpt lat="48.8045272" lon="4.8860036"><ele>124.0</ele><time>2026-05-01T10:55:02.019Z</time></trkpt><trkpt lat="48.8042878" lon="4.8860305"><ele>124.0</ele><time>2026-05-01T10:55:03.019Z</time></trkpt><trkpt lat="48.8040483" lon="4.8860619"><ele>124.0</ele><time>2026-05-01T10:55:04.019Z</time></trkpt><trkpt lat="48.8038119" lon="4.8860832"><ele>124.0</ele><time>2026-05-01T10:55:05.017Z</time></trkpt><trkpt lat="48.8035831" lon="4.886115"><ele>124.0</ele><time>2026-05-01T10:55:06.019Z</time></trkpt><trkpt lat="48.8033537" lon="4.8861555"><ele>124.0</ele><time>2026-05-01T10:55:07.02Z</time></trkpt><trkpt lat="48.8031307" lon="4.8862151"><ele>124.0</ele><time>2026-05-01T10:55:08.018Z</time></trkpt><trkpt lat="48.8029169" lon="4.8862893"><ele>124.0</ele><time>2026-05-01T10:55:09.014Z</time></trkpt><trkpt lat="48.8027045" lon="4.8863821"><ele>124.0</ele><time>2026-05-01T10:55:10.027Z</time></trkpt><trkpt lat="48.8024865" lon="4.8864879"><ele>124.0</ele><time>2026-05-01T10:55:11.037Z</time></trkpt><trkpt lat="48.80227" lon="4.8865905"><ele>124.0</ele><time>2026-05-01T10:55:12.025Z</time></trkpt><trkpt lat="48.8020556" lon="4.8866964"><ele>124.0</ele><time>2026-05-01T10:55:13.025Z</time></trkpt><trkpt lat="48.8018427" lon="4.8868054"><ele>123.66666666666667</ele><time>2026-05-01T10:55:14.026Z</time></trkpt><trkpt lat="48.8016333" lon="4.8869078"><ele>123.33333333333334</ele><time>2026-05-01T10:55:15.016Z</time></trkpt><trkpt lat="48.8014266" lon="4.8870025"><ele>123.0</ele><time>2026-05-01T10:55:16.016Z</time></trkpt><trkpt lat="48.8012152" lon="4.8871059"><ele>123.0</ele><time>2026-05-01T10:55:17.024Z</time></trkpt><trkpt lat="48.8010095" lon="4.8871993"><ele>123.0</ele><time>2026-05-01T10:55:18.018Z</time></trkpt><trkpt lat="48.8007971" lon="4.8872885"><ele>123.0</ele><time>2026-05-01T10:55:19.026Z</time></trkpt><trkpt lat="48.8005868" lon="4.8873542"><ele>123.0</ele><time>2026-05-01T10:55:20.019Z</time></trkpt><trkpt lat="48.8003644" lon="4.8874001"><ele>123.0</ele><time>2026-05-01T10:55:21.02Z</time></trkpt><trkpt lat="48.8001438" lon="4.8874419"><ele>123.0</ele><time>2026-05-01T10:55:22.048Z</time></trkpt><trkpt lat="48.7999259" lon="4.8874799"><ele>123.33333333333334</ele><time>2026-05-01T10:55:23.026Z</time></trkpt><trkpt lat="48.7997056" lon="4.8875265"><ele>123.66666666666667</ele><time>2026-05-01T10:55:24.022Z</time></trkpt><trkpt lat="48.7994819" lon="4.8875695"><ele>124.0</ele><time>2026-05-01T10:55:25.019Z</time></trkpt><trkpt lat="48.7992579" lon="4.8876107"><ele>124.33333333333334</ele><time>2026-05-01T10:55:26.022Z</time></trkpt><trkpt lat="48.7990348" lon="4.8876527"><ele>124.66666666666666</ele><time>2026-05-01T10:55:27.02Z</time></trkpt><trkpt lat="48.7988171" lon="4.8876918"><ele>125.0</ele><time>2026-05-01T10:55:28.021Z</time></trkpt><trkpt lat="48.7985961" lon="4.8877309"><ele>125.0</ele><time>2026-05-01T10:55:29.025Z</time></trkpt><trkpt lat="48.7983764" lon="4.8877747"><ele>125.0</ele><time>2026-05-01T10:55:30.027Z</time></trkpt><trkpt lat="48.7981554" lon="4.8878213"><ele>125.0</ele><time>2026-05-01T10:55:31.019Z</time></trkpt><trkpt lat="48.7979336" lon="4.8878731"><ele>125.0</ele><time>2026-05-01T10:55:32.018Z</time></trkpt><trkpt lat="48.7977106" lon="4.8879246"><ele>125.0</ele><time>2026-05-01T10:55:33.025Z</time></trkpt><trkpt lat="48.79749" lon="4.887976"><ele>125.0</ele><time>2026-05-01T10:55:34.019Z</time></trkpt><trkpt lat="48.7972695" lon="4.8880347"><ele>125.0</ele><time>2026-05-01T10:55:35.018Z</time></trkpt><trkpt lat="48.7970511" lon="4.8880927"><ele>125.0</ele><time>2026-05-01T10:55:36.018Z</time></trkpt><trkpt lat="48.7968321" lon="4.8881494"><ele>125.0</ele><time>2026-05-01T10:55:37.029Z</time></trkpt><trkpt lat="48.796613" lon="4.8882096"><ele>124.33333333333333</ele><time>2026-05-01T10:55:38.022Z</time></trkpt><trkpt lat="48.7963932" lon="4.888268"><ele>123.66666666666666</ele><time>2026-05-01T10:55:39.026Z</time></trkpt><trkpt lat="48.796176" lon="4.888321"><ele>123.0</ele><time>2026-05-01T10:55:40.036Z</time></trkpt><trkpt lat="48.7959625" lon="4.8883393"><ele>123.0</ele><time>2026-05-01T10:55:41.02Z</time></trkpt><trkpt lat="48.7957472" lon="4.8883237"><ele>123.0</ele><time>2026-05-01T10:55:42.028Z</time></trkpt><trkpt lat="48.7955271" lon="4.8882794"><ele>123.0</ele><time>2026-05-01T10:55:43.02Z</time></trkpt><trkpt lat="48.7953199" lon="4.8882055"><ele>123.33333333333334</ele><time>2026-05-01T10:55:44.024Z</time></trkpt><trkpt lat="48.795114" lon="4.888109"><ele>123.66666666666667</ele><time>2026-05-01T10:55:45.018Z</time></trkpt><trkpt lat="48.7949062" lon="4.8880222"><ele>124.0</ele><time>2026-05-01T10:55:46.022Z</time></trkpt><trkpt lat="48.7947071" lon="4.8879287"><ele>124.0</ele><time>2026-05-01T10:55:47.02Z</time></trkpt><trkpt lat="48.7945143" lon="4.8878441"><ele>124.0</ele><time>2026-05-01T10:55:48.02Z</time></trkpt><trkpt lat="48.7943259" lon="4.887766"><ele>124.0</ele><time>2026-05-01T10:55:49.023Z</time></trkpt><trkpt lat="48.7941341" lon="4.887702"><ele>123.33333333333334</ele><time>2026-05-01T10:55:50.023Z</time></trkpt><trkpt lat="48.793938" lon="4.8876584"><ele>122.66666666666666</ele><time>2026-05-01T10:55:51.019Z</time></trkpt><trkpt lat="48.7937562" lon="4.8876519"><ele>122.0</ele><time>2026-05-01T10:55:52.02Z</time></trkpt><trkpt lat="48.7935801" lon="4.8876708"><ele>122.33333333333333</ele><time>2026-05-01T10:55:53.024Z</time></trkpt><trkpt lat="48.7934087" lon="4.8877115"><ele>122.66666666666666</ele><time>2026-05-01T10:55:54.016Z</time></trkpt><trkpt lat="48.7932507" lon="4.887772"><ele>123.0</ele><time>2026-05-01T10:55:55.016Z</time></trkpt><trkpt lat="48.7930983" lon="4.8878485"><ele>123.0</ele><time>2026-05-01T10:55:56.018Z</time></trkpt><trkpt lat="48.7929473" lon="4.8879461"><ele>123.0</ele><time>2026-05-01T10:55:57.023Z</time></trkpt><trkpt lat="48.7928021" lon="4.8880588"><ele>123.0</ele><time>2026-05-01T10:55:58.046Z</time></trkpt><trkpt lat="48.7926611" lon="4.8881863"><ele>123.0</ele><time>2026-05-01T10:55:59.019Z</time></trkpt><trkpt lat="48.7925295" lon="4.8883401"><ele>123.0</ele><time>2026-05-01T10:56:00.027Z</time></trkpt><trkpt lat="48.7924076" lon="4.8885234"><ele>123.0</ele><time>2026-05-01T10:56:01.024Z</time></trkpt><trkpt lat="48.7922842" lon="4.8887128"><ele>122.66666666666666</ele><time>2026-05-01T10:56:02.026Z</time></trkpt><trkpt lat="48.7921584" lon="4.8889141"><ele>122.33333333333333</ele><time>2026-05-01T10:56:03.02Z</time></trkpt><trkpt lat="48.7920358" lon="4.889116"><ele>122.0</ele><time>2026-05-01T10:56:04.02Z</time></trkpt><trkpt lat="48.7919053" lon="4.8893297"><ele>122.0</ele><time>2026-05-01T10:56:05.016Z</time></trkpt><trkpt lat="48.7917728" lon="4.889546"><ele>122.0</ele><time>2026-05-01T10:56:06.026Z</time></trkpt><trkpt lat="48.7916395" lon="4.8897665"><ele>122.0</ele><time>2026-05-01T10:56:07.022Z</time></trkpt><trkpt lat="48.7915052" lon="4.8899903"><ele>122.0</ele><time>2026-05-01T10:56:08.014Z</time></trkpt><trkpt lat="48.7913731" lon="4.8902159"><ele>122.0</ele><time>2026-05-01T10:56:09.02Z</time></trkpt><trkpt lat="48.7912418" lon="4.8904393"><ele>122.0</ele><time>2026-05-01T10:56:10.019Z</time></trkpt><trkpt lat="48.7911132" lon="4.8906684"><ele>122.0</ele><time>2026-05-01T10:56:11.025Z</time></trkpt><trkpt lat="48.7909887" lon="4.890902"><ele>122.0</ele><time>2026-05-01T10:56:12.023Z</time></trkpt><trkpt lat="48.7908689" lon="4.8911341"><ele>122.0</ele><time>2026-05-01T10:56:13.025Z</time></trkpt><trkpt lat="48.7907556" lon="4.8913777"><ele>122.0</ele><time>2026-05-01T10:56:14.019Z</time></trkpt><trkpt lat="48.7906414" lon="4.8916399"><ele>122.0</ele><time>2026-05-01T10:56:15.021Z</time></trkpt><trkpt lat="48.7905241" lon="4.8919345"><ele>122.0</ele><time>2026-05-01T10:56:16.026Z</time></trkpt><trkpt lat="48.790399" lon="4.8922435"><ele>122.0</ele><time>2026-05-01T10:56:17.027Z</time></trkpt><trkpt lat="48.7902724" lon="4.8925535"><ele>122.0</ele><time>2026-05-01T10:56:18.014Z</time></trkpt><trkpt lat="48.790131" lon="4.8928635"><ele>122.0</ele><time>2026-05-01T10:56:19.013Z</time></trkpt><trkpt lat="48.7899964" lon="4.8931562"><ele>122.0</ele><time>2026-05-01T10:56:20.027Z</time></trkpt><trkpt lat="48.7898649" lon="4.893435"><ele>122.0</ele><time>2026-05-01T10:56:21.019Z</time></trkpt><trkpt lat="48.7897459" lon="4.8937121"><ele>122.0</ele><time>2026-05-01T10:56:22.05Z</time></trkpt><trkpt lat="48.7896215" lon="4.8939841"><ele>122.0</ele><time>2026-05-01T10:56:23.021Z</time></trkpt><trkpt lat="48.789495" lon="4.89424"><ele>122.33333333333333</ele><time>2026-05-01T10:56:24.02Z</time></trkpt><trkpt lat="48.7893806" lon="4.894494"><ele>122.66666666666666</ele><time>2026-05-01T10:56:25.02Z</time></trkpt><trkpt lat="48.7892892" lon="4.8947566"><ele>123.0</ele><time>2026-05-01T10:56:26.022Z</time></trkpt><trkpt lat="48.7892133" lon="4.8950404"><ele>123.33333333333334</ele><time>2026-05-01T10:56:27.021Z</time></trkpt><trkpt lat="48.7891666" lon="4.8953262"><ele>123.66666666666667</ele><time>2026-05-01T10:56:28.025Z</time></trkpt><trkpt lat="48.7891583" lon="4.8956445"><ele>124.0</ele><time>2026-05-01T10:56:29.029Z</time></trkpt><trkpt lat="48.7891591" lon="4.8959517"><ele>124.0</ele><time>2026-05-01T10:56:30.021Z</time></trkpt><trkpt lat="48.7891599" lon="4.8962735"><ele>124.0</ele><time>2026-05-01T10:56:31.018Z</time></trkpt><trkpt lat="48.7891589" lon="4.8966004"><ele>124.0</ele><time>2026-05-01T10:56:32.018Z</time></trkpt><trkpt lat="48.7891569" lon="4.8969327"><ele>124.0</ele><time>2026-05-01T10:56:33.024Z</time></trkpt><trkpt lat="48.7891559" lon="4.8972641"><ele>124.0</ele><time>2026-05-01T10:56:34.02Z</time></trkpt><trkpt lat="48.7891588" lon="4.8975933"><ele>124.0</ele><time>2026-05-01T10:56:35.015Z</time></trkpt><trkpt lat="48.7891587" lon="4.8979264"><ele>124.0</ele><time>2026-05-01T10:56:36.021Z</time></trkpt><trkpt lat="48.7891579" lon="4.8982535"><ele>124.0</ele><time>2026-05-01T10:56:37.025Z</time></trkpt><trkpt lat="48.7891532" lon="4.8985747"><ele>124.0</ele><time>2026-05-01T10:56:38.017Z</time></trkpt><trkpt lat="48.7891544" lon="4.8988978"><ele>125.0</ele><time>2026-05-01T10:56:39.023Z</time></trkpt><trkpt lat="48.7891572" lon="4.8992157"><ele>126.0</ele><time>2026-05-01T10:56:40.014Z</time></trkpt><trkpt lat="48.7891621" lon="4.8995324"><ele>127.0</ele><time>2026-05-01T10:56:41.02Z</time></trkpt><trkpt lat="48.7891603" lon="4.8998562"><ele>127.66666666666667</ele><time>2026-05-01T10:56:42.015Z</time></trkpt><trkpt lat="48.7891609" lon="4.9001768"><ele>128.33333333333334</ele><time>2026-05-01T10:56:43.024Z</time></trkpt><trkpt lat="48.7891653" lon="4.9004947"><ele>129.0</ele><time>2026-05-01T10:56:44.024Z</time></trkpt><trkpt lat="48.7891755" lon="4.9008125"><ele>128.66666666666666</ele><time>2026-05-01T10:56:45.014Z</time></trkpt><trkpt lat="48.7891944" lon="4.9011325"><ele>128.33333333333331</ele><time>2026-05-01T10:56:46.029Z</time></trkpt><trkpt lat="48.7892219" lon="4.9014531"><ele>128.0</ele><time>2026-05-01T10:56:47.026Z</time></trkpt><trkpt lat="48.7892533" lon="4.901773"><ele>127.33333333333333</ele><time>2026-05-01T10:56:48.019Z</time></trkpt><trkpt lat="48.7892877" lon="4.9020962"><ele>126.66666666666666</ele><time>2026-05-01T10:56:49.026Z</time></trkpt><trkpt lat="48.7893169" lon="4.9024146"><ele>126.0</ele><time>2026-05-01T10:56:50.018Z</time></trkpt><trkpt lat="48.7893459" lon="4.9027292"><ele>125.66666666666666</ele><time>2026-05-01T10:56:51.023Z</time></trkpt><trkpt lat="48.7893769" lon="4.9030365"><ele>125.33333333333333</ele><time>2026-05-01T10:56:52.017Z</time></trkpt><trkpt lat="48.7894028" lon="4.9033326"><ele>125.0</ele><time>2026-05-01T10:56:53.013Z</time></trkpt><trkpt lat="48.7894288" lon="4.9036118"><ele>125.0</ele><time>2026-05-01T10:56:54.018Z</time></trkpt><trkpt lat="48.7894498" lon="4.9038726"><ele>125.0</ele><time>2026-05-01T10:56:55.021Z</time></trkpt><trkpt lat="48.7894835" lon="4.9041108"><ele>125.0</ele><time>2026-05-01T10:56:56.021Z</time></trkpt><trkpt lat="48.7895317" lon="4.9043338"><ele>125.25</ele><time>2026-05-01T10:56:57.022Z</time></trkpt><trkpt lat="48.789602" lon="4.9045307"><ele>125.5</ele><time>2026-05-01T10:56:58.022Z</time></trkpt><trkpt lat="48.7896761" lon="4.9047057"><ele>125.75</ele><time>2026-05-01T10:56:59.06Z</time></trkpt><trkpt lat="48.7897424" lon="4.904856"><ele>126.0</ele><time>2026-05-01T10:57:00.019Z</time></trkpt><trkpt lat="48.7897945" lon="4.904988"><ele>126.0</ele><time>2026-05-01T10:57:01.02Z</time></trkpt><trkpt lat="48.7898191" lon="4.9051149"><ele>126.0</ele><time>2026-05-01T10:57:02.023Z</time></trkpt><trkpt lat="48.7898227" lon="4.9052367"><ele>126.0</ele><time>2026-05-01T10:57:03.022Z</time></trkpt><trkpt lat="48.7897946" lon="4.9053501"><ele>126.0</ele><time>2026-05-01T10:57:04.026Z</time></trkpt><trkpt lat="48.7897324" lon="4.9054606"><ele>126.0</ele><time>2026-05-01T10:57:05.024Z</time></trkpt><trkpt lat="48.7896481" lon="4.9055259"><ele>126.0</ele><time>2026-05-01T10:57:06.023Z</time></trkpt><trkpt lat="48.7895531" lon="4.905555"><ele>126.0</ele><time>2026-05-01T10:57:07.016Z</time></trkpt><trkpt lat="48.7894412" lon="4.9055688"><ele>126.0</ele><time>2026-05-01T10:57:08.015Z</time></trkpt><trkpt lat="48.7893347" lon="4.9055882"><ele>126.0</ele><time>2026-05-01T10:57:09.017Z</time></trkpt><trkpt lat="48.7892151" lon="4.9056146"><ele>126.0</ele><time>2026-05-01T10:57:10.033Z</time></trkpt><trkpt lat="48.7890933" lon="4.9056366"><ele>126.25</ele><time>2026-05-01T10:57:11.021Z</time></trkpt><trkpt lat="48.7889669" lon="4.9056518"><ele>126.5</ele><time>2026-05-01T10:57:12.016Z</time></trkpt><trkpt lat="48.7888412" lon="4.9056656"><ele>126.75</ele><time>2026-05-01T10:57:13.021Z</time></trkpt><trkpt lat="48.7887166" lon="4.9056826"><ele>127.0</ele><time>2026-05-01T10:57:14.031Z</time></trkpt><trkpt lat="48.7885976" lon="4.9056952"><ele>126.75</ele><time>2026-05-01T10:57:15.019Z</time></trkpt><trkpt lat="48.7884787" lon="4.9057146"><ele>126.5</ele><time>2026-05-01T10:57:16.024Z</time></trkpt><trkpt lat="48.7883645" lon="4.905727"><ele>126.25</ele><time>2026-05-01T10:57:17.031Z</time></trkpt><trkpt lat="48.7882462" lon="4.9057457"><ele>126.0</ele><time>2026-05-01T10:57:18.022Z</time></trkpt><trkpt lat="48.7881276" lon="4.9057704"><ele>126.0</ele><time>2026-05-01T10:57:19.017Z</time></trkpt><trkpt lat="48.7880055" lon="4.9057785"><ele>126.0</ele><time>2026-05-01T10:57:20.022Z</time></trkpt><trkpt lat="48.7878856" lon="4.9057919"><ele>126.0</ele><time>2026-05-01T10:57:21.032Z</time></trkpt><trkpt lat="48.7877665" lon="4.9058045"><ele>126.0</ele><time>2026-05-01T10:57:22.022Z</time></trkpt><trkpt lat="48.7876551" lon="4.9058158"><ele>125.8</ele><time>2026-05-01T10:57:23.013Z</time></trkpt><trkpt lat="48.7875454" lon="4.9058522"><ele>125.6</ele><time>2026-05-01T10:57:24.049Z</time></trkpt><trkpt lat="48.7874611" lon="4.9059335"><ele>125.4</ele><time>2026-05-01T10:57:25.027Z</time></trkpt><trkpt lat="48.7874026" lon="4.9060796"><ele>125.2</ele><time>2026-05-01T10:57:26.019Z</time></trkpt><trkpt lat="48.7873713" lon="4.9062446"><ele>125.0</ele><time>2026-05-01T10:57:27.015Z</time></trkpt><trkpt lat="48.7873276" lon="4.9064076"><ele>125.0</ele><time>2026-05-01T10:57:28.017Z</time></trkpt><trkpt lat="48.7872719" lon="4.9065691"><ele>125.0</ele><time>2026-05-01T10:57:29.016Z</time></trkpt><trkpt lat="48.7872181" lon="4.9067377"><ele>125.0</ele><time>2026-05-01T10:57:30.014Z</time></trkpt><trkpt lat="48.7871581" lon="4.9069073"><ele>125.0</ele><time>2026-05-01T10:57:31.021Z</time></trkpt><trkpt lat="48.7870926" lon="4.9070604"><ele>125.0</ele><time>2026-05-01T10:57:32.019Z</time></trkpt><trkpt lat="48.7870106" lon="4.9071883"><ele>125.0</ele><time>2026-05-01T10:57:33.018Z</time></trkpt><trkpt lat="48.7869261" lon="4.907305"><ele>125.0</ele><time>2026-05-01T10:57:34.015Z</time></trkpt><trkpt lat="48.7868489" lon="4.9074134"><ele>125.0</ele><time>2026-05-01T10:57:35.019Z</time></trkpt><trkpt lat="48.7867699" lon="4.9075139"><ele>125.0</ele><time>2026-05-01T10:57:36.019Z</time></trkpt><trkpt lat="48.7867003" lon="4.9076129"><ele>125.4</ele><time>2026-05-01T10:57:37.023Z</time></trkpt><trkpt lat="48.7866232" lon="4.9077027"><ele>125.8</ele><time>2026-05-01T10:57:38.019Z</time></trkpt><trkpt lat="48.7865549" lon="4.9077911"><ele>126.19999999999999</ele><time>2026-05-01T10:57:39.022Z</time></trkpt><trkpt lat="48.7864841" lon="4.9078729"><ele>126.6</ele><time>2026-05-01T10:57:40.019Z</time></trkpt><trkpt lat="48.7864252" lon="4.9079776"><ele>127.0</ele><time>2026-05-01T10:57:41.018Z</time></trkpt><trkpt lat="48.7863844" lon="4.9081109"><ele>127.0</ele><time>2026-05-01T10:57:42.018Z</time></trkpt><trkpt lat="48.7863781" lon="4.9082396"><ele>126.99999999999999</ele><time>2026-05-01T10:57:43.016Z</time></trkpt><trkpt lat="48.7864008" lon="4.9083965"><ele>126.99999999999999</ele><time>2026-05-01T10:57:44.017Z</time></trkpt><trkpt lat="48.7864388" lon="4.9085433"><ele>127.0</ele><time>2026-05-01T10:57:45.019Z</time></trkpt><trkpt lat="48.7864841" lon="4.9087028"><ele>127.0</ele><time>2026-05-01T10:57:46.036Z</time></trkpt><trkpt lat="48.7865315" lon="4.9088563"><ele>127.0</ele><time>2026-05-01T10:57:47.022Z</time></trkpt><trkpt lat="48.7865823" lon="4.9089922"><ele>126.99999999999999</ele><time>2026-05-01T10:57:48.033Z</time></trkpt><trkpt lat="48.7866236" lon="4.9091339"><ele>126.99999999999999</ele><time>2026-05-01T10:57:49.021Z</time></trkpt><trkpt lat="48.786606" lon="4.9092693"><ele>127.0</ele><time>2026-05-01T10:57:50.021Z</time></trkpt><trkpt lat="48.7865049" lon="4.9093954"><ele>127.0</ele><time>2026-05-01T10:57:51.021Z</time></trkpt><trkpt lat="48.786425" lon="4.9095057"><ele>126.75</ele><time>2026-05-01T10:57:52.024Z</time></trkpt><trkpt lat="48.786348" lon="4.909624"><ele>126.5</ele><time>2026-05-01T10:57:53.026Z</time></trkpt><trkpt lat="48.7862708" lon="4.9097427"><ele>126.25</ele><time>2026-05-01T10:57:54.018Z</time></trkpt><trkpt lat="48.786179" lon="4.9098626"><ele>126.0</ele><time>2026-05-01T10:57:55.016Z</time></trkpt><trkpt lat="48.7860966" lon="4.9099848"><ele>126.75</ele><time>2026-05-01T10:57:56.022Z</time></trkpt><trkpt lat="48.7860057" lon="4.9101034"><ele>127.5</ele><time>2026-05-01T10:57:57.015Z</time></trkpt><trkpt lat="48.7859163" lon="4.9102111"><ele>128.25</ele><time>2026-05-01T10:57:58.02Z</time></trkpt><trkpt lat="48.7858276" lon="4.910308"><ele>129.0</ele><time>2026-05-01T10:57:59.02Z</time></trkpt><trkpt lat="48.7857344" lon="4.9104108"><ele>129.0</ele><time>2026-05-01T10:58:00.024Z</time></trkpt><trkpt lat="48.7856354" lon="4.9104967"><ele>129.0</ele><time>2026-05-01T10:58:01.021Z</time></trkpt><trkpt lat="48.7855371" lon="4.9105709"><ele>129.0</ele><time>2026-05-01T10:58:02.018Z</time></trkpt><trkpt lat="48.7854435" lon="4.9106484"><ele>129.0</ele><time>2026-05-01T10:58:03.023Z</time></trkpt><trkpt lat="48.7853523" lon="4.9107432"><ele>129.0</ele><time>2026-05-01T10:58:04.017Z</time></trkpt><trkpt lat="48.7852559" lon="4.9108349"><ele>129.6</ele><time>2026-05-01T10:58:05.014Z</time></trkpt><trkpt lat="48.7851698" lon="4.9109237"><ele>130.2</ele><time>2026-05-01T10:58:06.022Z</time></trkpt><trkpt lat="48.7850813" lon="4.9110145"><ele>130.79999999999998</ele><time>2026-05-01T10:58:07.015Z</time></trkpt><trkpt lat="48.7849911" lon="4.911092"><ele>131.4</ele><time>2026-05-01T10:58:08.013Z</time></trkpt><trkpt lat="48.7849134" lon="4.9111923"><ele>132.0</ele><time>2026-05-01T10:58:09.022Z</time></trkpt><trkpt lat="48.784844" lon="4.9113108"><ele>132.0</ele><time>2026-05-01T10:58:10.025Z</time></trkpt><trkpt lat="48.784777" lon="4.9114265"><ele>132.0</ele><time>2026-05-01T10:58:11.018Z</time></trkpt><trkpt lat="48.7847118" lon="4.9115233"><ele>132.0</ele><time>2026-05-01T10:58:12.027Z</time></trkpt><trkpt lat="48.7846535" lon="4.9116062"><ele>132.0</ele><time>2026-05-01T10:58:13.022Z</time></trkpt><trkpt lat="48.7846046" lon="4.9116698"><ele>132.0</ele><time>2026-05-01T10:58:14.016Z</time></trkpt><trkpt lat="48.7845503" lon="4.9117686"><ele>132.0</ele><time>2026-05-01T10:58:16.021Z</time></trkpt><trkpt lat="48.7844994" lon="4.9118675"><ele>132.2</ele><time>2026-05-01T10:58:26.018Z</time></trkpt><trkpt lat="48.7845357" lon="4.9120533"><ele>132.39999999999998</ele><time>2026-05-01T10:58:28.021Z</time></trkpt><trkpt lat="48.7845784" lon="4.9121557"><ele>132.60000000000002</ele><time>2026-05-01T10:58:29.02Z</time></trkpt><trkpt lat="48.7846144" lon="4.9122627"><ele>132.8</ele><time>2026-05-01T10:58:30.023Z</time></trkpt><trkpt lat="48.7846579" lon="4.9123991"><ele>133.0</ele><time>2026-05-01T10:58:31.015Z</time></trkpt><trkpt lat="48.7847034" lon="4.9125362"><ele>133.20000000000002</ele><time>2026-05-01T10:58:32.029Z</time></trkpt><trkpt lat="48.7847483" lon="4.9126862"><ele>133.4</ele><time>2026-05-01T10:58:33.023Z</time></trkpt><trkpt lat="48.7847931" lon="4.9128329"><ele>133.60000000000002</ele><time>2026-05-01T10:58:34.016Z</time></trkpt><trkpt lat="48.7848332" lon="4.9129857"><ele>133.8</ele><time>2026-05-01T10:58:35.029Z</time></trkpt><trkpt lat="48.7848697" lon="4.9131355"><ele>134.0</ele><time>2026-05-01T10:58:36.02Z</time></trkpt><trkpt lat="48.7849025" lon="4.9132856"><ele>134.0</ele><time>2026-05-01T10:58:37.017Z</time></trkpt><trkpt lat="48.7849345" lon="4.9134351"><ele>134.0</ele><time>2026-05-01T10:58:38.017Z</time></trkpt><trkpt lat="48.7849683" lon="4.9135855"><ele>134.0</ele><time>2026-05-01T10:58:39.011Z</time></trkpt><trkpt lat="48.7850024" lon="4.9137407"><ele>134.0</ele><time>2026-05-01T10:58:40.021Z</time></trkpt><trkpt lat="48.7850418" lon="4.9138953"><ele>134.0</ele><time>2026-05-01T10:58:41.023Z</time></trkpt><trkpt lat="48.7850786" lon="4.9140569"><ele>134.0</ele><time>2026-05-01T10:58:42.013Z</time></trkpt><trkpt lat="48.7851232" lon="4.9142232"><ele>134.0</ele><time>2026-05-01T10:58:43.021Z</time></trkpt><trkpt lat="48.7851724" lon="4.9143853"><ele>134.0</ele><time>2026-05-01T10:58:44.02Z</time></trkpt><trkpt lat="48.785222" lon="4.9145474"><ele>134.0</ele><time>2026-05-01T10:58:45.016Z</time></trkpt><trkpt lat="48.7852695" lon="4.914708"><ele>133.0</ele><time>2026-05-01T10:58:46.02Z</time></trkpt><trkpt lat="48.7853196" lon="4.9148665"><ele>132.0</ele><time>2026-05-01T10:58:47.02Z</time></trkpt><trkpt lat="48.7853736" lon="4.9150276"><ele>131.0</ele><time>2026-05-01T10:58:48.01Z</time></trkpt><trkpt lat="48.7854245" lon="4.9151864"><ele>130.0</ele><time>2026-05-01T10:58:49.019Z</time></trkpt><trkpt lat="48.7854654" lon="4.9153561"><ele>130.0</ele><time>2026-05-01T10:58:50.02Z</time></trkpt><trkpt lat="48.7855092" lon="4.9155269"><ele>130.0</ele><time>2026-05-01T10:58:51.016Z</time></trkpt><trkpt lat="48.7855498" lon="4.9156981"><ele>130.0</ele><time>2026-05-01T10:58:52.021Z</time></trkpt><trkpt lat="48.7855916" lon="4.915862"><ele>130.0</ele><time>2026-05-01T10:58:53.018Z</time></trkpt><trkpt lat="48.7856271" lon="4.9160247"><ele>130.25</ele><time>2026-05-01T10:58:54.022Z</time></trkpt><trkpt lat="48.78567" lon="4.9161976"><ele>130.5</ele><time>2026-05-01T10:58:55.017Z</time></trkpt><trkpt lat="48.7857119" lon="4.9163667"><ele>130.75</ele><time>2026-05-01T10:58:56.018Z</time></trkpt><trkpt lat="48.7857558" lon="4.916542"><ele>131.0</ele><time>2026-05-01T10:58:57.016Z</time></trkpt><trkpt lat="48.7857996" lon="4.9167239"><ele>131.25</ele><time>2026-05-01T10:58:58.021Z</time></trkpt><trkpt lat="48.785841" lon="4.9168946"><ele>131.5</ele><time>2026-05-01T10:58:59.02Z</time></trkpt><trkpt lat="48.7858811" lon="4.917067"><ele>131.75</ele><time>2026-05-01T10:59:00.022Z</time></trkpt><trkpt lat="48.7859184" lon="4.9172402"><ele>132.0</ele><time>2026-05-01T10:59:01.015Z</time></trkpt><trkpt lat="48.7859506" lon="4.9174156"><ele>131.5</ele><time>2026-05-01T10:59:02.021Z</time></trkpt><trkpt lat="48.785983" lon="4.9175849"><ele>131.0</ele><time>2026-05-01T10:59:03.016Z</time></trkpt><trkpt lat="48.7860203" lon="4.9177633"><ele>130.5</ele><time>2026-05-01T10:59:04.02Z</time></trkpt><trkpt lat="48.7860587" lon="4.9179451"><ele>130.0</ele><time>2026-05-01T10:59:05.018Z</time></trkpt><trkpt lat="48.7860925" lon="4.9181327"><ele>130.0</ele><time>2026-05-01T10:59:06.021Z</time></trkpt><trkpt lat="48.7861274" lon="4.9183131"><ele>130.0</ele><time>2026-05-01T10:59:07.014Z</time></trkpt><trkpt lat="48.7861591" lon="4.9184962"><ele>130.0</ele><time>2026-05-01T10:59:08.024Z</time></trkpt><trkpt lat="48.7861925" lon="4.9186718"><ele>130.0</ele><time>2026-05-01T10:59:09.025Z</time></trkpt><trkpt lat="48.7862295" lon="4.9188524"><ele>129.75</ele><time>2026-05-01T10:59:10.017Z</time></trkpt><trkpt lat="48.786263" lon="4.9190259"><ele>129.5</ele><time>2026-05-01T10:59:11.026Z</time></trkpt><trkpt lat="48.7862971" lon="4.9191984"><ele>129.25</ele><time>2026-05-01T10:59:12.028Z</time></trkpt><trkpt lat="48.786327" lon="4.9193705"><ele>129.0</ele><time>2026-05-01T10:59:13.027Z</time></trkpt><trkpt lat="48.7863611" lon="4.9195376"><ele>129.0</ele><time>2026-05-01T10:59:14.02Z</time></trkpt><trkpt lat="48.786394" lon="4.9197155"><ele>129.0</ele><time>2026-05-01T10:59:15.037Z</time></trkpt><trkpt lat="48.7864257" lon="4.9198909"><ele>129.0</ele><time>2026-05-01T10:59:16.018Z</time></trkpt><trkpt lat="48.7864571" lon="4.9200663"><ele>129.0</ele><time>2026-05-01T10:59:17.019Z</time></trkpt><trkpt lat="48.7864837" lon="4.9202366"><ele>129.25</ele><time>2026-05-01T10:59:18.017Z</time></trkpt><trkpt lat="48.7865113" lon="4.9204083"><ele>129.5</ele><time>2026-05-01T10:59:19.015Z</time></trkpt><trkpt lat="48.7865307" lon="4.9205862"><ele>129.75</ele><time>2026-05-01T10:59:20.022Z</time></trkpt><trkpt lat="48.7865426" lon="4.9207706"><ele>130.0</ele><time>2026-05-01T10:59:21.022Z</time></trkpt><trkpt lat="48.786541" lon="4.9209572"><ele>130.0</ele><time>2026-05-01T10:59:22.025Z</time></trkpt><trkpt lat="48.7865297" lon="4.9211411"><ele>130.0</ele><time>2026-05-01T10:59:23.024Z</time></trkpt><trkpt lat="48.7864968" lon="4.9213277"><ele>130.0</ele><time>2026-05-01T10:59:24.019Z</time></trkpt><trkpt lat="48.786457" lon="4.921508"><ele>130.0</ele><time>2026-05-01T10:59:25.019Z</time></trkpt><trkpt lat="48.7864043" lon="4.921681"><ele>130.25</ele><time>2026-05-01T10:59:26.025Z</time></trkpt><trkpt lat="48.7863521" lon="4.9218608"><ele>130.5</ele><time>2026-05-01T10:59:27.023Z</time></trkpt><trkpt lat="48.786296" lon="4.9220472"><ele>130.75</ele><time>2026-05-01T10:59:28.02Z</time></trkpt><trkpt lat="48.7862432" lon="4.92223"><ele>131.0</ele><time>2026-05-01T10:59:29.019Z</time></trkpt><trkpt lat="48.7861883" lon="4.9224161"><ele>131.0</ele><time>2026-05-01T10:59:30.019Z</time></trkpt><trkpt lat="48.7861329" lon="4.922596"><ele>131.0</ele><time>2026-05-01T10:59:31.023Z</time></trkpt><trkpt lat="48.7860764" lon="4.9227701"><ele>131.0</ele><time>2026-05-01T10:59:32.02Z</time></trkpt><trkpt lat="48.7860157" lon="4.9229457"><ele>131.0</ele><time>2026-05-01T10:59:33.019Z</time></trkpt><trkpt lat="48.7859556" lon="4.9231192"><ele>131.0</ele><time>2026-05-01T10:59:34.016Z</time></trkpt><trkpt lat="48.7858962" lon="4.9232966"><ele>131.0</ele><time>2026-05-01T10:59:35.015Z</time></trkpt><trkpt lat="48.7858412" lon="4.9234721"><ele>131.0</ele><time>2026-05-01T10:59:36.024Z</time></trkpt><trkpt lat="48.7857799" lon="4.9236573"><ele>131.0</ele><time>2026-05-01T10:59:37.018Z</time></trkpt><trkpt lat="48.7857167" lon="4.9238389"><ele>131.25</ele><time>2026-05-01T10:59:38.011Z</time></trkpt><trkpt lat="48.7856561" lon="4.924024"><ele>131.5</ele><time>2026-05-01T10:59:39.011Z</time></trkpt><trkpt lat="48.7855939" lon="4.9242076"><ele>131.75</ele><time>2026-05-01T10:59:40.017Z</time></trkpt><trkpt lat="48.7855311" lon="4.9243902"><ele>132.0</ele><time>2026-05-01T10:59:41.013Z</time></trkpt><trkpt lat="48.7854667" lon="4.9245697"><ele>133.25</ele><time>2026-05-01T10:59:42.023Z</time></trkpt><trkpt lat="48.7854031" lon="4.9247513"><ele>134.5</ele><time>2026-05-01T10:59:43.029Z</time></trkpt><trkpt lat="48.7853317" lon="4.9249327"><ele>135.75</ele><time>2026-05-01T10:59:44.017Z</time></trkpt><trkpt lat="48.7852611" lon="4.9251122"><ele>137.0</ele><time>2026-05-01T10:59:45.017Z</time></trkpt><trkpt lat="48.7851875" lon="4.9252848"><ele>136.5</ele><time>2026-05-01T10:59:46.024Z</time></trkpt><trkpt lat="48.7851112" lon="4.9254518"><ele>136.0</ele><time>2026-05-01T10:59:47.02Z</time></trkpt><trkpt lat="48.7850345" lon="4.9256056"><ele>135.5</ele><time>2026-05-01T10:59:48.014Z</time></trkpt><trkpt lat="48.7849514" lon="4.925762"><ele>135.0</ele><time>2026-05-01T10:59:49.026Z</time></trkpt><trkpt lat="48.7848529" lon="4.9259196"><ele>136.0</ele><time>2026-05-01T10:59:50.027Z</time></trkpt><trkpt lat="48.7847538" lon="4.9260789"><ele>137.0</ele><time>2026-05-01T10:59:51.021Z</time></trkpt><trkpt lat="48.7846533" lon="4.9262389"><ele>138.0</ele><time>2026-05-01T10:59:52.032Z</time></trkpt><trkpt lat="48.7845573" lon="4.9263809"><ele>139.0</ele><time>2026-05-01T10:59:53.018Z</time></trkpt><trkpt lat="48.7844732" lon="4.9265156"><ele>139.0</ele><time>2026-05-01T10:59:54.017Z</time></trkpt><trkpt lat="48.7843924" lon="4.9266441"><ele>139.0</ele><time>2026-05-01T10:59:55.065Z</time></trkpt><trkpt lat="48.78431" lon="4.9267687"><ele>139.0</ele><time>2026-05-01T10:59:56.02Z</time></trkpt><trkpt lat="48.7842272" lon="4.9269008"><ele>139.0</ele><time>2026-05-01T10:59:57.016Z</time></trkpt><trkpt lat="48.7841459" lon="4.9270318"><ele>138.5</ele><time>2026-05-01T10:59:58.02Z</time></trkpt><trkpt lat="48.7840569" lon="4.9271846"><ele>138.0</ele><time>2026-05-01T10:59:59.021Z</time></trkpt><trkpt lat="48.7839644" lon="4.9273559"><ele>137.5</ele><time>2026-05-01T11:00:00.019Z</time></trkpt><trkpt lat="48.7838774" lon="4.927546"><ele>137.0</ele><time>2026-05-01T11:00:01.03Z</time></trkpt><trkpt lat="48.783796" lon="4.9277429"><ele>139.0</ele><time>2026-05-01T11:00:02.023Z</time></trkpt><trkpt lat="48.7837195" lon="4.927953"><ele>141.0</ele><time>2026-05-01T11:00:03.02Z</time></trkpt><trkpt lat="48.7836441" lon="4.928176"><ele>143.0</ele><time>2026-05-01T11:00:04.023Z</time></trkpt><trkpt lat="48.7835769" lon="4.9284149"><ele>144.0</ele><time>2026-05-01T11:00:05.015Z</time></trkpt><trkpt lat="48.7835208" lon="4.9286617"><ele>145.0</ele><time>2026-05-01T11:00:06.016Z</time></trkpt><trkpt lat="48.7834757" lon="4.9289101"><ele>146.0</ele><time>2026-05-01T11:00:07.021Z</time></trkpt><trkpt lat="48.7834355" lon="4.9291737"><ele>143.0</ele><time>2026-05-01T11:00:08.016Z</time></trkpt><trkpt lat="48.7834002" lon="4.9294396"><ele>140.0</ele><time>2026-05-01T11:00:09.008Z</time></trkpt><trkpt lat="48.7833681" lon="4.9297032"><ele>137.0</ele><time>2026-05-01T11:00:10.017Z</time></trkpt><trkpt lat="48.7833278" lon="4.9299629"><ele>137.66666666666666</ele><time>2026-05-01T11:00:11.027Z</time></trkpt><trkpt lat="48.7832946" lon="4.9302323"><ele>138.33333333333334</ele><time>2026-05-01T11:00:12.017Z</time></trkpt><trkpt lat="48.783264" lon="4.9305044"><ele>139.0</ele><time>2026-05-01T11:00:13.018Z</time></trkpt><trkpt lat="48.7832431" lon="4.9307828"><ele>138.66666666666669</ele><time>2026-05-01T11:00:14.017Z</time></trkpt><trkpt lat="48.7832346" lon="4.9310632"><ele>138.33333333333334</ele><time>2026-05-01T11:00:15.016Z</time></trkpt><trkpt lat="48.7832373" lon="4.9313436"><ele>138.0</ele><time>2026-05-01T11:00:16.015Z</time></trkpt><trkpt lat="48.7832508" lon="4.9316238"><ele>137.66666666666666</ele><time>2026-05-01T11:00:17.02Z</time></trkpt><trkpt lat="48.7832828" lon="4.9318965"><ele>137.33333333333331</ele><time>2026-05-01T11:00:18.052Z</time></trkpt><trkpt lat="48.783335" lon="4.9321672"><ele>137.0</ele><time>2026-05-01T11:00:19.02Z</time></trkpt><trkpt lat="48.7833905" lon="4.9324416"><ele>136.33333333333331</ele><time>2026-05-01T11:00:20.015Z</time></trkpt><trkpt lat="48.7834514" lon="4.9327119"><ele>135.66666666666666</ele><time>2026-05-01T11:00:21.019Z</time></trkpt><trkpt lat="48.7835184" lon="4.9329817"><ele>135.0</ele><time>2026-05-01T11:00:22.019Z</time></trkpt><trkpt lat="48.7835878" lon="4.9332474"><ele>136.33333333333334</ele><time>2026-05-01T11:00:23.026Z</time></trkpt><trkpt lat="48.783667" lon="4.9335072"><ele>137.66666666666669</ele><time>2026-05-01T11:00:24.025Z</time></trkpt><trkpt lat="48.7837506" lon="4.9337651"><ele>139.0</ele><time>2026-05-01T11:00:25.025Z</time></trkpt><trkpt lat="48.7838444" lon="4.9340212"><ele>138.0</ele><time>2026-05-01T11:00:26.024Z</time></trkpt><trkpt lat="48.7839379" lon="4.9342803"><ele>137.0</ele><time>2026-05-01T11:00:27.025Z</time></trkpt><trkpt lat="48.7840493" lon="4.934538"><ele>136.0</ele><time>2026-05-01T11:00:28.024Z</time></trkpt><trkpt lat="48.7841589" lon="4.9348009"><ele>135.66666666666669</ele><time>2026-05-01T11:00:29.018Z</time></trkpt><trkpt lat="48.784269" lon="4.9350749"><ele>135.33333333333334</ele><time>2026-05-01T11:00:30.015Z</time></trkpt><trkpt lat="48.7843797" lon="4.9353438"><ele>135.0</ele><time>2026-05-01T11:00:31.019Z</time></trkpt><trkpt lat="48.7844961" lon="4.935614"><ele>136.66666666666666</ele><time>2026-05-01T11:00:32.015Z</time></trkpt><trkpt lat="48.784611" lon="4.9358794"><ele>138.33333333333331</ele><time>2026-05-01T11:00:33.023Z</time></trkpt><trkpt lat="48.784726" lon="4.9361413"><ele>140.0</ele><time>2026-05-01T11:00:34.033Z</time></trkpt><trkpt lat="48.7848431" lon="4.9364101"><ele>140.0</ele><time>2026-05-01T11:00:35.027Z</time></trkpt><trkpt lat="48.7849656" lon="4.9366823"><ele>140.0</ele><time>2026-05-01T11:00:36.015Z</time></trkpt><trkpt lat="48.7850851" lon="4.9369594"><ele>140.0</ele><time>2026-05-01T11:00:37.017Z</time></trkpt><trkpt lat="48.7852031" lon="4.9372371"><ele>140.0</ele><time>2026-05-01T11:00:38.012Z</time></trkpt><trkpt lat="48.7853223" lon="4.9375086"><ele>140.0</ele><time>2026-05-01T11:00:39.017Z</time></trkpt><trkpt lat="48.7854458" lon="4.9377885"><ele>140.0</ele><time>2026-05-01T11:00:40.014Z</time></trkpt><trkpt lat="48.7855641" lon="4.9380681"><ele>140.0</ele><time>2026-05-01T11:00:41.022Z</time></trkpt><trkpt lat="48.7856815" lon="4.9383519"><ele>140.0</ele><time>2026-05-01T11:00:42.027Z</time></trkpt><trkpt lat="48.7858001" lon="4.9386363"><ele>140.0</ele><time>2026-05-01T11:00:43.015Z</time></trkpt><trkpt lat="48.7859205" lon="4.9389218"><ele>139.66666666666666</ele><time>2026-05-01T11:00:44.014Z</time></trkpt><trkpt lat="48.7860409" lon="4.9392088"><ele>139.33333333333334</ele><time>2026-05-01T11:00:45.024Z</time></trkpt><trkpt lat="48.7861601" lon="4.9394908"><ele>139.0</ele><time>2026-05-01T11:00:46.023Z</time></trkpt><trkpt lat="48.7862799" lon="4.9397651"><ele>139.33333333333334</ele><time>2026-05-01T11:00:47.022Z</time></trkpt><trkpt lat="48.7863963" lon="4.9400508"><ele>139.66666666666666</ele><time>2026-05-01T11:00:48.019Z</time></trkpt><trkpt lat="48.7865131" lon="4.9403306"><ele>140.0</ele><time>2026-05-01T11:00:49.023Z</time></trkpt><trkpt lat="48.7866294" lon="4.9406089"><ele>140.0</ele><time>2026-05-01T11:00:50.018Z</time></trkpt><trkpt lat="48.7867488" lon="4.9408908"><ele>140.0</ele><time>2026-05-01T11:00:51.03Z</time></trkpt><trkpt lat="48.7868703" lon="4.9411711"><ele>140.0</ele><time>2026-05-01T11:00:52.013Z</time></trkpt><trkpt lat="48.78699" lon="4.9414489"><ele>141.33333333333331</ele><time>2026-05-01T11:00:53.019Z</time></trkpt><trkpt lat="48.7871119" lon="4.9417301"><ele>142.66666666666666</ele><time>2026-05-01T11:00:54.026Z</time></trkpt><trkpt lat="48.7872283" lon="4.9420098"><ele>144.0</ele><time>2026-05-01T11:00:55.021Z</time></trkpt><trkpt lat="48.7873462" lon="4.9422838"><ele>143.66666666666666</ele><time>2026-05-01T11:00:56.014Z</time></trkpt><trkpt lat="48.787462" lon="4.942563"><ele>143.33333333333331</ele><time>2026-05-01T11:00:57.023Z</time></trkpt><trkpt lat="48.7875777" lon="4.9428456"><ele>143.0</ele><time>2026-05-01T11:00:58.021Z</time></trkpt><trkpt lat="48.7876971" lon="4.9431226"><ele>144.66666666666666</ele><time>2026-05-01T11:00:59.022Z</time></trkpt><trkpt lat="48.7878154" lon="4.9434045"><ele>146.33333333333334</ele><time>2026-05-01T11:01:00.025Z</time></trkpt><trkpt lat="48.7879324" lon="4.9436864"><ele>148.0</ele><time>2026-05-01T11:01:01.021Z</time></trkpt><trkpt lat="48.7880506" lon="4.9439663"><ele>148.33333333333334</ele><time>2026-05-01T11:01:02.02Z</time></trkpt><trkpt lat="48.7881714" lon="4.9442458"><ele>148.66666666666666</ele><time>2026-05-01T11:01:03.023Z</time></trkpt><trkpt lat="48.7882933" lon="4.9445203"><ele>149.0</ele><time>2026-05-01T11:01:04.021Z</time></trkpt><trkpt lat="48.7884144" lon="4.9447947"><ele>149.0</ele><time>2026-05-01T11:01:05.013Z</time></trkpt><trkpt lat="48.7885367" lon="4.94508"><ele>149.0</ele><time>2026-05-01T11:01:06.022Z</time></trkpt><trkpt lat="48.7886613" lon="4.9453699"><ele>149.0</ele><time>2026-05-01T11:01:07.02Z</time></trkpt><trkpt lat="48.7887891" lon="4.9456577"><ele>149.0</ele><time>2026-05-01T11:01:08.01Z</time></trkpt><trkpt lat="48.7889107" lon="4.9459519"><ele>150.0</ele><time>2026-05-01T11:01:09.029Z</time></trkpt><trkpt lat="48.7890322" lon="4.9462366"><ele>151.0</ele><time>2026-05-01T11:01:10.018Z</time></trkpt><trkpt lat="48.7891552" lon="4.9465255"><ele>151.0</ele><time>2026-05-01T11:01:11.024Z</time></trkpt><trkpt lat="48.7892787" lon="4.9468123"><ele>151.0</ele><time>2026-05-01T11:01:12.017Z</time></trkpt><trkpt lat="48.7894025" lon="4.9471005"><ele>151.33333333333334</ele><time>2026-05-01T11:01:13.017Z</time></trkpt><trkpt lat="48.7895216" lon="4.9473885"><ele>151.66666666666666</ele><time>2026-05-01T11:01:14.016Z</time></trkpt><trkpt lat="48.7896386" lon="4.9476649"><ele>152.0</ele><time>2026-05-01T11:01:15.02Z</time></trkpt><trkpt lat="48.7897497" lon="4.947925"><ele>152.0</ele><time>2026-05-01T11:01:16.015Z</time></trkpt><trkpt lat="48.7898542" lon="4.9481679"><ele>152.0</ele><time>2026-05-01T11:01:17.03Z</time></trkpt><trkpt lat="48.7899412" lon="4.9483932"><ele>152.0</ele><time>2026-05-01T11:01:18.025Z</time></trkpt><trkpt lat="48.7900156" lon="4.9486072"><ele>152.0</ele><time>2026-05-01T11:01:19.019Z</time></trkpt><trkpt lat="48.7900813" lon="4.948814"><ele>152.0</ele><time>2026-05-01T11:01:20.031Z</time></trkpt><trkpt lat="48.7901489" lon="4.9490173"><ele>152.0</ele><time>2026-05-01T11:01:21.021Z</time></trkpt><trkpt lat="48.790208" lon="4.9492242"><ele>152.0</ele><time>2026-05-01T11:01:22.019Z</time></trkpt><trkpt lat="48.7902596" lon="4.9494152"><ele>152.0</ele><time>2026-05-01T11:01:23.052Z</time></trkpt><trkpt lat="48.7903075" lon="4.9495998"><ele>152.0</ele><time>2026-05-01T11:01:24.02Z</time></trkpt><trkpt lat="48.7903477" lon="4.9497752"><ele>152.0</ele><time>2026-05-01T11:01:25.015Z</time></trkpt><trkpt lat="48.7903837" lon="4.9499439"><ele>152.25</ele><time>2026-05-01T11:01:26.018Z</time></trkpt><trkpt lat="48.7904241" lon="4.9501186"><ele>152.5</ele><time>2026-05-01T11:01:27.017Z</time></trkpt><trkpt lat="48.7904561" lon="4.9502956"><ele>152.75</ele><time>2026-05-01T11:01:28.012Z</time></trkpt><trkpt lat="48.7904882" lon="4.9504736"><ele>153.0</ele><time>2026-05-01T11:01:29.023Z</time></trkpt><trkpt lat="48.7905186" lon="4.9506566"><ele>153.0</ele><time>2026-05-01T11:01:30.017Z</time></trkpt><trkpt lat="48.7905406" lon="4.9508324"><ele>153.0</ele><time>2026-05-01T11:01:31.02Z</time></trkpt><trkpt lat="48.7905667" lon="4.9510137"><ele>153.0</ele><time>2026-05-01T11:01:32.02Z</time></trkpt><trkpt lat="48.7905915" lon="4.9511873"><ele>153.0</ele><time>2026-05-01T11:01:33.019Z</time></trkpt><trkpt lat="48.7906151" lon="4.9513691"><ele>153.0</ele><time>2026-05-01T11:01:34.015Z</time></trkpt><trkpt lat="48.7906435" lon="4.9515492"><ele>153.0</ele><time>2026-05-01T11:01:35.023Z</time></trkpt><trkpt lat="48.7906704" lon="4.9517267"><ele>153.0</ele><time>2026-05-01T11:01:36.026Z</time></trkpt><trkpt lat="48.7906932" lon="4.9519012"><ele>153.0</ele><time>2026-05-01T11:01:37.016Z</time></trkpt><trkpt lat="48.7907132" lon="4.952084"><ele>153.25</ele><time>2026-05-01T11:01:38.023Z</time></trkpt><trkpt lat="48.7907388" lon="4.9522617"><ele>153.5</ele><time>2026-05-01T11:01:39.028Z</time></trkpt><trkpt lat="48.7907663" lon="4.9524399"><ele>153.75</ele><time>2026-05-01T11:01:40.018Z</time></trkpt><trkpt lat="48.7907928" lon="4.9526153"><ele>154.0</ele><time>2026-05-01T11:01:41.009Z</time></trkpt><trkpt lat="48.7908222" lon="4.9527893"><ele>154.0</ele><time>2026-05-01T11:01:42.033Z</time></trkpt><trkpt lat="48.7908493" lon="4.9529709"><ele>154.0</ele><time>2026-05-01T11:01:43.024Z</time></trkpt><trkpt lat="48.7908825" lon="4.9531472"><ele>154.0</ele><time>2026-05-01T11:01:44.017Z</time></trkpt><trkpt lat="48.7909115" lon="4.9533292"><ele>154.0</ele><time>2026-05-01T11:01:45.045Z</time></trkpt><trkpt lat="48.7909406" lon="4.9535138"><ele>154.0</ele><time>2026-05-01T11:01:46.026Z</time></trkpt><trkpt lat="48.7909688" lon="4.9536893"><ele>154.0</ele><time>2026-05-01T11:01:47.016Z</time></trkpt><trkpt lat="48.7909968" lon="4.9538586"><ele>154.0</ele><time>2026-05-01T11:01:48.021Z</time></trkpt><trkpt lat="48.7910213" lon="4.9540267"><ele>154.0</ele><time>2026-05-01T11:01:49.022Z</time></trkpt><trkpt lat="48.7910487" lon="4.9541985"><ele>152.75</ele><time>2026-05-01T11:01:50.017Z</time></trkpt><trkpt lat="48.7910768" lon="4.9543719"><ele>151.5</ele><time>2026-05-01T11:01:51.024Z</time></trkpt><trkpt lat="48.7911037" lon="4.9545442"><ele>150.25</ele><time>2026-05-01T11:01:52.022Z</time></trkpt><trkpt lat="48.7911292" lon="4.9547155"><ele>149.0</ele><time>2026-05-01T11:01:53.024Z</time></trkpt><trkpt lat="48.7911549" lon="4.9548768"><ele>149.0</ele><time>2026-05-01T11:01:54.02Z</time></trkpt><trkpt lat="48.7911783" lon="4.9550278"><ele>149.0</ele><time>2026-05-01T11:01:55.018Z</time></trkpt><trkpt lat="48.7912024" lon="4.9551851"><ele>149.0</ele><time>2026-05-01T11:01:56.023Z</time></trkpt><trkpt lat="48.7912281" lon="4.9553523"><ele>149.0</ele><time>2026-05-01T11:01:57.021Z</time></trkpt><trkpt lat="48.7912628" lon="4.9555148"><ele>149.0</ele><time>2026-05-01T11:01:58.033Z</time></trkpt><trkpt lat="48.7913071" lon="4.9556764"><ele>149.5</ele><time>2026-05-01T11:01:59.021Z</time></trkpt><trkpt lat="48.7913616" lon="4.9558328"><ele>150.0</ele><time>2026-05-01T11:02:00.018Z</time></trkpt><trkpt lat="48.7914208" lon="4.9559796"><ele>150.5</ele><time>2026-05-01T11:02:01.017Z</time></trkpt><trkpt lat="48.7914904" lon="4.9561272"><ele>151.0</ele><time>2026-05-01T11:02:02.014Z</time></trkpt><trkpt lat="48.7915665" lon="4.9562771"><ele>151.0</ele><time>2026-05-01T11:02:03.025Z</time></trkpt><trkpt lat="48.7916415" lon="4.9564214"><ele>151.0</ele><time>2026-05-01T11:02:04.02Z</time></trkpt><trkpt lat="48.791719" lon="4.956571"><ele>151.0</ele><time>2026-05-01T11:02:05.025Z</time></trkpt><trkpt lat="48.7917992" lon="4.9567339"><ele>151.0</ele><time>2026-05-01T11:02:06.038Z</time></trkpt><trkpt lat="48.7918754" lon="4.9568892"><ele>150.75</ele><time>2026-05-01T11:02:07.021Z</time></trkpt><trkpt lat="48.7919571" lon="4.9570391"><ele>150.5</ele><time>2026-05-01T11:02:08.019Z</time></trkpt><trkpt lat="48.7920414" lon="4.9571992"><ele>150.25</ele><time>2026-05-01T11:02:09.023Z</time></trkpt><trkpt lat="48.7921197" lon="4.9573456"><ele>150.0</ele><time>2026-05-01T11:02:10.02Z</time></trkpt><trkpt lat="48.7921968" lon="4.9574829"><ele>150.0</ele><time>2026-05-01T11:02:11.018Z</time></trkpt><trkpt lat="48.7922706" lon="4.9576209"><ele>150.0</ele><time>2026-05-01T11:02:12.015Z</time></trkpt><trkpt lat="48.7923395" lon="4.957756"><ele>150.0</ele><time>2026-05-01T11:02:13.035Z</time></trkpt><trkpt lat="48.7924011" lon="4.957893"><ele>150.0</ele><time>2026-05-01T11:02:14.029Z</time></trkpt><trkpt lat="48.7924617" lon="4.9580298"><ele>150.0</ele><time>2026-05-01T11:02:15.016Z</time></trkpt><trkpt lat="48.7925121" lon="4.9581953"><ele>150.0</ele><time>2026-05-01T11:02:16.027Z</time></trkpt><trkpt lat="48.792544" lon="4.9583605"><ele>150.0</ele><time>2026-05-01T11:02:17.017Z</time></trkpt><trkpt lat="48.7925769" lon="4.9585272"><ele>150.0</ele><time>2026-05-01T11:02:18.017Z</time></trkpt><trkpt lat="48.792608" lon="4.9587036"><ele>150.0</ele><time>2026-05-01T11:02:19.023Z</time></trkpt><trkpt lat="48.7926375" lon="4.958883"><ele>150.0</ele><time>2026-05-01T11:02:20.022Z</time></trkpt><trkpt lat="48.7926673" lon="4.959073"><ele>150.0</ele><time>2026-05-01T11:02:21.016Z</time></trkpt><trkpt lat="48.7926962" lon="4.9592572"><ele>150.0</ele><time>2026-05-01T11:02:22.016Z</time></trkpt><trkpt lat="48.7927261" lon="4.9594532"><ele>150.0</ele><time>2026-05-01T11:02:23.014Z</time></trkpt><trkpt lat="48.7927586" lon="4.9596397"><ele>149.5</ele><time>2026-05-01T11:02:24.029Z</time></trkpt><trkpt lat="48.7927989" lon="4.9598172"><ele>149.0</ele><time>2026-05-01T11:02:25.012Z</time></trkpt><trkpt lat="48.7928487" lon="4.9599873"><ele>148.5</ele><time>2026-05-01T11:02:26.028Z</time></trkpt><trkpt lat="48.7929053" lon="4.9601557"><ele>148.0</ele><time>2026-05-01T11:02:27.024Z</time></trkpt><trkpt lat="48.7929732" lon="4.9603143"><ele>147.25</ele><time>2026-05-01T11:02:28.04Z</time></trkpt><trkpt lat="48.7930599" lon="4.9604681"><ele>146.5</ele><time>2026-05-01T11:02:29.018Z</time></trkpt><trkpt lat="48.7931639" lon="4.9606108"><ele>145.75</ele><time>2026-05-01T11:02:30.019Z</time></trkpt><trkpt lat="48.7932751" lon="4.960731"><ele>145.0</ele><time>2026-05-01T11:02:31.023Z</time></trkpt><trkpt lat="48.7934031" lon="4.9608456"><ele>143.66666666666669</ele><time>2026-05-01T11:02:32.015Z</time></trkpt><trkpt lat="48.7935474" lon="4.9609372"><ele>142.33333333333334</ele><time>2026-05-01T11:02:33.018Z</time></trkpt><trkpt lat="48.7937076" lon="4.9610168"><ele>141.0</ele><time>2026-05-01T11:02:34.024Z</time></trkpt><trkpt lat="48.793879" lon="4.9610545"><ele>141.0</ele><time>2026-05-01T11:02:35.019Z</time></trkpt><trkpt lat="48.7940554" lon="4.9610601"><ele>141.0</ele><time>2026-05-01T11:02:36.03Z</time></trkpt><trkpt lat="48.7942419" lon="4.9610395"><ele>141.0</ele><time>2026-05-01T11:02:37.017Z</time></trkpt><trkpt lat="48.794425" lon="4.9609959"><ele>139.33333333333334</ele><time>2026-05-01T11:02:38.013Z</time></trkpt><trkpt lat="48.7946048" lon="4.960934"><ele>137.66666666666669</ele><time>2026-05-01T11:02:39.018Z</time></trkpt><trkpt lat="48.7947694" lon="4.9608574"><ele>136.0</ele><time>2026-05-01T11:02:40.025Z</time></trkpt><trkpt lat="48.7949285" lon="4.9607782"><ele>135.66666666666669</ele><time>2026-05-01T11:02:41.018Z</time></trkpt><trkpt lat="48.7950794" lon="4.9606877"><ele>135.33333333333334</ele><time>2026-05-01T11:02:42.015Z</time></trkpt><trkpt lat="48.7952309" lon="4.9605904"><ele>135.0</ele><time>2026-05-01T11:02:43.023Z</time></trkpt><trkpt lat="48.7953899" lon="4.9604929"><ele>134.33333333333334</ele><time>2026-05-01T11:02:44.027Z</time></trkpt><trkpt lat="48.795548" lon="4.9603906"><ele>133.66666666666669</ele><time>2026-05-01T11:02:45.04Z</time></trkpt><trkpt lat="48.7957008" lon="4.960281"><ele>133.0</ele><time>2026-05-01T11:02:46.02Z</time></trkpt><trkpt lat="48.7958504" lon="4.9601608"><ele>133.0</ele><time>2026-05-01T11:02:47.014Z</time></trkpt><trkpt lat="48.7959975" lon="4.9600541"><ele>133.0</ele><time>2026-05-01T11:02:48.021Z</time></trkpt><trkpt lat="48.7961343" lon="4.9599443"><ele>133.0</ele><time>2026-05-01T11:02:49.028Z</time></trkpt><trkpt lat="48.7962805" lon="4.9598421"><ele>132.66666666666669</ele><time>2026-05-01T11:02:50.01Z</time></trkpt><trkpt lat="48.7964288" lon="4.9597574"><ele>132.33333333333334</ele><time>2026-05-01T11:02:51.059Z</time></trkpt><trkpt lat="48.7965787" lon="4.9596816"><ele>132.0</ele><time>2026-05-01T11:02:52.016Z</time></trkpt><trkpt lat="48.7967206" lon="4.959616"><ele>132.0</ele><time>2026-05-01T11:02:53.014Z</time></trkpt><trkpt lat="48.7968705" lon="4.9595558"><ele>132.0</ele><time>2026-05-01T11:02:54.038Z</time></trkpt><trkpt lat="48.7970246" lon="4.9595039"><ele>132.0</ele><time>2026-05-01T11:02:55.026Z</time></trkpt><trkpt lat="48.7971768" lon="4.959453"><ele>132.0</ele><time>2026-05-01T11:02:56.024Z</time></trkpt><trkpt lat="48.7973137" lon="4.9594047"><ele>132.0</ele><time>2026-05-01T11:02:57.035Z</time></trkpt><trkpt lat="48.7974502" lon="4.9593557"><ele>132.0</ele><time>2026-05-01T11:02:58.015Z</time></trkpt><trkpt lat="48.7975832" lon="4.9592953"><ele>132.0</ele><time>2026-05-01T11:02:59.023Z</time></trkpt><trkpt lat="48.7977242" lon="4.9592395"><ele>132.0</ele><time>2026-05-01T11:03:00.05Z</time></trkpt><trkpt lat="48.7978535" lon="4.959206"><ele>132.0</ele><time>2026-05-01T11:03:01.035Z</time></trkpt><trkpt lat="48.7979585" lon="4.9591807"><ele>132.0</ele><time>2026-05-01T11:03:02.024Z</time></trkpt><trkpt lat="48.7980559" lon="4.959162"><ele>132.0</ele><time>2026-05-01T11:03:04.021Z</time></trkpt><trkpt lat="48.7981588" lon="4.9591373"><ele>132.0</ele><time>2026-05-01T11:03:07.026Z</time></trkpt><trkpt lat="48.798241" lon="4.9591251"><ele>132.0</ele><time>2026-05-01T11:03:08.03Z</time></trkpt><trkpt lat="48.7983185" lon="4.959118"><ele>132.0</ele><time>2026-05-01T11:03:09.058Z</time></trkpt><trkpt lat="48.798407" lon="4.9591164"><ele>132.0</ele><time>2026-05-01T11:03:10.018Z</time></trkpt><trkpt lat="48.7984797" lon="4.9591186"><ele>132.0</ele><time>2026-05-01T11:03:11.019Z</time></trkpt><trkpt lat="48.7985463" lon="4.9591208"><ele>132.0</ele><time>2026-05-01T11:03:12.015Z</time></trkpt><trkpt lat="48.7986416" lon="4.9591192"><ele>132.0</ele><time>2026-05-01T11:03:14.019Z</time></trkpt><trkpt lat="48.7987245" lon="4.9591"><ele>132.0</ele><time>2026-05-01T11:03:18.017Z</time></trkpt><trkpt lat="48.798755" lon="4.9589586"><ele>132.0</ele><time>2026-05-01T11:03:20.036Z</time></trkpt><trkpt lat="48.798799" lon="4.9587991"><ele>132.0</ele><time>2026-05-01T11:03:22.025Z</time></trkpt><trkpt lat="48.7988838" lon="4.9586658"><ele>132.0</ele><time>2026-05-01T11:03:24.021Z</time></trkpt><trkpt lat="48.7989443" lon="4.9586156"><ele>132.0</ele><time>2026-05-01T11:03:25.018Z</time></trkpt><trkpt lat="48.7990117" lon="4.958564"><ele>132.0</ele><time>2026-05-01T11:03:26.02Z</time></trkpt><trkpt lat="48.7990761" lon="4.9585026"><ele>132.0</ele><time>2026-05-01T11:03:27.019Z</time></trkpt><trkpt lat="48.79914" lon="4.9584458"><ele>132.0</ele><time>2026-05-01T11:03:28.024Z</time></trkpt><trkpt lat="48.799201" lon="4.9583769"><ele>132.0</ele><time>2026-05-01T11:03:29.025Z</time></trkpt><trkpt lat="48.7992684" lon="4.9583138"><ele>132.0</ele><time>2026-05-01T11:03:30.018Z</time></trkpt><trkpt lat="48.7993332" lon="4.9582524"><ele>132.0</ele><time>2026-05-01T11:03:31.017Z</time></trkpt><trkpt lat="48.7994036" lon="4.9581892"><ele>132.33333333333334</ele><time>2026-05-01T11:03:32.024Z</time></trkpt><trkpt lat="48.7994677" lon="4.9581316"><ele>132.66666666666666</ele><time>2026-05-01T11:03:33.018Z</time></trkpt><trkpt lat="48.7995301" lon="4.9580697"><ele>133.0</ele><time>2026-05-01T11:03:34.029Z</time></trkpt><trkpt lat="48.7995955" lon="4.958012"><ele>133.33333333333331</ele><time>2026-05-01T11:03:35.019Z</time></trkpt><trkpt lat="48.7996659" lon="4.9579608"><ele>133.66666666666666</ele><time>2026-05-01T11:03:36.016Z</time></trkpt><trkpt lat="48.799726" lon="4.9579098"><ele>134.0</ele><time>2026-05-01T11:03:37.02Z</time></trkpt><trkpt lat="48.7998226" lon="4.9578231"><ele>134.0</ele><time>2026-05-01T11:03:39.021Z</time></trkpt><trkpt lat="48.7998773" lon="4.9577641"><ele>134.0</ele><time>2026-05-01T11:03:40.023Z</time></trkpt><trkpt lat="48.7999429" lon="4.957707"><ele>134.0</ele><time>2026-05-01T11:03:41.02Z</time></trkpt><trkpt lat="48.8000125" lon="4.9576475"><ele>134.0</ele><time>2026-05-01T11:03:42.025Z</time></trkpt><trkpt lat="48.8000765" lon="4.9575906"><ele>134.0</ele><time>2026-05-01T11:03:43.024Z</time></trkpt><trkpt lat="48.800138" lon="4.9575353"><ele>134.0</ele><time>2026-05-01T11:03:44.013Z</time></trkpt><trkpt lat="48.8001964" lon="4.9574755"><ele>134.0</ele><time>2026-05-01T11:03:45.018Z</time></trkpt><trkpt lat="48.8002819" lon="4.9573721"><ele>133.0</ele><time>2026-05-01T11:03:47.024Z</time></trkpt><trkpt lat="48.8003447" lon="4.9573012"><ele>133.0</ele><time>2026-05-01T11:03:49.016Z</time></trkpt><trkpt lat="48.800433" lon="4.9572769"><ele>133.0</ele><time>2026-05-01T11:03:52.016Z</time></trkpt><trkpt lat="48.8004974" lon="4.9572753"><ele>133.0</ele><time>2026-05-01T11:03:54.021Z</time></trkpt><trkpt lat="48.8005703" lon="4.9572064"><ele>133.0</ele><time>2026-05-01T11:03:57.027Z</time></trkpt><trkpt lat="48.8005875" lon="4.957113"><ele>133.0</ele><time>2026-05-01T11:04:00.017Z</time></trkpt></trkseg></trk></gpx>